<?xml version="1.0" encoding="UTF-8" standalone="no" ?>
<gpx xmlns="http://www.topografix.com/GPX/1/1" xmlns:xsi="http://www.w3.org/2001/XMLSchema-instance" xsi:schemaLocation="http://www.topografix.com/GPX/1/1 http://www.topografix.com/GPX/1/1/gpx.xsd" version="1.1" creator="VisuGPX - https://www.visugpx.com">
  <metadata>
    <name>20150824 Vallonbrun Plan du lac</name>
    <desc><![CDATA[Etape 7 du GR5]]></desc>
  </metadata>
  <trk>
    <name><![CDATA[20150824 Vallonbrun Plan du lac_1]]></name>
    <trkseg>
      <trkpt lat="45.31015" lon="6.93751">
        <ele>2290.8</ele>
        <time>2015-08-24T07:42:38Z</time>
      </trkpt>
      <trkpt lat="45.3102" lon="6.93743">
        <ele>2290.8</ele>
        <time>2015-08-24T07:42:43Z</time>
      </trkpt>
      <trkpt lat="45.31015" lon="6.93746">
        <ele>2267.1501</ele>
        <time>2015-08-24T07:43:08Z</time>
      </trkpt>
      <trkpt lat="45.31015" lon="6.93746">
        <ele>2267.1501</ele>
        <time>2015-08-24T07:43:13Z</time>
      </trkpt>
      <trkpt lat="45.31014" lon="6.93744">
        <ele>2267.1501</ele>
        <time>2015-08-24T07:43:23Z</time>
      </trkpt>
      <trkpt lat="45.31016" lon="6.93744">
        <ele>2267.1501</ele>
        <time>2015-08-24T07:43:28Z</time>
      </trkpt>
      <trkpt lat="45.31026" lon="6.93736">
        <ele>2279.8914</ele>
        <time>2015-08-24T07:43:38Z</time>
      </trkpt>
      <trkpt lat="45.31029" lon="6.93735">
        <ele>2279.8914</ele>
        <time>2015-08-24T07:43:43Z</time>
      </trkpt>
      <trkpt lat="45.31044" lon="6.93737">
        <ele>2291.708</ele>
        <time>2015-08-24T07:43:53Z</time>
      </trkpt>
      <trkpt lat="45.31049" lon="6.93744">
        <ele>2291.708</ele>
        <time>2015-08-24T07:43:58Z</time>
      </trkpt>
      <trkpt lat="45.31056" lon="6.93752">
        <ele>2303.3643</ele>
        <time>2015-08-24T07:44:08Z</time>
      </trkpt>
      <trkpt lat="45.31059" lon="6.93754">
        <ele>2303.3643</ele>
        <time>2015-08-24T07:44:13Z</time>
      </trkpt>
      <trkpt lat="45.31065" lon="6.93755">
        <ele>2314.3743</ele>
        <time>2015-08-24T07:44:23Z</time>
      </trkpt>
      <trkpt lat="45.31066" lon="6.93756">
        <ele>2314.3743</ele>
        <time>2015-08-24T07:44:28Z</time>
      </trkpt>
      <trkpt lat="45.31067" lon="6.93752">
        <ele>2314.3743</ele>
        <time>2015-08-24T07:44:43Z</time>
      </trkpt>
      <trkpt lat="45.31064" lon="6.9375">
        <ele>2314.3743</ele>
        <time>2015-08-24T07:44:48Z</time>
      </trkpt>
      <trkpt lat="45.31064" lon="6.9375">
        <ele>2314.3743</ele>
        <time>2015-08-24T07:44:58Z</time>
      </trkpt>
      <trkpt lat="45.31062" lon="6.93748">
        <ele>2325.3108</ele>
        <time>2015-08-24T07:45:03Z</time>
      </trkpt>
      <trkpt lat="45.31062" lon="6.93751">
        <ele>2325.3108</ele>
        <time>2015-08-24T07:45:13Z</time>
      </trkpt>
      <trkpt lat="45.31061" lon="6.93751">
        <ele>2325.3108</ele>
        <time>2015-08-24T07:45:18Z</time>
      </trkpt>
      <trkpt lat="45.31062" lon="6.93749">
        <ele>2325.3108</ele>
        <time>2015-08-24T07:45:28Z</time>
      </trkpt>
      <trkpt lat="45.31062" lon="6.93749">
        <ele>2325.3108</ele>
        <time>2015-08-24T07:45:33Z</time>
      </trkpt>
      <trkpt lat="45.31063" lon="6.93747">
        <ele>2325.3108</ele>
        <time>2015-08-24T07:45:43Z</time>
      </trkpt>
      <trkpt lat="45.31063" lon="6.93749">
        <ele>2325.3108</ele>
        <time>2015-08-24T07:45:48Z</time>
      </trkpt>
      <trkpt lat="45.31064" lon="6.93752">
        <ele>2334.8862</ele>
        <time>2015-08-24T07:45:58Z</time>
      </trkpt>
      <trkpt lat="45.31065" lon="6.93753">
        <ele>2334.8862</ele>
        <time>2015-08-24T07:46:03Z</time>
      </trkpt>
      <trkpt lat="45.31066" lon="6.93749">
        <ele>2334.8862</ele>
        <time>2015-08-24T07:46:13Z</time>
      </trkpt>
      <trkpt lat="45.31066" lon="6.93749">
        <ele>2334.8862</ele>
        <time>2015-08-24T07:46:18Z</time>
      </trkpt>
      <trkpt lat="45.31068" lon="6.93752">
        <ele>2334.8862</ele>
        <time>2015-08-24T07:46:33Z</time>
      </trkpt>
      <trkpt lat="45.31068" lon="6.93753">
        <ele>2334.8862</ele>
        <time>2015-08-24T07:46:38Z</time>
      </trkpt>
      <trkpt lat="45.3107" lon="6.93755">
        <ele>2343.0251</ele>
        <time>2015-08-24T07:46:48Z</time>
      </trkpt>
      <trkpt lat="45.31069" lon="6.93755">
        <ele>2343.0251</ele>
        <time>2015-08-24T07:46:53Z</time>
      </trkpt>
      <trkpt lat="45.31068" lon="6.93755">
        <ele>2343.0251</ele>
        <time>2015-08-24T07:47:03Z</time>
      </trkpt>
      <trkpt lat="45.31068" lon="6.93755">
        <ele>2343.0251</ele>
        <time>2015-08-24T07:48:23Z</time>
      </trkpt>
      <trkpt lat="45.31068" lon="6.93755">
        <ele>2343.0251</ele>
        <time>2015-08-24T07:48:38Z</time>
      </trkpt>
      <trkpt lat="45.3107" lon="6.93754">
        <ele>2343.0251</ele>
        <time>2015-08-24T07:48:58Z</time>
      </trkpt>
      <trkpt lat="45.31074" lon="6.93754">
        <ele>2349.332</ele>
        <time>2015-08-24T07:49:08Z</time>
      </trkpt>
      <trkpt lat="45.31078" lon="6.93753">
        <ele>2349.332</ele>
        <time>2015-08-24T07:49:13Z</time>
      </trkpt>
      <trkpt lat="45.31083" lon="6.93753">
        <ele>2349.332</ele>
        <time>2015-08-24T07:49:23Z</time>
      </trkpt>
      <trkpt lat="45.31085" lon="6.93754">
        <ele>2353.9397</ele>
        <time>2015-08-24T07:49:28Z</time>
      </trkpt>
      <trkpt lat="45.31088" lon="6.93753">
        <ele>2353.9397</ele>
        <time>2015-08-24T07:49:38Z</time>
      </trkpt>
      <trkpt lat="45.31091" lon="6.93751">
        <ele>2353.9397</ele>
        <time>2015-08-24T07:49:43Z</time>
      </trkpt>
      <trkpt lat="45.31097" lon="6.93749">
        <ele>2357.0916</ele>
        <time>2015-08-24T07:49:53Z</time>
      </trkpt>
      <trkpt lat="45.31098" lon="6.93749">
        <ele>2357.0916</ele>
        <time>2015-08-24T07:49:58Z</time>
      </trkpt>
      <trkpt lat="45.31101" lon="6.93749">
        <ele>2357.0916</ele>
        <time>2015-08-24T07:50:08Z</time>
      </trkpt>
      <trkpt lat="45.31104" lon="6.93749">
        <ele>2357.0916</ele>
        <time>2015-08-24T07:50:13Z</time>
      </trkpt>
      <trkpt lat="45.31109" lon="6.93747">
        <ele>2358.9775</ele>
        <time>2015-08-24T07:50:23Z</time>
      </trkpt>
      <trkpt lat="45.31111" lon="6.93746">
        <ele>2358.9775</ele>
        <time>2015-08-24T07:50:28Z</time>
      </trkpt>
      <trkpt lat="45.31115" lon="6.93746">
        <ele>2358.9775</ele>
        <time>2015-08-24T07:50:38Z</time>
      </trkpt>
      <trkpt lat="45.31118" lon="6.93746">
        <ele>2359.7583</ele>
        <time>2015-08-24T07:50:43Z</time>
      </trkpt>
      <trkpt lat="45.31126" lon="6.93745">
        <ele>2359.7583</ele>
        <time>2015-08-24T07:50:58Z</time>
      </trkpt>
      <trkpt lat="45.31129" lon="6.93746">
        <ele>2359.8875</ele>
        <time>2015-08-24T07:51:03Z</time>
      </trkpt>
      <trkpt lat="45.31134" lon="6.93748">
        <ele>2359.8875</ele>
        <time>2015-08-24T07:51:13Z</time>
      </trkpt>
      <trkpt lat="45.31135" lon="6.93749">
        <ele>2359.8875</ele>
        <time>2015-08-24T07:51:18Z</time>
      </trkpt>
      <trkpt lat="45.31138" lon="6.93752">
        <ele>2359.5227</ele>
        <time>2015-08-24T07:51:28Z</time>
      </trkpt>
      <trkpt lat="45.3114" lon="6.93749">
        <ele>2359.5227</ele>
        <time>2015-08-24T07:51:33Z</time>
      </trkpt>
      <trkpt lat="45.31141" lon="6.93746">
        <ele>2359.5227</ele>
        <time>2015-08-24T07:51:43Z</time>
      </trkpt>
      <trkpt lat="45.3114" lon="6.93743">
        <ele>2359.5227</ele>
        <time>2015-08-24T07:51:48Z</time>
      </trkpt>
      <trkpt lat="45.31143" lon="6.93742">
        <ele>2358.4707</ele>
        <time>2015-08-24T07:51:58Z</time>
      </trkpt>
      <trkpt lat="45.31143" lon="6.93741">
        <ele>2358.4707</ele>
        <time>2015-08-24T07:52:03Z</time>
      </trkpt>
      <trkpt lat="45.31145" lon="6.93736">
        <ele>2358.4707</ele>
        <time>2015-08-24T07:52:13Z</time>
      </trkpt>
      <trkpt lat="45.31148" lon="6.93735">
        <ele>2358.4707</ele>
        <time>2015-08-24T07:52:18Z</time>
      </trkpt>
      <trkpt lat="45.31151" lon="6.93734">
        <ele>2357.5115</ele>
        <time>2015-08-24T07:52:28Z</time>
      </trkpt>
      <trkpt lat="45.31151" lon="6.93735">
        <ele>2357.5115</ele>
        <time>2015-08-24T07:52:33Z</time>
      </trkpt>
      <trkpt lat="45.31156" lon="6.93733">
        <ele>2357.5115</ele>
        <time>2015-08-24T07:52:43Z</time>
      </trkpt>
      <trkpt lat="45.31155" lon="6.9373">
        <ele>2357.5115</ele>
        <time>2015-08-24T07:52:48Z</time>
      </trkpt>
      <trkpt lat="45.31155" lon="6.93724">
        <ele>2356.266</ele>
        <time>2015-08-24T07:52:58Z</time>
      </trkpt>
      <trkpt lat="45.31155" lon="6.93721">
        <ele>2356.266</ele>
        <time>2015-08-24T07:53:03Z</time>
      </trkpt>
      <trkpt lat="45.31153" lon="6.93724">
        <ele>2356.266</ele>
        <time>2015-08-24T07:53:18Z</time>
      </trkpt>
      <trkpt lat="45.31154" lon="6.9372">
        <ele>2356.266</ele>
        <time>2015-08-24T07:53:23Z</time>
      </trkpt>
      <trkpt lat="45.31155" lon="6.93718">
        <ele>2355.2124</ele>
        <time>2015-08-24T07:53:33Z</time>
      </trkpt>
      <trkpt lat="45.31155" lon="6.93723">
        <ele>2355.2124</ele>
        <time>2015-08-24T07:53:38Z</time>
      </trkpt>
      <trkpt lat="45.31158" lon="6.93726">
        <ele>2355.2124</ele>
        <time>2015-08-24T07:53:48Z</time>
      </trkpt>
      <trkpt lat="45.31157" lon="6.93724">
        <ele>2353.8552</ele>
        <time>2015-08-24T07:53:53Z</time>
      </trkpt>
      <trkpt lat="45.31154" lon="6.93723">
        <ele>2353.8552</ele>
        <time>2015-08-24T07:54:03Z</time>
      </trkpt>
      <trkpt lat="45.31154" lon="6.93725">
        <ele>2353.8552</ele>
        <time>2015-08-24T07:54:08Z</time>
      </trkpt>
      <trkpt lat="45.31156" lon="6.93725">
        <ele>2353.8552</ele>
        <time>2015-08-24T07:54:18Z</time>
      </trkpt>
      <trkpt lat="45.31155" lon="6.93722">
        <ele>2353.8552</ele>
        <time>2015-08-24T07:54:23Z</time>
      </trkpt>
      <trkpt lat="45.31154" lon="6.93713">
        <ele>2352.4148</ele>
        <time>2015-08-24T07:54:33Z</time>
      </trkpt>
      <trkpt lat="45.31154" lon="6.9371">
        <ele>2352.4148</ele>
        <time>2015-08-24T07:54:38Z</time>
      </trkpt>
      <trkpt lat="45.31154" lon="6.93703">
        <ele>2352.4148</ele>
        <time>2015-08-24T07:54:48Z</time>
      </trkpt>
      <trkpt lat="45.31155" lon="6.93698">
        <ele>2350.9956</ele>
        <time>2015-08-24T07:54:53Z</time>
      </trkpt>
      <trkpt lat="45.31157" lon="6.93689">
        <ele>2350.9956</ele>
        <time>2015-08-24T07:55:03Z</time>
      </trkpt>
      <trkpt lat="45.31155" lon="6.93685">
        <ele>2349.7078</ele>
        <time>2015-08-24T07:55:08Z</time>
      </trkpt>
      <trkpt lat="45.31157" lon="6.9368">
        <ele>2349.7078</ele>
        <time>2015-08-24T07:55:18Z</time>
      </trkpt>
      <trkpt lat="45.31158" lon="6.93676">
        <ele>2349.7078</ele>
        <time>2015-08-24T07:55:23Z</time>
      </trkpt>
      <trkpt lat="45.3116" lon="6.93665">
        <ele>2348.6992</ele>
        <time>2015-08-24T07:55:38Z</time>
      </trkpt>
      <trkpt lat="45.3116" lon="6.93664">
        <ele>2348.6992</ele>
        <time>2015-08-24T07:55:43Z</time>
      </trkpt>
      <trkpt lat="45.31163" lon="6.93665">
        <ele>2348.6992</ele>
        <time>2015-08-24T07:55:53Z</time>
      </trkpt>
      <trkpt lat="45.31163" lon="6.93664">
        <ele>2348.6992</ele>
        <time>2015-08-24T07:55:58Z</time>
      </trkpt>
      <trkpt lat="45.31163" lon="6.93662">
        <ele>2348.6992</ele>
        <time>2015-08-24T07:56:08Z</time>
      </trkpt>
      <trkpt lat="45.31163" lon="6.93662">
        <ele>2348.6992</ele>
        <time>2015-08-24T07:56:13Z</time>
      </trkpt>
      <trkpt lat="45.31163" lon="6.93665">
        <ele>2347.8599</ele>
        <time>2015-08-24T07:56:23Z</time>
      </trkpt>
      <trkpt lat="45.31163" lon="6.93665">
        <ele>2347.8599</ele>
        <time>2015-08-24T07:56:28Z</time>
      </trkpt>
      <trkpt lat="45.31163" lon="6.93665">
        <ele>2347.8599</ele>
        <time>2015-08-24T07:57:13Z</time>
      </trkpt>
      <trkpt lat="45.31163" lon="6.93665">
        <ele>2347.8599</ele>
        <time>2015-08-24T07:57:23Z</time>
      </trkpt>
      <trkpt lat="45.31162" lon="6.93665">
        <ele>2347.8599</ele>
        <time>2015-08-24T07:57:48Z</time>
      </trkpt>
      <trkpt lat="45.31162" lon="6.93669">
        <ele>2347.8599</ele>
        <time>2015-08-24T07:57:53Z</time>
      </trkpt>
      <trkpt lat="45.31159" lon="6.93677">
        <ele>2346.8718</ele>
        <time>2015-08-24T07:57:58Z</time>
      </trkpt>
      <trkpt lat="45.31157" lon="6.93694">
        <ele>2345.5928</ele>
        <time>2015-08-24T07:58:08Z</time>
      </trkpt>
      <trkpt lat="45.31157" lon="6.93702">
        <ele>2345.5928</ele>
        <time>2015-08-24T07:58:13Z</time>
      </trkpt>
      <trkpt lat="45.31157" lon="6.93714">
        <ele>2343.8362</ele>
        <time>2015-08-24T07:58:23Z</time>
      </trkpt>
      <trkpt lat="45.31156" lon="6.9372">
        <ele>2343.8362</ele>
        <time>2015-08-24T07:58:28Z</time>
      </trkpt>
      <trkpt lat="45.3115" lon="6.93732">
        <ele>2341.5715</ele>
        <time>2015-08-24T07:58:38Z</time>
      </trkpt>
      <trkpt lat="45.31148" lon="6.93735">
        <ele>2341.5715</ele>
        <time>2015-08-24T07:58:43Z</time>
      </trkpt>
      <trkpt lat="45.31135" lon="6.93744">
        <ele>2339.1174</ele>
        <time>2015-08-24T07:58:53Z</time>
      </trkpt>
      <trkpt lat="45.31132" lon="6.93741">
        <ele>2339.1174</ele>
        <time>2015-08-24T07:58:58Z</time>
      </trkpt>
      <trkpt lat="45.31132" lon="6.9374">
        <ele>2339.1174</ele>
        <time>2015-08-24T07:59:08Z</time>
      </trkpt>
      <trkpt lat="45.31131" lon="6.93736">
        <ele>2339.1174</ele>
        <time>2015-08-24T07:59:13Z</time>
      </trkpt>
      <trkpt lat="45.31132" lon="6.93713">
        <ele>2336.1797</ele>
        <time>2015-08-24T07:59:28Z</time>
      </trkpt>
      <trkpt lat="45.31133" lon="6.93707">
        <ele>2336.1797</ele>
        <time>2015-08-24T07:59:33Z</time>
      </trkpt>
      <trkpt lat="45.31129" lon="6.93693">
        <ele>2333.1267</ele>
        <time>2015-08-24T07:59:43Z</time>
      </trkpt>
      <trkpt lat="45.31129" lon="6.93682">
        <ele>2333.1267</ele>
        <time>2015-08-24T07:59:48Z</time>
      </trkpt>
      <trkpt lat="45.31124" lon="6.93671">
        <ele>2330.0503</ele>
        <time>2015-08-24T07:59:58Z</time>
      </trkpt>
      <trkpt lat="45.31125" lon="6.93663">
        <ele>2330.0503</ele>
        <time>2015-08-24T08:00:03Z</time>
      </trkpt>
      <trkpt lat="45.31126" lon="6.93662">
        <ele>2330.0503</ele>
        <time>2015-08-24T08:00:13Z</time>
      </trkpt>
      <trkpt lat="45.31127" lon="6.93662">
        <ele>2330.0503</ele>
        <time>2015-08-24T08:00:18Z</time>
      </trkpt>
      <trkpt lat="45.31127" lon="6.93667">
        <ele>2326.9143</ele>
        <time>2015-08-24T08:00:28Z</time>
      </trkpt>
      <trkpt lat="45.31128" lon="6.93668">
        <ele>2326.9143</ele>
        <time>2015-08-24T08:00:33Z</time>
      </trkpt>
      <trkpt lat="45.31128" lon="6.93668">
        <ele>2326.9143</ele>
        <time>2015-08-24T08:00:38Z</time>
      </trkpt>
      <trkpt lat="45.31127" lon="6.93668">
        <ele>2326.9143</ele>
        <time>2015-08-24T08:00:43Z</time>
      </trkpt>
      <trkpt lat="45.31126" lon="6.93666">
        <ele>2326.9143</ele>
        <time>2015-08-24T08:00:48Z</time>
      </trkpt>
      <trkpt lat="45.31123" lon="6.9366">
        <ele>2326.9143</ele>
        <time>2015-08-24T08:00:53Z</time>
      </trkpt>
      <trkpt lat="45.31119" lon="6.93653">
        <ele>2323.6453</ele>
        <time>2015-08-24T08:00:58Z</time>
      </trkpt>
      <trkpt lat="45.31117" lon="6.93643">
        <ele>2323.6453</ele>
        <time>2015-08-24T08:01:08Z</time>
      </trkpt>
      <trkpt lat="45.31116" lon="6.93636">
        <ele>2320.4722</ele>
        <time>2015-08-24T08:01:13Z</time>
      </trkpt>
      <trkpt lat="45.31117" lon="6.93623">
        <ele>2320.4722</ele>
        <time>2015-08-24T08:01:23Z</time>
      </trkpt>
      <trkpt lat="45.31119" lon="6.93617">
        <ele>2317.29</ele>
        <time>2015-08-24T08:01:28Z</time>
      </trkpt>
      <trkpt lat="45.31118" lon="6.93607">
        <ele>2317.29</ele>
        <time>2015-08-24T08:01:38Z</time>
      </trkpt>
      <trkpt lat="45.31119" lon="6.93603">
        <ele>2314.2004</ele>
        <time>2015-08-24T08:01:43Z</time>
      </trkpt>
      <trkpt lat="45.31121" lon="6.93589">
        <ele>2311.1587</ele>
        <time>2015-08-24T08:01:53Z</time>
      </trkpt>
      <trkpt lat="45.31118" lon="6.93581">
        <ele>2311.1587</ele>
        <time>2015-08-24T08:01:58Z</time>
      </trkpt>
      <trkpt lat="45.31112" lon="6.93568">
        <ele>2308.1677</ele>
        <time>2015-08-24T08:02:08Z</time>
      </trkpt>
      <trkpt lat="45.3111" lon="6.93559">
        <ele>2308.1677</ele>
        <time>2015-08-24T08:02:13Z</time>
      </trkpt>
      <trkpt lat="45.31102" lon="6.93557">
        <ele>2305.2158</ele>
        <time>2015-08-24T08:02:23Z</time>
      </trkpt>
      <trkpt lat="45.31097" lon="6.93556">
        <ele>2305.2158</ele>
        <time>2015-08-24T08:02:28Z</time>
      </trkpt>
      <trkpt lat="45.31095" lon="6.93556">
        <ele>2305.2158</ele>
        <time>2015-08-24T08:02:38Z</time>
      </trkpt>
      <trkpt lat="45.31095" lon="6.93555">
        <ele>2305.2158</ele>
        <time>2015-08-24T08:02:43Z</time>
      </trkpt>
      <trkpt lat="45.31096" lon="6.93558">
        <ele>2301.986</ele>
        <time>2015-08-24T08:02:48Z</time>
      </trkpt>
      <trkpt lat="45.31096" lon="6.9356">
        <ele>2301.986</ele>
        <time>2015-08-24T08:02:53Z</time>
      </trkpt>
      <trkpt lat="45.31094" lon="6.93558">
        <ele>2301.986</ele>
        <time>2015-08-24T08:02:58Z</time>
      </trkpt>
      <trkpt lat="45.31097" lon="6.93548">
        <ele>2298.5312</ele>
        <time>2015-08-24T08:03:08Z</time>
      </trkpt>
      <trkpt lat="45.31099" lon="6.93544">
        <ele>2298.5312</ele>
        <time>2015-08-24T08:03:13Z</time>
      </trkpt>
      <trkpt lat="45.31097" lon="6.93525">
        <ele>2295.197</ele>
        <time>2015-08-24T08:03:28Z</time>
      </trkpt>
      <trkpt lat="45.31097" lon="6.93519">
        <ele>2295.197</ele>
        <time>2015-08-24T08:03:33Z</time>
      </trkpt>
      <trkpt lat="45.31099" lon="6.93507">
        <ele>2292.116</ele>
        <time>2015-08-24T08:03:43Z</time>
      </trkpt>
      <trkpt lat="45.311" lon="6.93502">
        <ele>2292.116</ele>
        <time>2015-08-24T08:03:48Z</time>
      </trkpt>
      <trkpt lat="45.31101" lon="6.93492">
        <ele>2289.2764</ele>
        <time>2015-08-24T08:03:58Z</time>
      </trkpt>
      <trkpt lat="45.31102" lon="6.93488">
        <ele>2289.2764</ele>
        <time>2015-08-24T08:04:03Z</time>
      </trkpt>
      <trkpt lat="45.31108" lon="6.93476">
        <ele>2286.7095</ele>
        <time>2015-08-24T08:04:13Z</time>
      </trkpt>
      <trkpt lat="45.31109" lon="6.93471">
        <ele>2286.7095</ele>
        <time>2015-08-24T08:04:18Z</time>
      </trkpt>
      <trkpt lat="45.31108" lon="6.93457">
        <ele>2284.5469</ele>
        <time>2015-08-24T08:04:28Z</time>
      </trkpt>
      <trkpt lat="45.31107" lon="6.93451">
        <ele>2284.5469</ele>
        <time>2015-08-24T08:04:33Z</time>
      </trkpt>
      <trkpt lat="45.31106" lon="6.93437">
        <ele>2282.7722</ele>
        <time>2015-08-24T08:04:43Z</time>
      </trkpt>
      <trkpt lat="45.31105" lon="6.93433">
        <ele>2282.7722</ele>
        <time>2015-08-24T08:04:48Z</time>
      </trkpt>
      <trkpt lat="45.31104" lon="6.93422">
        <ele>2281.4124</ele>
        <time>2015-08-24T08:04:58Z</time>
      </trkpt>
      <trkpt lat="45.31104" lon="6.93417">
        <ele>2281.4124</ele>
        <time>2015-08-24T08:05:03Z</time>
      </trkpt>
      <trkpt lat="45.31104" lon="6.93403">
        <ele>2280.3079</ele>
        <time>2015-08-24T08:05:13Z</time>
      </trkpt>
      <trkpt lat="45.31104" lon="6.934">
        <ele>2280.3079</ele>
        <time>2015-08-24T08:05:18Z</time>
      </trkpt>
      <trkpt lat="45.31103" lon="6.93389">
        <ele>2279.4746</ele>
        <time>2015-08-24T08:05:28Z</time>
      </trkpt>
      <trkpt lat="45.31103" lon="6.93384">
        <ele>2279.4746</ele>
        <time>2015-08-24T08:05:33Z</time>
      </trkpt>
      <trkpt lat="45.311" lon="6.93373">
        <ele>2278.8955</ele>
        <time>2015-08-24T08:05:43Z</time>
      </trkpt>
      <trkpt lat="45.311" lon="6.93369">
        <ele>2278.8955</ele>
        <time>2015-08-24T08:05:48Z</time>
      </trkpt>
      <trkpt lat="45.31098" lon="6.93352">
        <ele>2278.5225</ele>
        <time>2015-08-24T08:06:03Z</time>
      </trkpt>
      <trkpt lat="45.31097" lon="6.93347">
        <ele>2278.5225</ele>
        <time>2015-08-24T08:06:08Z</time>
      </trkpt>
      <trkpt lat="45.31097" lon="6.93335">
        <ele>2278.3406</ele>
        <time>2015-08-24T08:06:18Z</time>
      </trkpt>
      <trkpt lat="45.31097" lon="6.93327">
        <ele>2278.3406</ele>
        <time>2015-08-24T08:06:23Z</time>
      </trkpt>
      <trkpt lat="45.31096" lon="6.93315">
        <ele>2278.3645</ele>
        <time>2015-08-24T08:06:33Z</time>
      </trkpt>
      <trkpt lat="45.31096" lon="6.93308">
        <ele>2278.3645</ele>
        <time>2015-08-24T08:06:38Z</time>
      </trkpt>
      <trkpt lat="45.31093" lon="6.93294">
        <ele>2278.8027</ele>
        <time>2015-08-24T08:06:48Z</time>
      </trkpt>
      <trkpt lat="45.3109" lon="6.93289">
        <ele>2278.8027</ele>
        <time>2015-08-24T08:06:53Z</time>
      </trkpt>
      <trkpt lat="45.31085" lon="6.93276">
        <ele>2279.4849</ele>
        <time>2015-08-24T08:07:03Z</time>
      </trkpt>
      <trkpt lat="45.31083" lon="6.93269">
        <ele>2279.4849</ele>
        <time>2015-08-24T08:07:08Z</time>
      </trkpt>
      <trkpt lat="45.3108" lon="6.93257">
        <ele>2280.2686</ele>
        <time>2015-08-24T08:07:18Z</time>
      </trkpt>
      <trkpt lat="45.31077" lon="6.9325">
        <ele>2280.2686</ele>
        <time>2015-08-24T08:07:23Z</time>
      </trkpt>
      <trkpt lat="45.31074" lon="6.93238">
        <ele>2281.098</ele>
        <time>2015-08-24T08:07:33Z</time>
      </trkpt>
      <trkpt lat="45.31072" lon="6.93232">
        <ele>2281.098</ele>
        <time>2015-08-24T08:07:38Z</time>
      </trkpt>
      <trkpt lat="45.3107" lon="6.93219">
        <ele>2282.1</ele>
        <time>2015-08-24T08:07:48Z</time>
      </trkpt>
      <trkpt lat="45.31068" lon="6.93214">
        <ele>2282.1</ele>
        <time>2015-08-24T08:07:53Z</time>
      </trkpt>
      <trkpt lat="45.31064" lon="6.93202">
        <ele>2283.1687</ele>
        <time>2015-08-24T08:08:03Z</time>
      </trkpt>
      <trkpt lat="45.31061" lon="6.93198">
        <ele>2283.1687</ele>
        <time>2015-08-24T08:08:08Z</time>
      </trkpt>
      <trkpt lat="45.31059" lon="6.93185">
        <ele>2284.2952</ele>
        <time>2015-08-24T08:08:18Z</time>
      </trkpt>
      <trkpt lat="45.31058" lon="6.93176">
        <ele>2284.2952</ele>
        <time>2015-08-24T08:08:23Z</time>
      </trkpt>
      <trkpt lat="45.31053" lon="6.93163">
        <ele>2285.3967</ele>
        <time>2015-08-24T08:08:33Z</time>
      </trkpt>
      <trkpt lat="45.31051" lon="6.93157">
        <ele>2285.3967</ele>
        <time>2015-08-24T08:08:38Z</time>
      </trkpt>
      <trkpt lat="45.31047" lon="6.93153">
        <ele>2286.5166</ele>
        <time>2015-08-24T08:08:48Z</time>
      </trkpt>
      <trkpt lat="45.31046" lon="6.93156">
        <ele>2286.5166</ele>
        <time>2015-08-24T08:08:53Z</time>
      </trkpt>
      <trkpt lat="45.31045" lon="6.93158">
        <ele>2286.5166</ele>
        <time>2015-08-24T08:09:03Z</time>
      </trkpt>
      <trkpt lat="45.31046" lon="6.93156">
        <ele>2286.5166</ele>
        <time>2015-08-24T08:09:08Z</time>
      </trkpt>
      <trkpt lat="45.31047" lon="6.93156">
        <ele>2286.5166</ele>
        <time>2015-08-24T08:09:18Z</time>
      </trkpt>
      <trkpt lat="45.31046" lon="6.93156">
        <ele>2286.5166</ele>
        <time>2015-08-24T08:09:23Z</time>
      </trkpt>
      <trkpt lat="45.31037" lon="6.93136">
        <ele>2287.694</ele>
        <time>2015-08-24T08:09:38Z</time>
      </trkpt>
      <trkpt lat="45.31034" lon="6.9313">
        <ele>2287.694</ele>
        <time>2015-08-24T08:09:43Z</time>
      </trkpt>
      <trkpt lat="45.31029" lon="6.93116">
        <ele>2288.9355</ele>
        <time>2015-08-24T08:09:53Z</time>
      </trkpt>
      <trkpt lat="45.31027" lon="6.9311">
        <ele>2288.9355</ele>
        <time>2015-08-24T08:09:58Z</time>
      </trkpt>
      <trkpt lat="45.31022" lon="6.93099">
        <ele>2290.115</ele>
        <time>2015-08-24T08:10:08Z</time>
      </trkpt>
      <trkpt lat="45.3102" lon="6.93091">
        <ele>2290.115</ele>
        <time>2015-08-24T08:10:13Z</time>
      </trkpt>
      <trkpt lat="45.31017" lon="6.93077">
        <ele>2291.146</ele>
        <time>2015-08-24T08:10:23Z</time>
      </trkpt>
      <trkpt lat="45.31015" lon="6.93071">
        <ele>2291.146</ele>
        <time>2015-08-24T08:10:28Z</time>
      </trkpt>
      <trkpt lat="45.31011" lon="6.93056">
        <ele>2292.081</ele>
        <time>2015-08-24T08:10:38Z</time>
      </trkpt>
      <trkpt lat="45.31008" lon="6.93049">
        <ele>2292.081</ele>
        <time>2015-08-24T08:10:43Z</time>
      </trkpt>
      <trkpt lat="45.31005" lon="6.93036">
        <ele>2292.8374</ele>
        <time>2015-08-24T08:10:53Z</time>
      </trkpt>
      <trkpt lat="45.31001" lon="6.93027">
        <ele>2292.8374</ele>
        <time>2015-08-24T08:10:58Z</time>
      </trkpt>
      <trkpt lat="45.30998" lon="6.93014">
        <ele>2293.441</ele>
        <time>2015-08-24T08:11:08Z</time>
      </trkpt>
      <trkpt lat="45.30997" lon="6.93007">
        <ele>2293.441</ele>
        <time>2015-08-24T08:11:13Z</time>
      </trkpt>
      <trkpt lat="45.30993" lon="6.92994">
        <ele>2293.8142</ele>
        <time>2015-08-24T08:11:23Z</time>
      </trkpt>
      <trkpt lat="45.30991" lon="6.92988">
        <ele>2293.8142</ele>
        <time>2015-08-24T08:11:28Z</time>
      </trkpt>
      <trkpt lat="45.30988" lon="6.92965">
        <ele>2293.8718</ele>
        <time>2015-08-24T08:11:43Z</time>
      </trkpt>
      <trkpt lat="45.30986" lon="6.92958">
        <ele>2293.8718</ele>
        <time>2015-08-24T08:11:48Z</time>
      </trkpt>
      <trkpt lat="45.30982" lon="6.92944">
        <ele>2293.898</ele>
        <time>2015-08-24T08:11:58Z</time>
      </trkpt>
      <trkpt lat="45.30979" lon="6.92937">
        <ele>2293.898</ele>
        <time>2015-08-24T08:12:03Z</time>
      </trkpt>
      <trkpt lat="45.30977" lon="6.92923">
        <ele>2293.8796</ele>
        <time>2015-08-24T08:12:13Z</time>
      </trkpt>
      <trkpt lat="45.30976" lon="6.92917">
        <ele>2293.8796</ele>
        <time>2015-08-24T08:12:18Z</time>
      </trkpt>
      <trkpt lat="45.30971" lon="6.92903">
        <ele>2293.9065</ele>
        <time>2015-08-24T08:12:28Z</time>
      </trkpt>
      <trkpt lat="45.30968" lon="6.92898">
        <ele>2293.9065</ele>
        <time>2015-08-24T08:12:33Z</time>
      </trkpt>
      <trkpt lat="45.30963" lon="6.92888">
        <ele>2294.0176</ele>
        <time>2015-08-24T08:12:43Z</time>
      </trkpt>
      <trkpt lat="45.30959" lon="6.92882">
        <ele>2294.0176</ele>
        <time>2015-08-24T08:12:48Z</time>
      </trkpt>
      <trkpt lat="45.30958" lon="6.9288">
        <ele>2294.0176</ele>
        <time>2015-08-24T08:12:58Z</time>
      </trkpt>
      <trkpt lat="45.30959" lon="6.9288">
        <ele>2294.0176</ele>
        <time>2015-08-24T08:13:03Z</time>
      </trkpt>
      <trkpt lat="45.30956" lon="6.92879">
        <ele>2294.1477</ele>
        <time>2015-08-24T08:13:13Z</time>
      </trkpt>
      <trkpt lat="45.30956" lon="6.92881">
        <ele>2294.1477</ele>
        <time>2015-08-24T08:13:18Z</time>
      </trkpt>
      <trkpt lat="45.30957" lon="6.92881">
        <ele>2294.1477</ele>
        <time>2015-08-24T08:13:28Z</time>
      </trkpt>
      <trkpt lat="45.30955" lon="6.92873">
        <ele>2294.1477</ele>
        <time>2015-08-24T08:13:33Z</time>
      </trkpt>
      <trkpt lat="45.30954" lon="6.92863">
        <ele>2294.1357</ele>
        <time>2015-08-24T08:13:43Z</time>
      </trkpt>
      <trkpt lat="45.30954" lon="6.92857">
        <ele>2294.1357</ele>
        <time>2015-08-24T08:13:48Z</time>
      </trkpt>
      <trkpt lat="45.30954" lon="6.92856">
        <ele>2294.1357</ele>
        <time>2015-08-24T08:13:58Z</time>
      </trkpt>
      <trkpt lat="45.30954" lon="6.92854">
        <ele>2294.1357</ele>
        <time>2015-08-24T08:14:03Z</time>
      </trkpt>
      <trkpt lat="45.30956" lon="6.92845">
        <ele>2294.1216</ele>
        <time>2015-08-24T08:14:13Z</time>
      </trkpt>
      <trkpt lat="45.30957" lon="6.92841">
        <ele>2294.1216</ele>
        <time>2015-08-24T08:14:18Z</time>
      </trkpt>
      <trkpt lat="45.30958" lon="6.92834">
        <ele>2294.1216</ele>
        <time>2015-08-24T08:14:28Z</time>
      </trkpt>
      <trkpt lat="45.30958" lon="6.92831">
        <ele>2294.191</ele>
        <time>2015-08-24T08:14:33Z</time>
      </trkpt>
      <trkpt lat="45.30958" lon="6.92823">
        <ele>2294.191</ele>
        <time>2015-08-24T08:14:43Z</time>
      </trkpt>
      <trkpt lat="45.3096" lon="6.92821">
        <ele>2294.191</ele>
        <time>2015-08-24T08:14:48Z</time>
      </trkpt>
      <trkpt lat="45.30962" lon="6.9281">
        <ele>2294.4526</ele>
        <time>2015-08-24T08:15:03Z</time>
      </trkpt>
      <trkpt lat="45.30961" lon="6.92805">
        <ele>2294.4526</ele>
        <time>2015-08-24T08:15:08Z</time>
      </trkpt>
      <trkpt lat="45.30962" lon="6.92796">
        <ele>2294.9626</ele>
        <time>2015-08-24T08:15:18Z</time>
      </trkpt>
      <trkpt lat="45.30962" lon="6.92792">
        <ele>2294.9626</ele>
        <time>2015-08-24T08:15:23Z</time>
      </trkpt>
      <trkpt lat="45.30961" lon="6.92783">
        <ele>2295.7297</ele>
        <time>2015-08-24T08:15:33Z</time>
      </trkpt>
      <trkpt lat="45.30961" lon="6.9278">
        <ele>2295.7297</ele>
        <time>2015-08-24T08:15:38Z</time>
      </trkpt>
      <trkpt lat="45.3096" lon="6.9277">
        <ele>2296.6028</ele>
        <time>2015-08-24T08:15:48Z</time>
      </trkpt>
      <trkpt lat="45.3096" lon="6.92766">
        <ele>2296.6028</ele>
        <time>2015-08-24T08:15:53Z</time>
      </trkpt>
      <trkpt lat="45.30959" lon="6.92756">
        <ele>2297.657</ele>
        <time>2015-08-24T08:16:03Z</time>
      </trkpt>
      <trkpt lat="45.30959" lon="6.92752">
        <ele>2297.657</ele>
        <time>2015-08-24T08:16:08Z</time>
      </trkpt>
      <trkpt lat="45.3096" lon="6.92746">
        <ele>2297.657</ele>
        <time>2015-08-24T08:16:18Z</time>
      </trkpt>
      <trkpt lat="45.3096" lon="6.92742">
        <ele>2298.9048</ele>
        <time>2015-08-24T08:16:23Z</time>
      </trkpt>
      <trkpt lat="45.30959" lon="6.92734">
        <ele>2298.9048</ele>
        <time>2015-08-24T08:16:33Z</time>
      </trkpt>
      <trkpt lat="45.3096" lon="6.92729">
        <ele>2300.198</ele>
        <time>2015-08-24T08:16:38Z</time>
      </trkpt>
      <trkpt lat="45.30958" lon="6.92719">
        <ele>2300.198</ele>
        <time>2015-08-24T08:16:53Z</time>
      </trkpt>
      <trkpt lat="45.30957" lon="6.92715">
        <ele>2301.6304</ele>
        <time>2015-08-24T08:16:58Z</time>
      </trkpt>
      <trkpt lat="45.30952" lon="6.92708">
        <ele>2301.6304</ele>
        <time>2015-08-24T08:17:08Z</time>
      </trkpt>
      <trkpt lat="45.3095" lon="6.92705">
        <ele>2303.3027</ele>
        <time>2015-08-24T08:17:13Z</time>
      </trkpt>
      <trkpt lat="45.30949" lon="6.92697">
        <ele>2303.3027</ele>
        <time>2015-08-24T08:17:23Z</time>
      </trkpt>
      <trkpt lat="45.30949" lon="6.92694">
        <ele>2303.3027</ele>
        <time>2015-08-24T08:17:28Z</time>
      </trkpt>
      <trkpt lat="45.30947" lon="6.92687">
        <ele>2305.4233</ele>
        <time>2015-08-24T08:17:38Z</time>
      </trkpt>
      <trkpt lat="45.30947" lon="6.92685">
        <ele>2305.4233</ele>
        <time>2015-08-24T08:17:43Z</time>
      </trkpt>
      <trkpt lat="45.30946" lon="6.92679">
        <ele>2305.4233</ele>
        <time>2015-08-24T08:17:53Z</time>
      </trkpt>
      <trkpt lat="45.30945" lon="6.92675">
        <ele>2305.4233</ele>
        <time>2015-08-24T08:17:58Z</time>
      </trkpt>
      <trkpt lat="45.30945" lon="6.92668">
        <ele>2307.8806</ele>
        <time>2015-08-24T08:18:08Z</time>
      </trkpt>
      <trkpt lat="45.30944" lon="6.92665">
        <ele>2307.8806</ele>
        <time>2015-08-24T08:18:13Z</time>
      </trkpt>
      <trkpt lat="45.30943" lon="6.92657">
        <ele>2307.8806</ele>
        <time>2015-08-24T08:18:23Z</time>
      </trkpt>
      <trkpt lat="45.30944" lon="6.92653">
        <ele>2310.398</ele>
        <time>2015-08-24T08:18:28Z</time>
      </trkpt>
      <trkpt lat="45.30945" lon="6.9264">
        <ele>2312.9207</ele>
        <time>2015-08-24T08:18:43Z</time>
      </trkpt>
      <trkpt lat="45.30945" lon="6.92636">
        <ele>2312.9207</ele>
        <time>2015-08-24T08:18:48Z</time>
      </trkpt>
      <trkpt lat="45.30943" lon="6.92629">
        <ele>2312.9207</ele>
        <time>2015-08-24T08:18:58Z</time>
      </trkpt>
      <trkpt lat="45.30943" lon="6.92627">
        <ele>2315.6575</ele>
        <time>2015-08-24T08:19:03Z</time>
      </trkpt>
      <trkpt lat="45.30942" lon="6.9262">
        <ele>2315.6575</ele>
        <time>2015-08-24T08:19:13Z</time>
      </trkpt>
      <trkpt lat="45.30941" lon="6.92616">
        <ele>2315.6575</ele>
        <time>2015-08-24T08:19:18Z</time>
      </trkpt>
      <trkpt lat="45.30941" lon="6.92611">
        <ele>2318.6719</ele>
        <time>2015-08-24T08:19:28Z</time>
      </trkpt>
      <trkpt lat="45.30941" lon="6.92608">
        <ele>2318.6719</ele>
        <time>2015-08-24T08:19:33Z</time>
      </trkpt>
      <trkpt lat="45.30945" lon="6.92604">
        <ele>2318.6719</ele>
        <time>2015-08-24T08:19:43Z</time>
      </trkpt>
      <trkpt lat="45.30947" lon="6.92602">
        <ele>2321.575</ele>
        <time>2015-08-24T08:19:48Z</time>
      </trkpt>
      <trkpt lat="45.30955" lon="6.92594">
        <ele>2324.122</ele>
        <time>2015-08-24T08:20:03Z</time>
      </trkpt>
      <trkpt lat="45.30961" lon="6.92591">
        <ele>2324.122</ele>
        <time>2015-08-24T08:20:08Z</time>
      </trkpt>
      <trkpt lat="45.30966" lon="6.92587">
        <ele>2326.5347</ele>
        <time>2015-08-24T08:20:18Z</time>
      </trkpt>
      <trkpt lat="45.30969" lon="6.92586">
        <ele>2326.5347</ele>
        <time>2015-08-24T08:20:23Z</time>
      </trkpt>
      <trkpt lat="45.30971" lon="6.92587">
        <ele>2326.5347</ele>
        <time>2015-08-24T08:20:33Z</time>
      </trkpt>
      <trkpt lat="45.30974" lon="6.92586">
        <ele>2326.5347</ele>
        <time>2015-08-24T08:20:38Z</time>
      </trkpt>
      <trkpt lat="45.30981" lon="6.92581">
        <ele>2328.5427</ele>
        <time>2015-08-24T08:20:48Z</time>
      </trkpt>
      <trkpt lat="45.30984" lon="6.92575">
        <ele>2328.5427</ele>
        <time>2015-08-24T08:20:53Z</time>
      </trkpt>
      <trkpt lat="45.30988" lon="6.92567">
        <ele>2330.2727</ele>
        <time>2015-08-24T08:21:03Z</time>
      </trkpt>
      <trkpt lat="45.30989" lon="6.92562">
        <ele>2330.2727</ele>
        <time>2015-08-24T08:21:08Z</time>
      </trkpt>
      <trkpt lat="45.30998" lon="6.92555">
        <ele>2331.8423</ele>
        <time>2015-08-24T08:21:18Z</time>
      </trkpt>
      <trkpt lat="45.31002" lon="6.92551">
        <ele>2331.8423</ele>
        <time>2015-08-24T08:21:23Z</time>
      </trkpt>
      <trkpt lat="45.31007" lon="6.92537">
        <ele>2333.4622</ele>
        <time>2015-08-24T08:21:38Z</time>
      </trkpt>
      <trkpt lat="45.31008" lon="6.92532">
        <ele>2333.4622</ele>
        <time>2015-08-24T08:21:43Z</time>
      </trkpt>
      <trkpt lat="45.31007" lon="6.92528">
        <ele>2333.4622</ele>
        <time>2015-08-24T08:21:53Z</time>
      </trkpt>
      <trkpt lat="45.31008" lon="6.92531">
        <ele>2335.27</ele>
        <time>2015-08-24T08:21:58Z</time>
      </trkpt>
      <trkpt lat="45.3101" lon="6.92542">
        <ele>2335.27</ele>
        <time>2015-08-24T08:22:08Z</time>
      </trkpt>
      <trkpt lat="45.31013" lon="6.92535">
        <ele>2337.2922</ele>
        <time>2015-08-24T08:22:13Z</time>
      </trkpt>
      <trkpt lat="45.31019" lon="6.92519">
        <ele>2338.86</ele>
        <time>2015-08-24T08:22:23Z</time>
      </trkpt>
      <trkpt lat="45.3102" lon="6.92513">
        <ele>2338.86</ele>
        <time>2015-08-24T08:22:28Z</time>
      </trkpt>
      <trkpt lat="45.31024" lon="6.92502">
        <ele>2339.803</ele>
        <time>2015-08-24T08:22:38Z</time>
      </trkpt>
      <trkpt lat="45.31026" lon="6.92499">
        <ele>2339.803</ele>
        <time>2015-08-24T08:22:43Z</time>
      </trkpt>
      <trkpt lat="45.31034" lon="6.92491">
        <ele>2340.3394</ele>
        <time>2015-08-24T08:22:53Z</time>
      </trkpt>
      <trkpt lat="45.31036" lon="6.92487">
        <ele>2340.3394</ele>
        <time>2015-08-24T08:22:58Z</time>
      </trkpt>
      <trkpt lat="45.3104" lon="6.92474">
        <ele>2340.616</ele>
        <time>2015-08-24T08:23:08Z</time>
      </trkpt>
      <trkpt lat="45.31042" lon="6.92471">
        <ele>2340.616</ele>
        <time>2015-08-24T08:23:13Z</time>
      </trkpt>
      <trkpt lat="45.31043" lon="6.92468">
        <ele>2340.616</ele>
        <time>2015-08-24T08:23:18Z</time>
      </trkpt>
      <trkpt lat="45.31046" lon="6.92465">
        <ele>2340.616</ele>
        <time>2015-08-24T08:23:23Z</time>
      </trkpt>
      <trkpt lat="45.31048" lon="6.92461">
        <ele>2340.8982</ele>
        <time>2015-08-24T08:23:28Z</time>
      </trkpt>
      <trkpt lat="45.31052" lon="6.92454">
        <ele>2340.8982</ele>
        <time>2015-08-24T08:23:33Z</time>
      </trkpt>
      <trkpt lat="45.31054" lon="6.9245">
        <ele>2341.1448</ele>
        <time>2015-08-24T08:23:38Z</time>
      </trkpt>
      <trkpt lat="45.31058" lon="6.92447">
        <ele>2341.1448</ele>
        <time>2015-08-24T08:23:43Z</time>
      </trkpt>
      <trkpt lat="45.31061" lon="6.92445">
        <ele>2341.1448</ele>
        <time>2015-08-24T08:23:48Z</time>
      </trkpt>
      <trkpt lat="45.31064" lon="6.92442">
        <ele>2341.288</ele>
        <time>2015-08-24T08:23:53Z</time>
      </trkpt>
      <trkpt lat="45.31068" lon="6.92439">
        <ele>2341.288</ele>
        <time>2015-08-24T08:23:58Z</time>
      </trkpt>
      <trkpt lat="45.31072" lon="6.92436">
        <ele>2341.288</ele>
        <time>2015-08-24T08:24:03Z</time>
      </trkpt>
      <trkpt lat="45.31075" lon="6.92433">
        <ele>2341.295</ele>
        <time>2015-08-24T08:24:08Z</time>
      </trkpt>
      <trkpt lat="45.31079" lon="6.92429">
        <ele>2341.295</ele>
        <time>2015-08-24T08:24:13Z</time>
      </trkpt>
      <trkpt lat="45.31082" lon="6.92427">
        <ele>2341.295</ele>
        <time>2015-08-24T08:24:18Z</time>
      </trkpt>
      <trkpt lat="45.31086" lon="6.92427">
        <ele>2341.2073</ele>
        <time>2015-08-24T08:24:23Z</time>
      </trkpt>
      <trkpt lat="45.31089" lon="6.92428">
        <ele>2341.2073</ele>
        <time>2015-08-24T08:24:28Z</time>
      </trkpt>
      <trkpt lat="45.31091" lon="6.92429">
        <ele>2341.2073</ele>
        <time>2015-08-24T08:24:33Z</time>
      </trkpt>
      <trkpt lat="45.31094" lon="6.92428">
        <ele>2341.2073</ele>
        <time>2015-08-24T08:24:38Z</time>
      </trkpt>
      <trkpt lat="45.31096" lon="6.92425">
        <ele>2341.237</ele>
        <time>2015-08-24T08:24:43Z</time>
      </trkpt>
      <trkpt lat="45.31097" lon="6.92419">
        <ele>2341.237</ele>
        <time>2015-08-24T08:24:48Z</time>
      </trkpt>
      <trkpt lat="45.31096" lon="6.92409">
        <ele>2341.292</ele>
        <time>2015-08-24T08:24:53Z</time>
      </trkpt>
      <trkpt lat="45.31097" lon="6.92403">
        <ele>2341.292</ele>
        <time>2015-08-24T08:24:58Z</time>
      </trkpt>
      <trkpt lat="45.31099" lon="6.924">
        <ele>2341.292</ele>
        <time>2015-08-24T08:25:03Z</time>
      </trkpt>
      <trkpt lat="45.311" lon="6.92396">
        <ele>2341.2722</ele>
        <time>2015-08-24T08:25:08Z</time>
      </trkpt>
      <trkpt lat="45.31101" lon="6.92393">
        <ele>2341.2722</ele>
        <time>2015-08-24T08:25:13Z</time>
      </trkpt>
      <trkpt lat="45.31101" lon="6.92388">
        <ele>2341.2722</ele>
        <time>2015-08-24T08:25:18Z</time>
      </trkpt>
      <trkpt lat="45.31099" lon="6.92384">
        <ele>2341.3018</ele>
        <time>2015-08-24T08:25:23Z</time>
      </trkpt>
      <trkpt lat="45.31095" lon="6.9238">
        <ele>2341.3018</ele>
        <time>2015-08-24T08:25:28Z</time>
      </trkpt>
      <trkpt lat="45.31091" lon="6.92376">
        <ele>2341.3018</ele>
        <time>2015-08-24T08:25:33Z</time>
      </trkpt>
      <trkpt lat="45.31088" lon="6.92375">
        <ele>2341.4521</ele>
        <time>2015-08-24T08:25:38Z</time>
      </trkpt>
      <trkpt lat="45.31084" lon="6.92371">
        <ele>2341.4521</ele>
        <time>2015-08-24T08:25:43Z</time>
      </trkpt>
      <trkpt lat="45.31079" lon="6.92366">
        <ele>2341.6882</ele>
        <time>2015-08-24T08:25:48Z</time>
      </trkpt>
      <trkpt lat="45.31078" lon="6.92362">
        <ele>2341.6882</ele>
        <time>2015-08-24T08:25:53Z</time>
      </trkpt>
      <trkpt lat="45.31076" lon="6.92359">
        <ele>2341.6882</ele>
        <time>2015-08-24T08:25:58Z</time>
      </trkpt>
      <trkpt lat="45.31072" lon="6.92354">
        <ele>2341.992</ele>
        <time>2015-08-24T08:26:03Z</time>
      </trkpt>
      <trkpt lat="45.31069" lon="6.92352">
        <ele>2341.992</ele>
        <time>2015-08-24T08:26:08Z</time>
      </trkpt>
      <trkpt lat="45.31066" lon="6.92349">
        <ele>2341.992</ele>
        <time>2015-08-24T08:26:13Z</time>
      </trkpt>
      <trkpt lat="45.31064" lon="6.92346">
        <ele>2342.202</ele>
        <time>2015-08-24T08:26:18Z</time>
      </trkpt>
      <trkpt lat="45.31062" lon="6.92343">
        <ele>2342.202</ele>
        <time>2015-08-24T08:26:23Z</time>
      </trkpt>
      <trkpt lat="45.31061" lon="6.9234">
        <ele>2342.202</ele>
        <time>2015-08-24T08:26:28Z</time>
      </trkpt>
      <trkpt lat="45.31058" lon="6.92336">
        <ele>2342.202</ele>
        <time>2015-08-24T08:26:33Z</time>
      </trkpt>
      <trkpt lat="45.31055" lon="6.92334">
        <ele>2342.385</ele>
        <time>2015-08-24T08:26:38Z</time>
      </trkpt>
      <trkpt lat="45.31052" lon="6.92332">
        <ele>2342.385</ele>
        <time>2015-08-24T08:26:43Z</time>
      </trkpt>
      <trkpt lat="45.31049" lon="6.92328">
        <ele>2342.385</ele>
        <time>2015-08-24T08:26:48Z</time>
      </trkpt>
      <trkpt lat="45.31045" lon="6.92322">
        <ele>2342.5603</ele>
        <time>2015-08-24T08:26:53Z</time>
      </trkpt>
      <trkpt lat="45.31042" lon="6.92317">
        <ele>2342.5603</ele>
        <time>2015-08-24T08:26:58Z</time>
      </trkpt>
      <trkpt lat="45.3104" lon="6.92315">
        <ele>2342.5603</ele>
        <time>2015-08-24T08:27:03Z</time>
      </trkpt>
      <trkpt lat="45.31037" lon="6.92312">
        <ele>2342.7595</ele>
        <time>2015-08-24T08:27:08Z</time>
      </trkpt>
      <trkpt lat="45.31036" lon="6.92307">
        <ele>2342.7595</ele>
        <time>2015-08-24T08:27:13Z</time>
      </trkpt>
      <trkpt lat="45.31033" lon="6.92303">
        <ele>2342.7595</ele>
        <time>2015-08-24T08:27:18Z</time>
      </trkpt>
      <trkpt lat="45.3103" lon="6.92301">
        <ele>2343.0703</ele>
        <time>2015-08-24T08:27:23Z</time>
      </trkpt>
      <trkpt lat="45.31028" lon="6.92299">
        <ele>2343.0703</ele>
        <time>2015-08-24T08:27:28Z</time>
      </trkpt>
      <trkpt lat="45.31026" lon="6.92297">
        <ele>2343.0703</ele>
        <time>2015-08-24T08:27:33Z</time>
      </trkpt>
      <trkpt lat="45.31025" lon="6.92295">
        <ele>2343.0703</ele>
        <time>2015-08-24T08:27:38Z</time>
      </trkpt>
      <trkpt lat="45.31023" lon="6.92291">
        <ele>2343.2698</ele>
        <time>2015-08-24T08:27:43Z</time>
      </trkpt>
      <trkpt lat="45.31022" lon="6.92291">
        <ele>2343.2698</ele>
        <time>2015-08-24T08:27:48Z</time>
      </trkpt>
      <trkpt lat="45.3102" lon="6.92288">
        <ele>2343.2698</ele>
        <time>2015-08-24T08:27:53Z</time>
      </trkpt>
      <trkpt lat="45.31017" lon="6.92284">
        <ele>2343.2698</ele>
        <time>2015-08-24T08:27:58Z</time>
      </trkpt>
      <trkpt lat="45.31015" lon="6.92283">
        <ele>2343.5415</ele>
        <time>2015-08-24T08:28:03Z</time>
      </trkpt>
      <trkpt lat="45.31013" lon="6.92281">
        <ele>2343.5415</ele>
        <time>2015-08-24T08:28:08Z</time>
      </trkpt>
      <trkpt lat="45.31011" lon="6.9228">
        <ele>2343.5415</ele>
        <time>2015-08-24T08:28:13Z</time>
      </trkpt>
      <trkpt lat="45.31008" lon="6.92278">
        <ele>2343.5415</ele>
        <time>2015-08-24T08:28:18Z</time>
      </trkpt>
      <trkpt lat="45.31006" lon="6.92276">
        <ele>2343.7961</ele>
        <time>2015-08-24T08:28:23Z</time>
      </trkpt>
      <trkpt lat="45.31003" lon="6.92277">
        <ele>2343.7961</ele>
        <time>2015-08-24T08:28:28Z</time>
      </trkpt>
      <trkpt lat="45.31001" lon="6.92274">
        <ele>2343.7961</ele>
        <time>2015-08-24T08:28:33Z</time>
      </trkpt>
      <trkpt lat="45.30999" lon="6.92272">
        <ele>2343.7961</ele>
        <time>2015-08-24T08:28:38Z</time>
      </trkpt>
      <trkpt lat="45.30995" lon="6.92271">
        <ele>2344.2673</ele>
        <time>2015-08-24T08:28:43Z</time>
      </trkpt>
      <trkpt lat="45.30992" lon="6.9227">
        <ele>2344.2673</ele>
        <time>2015-08-24T08:28:48Z</time>
      </trkpt>
      <trkpt lat="45.3099" lon="6.92271">
        <ele>2344.2673</ele>
        <time>2015-08-24T08:28:53Z</time>
      </trkpt>
      <trkpt lat="45.30987" lon="6.9227">
        <ele>2344.2673</ele>
        <time>2015-08-24T08:28:58Z</time>
      </trkpt>
      <trkpt lat="45.30985" lon="6.92269">
        <ele>2344.955</ele>
        <time>2015-08-24T08:29:03Z</time>
      </trkpt>
      <trkpt lat="45.30982" lon="6.92268">
        <ele>2344.955</ele>
        <time>2015-08-24T08:29:08Z</time>
      </trkpt>
      <trkpt lat="45.30979" lon="6.92267">
        <ele>2344.955</ele>
        <time>2015-08-24T08:29:13Z</time>
      </trkpt>
      <trkpt lat="45.30976" lon="6.92268">
        <ele>2345.8584</ele>
        <time>2015-08-24T08:29:18Z</time>
      </trkpt>
      <trkpt lat="45.30975" lon="6.92266">
        <ele>2345.8584</ele>
        <time>2015-08-24T08:29:23Z</time>
      </trkpt>
      <trkpt lat="45.30973" lon="6.92265">
        <ele>2345.8584</ele>
        <time>2015-08-24T08:29:28Z</time>
      </trkpt>
      <trkpt lat="45.30971" lon="6.92263">
        <ele>2345.8584</ele>
        <time>2015-08-24T08:29:33Z</time>
      </trkpt>
      <trkpt lat="45.30969" lon="6.9226">
        <ele>2345.8584</ele>
        <time>2015-08-24T08:29:38Z</time>
      </trkpt>
      <trkpt lat="45.30967" lon="6.92258">
        <ele>2346.9907</ele>
        <time>2015-08-24T08:29:43Z</time>
      </trkpt>
      <trkpt lat="45.30965" lon="6.92255">
        <ele>2346.9907</ele>
        <time>2015-08-24T08:29:48Z</time>
      </trkpt>
      <trkpt lat="45.30962" lon="6.92252">
        <ele>2346.9907</ele>
        <time>2015-08-24T08:29:53Z</time>
      </trkpt>
      <trkpt lat="45.3096" lon="6.9225">
        <ele>2346.9907</ele>
        <time>2015-08-24T08:29:58Z</time>
      </trkpt>
      <trkpt lat="45.30959" lon="6.92251">
        <ele>2348.248</ele>
        <time>2015-08-24T08:30:03Z</time>
      </trkpt>
      <trkpt lat="45.30956" lon="6.92251">
        <ele>2348.248</ele>
        <time>2015-08-24T08:30:08Z</time>
      </trkpt>
      <trkpt lat="45.30954" lon="6.9225">
        <ele>2348.248</ele>
        <time>2015-08-24T08:30:13Z</time>
      </trkpt>
      <trkpt lat="45.30952" lon="6.9225">
        <ele>2348.248</ele>
        <time>2015-08-24T08:30:18Z</time>
      </trkpt>
      <trkpt lat="45.30951" lon="6.92251">
        <ele>2348.248</ele>
        <time>2015-08-24T08:30:23Z</time>
      </trkpt>
      <trkpt lat="45.30948" lon="6.92248">
        <ele>2349.606</ele>
        <time>2015-08-24T08:30:28Z</time>
      </trkpt>
      <trkpt lat="45.30945" lon="6.92247">
        <ele>2349.606</ele>
        <time>2015-08-24T08:30:33Z</time>
      </trkpt>
      <trkpt lat="45.30943" lon="6.92246">
        <ele>2349.606</ele>
        <time>2015-08-24T08:30:38Z</time>
      </trkpt>
      <trkpt lat="45.3094" lon="6.92245">
        <ele>2349.606</ele>
        <time>2015-08-24T08:30:43Z</time>
      </trkpt>
      <trkpt lat="45.30938" lon="6.92244">
        <ele>2351.214</ele>
        <time>2015-08-24T08:30:48Z</time>
      </trkpt>
      <trkpt lat="45.30937" lon="6.92243">
        <ele>2351.214</ele>
        <time>2015-08-24T08:30:53Z</time>
      </trkpt>
      <trkpt lat="45.30935" lon="6.9224">
        <ele>2351.214</ele>
        <time>2015-08-24T08:30:58Z</time>
      </trkpt>
      <trkpt lat="45.30933" lon="6.92238">
        <ele>2351.214</ele>
        <time>2015-08-24T08:31:03Z</time>
      </trkpt>
      <trkpt lat="45.30934" lon="6.9224">
        <ele>2351.214</ele>
        <time>2015-08-24T08:31:08Z</time>
      </trkpt>
      <trkpt lat="45.30936" lon="6.92243">
        <ele>2352.9368</ele>
        <time>2015-08-24T08:31:13Z</time>
      </trkpt>
      <trkpt lat="45.30936" lon="6.92241">
        <ele>2352.9368</ele>
        <time>2015-08-24T08:31:18Z</time>
      </trkpt>
      <trkpt lat="45.30936" lon="6.92242">
        <ele>2352.9368</ele>
        <time>2015-08-24T08:31:23Z</time>
      </trkpt>
      <trkpt lat="45.30935" lon="6.92244">
        <ele>2352.9368</ele>
        <time>2015-08-24T08:31:28Z</time>
      </trkpt>
      <trkpt lat="45.30936" lon="6.92246">
        <ele>2352.9368</ele>
        <time>2015-08-24T08:31:33Z</time>
      </trkpt>
      <trkpt lat="45.30936" lon="6.92246">
        <ele>2352.9368</ele>
        <time>2015-08-24T08:31:38Z</time>
      </trkpt>
      <trkpt lat="45.30937" lon="6.92247">
        <ele>2352.9368</ele>
        <time>2015-08-24T08:31:43Z</time>
      </trkpt>
      <trkpt lat="45.30937" lon="6.92247">
        <ele>2352.9368</ele>
        <time>2015-08-24T08:31:48Z</time>
      </trkpt>
      <trkpt lat="45.30935" lon="6.92248">
        <ele>2352.9368</ele>
        <time>2015-08-24T08:31:53Z</time>
      </trkpt>
      <trkpt lat="45.30934" lon="6.92247">
        <ele>2354.965</ele>
        <time>2015-08-24T08:31:58Z</time>
      </trkpt>
      <trkpt lat="45.30935" lon="6.92248">
        <ele>2354.965</ele>
        <time>2015-08-24T08:32:03Z</time>
      </trkpt>
      <trkpt lat="45.30935" lon="6.92247">
        <ele>2354.965</ele>
        <time>2015-08-24T08:32:08Z</time>
      </trkpt>
      <trkpt lat="45.30936" lon="6.92244">
        <ele>2354.965</ele>
        <time>2015-08-24T08:32:13Z</time>
      </trkpt>
      <trkpt lat="45.30936" lon="6.92244">
        <ele>2354.965</ele>
        <time>2015-08-24T08:32:18Z</time>
      </trkpt>
      <trkpt lat="45.30935" lon="6.92241">
        <ele>2354.965</ele>
        <time>2015-08-24T08:32:23Z</time>
      </trkpt>
      <trkpt lat="45.30936" lon="6.92238">
        <ele>2354.965</ele>
        <time>2015-08-24T08:32:28Z</time>
      </trkpt>
      <trkpt lat="45.30938" lon="6.92234">
        <ele>2356.8843</ele>
        <time>2015-08-24T08:32:33Z</time>
      </trkpt>
      <trkpt lat="45.30939" lon="6.92229">
        <ele>2356.8843</ele>
        <time>2015-08-24T08:32:38Z</time>
      </trkpt>
      <trkpt lat="45.30941" lon="6.92224">
        <ele>2356.8843</ele>
        <time>2015-08-24T08:32:43Z</time>
      </trkpt>
      <trkpt lat="45.30944" lon="6.92218">
        <ele>2358.411</ele>
        <time>2015-08-24T08:32:48Z</time>
      </trkpt>
      <trkpt lat="45.30947" lon="6.92212">
        <ele>2358.411</ele>
        <time>2015-08-24T08:32:53Z</time>
      </trkpt>
      <trkpt lat="45.30951" lon="6.92207">
        <ele>2359.6157</ele>
        <time>2015-08-24T08:32:58Z</time>
      </trkpt>
      <trkpt lat="45.30956" lon="6.92203">
        <ele>2359.6157</ele>
        <time>2015-08-24T08:33:03Z</time>
      </trkpt>
      <trkpt lat="45.30958" lon="6.92197">
        <ele>2360.6218</ele>
        <time>2015-08-24T08:33:08Z</time>
      </trkpt>
      <trkpt lat="45.30958" lon="6.92189">
        <ele>2360.6218</ele>
        <time>2015-08-24T08:33:13Z</time>
      </trkpt>
      <trkpt lat="45.30957" lon="6.92181">
        <ele>2361.4583</ele>
        <time>2015-08-24T08:33:18Z</time>
      </trkpt>
      <trkpt lat="45.30955" lon="6.92173">
        <ele>2361.4583</ele>
        <time>2015-08-24T08:33:23Z</time>
      </trkpt>
      <trkpt lat="45.30954" lon="6.9217">
        <ele>2361.4583</ele>
        <time>2015-08-24T08:33:28Z</time>
      </trkpt>
      <trkpt lat="45.30954" lon="6.92164">
        <ele>2361.979</ele>
        <time>2015-08-24T08:33:33Z</time>
      </trkpt>
      <trkpt lat="45.30958" lon="6.92157">
        <ele>2361.979</ele>
        <time>2015-08-24T08:33:38Z</time>
      </trkpt>
      <trkpt lat="45.3096" lon="6.92149">
        <ele>2362.1936</ele>
        <time>2015-08-24T08:33:43Z</time>
      </trkpt>
      <trkpt lat="45.30962" lon="6.92144">
        <ele>2362.1936</ele>
        <time>2015-08-24T08:33:48Z</time>
      </trkpt>
      <trkpt lat="45.30965" lon="6.92138">
        <ele>2362.199</ele>
        <time>2015-08-24T08:33:53Z</time>
      </trkpt>
      <trkpt lat="45.30971" lon="6.92132">
        <ele>2362.199</ele>
        <time>2015-08-24T08:33:58Z</time>
      </trkpt>
      <trkpt lat="45.30973" lon="6.92127">
        <ele>2362.027</ele>
        <time>2015-08-24T08:34:03Z</time>
      </trkpt>
      <trkpt lat="45.30974" lon="6.92121">
        <ele>2362.027</ele>
        <time>2015-08-24T08:34:08Z</time>
      </trkpt>
      <trkpt lat="45.30975" lon="6.92117">
        <ele>2362.027</ele>
        <time>2015-08-24T08:34:13Z</time>
      </trkpt>
      <trkpt lat="45.30974" lon="6.92117">
        <ele>2362.027</ele>
        <time>2015-08-24T08:34:18Z</time>
      </trkpt>
      <trkpt lat="45.30974" lon="6.92113">
        <ele>2361.694</ele>
        <time>2015-08-24T08:34:23Z</time>
      </trkpt>
      <trkpt lat="45.30973" lon="6.92109">
        <ele>2361.694</ele>
        <time>2015-08-24T08:34:28Z</time>
      </trkpt>
      <trkpt lat="45.30971" lon="6.92103">
        <ele>2361.694</ele>
        <time>2015-08-24T08:34:33Z</time>
      </trkpt>
      <trkpt lat="45.3097" lon="6.92099">
        <ele>2361.388</ele>
        <time>2015-08-24T08:34:38Z</time>
      </trkpt>
      <trkpt lat="45.30969" lon="6.92096">
        <ele>2361.388</ele>
        <time>2015-08-24T08:34:43Z</time>
      </trkpt>
      <trkpt lat="45.30967" lon="6.92093">
        <ele>2361.388</ele>
        <time>2015-08-24T08:34:48Z</time>
      </trkpt>
      <trkpt lat="45.30967" lon="6.92089">
        <ele>2361.388</ele>
        <time>2015-08-24T08:34:53Z</time>
      </trkpt>
      <trkpt lat="45.30967" lon="6.92085">
        <ele>2360.952</ele>
        <time>2015-08-24T08:34:58Z</time>
      </trkpt>
      <trkpt lat="45.30967" lon="6.9208">
        <ele>2360.952</ele>
        <time>2015-08-24T08:35:03Z</time>
      </trkpt>
      <trkpt lat="45.30967" lon="6.92075">
        <ele>2360.952</ele>
        <time>2015-08-24T08:35:08Z</time>
      </trkpt>
      <trkpt lat="45.30966" lon="6.92072">
        <ele>2360.5286</ele>
        <time>2015-08-24T08:35:13Z</time>
      </trkpt>
      <trkpt lat="45.30966" lon="6.92068">
        <ele>2360.5286</ele>
        <time>2015-08-24T08:35:18Z</time>
      </trkpt>
      <trkpt lat="45.30967" lon="6.92066">
        <ele>2360.5286</ele>
        <time>2015-08-24T08:35:23Z</time>
      </trkpt>
      <trkpt lat="45.30966" lon="6.9206">
        <ele>2360.5286</ele>
        <time>2015-08-24T08:35:28Z</time>
      </trkpt>
      <trkpt lat="45.30965" lon="6.92056">
        <ele>2360.0627</ele>
        <time>2015-08-24T08:35:33Z</time>
      </trkpt>
      <trkpt lat="45.30965" lon="6.92052">
        <ele>2360.0627</ele>
        <time>2015-08-24T08:35:38Z</time>
      </trkpt>
      <trkpt lat="45.30964" lon="6.92047">
        <ele>2360.0627</ele>
        <time>2015-08-24T08:35:43Z</time>
      </trkpt>
      <trkpt lat="45.30962" lon="6.92044">
        <ele>2359.605</ele>
        <time>2015-08-24T08:35:48Z</time>
      </trkpt>
      <trkpt lat="45.30961" lon="6.92039">
        <ele>2359.605</ele>
        <time>2015-08-24T08:35:53Z</time>
      </trkpt>
      <trkpt lat="45.30961" lon="6.92036">
        <ele>2359.605</ele>
        <time>2015-08-24T08:35:58Z</time>
      </trkpt>
      <trkpt lat="45.30961" lon="6.92033">
        <ele>2359.605</ele>
        <time>2015-08-24T08:36:03Z</time>
      </trkpt>
      <trkpt lat="45.3096" lon="6.92032">
        <ele>2359.605</ele>
        <time>2015-08-24T08:36:08Z</time>
      </trkpt>
      <trkpt lat="45.3096" lon="6.9203">
        <ele>2359.302</ele>
        <time>2015-08-24T08:36:13Z</time>
      </trkpt>
      <trkpt lat="45.3096" lon="6.92027">
        <ele>2359.302</ele>
        <time>2015-08-24T08:36:18Z</time>
      </trkpt>
      <trkpt lat="45.30959" lon="6.92026">
        <ele>2359.302</ele>
        <time>2015-08-24T08:36:23Z</time>
      </trkpt>
      <trkpt lat="45.30958" lon="6.92024">
        <ele>2359.302</ele>
        <time>2015-08-24T08:36:28Z</time>
      </trkpt>
      <trkpt lat="45.30957" lon="6.92021">
        <ele>2359.302</ele>
        <time>2015-08-24T08:36:33Z</time>
      </trkpt>
      <trkpt lat="45.30955" lon="6.92017">
        <ele>2359.2031</ele>
        <time>2015-08-24T08:36:38Z</time>
      </trkpt>
      <trkpt lat="45.30952" lon="6.92016">
        <ele>2359.2031</ele>
        <time>2015-08-24T08:36:43Z</time>
      </trkpt>
      <trkpt lat="45.3095" lon="6.92014">
        <ele>2359.2031</ele>
        <time>2015-08-24T08:36:48Z</time>
      </trkpt>
      <trkpt lat="45.30947" lon="6.92011">
        <ele>2359.4402</ele>
        <time>2015-08-24T08:36:53Z</time>
      </trkpt>
      <trkpt lat="45.30946" lon="6.92008">
        <ele>2359.4402</ele>
        <time>2015-08-24T08:36:58Z</time>
      </trkpt>
      <trkpt lat="45.30944" lon="6.92005">
        <ele>2359.4402</ele>
        <time>2015-08-24T08:37:03Z</time>
      </trkpt>
      <trkpt lat="45.30942" lon="6.92001">
        <ele>2359.4402</ele>
        <time>2015-08-24T08:37:08Z</time>
      </trkpt>
      <trkpt lat="45.30941" lon="6.91996">
        <ele>2360.0042</ele>
        <time>2015-08-24T08:37:13Z</time>
      </trkpt>
      <trkpt lat="45.3094" lon="6.91993">
        <ele>2360.0042</ele>
        <time>2015-08-24T08:37:18Z</time>
      </trkpt>
      <trkpt lat="45.30939" lon="6.9199">
        <ele>2360.0042</ele>
        <time>2015-08-24T08:37:23Z</time>
      </trkpt>
      <trkpt lat="45.30938" lon="6.91986">
        <ele>2360.0042</ele>
        <time>2015-08-24T08:37:28Z</time>
      </trkpt>
      <trkpt lat="45.30936" lon="6.9198">
        <ele>2360.8137</ele>
        <time>2015-08-24T08:37:33Z</time>
      </trkpt>
      <trkpt lat="45.30935" lon="6.91976">
        <ele>2360.8137</ele>
        <time>2015-08-24T08:37:38Z</time>
      </trkpt>
      <trkpt lat="45.30935" lon="6.91973">
        <ele>2360.8137</ele>
        <time>2015-08-24T08:37:43Z</time>
      </trkpt>
      <trkpt lat="45.30933" lon="6.91969">
        <ele>2360.8137</ele>
        <time>2015-08-24T08:37:48Z</time>
      </trkpt>
      <trkpt lat="45.30932" lon="6.91966">
        <ele>2361.7788</ele>
        <time>2015-08-24T08:37:53Z</time>
      </trkpt>
      <trkpt lat="45.30931" lon="6.91961">
        <ele>2361.7788</ele>
        <time>2015-08-24T08:37:58Z</time>
      </trkpt>
      <trkpt lat="45.3093" lon="6.91957">
        <ele>2361.7788</ele>
        <time>2015-08-24T08:38:03Z</time>
      </trkpt>
      <trkpt lat="45.30929" lon="6.91954">
        <ele>2362.7573</ele>
        <time>2015-08-24T08:38:08Z</time>
      </trkpt>
      <trkpt lat="45.30928" lon="6.91951">
        <ele>2362.7573</ele>
        <time>2015-08-24T08:38:13Z</time>
      </trkpt>
      <trkpt lat="45.30927" lon="6.91946">
        <ele>2362.7573</ele>
        <time>2015-08-24T08:38:18Z</time>
      </trkpt>
      <trkpt lat="45.30928" lon="6.91945">
        <ele>2362.7573</ele>
        <time>2015-08-24T08:38:23Z</time>
      </trkpt>
      <trkpt lat="45.30927" lon="6.91941">
        <ele>2363.8481</ele>
        <time>2015-08-24T08:38:28Z</time>
      </trkpt>
      <trkpt lat="45.30926" lon="6.91938">
        <ele>2363.8481</ele>
        <time>2015-08-24T08:38:33Z</time>
      </trkpt>
      <trkpt lat="45.30925" lon="6.91934">
        <ele>2363.8481</ele>
        <time>2015-08-24T08:38:38Z</time>
      </trkpt>
      <trkpt lat="45.30925" lon="6.91927">
        <ele>2365.013</ele>
        <time>2015-08-24T08:38:43Z</time>
      </trkpt>
      <trkpt lat="45.30925" lon="6.91923">
        <ele>2365.013</ele>
        <time>2015-08-24T08:38:48Z</time>
      </trkpt>
      <trkpt lat="45.30925" lon="6.9192">
        <ele>2365.013</ele>
        <time>2015-08-24T08:38:53Z</time>
      </trkpt>
      <trkpt lat="45.30924" lon="6.91916">
        <ele>2365.013</ele>
        <time>2015-08-24T08:38:58Z</time>
      </trkpt>
      <trkpt lat="45.30923" lon="6.91912">
        <ele>2366.3748</ele>
        <time>2015-08-24T08:39:03Z</time>
      </trkpt>
      <trkpt lat="45.30923" lon="6.91907">
        <ele>2366.3748</ele>
        <time>2015-08-24T08:39:08Z</time>
      </trkpt>
      <trkpt lat="45.30922" lon="6.91905">
        <ele>2366.3748</ele>
        <time>2015-08-24T08:39:13Z</time>
      </trkpt>
      <trkpt lat="45.30923" lon="6.91901">
        <ele>2366.3748</ele>
        <time>2015-08-24T08:39:18Z</time>
      </trkpt>
      <trkpt lat="45.30923" lon="6.91897">
        <ele>2367.845</ele>
        <time>2015-08-24T08:39:23Z</time>
      </trkpt>
      <trkpt lat="45.30922" lon="6.9189">
        <ele>2367.845</ele>
        <time>2015-08-24T08:39:28Z</time>
      </trkpt>
      <trkpt lat="45.30922" lon="6.91886">
        <ele>2367.845</ele>
        <time>2015-08-24T08:39:33Z</time>
      </trkpt>
      <trkpt lat="45.3092" lon="6.91882">
        <ele>2369.341</ele>
        <time>2015-08-24T08:39:38Z</time>
      </trkpt>
      <trkpt lat="45.30919" lon="6.91876">
        <ele>2369.341</ele>
        <time>2015-08-24T08:39:43Z</time>
      </trkpt>
      <trkpt lat="45.30919" lon="6.91871">
        <ele>2369.341</ele>
        <time>2015-08-24T08:39:48Z</time>
      </trkpt>
      <trkpt lat="45.30917" lon="6.91865">
        <ele>2370.772</ele>
        <time>2015-08-24T08:39:53Z</time>
      </trkpt>
      <trkpt lat="45.30916" lon="6.91861">
        <ele>2370.772</ele>
        <time>2015-08-24T08:39:58Z</time>
      </trkpt>
      <trkpt lat="45.30914" lon="6.91856">
        <ele>2370.772</ele>
        <time>2015-08-24T08:40:03Z</time>
      </trkpt>
      <trkpt lat="45.30912" lon="6.91852">
        <ele>2372.1692</ele>
        <time>2015-08-24T08:40:08Z</time>
      </trkpt>
      <trkpt lat="45.30912" lon="6.91849">
        <ele>2372.1692</ele>
        <time>2015-08-24T08:40:13Z</time>
      </trkpt>
      <trkpt lat="45.30911" lon="6.91846">
        <ele>2372.1692</ele>
        <time>2015-08-24T08:40:18Z</time>
      </trkpt>
      <trkpt lat="45.30909" lon="6.91842">
        <ele>2372.1692</ele>
        <time>2015-08-24T08:40:23Z</time>
      </trkpt>
      <trkpt lat="45.30906" lon="6.91839">
        <ele>2373.4036</ele>
        <time>2015-08-24T08:40:28Z</time>
      </trkpt>
      <trkpt lat="45.30904" lon="6.91837">
        <ele>2373.4036</ele>
        <time>2015-08-24T08:40:33Z</time>
      </trkpt>
      <trkpt lat="45.30903" lon="6.91834">
        <ele>2373.4036</ele>
        <time>2015-08-24T08:40:38Z</time>
      </trkpt>
      <trkpt lat="45.30899" lon="6.91833">
        <ele>2373.4036</ele>
        <time>2015-08-24T08:40:43Z</time>
      </trkpt>
      <trkpt lat="45.30894" lon="6.91833">
        <ele>2374.3984</ele>
        <time>2015-08-24T08:40:48Z</time>
      </trkpt>
      <trkpt lat="45.30891" lon="6.91831">
        <ele>2374.3984</ele>
        <time>2015-08-24T08:40:53Z</time>
      </trkpt>
      <trkpt lat="45.30887" lon="6.91828">
        <ele>2374.3984</ele>
        <time>2015-08-24T08:40:58Z</time>
      </trkpt>
      <trkpt lat="45.30884" lon="6.91826">
        <ele>2375.2856</ele>
        <time>2015-08-24T08:41:03Z</time>
      </trkpt>
      <trkpt lat="45.30881" lon="6.91824">
        <ele>2375.2856</ele>
        <time>2015-08-24T08:41:08Z</time>
      </trkpt>
      <trkpt lat="45.30879" lon="6.91823">
        <ele>2375.2856</ele>
        <time>2015-08-24T08:41:13Z</time>
      </trkpt>
      <trkpt lat="45.30877" lon="6.91821">
        <ele>2375.2856</ele>
        <time>2015-08-24T08:41:18Z</time>
      </trkpt>
      <trkpt lat="45.30875" lon="6.91819">
        <ele>2376.1736</ele>
        <time>2015-08-24T08:41:23Z</time>
      </trkpt>
      <trkpt lat="45.30873" lon="6.91814">
        <ele>2376.1736</ele>
        <time>2015-08-24T08:41:28Z</time>
      </trkpt>
      <trkpt lat="45.30872" lon="6.91813">
        <ele>2376.1736</ele>
        <time>2015-08-24T08:41:33Z</time>
      </trkpt>
      <trkpt lat="45.30869" lon="6.91812">
        <ele>2376.1736</ele>
        <time>2015-08-24T08:41:38Z</time>
      </trkpt>
      <trkpt lat="45.30867" lon="6.9181">
        <ele>2377.205</ele>
        <time>2015-08-24T08:41:43Z</time>
      </trkpt>
      <trkpt lat="45.30866" lon="6.91807">
        <ele>2377.205</ele>
        <time>2015-08-24T08:41:48Z</time>
      </trkpt>
      <trkpt lat="45.30868" lon="6.91803">
        <ele>2377.205</ele>
        <time>2015-08-24T08:41:53Z</time>
      </trkpt>
      <trkpt lat="45.30869" lon="6.918">
        <ele>2377.205</ele>
        <time>2015-08-24T08:41:58Z</time>
      </trkpt>
      <trkpt lat="45.3087" lon="6.91795">
        <ele>2378.3833</ele>
        <time>2015-08-24T08:42:03Z</time>
      </trkpt>
      <trkpt lat="45.30874" lon="6.91787">
        <ele>2378.3833</ele>
        <time>2015-08-24T08:42:08Z</time>
      </trkpt>
      <trkpt lat="45.30875" lon="6.91782">
        <ele>2379.4077</ele>
        <time>2015-08-24T08:42:13Z</time>
      </trkpt>
      <trkpt lat="45.30874" lon="6.91783">
        <ele>2379.4077</ele>
        <time>2015-08-24T08:42:18Z</time>
      </trkpt>
      <trkpt lat="45.30873" lon="6.91784">
        <ele>2379.4077</ele>
        <time>2015-08-24T08:42:23Z</time>
      </trkpt>
      <trkpt lat="45.30875" lon="6.91782">
        <ele>2379.4077</ele>
        <time>2015-08-24T08:42:28Z</time>
      </trkpt>
      <trkpt lat="45.30875" lon="6.91781">
        <ele>2379.4077</ele>
        <time>2015-08-24T08:42:33Z</time>
      </trkpt>
      <trkpt lat="45.30878" lon="6.91778">
        <ele>2379.4077</ele>
        <time>2015-08-24T08:42:38Z</time>
      </trkpt>
      <trkpt lat="45.30882" lon="6.91775">
        <ele>2380.274</ele>
        <time>2015-08-24T08:42:43Z</time>
      </trkpt>
      <trkpt lat="45.30883" lon="6.91771">
        <ele>2380.274</ele>
        <time>2015-08-24T08:42:48Z</time>
      </trkpt>
      <trkpt lat="45.30884" lon="6.91768">
        <ele>2380.274</ele>
        <time>2015-08-24T08:42:53Z</time>
      </trkpt>
      <trkpt lat="45.30884" lon="6.91765">
        <ele>2380.274</ele>
        <time>2015-08-24T08:42:58Z</time>
      </trkpt>
      <trkpt lat="45.30885" lon="6.9176">
        <ele>2381.2239</ele>
        <time>2015-08-24T08:43:03Z</time>
      </trkpt>
      <trkpt lat="45.30884" lon="6.91757">
        <ele>2381.2239</ele>
        <time>2015-08-24T08:43:08Z</time>
      </trkpt>
      <trkpt lat="45.30884" lon="6.91752">
        <ele>2381.2239</ele>
        <time>2015-08-24T08:43:13Z</time>
      </trkpt>
      <trkpt lat="45.30884" lon="6.91749">
        <ele>2381.2239</ele>
        <time>2015-08-24T08:43:18Z</time>
      </trkpt>
      <trkpt lat="45.30885" lon="6.91745">
        <ele>2382.2646</ele>
        <time>2015-08-24T08:43:23Z</time>
      </trkpt>
      <trkpt lat="45.30884" lon="6.91741">
        <ele>2382.2646</ele>
        <time>2015-08-24T08:43:28Z</time>
      </trkpt>
      <trkpt lat="45.30885" lon="6.91741">
        <ele>2382.2646</ele>
        <time>2015-08-24T08:43:33Z</time>
      </trkpt>
      <trkpt lat="45.30885" lon="6.91741">
        <ele>2382.2646</ele>
        <time>2015-08-24T08:43:38Z</time>
      </trkpt>
      <trkpt lat="45.30885" lon="6.91738">
        <ele>2382.2646</ele>
        <time>2015-08-24T08:43:43Z</time>
      </trkpt>
      <trkpt lat="45.30887" lon="6.91736">
        <ele>2382.2646</ele>
        <time>2015-08-24T08:43:48Z</time>
      </trkpt>
      <trkpt lat="45.30887" lon="6.91737">
        <ele>2382.2646</ele>
        <time>2015-08-24T08:43:53Z</time>
      </trkpt>
      <trkpt lat="45.30887" lon="6.91739">
        <ele>2383.317</ele>
        <time>2015-08-24T08:43:58Z</time>
      </trkpt>
      <trkpt lat="45.30886" lon="6.91739">
        <ele>2383.317</ele>
        <time>2015-08-24T08:44:03Z</time>
      </trkpt>
      <trkpt lat="45.30886" lon="6.91739">
        <ele>2383.317</ele>
        <time>2015-08-24T08:44:08Z</time>
      </trkpt>
      <trkpt lat="45.30885" lon="6.91735">
        <ele>2383.317</ele>
        <time>2015-08-24T08:44:13Z</time>
      </trkpt>
      <trkpt lat="45.30884" lon="6.91729">
        <ele>2383.317</ele>
        <time>2015-08-24T08:44:18Z</time>
      </trkpt>
      <trkpt lat="45.30883" lon="6.91723">
        <ele>2384.4648</ele>
        <time>2015-08-24T08:44:23Z</time>
      </trkpt>
      <trkpt lat="45.30882" lon="6.91718">
        <ele>2384.4648</ele>
        <time>2015-08-24T08:44:28Z</time>
      </trkpt>
      <trkpt lat="45.30881" lon="6.91715">
        <ele>2384.4648</ele>
        <time>2015-08-24T08:44:33Z</time>
      </trkpt>
      <trkpt lat="45.30881" lon="6.91707">
        <ele>2385.5706</ele>
        <time>2015-08-24T08:44:38Z</time>
      </trkpt>
      <trkpt lat="45.30881" lon="6.917">
        <ele>2385.5706</ele>
        <time>2015-08-24T08:44:43Z</time>
      </trkpt>
      <trkpt lat="45.30882" lon="6.91697">
        <ele>2385.5706</ele>
        <time>2015-08-24T08:44:48Z</time>
      </trkpt>
      <trkpt lat="45.30881" lon="6.91693">
        <ele>2386.6074</ele>
        <time>2015-08-24T08:44:53Z</time>
      </trkpt>
      <trkpt lat="45.30881" lon="6.91688">
        <ele>2386.6074</ele>
        <time>2015-08-24T08:44:58Z</time>
      </trkpt>
      <trkpt lat="45.30879" lon="6.91685">
        <ele>2386.6074</ele>
        <time>2015-08-24T08:45:03Z</time>
      </trkpt>
      <trkpt lat="45.30877" lon="6.91678">
        <ele>2387.4788</ele>
        <time>2015-08-24T08:45:08Z</time>
      </trkpt>
      <trkpt lat="45.30877" lon="6.91672">
        <ele>2387.4788</ele>
        <time>2015-08-24T08:45:13Z</time>
      </trkpt>
      <trkpt lat="45.30877" lon="6.91667">
        <ele>2387.4788</ele>
        <time>2015-08-24T08:45:18Z</time>
      </trkpt>
      <trkpt lat="45.30878" lon="6.91661">
        <ele>2388.2102</ele>
        <time>2015-08-24T08:45:23Z</time>
      </trkpt>
      <trkpt lat="45.3088" lon="6.91657">
        <ele>2388.2102</ele>
        <time>2015-08-24T08:45:28Z</time>
      </trkpt>
      <trkpt lat="45.30882" lon="6.91651">
        <ele>2388.2102</ele>
        <time>2015-08-24T08:45:33Z</time>
      </trkpt>
      <trkpt lat="45.30883" lon="6.91647">
        <ele>2388.8416</ele>
        <time>2015-08-24T08:45:38Z</time>
      </trkpt>
      <trkpt lat="45.30884" lon="6.91641">
        <ele>2388.8416</ele>
        <time>2015-08-24T08:45:43Z</time>
      </trkpt>
      <trkpt lat="45.30884" lon="6.91631">
        <ele>2389.481</ele>
        <time>2015-08-24T08:45:48Z</time>
      </trkpt>
      <trkpt lat="45.30886" lon="6.91627">
        <ele>2389.481</ele>
        <time>2015-08-24T08:45:53Z</time>
      </trkpt>
      <trkpt lat="45.30886" lon="6.91621">
        <ele>2389.481</ele>
        <time>2015-08-24T08:45:58Z</time>
      </trkpt>
      <trkpt lat="45.30888" lon="6.91614">
        <ele>2390.1138</ele>
        <time>2015-08-24T08:46:03Z</time>
      </trkpt>
      <trkpt lat="45.30889" lon="6.91607">
        <ele>2390.1138</ele>
        <time>2015-08-24T08:46:08Z</time>
      </trkpt>
      <trkpt lat="45.30889" lon="6.91606">
        <ele>2390.1138</ele>
        <time>2015-08-24T08:46:13Z</time>
      </trkpt>
      <trkpt lat="45.30889" lon="6.91606">
        <ele>2390.1138</ele>
        <time>2015-08-24T08:46:18Z</time>
      </trkpt>
      <trkpt lat="45.3089" lon="6.91606">
        <ele>2390.1138</ele>
        <time>2015-08-24T08:46:23Z</time>
      </trkpt>
      <trkpt lat="45.30888" lon="6.91608">
        <ele>2390.1138</ele>
        <time>2015-08-24T08:46:28Z</time>
      </trkpt>
      <trkpt lat="45.30887" lon="6.91607">
        <ele>2390.669</ele>
        <time>2015-08-24T08:46:33Z</time>
      </trkpt>
      <trkpt lat="45.30889" lon="6.91604">
        <ele>2390.669</ele>
        <time>2015-08-24T08:46:38Z</time>
      </trkpt>
      <trkpt lat="45.3089" lon="6.91602">
        <ele>2390.669</ele>
        <time>2015-08-24T08:46:43Z</time>
      </trkpt>
      <trkpt lat="45.30891" lon="6.91598">
        <ele>2390.669</ele>
        <time>2015-08-24T08:46:48Z</time>
      </trkpt>
      <trkpt lat="45.3089" lon="6.9159">
        <ele>2391.0662</ele>
        <time>2015-08-24T08:46:53Z</time>
      </trkpt>
      <trkpt lat="45.30889" lon="6.91586">
        <ele>2391.0662</ele>
        <time>2015-08-24T08:46:58Z</time>
      </trkpt>
      <trkpt lat="45.3089" lon="6.91576">
        <ele>2391.4622</ele>
        <time>2015-08-24T08:47:03Z</time>
      </trkpt>
      <trkpt lat="45.30892" lon="6.9157">
        <ele>2391.4622</ele>
        <time>2015-08-24T08:47:08Z</time>
      </trkpt>
      <trkpt lat="45.30892" lon="6.91567">
        <ele>2391.4622</ele>
        <time>2015-08-24T08:47:13Z</time>
      </trkpt>
      <trkpt lat="45.30894" lon="6.91567">
        <ele>2391.7717</ele>
        <time>2015-08-24T08:47:18Z</time>
      </trkpt>
      <trkpt lat="45.30896" lon="6.91567">
        <ele>2391.7717</ele>
        <time>2015-08-24T08:47:23Z</time>
      </trkpt>
      <trkpt lat="45.30896" lon="6.91568">
        <ele>2391.7717</ele>
        <time>2015-08-24T08:47:28Z</time>
      </trkpt>
      <trkpt lat="45.30894" lon="6.9156">
        <ele>2391.7717</ele>
        <time>2015-08-24T08:47:33Z</time>
      </trkpt>
      <trkpt lat="45.30891" lon="6.91555">
        <ele>2391.9739</ele>
        <time>2015-08-24T08:47:38Z</time>
      </trkpt>
      <trkpt lat="45.3089" lon="6.9155">
        <ele>2391.9739</ele>
        <time>2015-08-24T08:47:43Z</time>
      </trkpt>
      <trkpt lat="45.3089" lon="6.91543">
        <ele>2391.9739</ele>
        <time>2015-08-24T08:47:48Z</time>
      </trkpt>
      <trkpt lat="45.30891" lon="6.91535">
        <ele>2392.15</ele>
        <time>2015-08-24T08:47:53Z</time>
      </trkpt>
      <trkpt lat="45.3089" lon="6.91529">
        <ele>2392.15</ele>
        <time>2015-08-24T08:47:58Z</time>
      </trkpt>
      <trkpt lat="45.30891" lon="6.91523">
        <ele>2392.15</ele>
        <time>2015-08-24T08:48:03Z</time>
      </trkpt>
      <trkpt lat="45.30893" lon="6.91519">
        <ele>2392.1738</ele>
        <time>2015-08-24T08:48:08Z</time>
      </trkpt>
      <trkpt lat="45.30895" lon="6.91511">
        <ele>2392.1738</ele>
        <time>2015-08-24T08:48:13Z</time>
      </trkpt>
      <trkpt lat="45.30895" lon="6.91503">
        <ele>2392.0876</ele>
        <time>2015-08-24T08:48:18Z</time>
      </trkpt>
      <trkpt lat="45.30895" lon="6.91494">
        <ele>2392.0876</ele>
        <time>2015-08-24T08:48:23Z</time>
      </trkpt>
      <trkpt lat="45.30896" lon="6.91487">
        <ele>2391.9597</ele>
        <time>2015-08-24T08:48:28Z</time>
      </trkpt>
      <trkpt lat="45.30897" lon="6.9148">
        <ele>2391.9597</ele>
        <time>2015-08-24T08:48:33Z</time>
      </trkpt>
      <trkpt lat="45.30897" lon="6.91473">
        <ele>2391.7236</ele>
        <time>2015-08-24T08:48:38Z</time>
      </trkpt>
      <trkpt lat="45.30897" lon="6.91465">
        <ele>2391.7236</ele>
        <time>2015-08-24T08:48:43Z</time>
      </trkpt>
      <trkpt lat="45.30896" lon="6.91458">
        <ele>2391.4473</ele>
        <time>2015-08-24T08:48:48Z</time>
      </trkpt>
      <trkpt lat="45.30895" lon="6.91452">
        <ele>2391.4473</ele>
        <time>2015-08-24T08:48:53Z</time>
      </trkpt>
      <trkpt lat="45.30893" lon="6.91444">
        <ele>2391.0793</ele>
        <time>2015-08-24T08:48:58Z</time>
      </trkpt>
      <trkpt lat="45.30895" lon="6.91437">
        <ele>2391.0793</ele>
        <time>2015-08-24T08:49:03Z</time>
      </trkpt>
      <trkpt lat="45.30894" lon="6.9143">
        <ele>2390.5718</ele>
        <time>2015-08-24T08:49:08Z</time>
      </trkpt>
      <trkpt lat="45.30892" lon="6.91426">
        <ele>2390.5718</ele>
        <time>2015-08-24T08:49:13Z</time>
      </trkpt>
      <trkpt lat="45.30889" lon="6.9142">
        <ele>2390.5718</ele>
        <time>2015-08-24T08:49:18Z</time>
      </trkpt>
      <trkpt lat="45.30887" lon="6.91413">
        <ele>2389.9814</ele>
        <time>2015-08-24T08:49:23Z</time>
      </trkpt>
      <trkpt lat="45.30886" lon="6.91406">
        <ele>2389.9814</ele>
        <time>2015-08-24T08:49:28Z</time>
      </trkpt>
      <trkpt lat="45.30883" lon="6.91401">
        <ele>2389.2603</ele>
        <time>2015-08-24T08:49:33Z</time>
      </trkpt>
      <trkpt lat="45.3088" lon="6.91395">
        <ele>2389.2603</ele>
        <time>2015-08-24T08:49:38Z</time>
      </trkpt>
      <trkpt lat="45.30877" lon="6.91388">
        <ele>2388.4512</ele>
        <time>2015-08-24T08:49:43Z</time>
      </trkpt>
      <trkpt lat="45.30874" lon="6.91384">
        <ele>2388.4512</ele>
        <time>2015-08-24T08:49:48Z</time>
      </trkpt>
      <trkpt lat="45.30872" lon="6.9138">
        <ele>2388.4512</ele>
        <time>2015-08-24T08:49:53Z</time>
      </trkpt>
      <trkpt lat="45.30869" lon="6.91375">
        <ele>2387.4775</ele>
        <time>2015-08-24T08:49:58Z</time>
      </trkpt>
      <trkpt lat="45.30868" lon="6.91373">
        <ele>2387.4775</ele>
        <time>2015-08-24T08:50:03Z</time>
      </trkpt>
      <trkpt lat="45.30864" lon="6.91368">
        <ele>2387.4775</ele>
        <time>2015-08-24T08:50:08Z</time>
      </trkpt>
      <trkpt lat="45.30861" lon="6.91364">
        <ele>2386.1978</ele>
        <time>2015-08-24T08:50:13Z</time>
      </trkpt>
      <trkpt lat="45.30858" lon="6.91358">
        <ele>2386.1978</ele>
        <time>2015-08-24T08:50:18Z</time>
      </trkpt>
      <trkpt lat="45.30853" lon="6.91353">
        <ele>2384.7405</ele>
        <time>2015-08-24T08:50:23Z</time>
      </trkpt>
      <trkpt lat="45.3085" lon="6.91348">
        <ele>2384.7405</ele>
        <time>2015-08-24T08:50:28Z</time>
      </trkpt>
      <trkpt lat="45.30847" lon="6.91345">
        <ele>2384.7405</ele>
        <time>2015-08-24T08:50:33Z</time>
      </trkpt>
      <trkpt lat="45.30843" lon="6.91342">
        <ele>2383.1245</ele>
        <time>2015-08-24T08:50:38Z</time>
      </trkpt>
      <trkpt lat="45.30839" lon="6.91336">
        <ele>2383.1245</ele>
        <time>2015-08-24T08:50:43Z</time>
      </trkpt>
      <trkpt lat="45.30836" lon="6.91333">
        <ele>2381.4392</ele>
        <time>2015-08-24T08:50:48Z</time>
      </trkpt>
      <trkpt lat="45.3083" lon="6.9133">
        <ele>2381.4392</ele>
        <time>2015-08-24T08:50:53Z</time>
      </trkpt>
      <trkpt lat="45.30826" lon="6.91327">
        <ele>2379.768</ele>
        <time>2015-08-24T08:50:58Z</time>
      </trkpt>
      <trkpt lat="45.30822" lon="6.91324">
        <ele>2379.768</ele>
        <time>2015-08-24T08:51:03Z</time>
      </trkpt>
      <trkpt lat="45.30818" lon="6.9132">
        <ele>2378.1448</ele>
        <time>2015-08-24T08:51:08Z</time>
      </trkpt>
      <trkpt lat="45.30815" lon="6.91317">
        <ele>2378.1448</ele>
        <time>2015-08-24T08:51:13Z</time>
      </trkpt>
      <trkpt lat="45.30812" lon="6.91313">
        <ele>2378.1448</ele>
        <time>2015-08-24T08:51:18Z</time>
      </trkpt>
      <trkpt lat="45.30809" lon="6.91312">
        <ele>2376.5571</ele>
        <time>2015-08-24T08:51:23Z</time>
      </trkpt>
      <trkpt lat="45.3081" lon="6.91311">
        <ele>2376.5571</ele>
        <time>2015-08-24T08:51:28Z</time>
      </trkpt>
      <trkpt lat="45.30811" lon="6.91312">
        <ele>2376.5571</ele>
        <time>2015-08-24T08:51:33Z</time>
      </trkpt>
      <trkpt lat="45.30813" lon="6.91312">
        <ele>2376.5571</ele>
        <time>2015-08-24T08:51:38Z</time>
      </trkpt>
      <trkpt lat="45.30809" lon="6.91311">
        <ele>2376.5571</ele>
        <time>2015-08-24T08:51:43Z</time>
      </trkpt>
      <trkpt lat="45.30806" lon="6.91307">
        <ele>2374.9358</ele>
        <time>2015-08-24T08:51:48Z</time>
      </trkpt>
      <trkpt lat="45.30801" lon="6.91305">
        <ele>2374.9358</ele>
        <time>2015-08-24T08:51:53Z</time>
      </trkpt>
      <trkpt lat="45.30795" lon="6.91302">
        <ele>2373.3318</ele>
        <time>2015-08-24T08:51:58Z</time>
      </trkpt>
      <trkpt lat="45.3079" lon="6.91301">
        <ele>2373.3318</ele>
        <time>2015-08-24T08:52:03Z</time>
      </trkpt>
      <trkpt lat="45.30791" lon="6.91306">
        <ele>2373.3318</ele>
        <time>2015-08-24T08:52:08Z</time>
      </trkpt>
      <trkpt lat="45.30792" lon="6.91306">
        <ele>2371.7202</ele>
        <time>2015-08-24T08:52:13Z</time>
      </trkpt>
      <trkpt lat="45.30791" lon="6.91306">
        <ele>2371.7202</ele>
        <time>2015-08-24T08:52:18Z</time>
      </trkpt>
      <trkpt lat="45.30787" lon="6.91305">
        <ele>2371.7202</ele>
        <time>2015-08-24T08:52:23Z</time>
      </trkpt>
      <trkpt lat="45.30784" lon="6.91305">
        <ele>2371.7202</ele>
        <time>2015-08-24T08:52:28Z</time>
      </trkpt>
      <trkpt lat="45.30785" lon="6.91305">
        <ele>2369.9482</ele>
        <time>2015-08-24T08:52:33Z</time>
      </trkpt>
      <trkpt lat="45.30787" lon="6.91302">
        <ele>2369.9482</ele>
        <time>2015-08-24T08:52:38Z</time>
      </trkpt>
      <trkpt lat="45.3079" lon="6.91294">
        <ele>2368.0908</ele>
        <time>2015-08-24T08:52:43Z</time>
      </trkpt>
      <trkpt lat="45.30795" lon="6.91293">
        <ele>2368.0908</ele>
        <time>2015-08-24T08:52:48Z</time>
      </trkpt>
      <trkpt lat="45.30799" lon="6.91295">
        <ele>2366.1592</ele>
        <time>2015-08-24T08:52:53Z</time>
      </trkpt>
      <trkpt lat="45.30805" lon="6.91298">
        <ele>2366.1592</ele>
        <time>2015-08-24T08:52:58Z</time>
      </trkpt>
      <trkpt lat="45.30811" lon="6.91297">
        <ele>2364.2656</ele>
        <time>2015-08-24T08:53:03Z</time>
      </trkpt>
      <trkpt lat="45.30815" lon="6.91297">
        <ele>2364.2656</ele>
        <time>2015-08-24T08:53:08Z</time>
      </trkpt>
      <trkpt lat="45.30818" lon="6.91298">
        <ele>2364.2656</ele>
        <time>2015-08-24T08:53:13Z</time>
      </trkpt>
      <trkpt lat="45.30821" lon="6.91299">
        <ele>2362.369</ele>
        <time>2015-08-24T08:53:18Z</time>
      </trkpt>
      <trkpt lat="45.30825" lon="6.91298">
        <ele>2362.369</ele>
        <time>2015-08-24T08:53:23Z</time>
      </trkpt>
      <trkpt lat="45.3083" lon="6.91299">
        <ele>2362.369</ele>
        <time>2015-08-24T08:53:28Z</time>
      </trkpt>
      <trkpt lat="45.30835" lon="6.91301">
        <ele>2360.6042</ele>
        <time>2015-08-24T08:53:33Z</time>
      </trkpt>
      <trkpt lat="45.3084" lon="6.91302">
        <ele>2360.6042</ele>
        <time>2015-08-24T08:53:38Z</time>
      </trkpt>
      <trkpt lat="45.30846" lon="6.91303">
        <ele>2359.0095</ele>
        <time>2015-08-24T08:53:43Z</time>
      </trkpt>
      <trkpt lat="45.30851" lon="6.913">
        <ele>2359.0095</ele>
        <time>2015-08-24T08:53:48Z</time>
      </trkpt>
      <trkpt lat="45.30855" lon="6.913">
        <ele>2357.533</ele>
        <time>2015-08-24T08:53:53Z</time>
      </trkpt>
      <trkpt lat="45.30861" lon="6.91301">
        <ele>2357.533</ele>
        <time>2015-08-24T08:53:58Z</time>
      </trkpt>
      <trkpt lat="45.30866" lon="6.91305">
        <ele>2356.198</ele>
        <time>2015-08-24T08:54:03Z</time>
      </trkpt>
      <trkpt lat="45.30872" lon="6.91306">
        <ele>2356.198</ele>
        <time>2015-08-24T08:54:08Z</time>
      </trkpt>
      <trkpt lat="45.30876" lon="6.91308">
        <ele>2354.9536</ele>
        <time>2015-08-24T08:54:13Z</time>
      </trkpt>
      <trkpt lat="45.30878" lon="6.91309">
        <ele>2354.9536</ele>
        <time>2015-08-24T08:54:18Z</time>
      </trkpt>
      <trkpt lat="45.30882" lon="6.91311">
        <ele>2354.9536</ele>
        <time>2015-08-24T08:54:23Z</time>
      </trkpt>
      <trkpt lat="45.3089" lon="6.91312">
        <ele>2353.7957</ele>
        <time>2015-08-24T08:54:28Z</time>
      </trkpt>
      <trkpt lat="45.30895" lon="6.9131">
        <ele>2353.7957</ele>
        <time>2015-08-24T08:54:33Z</time>
      </trkpt>
      <trkpt lat="45.309" lon="6.91309">
        <ele>2352.7488</ele>
        <time>2015-08-24T08:54:38Z</time>
      </trkpt>
      <trkpt lat="45.30904" lon="6.91308">
        <ele>2352.7488</ele>
        <time>2015-08-24T08:54:43Z</time>
      </trkpt>
      <trkpt lat="45.30906" lon="6.91306">
        <ele>2352.7488</ele>
        <time>2015-08-24T08:54:48Z</time>
      </trkpt>
      <trkpt lat="45.3091" lon="6.91305">
        <ele>2352.0796</ele>
        <time>2015-08-24T08:54:53Z</time>
      </trkpt>
      <trkpt lat="45.30915" lon="6.91304">
        <ele>2352.0796</ele>
        <time>2015-08-24T08:54:58Z</time>
      </trkpt>
      <trkpt lat="45.30918" lon="6.91304">
        <ele>2352.0796</ele>
        <time>2015-08-24T08:55:03Z</time>
      </trkpt>
      <trkpt lat="45.30922" lon="6.91302">
        <ele>2351.4438</ele>
        <time>2015-08-24T08:55:08Z</time>
      </trkpt>
      <trkpt lat="45.30925" lon="6.91303">
        <ele>2351.4438</ele>
        <time>2015-08-24T08:55:13Z</time>
      </trkpt>
      <trkpt lat="45.30927" lon="6.91301">
        <ele>2351.4438</ele>
        <time>2015-08-24T08:55:18Z</time>
      </trkpt>
      <trkpt lat="45.30929" lon="6.91299">
        <ele>2351.4438</ele>
        <time>2015-08-24T08:55:23Z</time>
      </trkpt>
      <trkpt lat="45.30932" lon="6.91297">
        <ele>2351.0554</ele>
        <time>2015-08-24T08:55:28Z</time>
      </trkpt>
      <trkpt lat="45.30935" lon="6.91295">
        <ele>2351.0554</ele>
        <time>2015-08-24T08:55:33Z</time>
      </trkpt>
      <trkpt lat="45.30938" lon="6.91292">
        <ele>2351.0554</ele>
        <time>2015-08-24T08:55:38Z</time>
      </trkpt>
      <trkpt lat="45.30943" lon="6.91288">
        <ele>2350.7368</ele>
        <time>2015-08-24T08:55:43Z</time>
      </trkpt>
      <trkpt lat="45.30947" lon="6.91286">
        <ele>2350.7368</ele>
        <time>2015-08-24T08:55:48Z</time>
      </trkpt>
      <trkpt lat="45.30951" lon="6.91278">
        <ele>2350.496</ele>
        <time>2015-08-24T08:55:53Z</time>
      </trkpt>
      <trkpt lat="45.30954" lon="6.91273">
        <ele>2350.496</ele>
        <time>2015-08-24T08:55:58Z</time>
      </trkpt>
      <trkpt lat="45.30956" lon="6.9127">
        <ele>2350.496</ele>
        <time>2015-08-24T08:56:03Z</time>
      </trkpt>
      <trkpt lat="45.30959" lon="6.91264">
        <ele>2350.355</ele>
        <time>2015-08-24T08:56:08Z</time>
      </trkpt>
      <trkpt lat="45.30961" lon="6.9126">
        <ele>2350.355</ele>
        <time>2015-08-24T08:56:13Z</time>
      </trkpt>
      <trkpt lat="45.30961" lon="6.91259">
        <ele>2350.355</ele>
        <time>2015-08-24T08:56:18Z</time>
      </trkpt>
      <trkpt lat="45.30958" lon="6.91258">
        <ele>2350.355</ele>
        <time>2015-08-24T08:56:23Z</time>
      </trkpt>
      <trkpt lat="45.30959" lon="6.91255">
        <ele>2350.2615</ele>
        <time>2015-08-24T08:56:28Z</time>
      </trkpt>
      <trkpt lat="45.30959" lon="6.91257">
        <ele>2350.2615</ele>
        <time>2015-08-24T08:56:33Z</time>
      </trkpt>
      <trkpt lat="45.30959" lon="6.91259">
        <ele>2350.2615</ele>
        <time>2015-08-24T08:56:38Z</time>
      </trkpt>
      <trkpt lat="45.3096" lon="6.91259">
        <ele>2350.2615</ele>
        <time>2015-08-24T08:56:43Z</time>
      </trkpt>
      <trkpt lat="45.3096" lon="6.91259">
        <ele>2350.2615</ele>
        <time>2015-08-24T08:56:48Z</time>
      </trkpt>
      <trkpt lat="45.30963" lon="6.91249">
        <ele>2350.253</ele>
        <time>2015-08-24T08:56:53Z</time>
      </trkpt>
      <trkpt lat="45.30965" lon="6.91248">
        <ele>2350.253</ele>
        <time>2015-08-24T08:56:58Z</time>
      </trkpt>
      <trkpt lat="45.30966" lon="6.91246">
        <ele>2350.253</ele>
        <time>2015-08-24T08:57:03Z</time>
      </trkpt>
      <trkpt lat="45.30967" lon="6.91244">
        <ele>2350.253</ele>
        <time>2015-08-24T08:57:08Z</time>
      </trkpt>
      <trkpt lat="45.3097" lon="6.91242">
        <ele>2350.253</ele>
        <time>2015-08-24T08:57:13Z</time>
      </trkpt>
      <trkpt lat="45.30973" lon="6.91239">
        <ele>2350.3064</ele>
        <time>2015-08-24T08:57:18Z</time>
      </trkpt>
      <trkpt lat="45.30976" lon="6.91238">
        <ele>2350.3064</ele>
        <time>2015-08-24T08:57:23Z</time>
      </trkpt>
      <trkpt lat="45.30979" lon="6.91235">
        <ele>2350.3064</ele>
        <time>2015-08-24T08:57:28Z</time>
      </trkpt>
      <trkpt lat="45.30983" lon="6.91231">
        <ele>2350.4585</ele>
        <time>2015-08-24T08:57:33Z</time>
      </trkpt>
      <trkpt lat="45.30985" lon="6.91227">
        <ele>2350.4585</ele>
        <time>2015-08-24T08:57:38Z</time>
      </trkpt>
      <trkpt lat="45.30989" lon="6.91218">
        <ele>2350.4392</ele>
        <time>2015-08-24T08:57:43Z</time>
      </trkpt>
      <trkpt lat="45.30993" lon="6.91214">
        <ele>2350.4392</ele>
        <time>2015-08-24T08:57:48Z</time>
      </trkpt>
      <trkpt lat="45.30996" lon="6.91211">
        <ele>2350.4392</ele>
        <time>2015-08-24T08:57:53Z</time>
      </trkpt>
      <trkpt lat="45.30998" lon="6.91206">
        <ele>2350.1006</ele>
        <time>2015-08-24T08:57:58Z</time>
      </trkpt>
      <trkpt lat="45.31002" lon="6.91203">
        <ele>2350.1006</ele>
        <time>2015-08-24T08:58:03Z</time>
      </trkpt>
      <trkpt lat="45.31005" lon="6.91201">
        <ele>2350.1006</ele>
        <time>2015-08-24T08:58:08Z</time>
      </trkpt>
      <trkpt lat="45.31008" lon="6.91199">
        <ele>2349.5798</ele>
        <time>2015-08-24T08:58:13Z</time>
      </trkpt>
      <trkpt lat="45.31012" lon="6.91197">
        <ele>2349.5798</ele>
        <time>2015-08-24T08:58:18Z</time>
      </trkpt>
      <trkpt lat="45.31015" lon="6.91195">
        <ele>2349.5798</ele>
        <time>2015-08-24T08:58:23Z</time>
      </trkpt>
      <trkpt lat="45.31016" lon="6.91195">
        <ele>2349.5798</ele>
        <time>2015-08-24T08:58:28Z</time>
      </trkpt>
      <trkpt lat="45.31016" lon="6.91195">
        <ele>2349.5798</ele>
        <time>2015-08-24T08:58:33Z</time>
      </trkpt>
      <trkpt lat="45.3102" lon="6.91189">
        <ele>2349.1343</ele>
        <time>2015-08-24T08:58:38Z</time>
      </trkpt>
      <trkpt lat="45.3102" lon="6.91184">
        <ele>2349.1343</ele>
        <time>2015-08-24T08:58:43Z</time>
      </trkpt>
      <trkpt lat="45.31015" lon="6.91181">
        <ele>2349.1343</ele>
        <time>2015-08-24T08:58:48Z</time>
      </trkpt>
      <trkpt lat="45.31011" lon="6.9118">
        <ele>2348.8867</ele>
        <time>2015-08-24T08:58:53Z</time>
      </trkpt>
      <trkpt lat="45.31007" lon="6.9118">
        <ele>2348.8867</ele>
        <time>2015-08-24T08:58:58Z</time>
      </trkpt>
      <trkpt lat="45.31004" lon="6.9118">
        <ele>2348.8867</ele>
        <time>2015-08-24T08:59:03Z</time>
      </trkpt>
      <trkpt lat="45.31001" lon="6.91181">
        <ele>2348.432</ele>
        <time>2015-08-24T08:59:08Z</time>
      </trkpt>
      <trkpt lat="45.30997" lon="6.91182">
        <ele>2348.432</ele>
        <time>2015-08-24T08:59:13Z</time>
      </trkpt>
      <trkpt lat="45.30991" lon="6.91182">
        <ele>2347.899</ele>
        <time>2015-08-24T08:59:18Z</time>
      </trkpt>
      <trkpt lat="45.30987" lon="6.91182">
        <ele>2347.899</ele>
        <time>2015-08-24T08:59:23Z</time>
      </trkpt>
      <trkpt lat="45.30983" lon="6.91179">
        <ele>2347.899</ele>
        <time>2015-08-24T08:59:28Z</time>
      </trkpt>
      <trkpt lat="45.30977" lon="6.91174">
        <ele>2347.3074</ele>
        <time>2015-08-24T08:59:33Z</time>
      </trkpt>
      <trkpt lat="45.30972" lon="6.91174">
        <ele>2347.3074</ele>
        <time>2015-08-24T08:59:38Z</time>
      </trkpt>
      <trkpt lat="45.30967" lon="6.91173">
        <ele>2346.617</ele>
        <time>2015-08-24T08:59:43Z</time>
      </trkpt>
      <trkpt lat="45.30963" lon="6.91169">
        <ele>2346.617</ele>
        <time>2015-08-24T08:59:48Z</time>
      </trkpt>
      <trkpt lat="45.30959" lon="6.91166">
        <ele>2345.979</ele>
        <time>2015-08-24T08:59:53Z</time>
      </trkpt>
      <trkpt lat="45.30954" lon="6.91164">
        <ele>2345.979</ele>
        <time>2015-08-24T08:59:58Z</time>
      </trkpt>
      <trkpt lat="45.30948" lon="6.9116">
        <ele>2345.4028</ele>
        <time>2015-08-24T09:00:03Z</time>
      </trkpt>
      <trkpt lat="45.30942" lon="6.91159">
        <ele>2345.4028</ele>
        <time>2015-08-24T09:00:08Z</time>
      </trkpt>
      <trkpt lat="45.30939" lon="6.91153">
        <ele>2344.8838</ele>
        <time>2015-08-24T09:00:13Z</time>
      </trkpt>
      <trkpt lat="45.30935" lon="6.91147">
        <ele>2344.8838</ele>
        <time>2015-08-24T09:00:18Z</time>
      </trkpt>
      <trkpt lat="45.30929" lon="6.91143">
        <ele>2344.4448</ele>
        <time>2015-08-24T09:00:23Z</time>
      </trkpt>
      <trkpt lat="45.30925" lon="6.9114">
        <ele>2344.4448</ele>
        <time>2015-08-24T09:00:28Z</time>
      </trkpt>
      <trkpt lat="45.30921" lon="6.91138">
        <ele>2344.1082</ele>
        <time>2015-08-24T09:00:33Z</time>
      </trkpt>
      <trkpt lat="45.30914" lon="6.91134">
        <ele>2344.1082</ele>
        <time>2015-08-24T09:00:38Z</time>
      </trkpt>
      <trkpt lat="45.3091" lon="6.9113">
        <ele>2343.7205</ele>
        <time>2015-08-24T09:00:43Z</time>
      </trkpt>
      <trkpt lat="45.30906" lon="6.91127">
        <ele>2343.7205</ele>
        <time>2015-08-24T09:00:48Z</time>
      </trkpt>
      <trkpt lat="45.30902" lon="6.9112">
        <ele>2343.2556</ele>
        <time>2015-08-24T09:00:53Z</time>
      </trkpt>
      <trkpt lat="45.30898" lon="6.91116">
        <ele>2343.2556</ele>
        <time>2015-08-24T09:00:58Z</time>
      </trkpt>
      <trkpt lat="45.30895" lon="6.91113">
        <ele>2343.2556</ele>
        <time>2015-08-24T09:01:03Z</time>
      </trkpt>
      <trkpt lat="45.30892" lon="6.91109">
        <ele>2342.7466</ele>
        <time>2015-08-24T09:01:08Z</time>
      </trkpt>
      <trkpt lat="45.30887" lon="6.91102">
        <ele>2342.7466</ele>
        <time>2015-08-24T09:01:13Z</time>
      </trkpt>
      <trkpt lat="45.30881" lon="6.91096">
        <ele>2342.3403</ele>
        <time>2015-08-24T09:01:18Z</time>
      </trkpt>
      <trkpt lat="45.30881" lon="6.91092">
        <ele>2342.3403</ele>
        <time>2015-08-24T09:01:23Z</time>
      </trkpt>
      <trkpt lat="45.30878" lon="6.91087">
        <ele>2342.3403</ele>
        <time>2015-08-24T09:01:28Z</time>
      </trkpt>
      <trkpt lat="45.30874" lon="6.91082">
        <ele>2342.071</ele>
        <time>2015-08-24T09:01:33Z</time>
      </trkpt>
      <trkpt lat="45.30869" lon="6.91078">
        <ele>2342.071</ele>
        <time>2015-08-24T09:01:38Z</time>
      </trkpt>
      <trkpt lat="45.30866" lon="6.91075">
        <ele>2342.071</ele>
        <time>2015-08-24T09:01:43Z</time>
      </trkpt>
      <trkpt lat="45.30862" lon="6.91071">
        <ele>2341.7112</ele>
        <time>2015-08-24T09:01:48Z</time>
      </trkpt>
      <trkpt lat="45.30857" lon="6.91067">
        <ele>2341.7112</ele>
        <time>2015-08-24T09:01:53Z</time>
      </trkpt>
      <trkpt lat="45.30853" lon="6.91062">
        <ele>2341.2659</ele>
        <time>2015-08-24T09:01:58Z</time>
      </trkpt>
      <trkpt lat="45.30851" lon="6.91056">
        <ele>2341.2659</ele>
        <time>2015-08-24T09:02:03Z</time>
      </trkpt>
      <trkpt lat="45.30848" lon="6.9105">
        <ele>2340.7263</ele>
        <time>2015-08-24T09:02:08Z</time>
      </trkpt>
      <trkpt lat="45.30845" lon="6.91043">
        <ele>2340.7263</ele>
        <time>2015-08-24T09:02:13Z</time>
      </trkpt>
      <trkpt lat="45.30839" lon="6.91037">
        <ele>2340.156</ele>
        <time>2015-08-24T09:02:18Z</time>
      </trkpt>
      <trkpt lat="45.30836" lon="6.91034">
        <ele>2340.156</ele>
        <time>2015-08-24T09:02:23Z</time>
      </trkpt>
      <trkpt lat="45.30832" lon="6.91032">
        <ele>2340.156</ele>
        <time>2015-08-24T09:02:28Z</time>
      </trkpt>
      <trkpt lat="45.30828" lon="6.91029">
        <ele>2339.658</ele>
        <time>2015-08-24T09:02:33Z</time>
      </trkpt>
      <trkpt lat="45.30823" lon="6.91025">
        <ele>2339.658</ele>
        <time>2015-08-24T09:02:38Z</time>
      </trkpt>
      <trkpt lat="45.30817" lon="6.91018">
        <ele>2339.269</ele>
        <time>2015-08-24T09:02:43Z</time>
      </trkpt>
      <trkpt lat="45.30812" lon="6.91014">
        <ele>2339.269</ele>
        <time>2015-08-24T09:02:48Z</time>
      </trkpt>
      <trkpt lat="45.30809" lon="6.9101">
        <ele>2339.009</ele>
        <time>2015-08-24T09:02:53Z</time>
      </trkpt>
      <trkpt lat="45.30806" lon="6.91005">
        <ele>2339.009</ele>
        <time>2015-08-24T09:02:58Z</time>
      </trkpt>
      <trkpt lat="45.30802" lon="6.90999">
        <ele>2338.7522</ele>
        <time>2015-08-24T09:03:03Z</time>
      </trkpt>
      <trkpt lat="45.30799" lon="6.90993">
        <ele>2338.7522</ele>
        <time>2015-08-24T09:03:08Z</time>
      </trkpt>
      <trkpt lat="45.30796" lon="6.90987">
        <ele>2338.583</ele>
        <time>2015-08-24T09:03:13Z</time>
      </trkpt>
      <trkpt lat="45.3079" lon="6.90981">
        <ele>2338.583</ele>
        <time>2015-08-24T09:03:18Z</time>
      </trkpt>
      <trkpt lat="45.30788" lon="6.90977">
        <ele>2338.508</ele>
        <time>2015-08-24T09:03:23Z</time>
      </trkpt>
      <trkpt lat="45.30785" lon="6.90972">
        <ele>2338.508</ele>
        <time>2015-08-24T09:03:28Z</time>
      </trkpt>
      <trkpt lat="45.30782" lon="6.90967">
        <ele>2338.3604</ele>
        <time>2015-08-24T09:03:33Z</time>
      </trkpt>
      <trkpt lat="45.30779" lon="6.9096">
        <ele>2338.3604</ele>
        <time>2015-08-24T09:03:38Z</time>
      </trkpt>
      <trkpt lat="45.30776" lon="6.90954">
        <ele>2338.201</ele>
        <time>2015-08-24T09:03:43Z</time>
      </trkpt>
      <trkpt lat="45.30773" lon="6.90948">
        <ele>2338.201</ele>
        <time>2015-08-24T09:03:48Z</time>
      </trkpt>
      <trkpt lat="45.3077" lon="6.90943">
        <ele>2338.145</ele>
        <time>2015-08-24T09:03:53Z</time>
      </trkpt>
      <trkpt lat="45.30768" lon="6.90939">
        <ele>2338.145</ele>
        <time>2015-08-24T09:03:58Z</time>
      </trkpt>
      <trkpt lat="45.30765" lon="6.90931">
        <ele>2338.1685</ele>
        <time>2015-08-24T09:04:03Z</time>
      </trkpt>
      <trkpt lat="45.30763" lon="6.90925">
        <ele>2338.1685</ele>
        <time>2015-08-24T09:04:08Z</time>
      </trkpt>
      <trkpt lat="45.30761" lon="6.90919">
        <ele>2338.2927</ele>
        <time>2015-08-24T09:04:13Z</time>
      </trkpt>
      <trkpt lat="45.3076" lon="6.90915">
        <ele>2338.2927</ele>
        <time>2015-08-24T09:04:18Z</time>
      </trkpt>
      <trkpt lat="45.3076" lon="6.90905">
        <ele>2338.4792</ele>
        <time>2015-08-24T09:04:23Z</time>
      </trkpt>
      <trkpt lat="45.30759" lon="6.90897">
        <ele>2338.4792</ele>
        <time>2015-08-24T09:04:28Z</time>
      </trkpt>
      <trkpt lat="45.30756" lon="6.90893">
        <ele>2338.7212</ele>
        <time>2015-08-24T09:04:33Z</time>
      </trkpt>
      <trkpt lat="45.30755" lon="6.90887">
        <ele>2338.7212</ele>
        <time>2015-08-24T09:04:38Z</time>
      </trkpt>
      <trkpt lat="45.30753" lon="6.9088">
        <ele>2338.9834</ele>
        <time>2015-08-24T09:04:43Z</time>
      </trkpt>
      <trkpt lat="45.3075" lon="6.90872">
        <ele>2338.9834</ele>
        <time>2015-08-24T09:04:48Z</time>
      </trkpt>
      <trkpt lat="45.30748" lon="6.90866">
        <ele>2339.219</ele>
        <time>2015-08-24T09:04:53Z</time>
      </trkpt>
      <trkpt lat="45.30745" lon="6.90862">
        <ele>2339.219</ele>
        <time>2015-08-24T09:04:58Z</time>
      </trkpt>
      <trkpt lat="45.30742" lon="6.90857">
        <ele>2339.219</ele>
        <time>2015-08-24T09:05:03Z</time>
      </trkpt>
      <trkpt lat="45.30739" lon="6.90851">
        <ele>2339.485</ele>
        <time>2015-08-24T09:05:08Z</time>
      </trkpt>
      <trkpt lat="45.30736" lon="6.90844">
        <ele>2339.485</ele>
        <time>2015-08-24T09:05:13Z</time>
      </trkpt>
      <trkpt lat="45.30734" lon="6.90838">
        <ele>2339.792</ele>
        <time>2015-08-24T09:05:18Z</time>
      </trkpt>
      <trkpt lat="45.30731" lon="6.90833">
        <ele>2339.792</ele>
        <time>2015-08-24T09:05:23Z</time>
      </trkpt>
      <trkpt lat="45.30728" lon="6.90828">
        <ele>2340.0908</ele>
        <time>2015-08-24T09:05:28Z</time>
      </trkpt>
      <trkpt lat="45.30727" lon="6.90819">
        <ele>2340.0908</ele>
        <time>2015-08-24T09:05:33Z</time>
      </trkpt>
      <trkpt lat="45.30725" lon="6.90815">
        <ele>2340.4375</ele>
        <time>2015-08-24T09:05:38Z</time>
      </trkpt>
      <trkpt lat="45.30719" lon="6.9081">
        <ele>2340.4375</ele>
        <time>2015-08-24T09:05:43Z</time>
      </trkpt>
      <trkpt lat="45.30716" lon="6.90802">
        <ele>2340.9998</ele>
        <time>2015-08-24T09:05:48Z</time>
      </trkpt>
      <trkpt lat="45.30716" lon="6.90793">
        <ele>2340.9998</ele>
        <time>2015-08-24T09:05:53Z</time>
      </trkpt>
      <trkpt lat="45.30717" lon="6.9079">
        <ele>2340.9998</ele>
        <time>2015-08-24T09:05:58Z</time>
      </trkpt>
      <trkpt lat="45.30717" lon="6.90782">
        <ele>2341.5999</ele>
        <time>2015-08-24T09:06:03Z</time>
      </trkpt>
      <trkpt lat="45.30718" lon="6.90778">
        <ele>2341.5999</ele>
        <time>2015-08-24T09:06:08Z</time>
      </trkpt>
      <trkpt lat="45.30719" lon="6.90769">
        <ele>2342.2615</ele>
        <time>2015-08-24T09:06:13Z</time>
      </trkpt>
      <trkpt lat="45.3072" lon="6.90762">
        <ele>2342.2615</ele>
        <time>2015-08-24T09:06:18Z</time>
      </trkpt>
      <trkpt lat="45.3072" lon="6.90754">
        <ele>2342.9048</ele>
        <time>2015-08-24T09:06:23Z</time>
      </trkpt>
      <trkpt lat="45.3072" lon="6.90747">
        <ele>2342.9048</ele>
        <time>2015-08-24T09:06:28Z</time>
      </trkpt>
      <trkpt lat="45.30719" lon="6.9074">
        <ele>2343.4998</ele>
        <time>2015-08-24T09:06:33Z</time>
      </trkpt>
      <trkpt lat="45.30719" lon="6.90731">
        <ele>2343.4998</ele>
        <time>2015-08-24T09:06:38Z</time>
      </trkpt>
      <trkpt lat="45.30718" lon="6.90723">
        <ele>2344.0757</ele>
        <time>2015-08-24T09:06:43Z</time>
      </trkpt>
      <trkpt lat="45.30719" lon="6.90717">
        <ele>2344.0757</ele>
        <time>2015-08-24T09:06:48Z</time>
      </trkpt>
      <trkpt lat="45.30721" lon="6.90705">
        <ele>2344.7476</ele>
        <time>2015-08-24T09:06:53Z</time>
      </trkpt>
      <trkpt lat="45.3072" lon="6.90699">
        <ele>2344.7476</ele>
        <time>2015-08-24T09:06:58Z</time>
      </trkpt>
      <trkpt lat="45.30721" lon="6.90691">
        <ele>2345.3464</ele>
        <time>2015-08-24T09:07:03Z</time>
      </trkpt>
      <trkpt lat="45.3072" lon="6.90685">
        <ele>2345.3464</ele>
        <time>2015-08-24T09:07:08Z</time>
      </trkpt>
      <trkpt lat="45.30719" lon="6.90676">
        <ele>2345.847</ele>
        <time>2015-08-24T09:07:13Z</time>
      </trkpt>
      <trkpt lat="45.3072" lon="6.90668">
        <ele>2345.847</ele>
        <time>2015-08-24T09:07:18Z</time>
      </trkpt>
      <trkpt lat="45.30719" lon="6.90662">
        <ele>2346.3552</ele>
        <time>2015-08-24T09:07:23Z</time>
      </trkpt>
      <trkpt lat="45.30717" lon="6.90653">
        <ele>2346.3552</ele>
        <time>2015-08-24T09:07:28Z</time>
      </trkpt>
      <trkpt lat="45.30717" lon="6.90647">
        <ele>2346.8396</ele>
        <time>2015-08-24T09:07:33Z</time>
      </trkpt>
      <trkpt lat="45.30716" lon="6.90637">
        <ele>2346.8396</ele>
        <time>2015-08-24T09:07:38Z</time>
      </trkpt>
      <trkpt lat="45.30715" lon="6.90629">
        <ele>2347.113</ele>
        <time>2015-08-24T09:07:43Z</time>
      </trkpt>
      <trkpt lat="45.30713" lon="6.90622">
        <ele>2347.113</ele>
        <time>2015-08-24T09:07:48Z</time>
      </trkpt>
      <trkpt lat="45.30714" lon="6.90614">
        <ele>2347.161</ele>
        <time>2015-08-24T09:07:53Z</time>
      </trkpt>
      <trkpt lat="45.30714" lon="6.90605">
        <ele>2347.161</ele>
        <time>2015-08-24T09:07:58Z</time>
      </trkpt>
      <trkpt lat="45.30712" lon="6.906">
        <ele>2347.086</ele>
        <time>2015-08-24T09:08:03Z</time>
      </trkpt>
      <trkpt lat="45.30711" lon="6.90592">
        <ele>2347.086</ele>
        <time>2015-08-24T09:08:08Z</time>
      </trkpt>
      <trkpt lat="45.3071" lon="6.90582">
        <ele>2346.9119</ele>
        <time>2015-08-24T09:08:13Z</time>
      </trkpt>
      <trkpt lat="45.30709" lon="6.90575">
        <ele>2346.9119</ele>
        <time>2015-08-24T09:08:18Z</time>
      </trkpt>
      <trkpt lat="45.30707" lon="6.90567">
        <ele>2346.689</ele>
        <time>2015-08-24T09:08:23Z</time>
      </trkpt>
      <trkpt lat="45.30706" lon="6.90559">
        <ele>2346.689</ele>
        <time>2015-08-24T09:08:28Z</time>
      </trkpt>
      <trkpt lat="45.30704" lon="6.9055">
        <ele>2346.4795</ele>
        <time>2015-08-24T09:08:33Z</time>
      </trkpt>
      <trkpt lat="45.30703" lon="6.90545">
        <ele>2346.4795</ele>
        <time>2015-08-24T09:08:38Z</time>
      </trkpt>
      <trkpt lat="45.30705" lon="6.9054">
        <ele>2346.4795</ele>
        <time>2015-08-24T09:08:43Z</time>
      </trkpt>
      <trkpt lat="45.30705" lon="6.90529">
        <ele>2346.3406</ele>
        <time>2015-08-24T09:08:48Z</time>
      </trkpt>
      <trkpt lat="45.30706" lon="6.90524">
        <ele>2346.3406</ele>
        <time>2015-08-24T09:08:53Z</time>
      </trkpt>
      <trkpt lat="45.30707" lon="6.90522">
        <ele>2346.3406</ele>
        <time>2015-08-24T09:08:58Z</time>
      </trkpt>
      <trkpt lat="45.3071" lon="6.90515">
        <ele>2346.0515</ele>
        <time>2015-08-24T09:09:03Z</time>
      </trkpt>
      <trkpt lat="45.30712" lon="6.90509">
        <ele>2346.0515</ele>
        <time>2015-08-24T09:09:08Z</time>
      </trkpt>
      <trkpt lat="45.30711" lon="6.90503">
        <ele>2345.7537</ele>
        <time>2015-08-24T09:09:13Z</time>
      </trkpt>
      <trkpt lat="45.30709" lon="6.90497">
        <ele>2345.7537</ele>
        <time>2015-08-24T09:09:18Z</time>
      </trkpt>
      <trkpt lat="45.30707" lon="6.90492">
        <ele>2345.7537</ele>
        <time>2015-08-24T09:09:23Z</time>
      </trkpt>
      <trkpt lat="45.30705" lon="6.90487">
        <ele>2345.3765</ele>
        <time>2015-08-24T09:09:28Z</time>
      </trkpt>
      <trkpt lat="45.30702" lon="6.90481">
        <ele>2345.3765</ele>
        <time>2015-08-24T09:09:33Z</time>
      </trkpt>
      <trkpt lat="45.30698" lon="6.90475">
        <ele>2344.9995</ele>
        <time>2015-08-24T09:09:38Z</time>
      </trkpt>
      <trkpt lat="45.30696" lon="6.9047">
        <ele>2344.9995</ele>
        <time>2015-08-24T09:09:43Z</time>
      </trkpt>
      <trkpt lat="45.30692" lon="6.90463">
        <ele>2344.595</ele>
        <time>2015-08-24T09:09:48Z</time>
      </trkpt>
      <trkpt lat="45.30692" lon="6.90455">
        <ele>2344.595</ele>
        <time>2015-08-24T09:09:53Z</time>
      </trkpt>
      <trkpt lat="45.30694" lon="6.9045">
        <ele>2343.95</ele>
        <time>2015-08-24T09:09:58Z</time>
      </trkpt>
      <trkpt lat="45.30696" lon="6.90445">
        <ele>2343.95</ele>
        <time>2015-08-24T09:10:03Z</time>
      </trkpt>
      <trkpt lat="45.30696" lon="6.90438">
        <ele>2343.95</ele>
        <time>2015-08-24T09:10:08Z</time>
      </trkpt>
      <trkpt lat="45.30697" lon="6.90435">
        <ele>2343.2861</ele>
        <time>2015-08-24T09:10:13Z</time>
      </trkpt>
      <trkpt lat="45.30697" lon="6.90428">
        <ele>2343.2861</ele>
        <time>2015-08-24T09:10:18Z</time>
      </trkpt>
      <trkpt lat="45.30692" lon="6.90428">
        <ele>2342.6934</ele>
        <time>2015-08-24T09:10:23Z</time>
      </trkpt>
      <trkpt lat="45.30689" lon="6.90428">
        <ele>2342.6934</ele>
        <time>2015-08-24T09:10:28Z</time>
      </trkpt>
      <trkpt lat="45.30686" lon="6.90427">
        <ele>2342.6934</ele>
        <time>2015-08-24T09:10:33Z</time>
      </trkpt>
      <trkpt lat="45.30683" lon="6.90426">
        <ele>2342.1394</ele>
        <time>2015-08-24T09:10:38Z</time>
      </trkpt>
      <trkpt lat="45.3068" lon="6.90425">
        <ele>2342.1394</ele>
        <time>2015-08-24T09:10:43Z</time>
      </trkpt>
      <trkpt lat="45.30676" lon="6.90424">
        <ele>2342.1394</ele>
        <time>2015-08-24T09:10:48Z</time>
      </trkpt>
      <trkpt lat="45.30672" lon="6.9042">
        <ele>2341.6953</ele>
        <time>2015-08-24T09:10:53Z</time>
      </trkpt>
      <trkpt lat="45.30671" lon="6.9042">
        <ele>2341.6953</ele>
        <time>2015-08-24T09:10:58Z</time>
      </trkpt>
      <trkpt lat="45.3067" lon="6.90414">
        <ele>2341.6953</ele>
        <time>2015-08-24T09:11:03Z</time>
      </trkpt>
      <trkpt lat="45.3067" lon="6.9041">
        <ele>2341.6953</ele>
        <time>2015-08-24T09:11:08Z</time>
      </trkpt>
      <trkpt lat="45.3067" lon="6.90401">
        <ele>2341.5996</ele>
        <time>2015-08-24T09:11:13Z</time>
      </trkpt>
      <trkpt lat="45.30673" lon="6.90392">
        <ele>2341.5996</ele>
        <time>2015-08-24T09:11:18Z</time>
      </trkpt>
      <trkpt lat="45.30676" lon="6.90387">
        <ele>2341.4956</ele>
        <time>2015-08-24T09:11:23Z</time>
      </trkpt>
      <trkpt lat="45.30677" lon="6.90383">
        <ele>2341.4956</ele>
        <time>2015-08-24T09:11:28Z</time>
      </trkpt>
      <trkpt lat="45.30678" lon="6.90376">
        <ele>2341.4956</ele>
        <time>2015-08-24T09:11:33Z</time>
      </trkpt>
      <trkpt lat="45.30681" lon="6.9037">
        <ele>2341.543</ele>
        <time>2015-08-24T09:11:38Z</time>
      </trkpt>
      <trkpt lat="45.30682" lon="6.90364">
        <ele>2341.543</ele>
        <time>2015-08-24T09:11:43Z</time>
      </trkpt>
      <trkpt lat="45.30681" lon="6.90357">
        <ele>2341.6587</ele>
        <time>2015-08-24T09:11:48Z</time>
      </trkpt>
      <trkpt lat="45.3068" lon="6.90354">
        <ele>2341.6587</ele>
        <time>2015-08-24T09:11:53Z</time>
      </trkpt>
      <trkpt lat="45.30677" lon="6.9035">
        <ele>2341.6587</ele>
        <time>2015-08-24T09:11:58Z</time>
      </trkpt>
      <trkpt lat="45.30674" lon="6.90344">
        <ele>2341.823</ele>
        <time>2015-08-24T09:12:03Z</time>
      </trkpt>
      <trkpt lat="45.30674" lon="6.90341">
        <ele>2341.823</ele>
        <time>2015-08-24T09:12:08Z</time>
      </trkpt>
      <trkpt lat="45.30672" lon="6.90333">
        <ele>2341.823</ele>
        <time>2015-08-24T09:12:13Z</time>
      </trkpt>
      <trkpt lat="45.3067" lon="6.90325">
        <ele>2342.2195</ele>
        <time>2015-08-24T09:12:18Z</time>
      </trkpt>
      <trkpt lat="45.30668" lon="6.90318">
        <ele>2342.2195</ele>
        <time>2015-08-24T09:12:23Z</time>
      </trkpt>
      <trkpt lat="45.30667" lon="6.90313">
        <ele>2342.7148</ele>
        <time>2015-08-24T09:12:28Z</time>
      </trkpt>
      <trkpt lat="45.30666" lon="6.90303">
        <ele>2342.7148</ele>
        <time>2015-08-24T09:12:33Z</time>
      </trkpt>
      <trkpt lat="45.30666" lon="6.90298">
        <ele>2343.1133</ele>
        <time>2015-08-24T09:12:38Z</time>
      </trkpt>
      <trkpt lat="45.30665" lon="6.90294">
        <ele>2343.1133</ele>
        <time>2015-08-24T09:12:43Z</time>
      </trkpt>
      <trkpt lat="45.30663" lon="6.90286">
        <ele>2343.4353</ele>
        <time>2015-08-24T09:12:48Z</time>
      </trkpt>
      <trkpt lat="45.30662" lon="6.90277">
        <ele>2343.4353</ele>
        <time>2015-08-24T09:12:53Z</time>
      </trkpt>
      <trkpt lat="45.30664" lon="6.90267">
        <ele>2343.7002</ele>
        <time>2015-08-24T09:12:58Z</time>
      </trkpt>
      <trkpt lat="45.30668" lon="6.9026">
        <ele>2343.7002</ele>
        <time>2015-08-24T09:13:03Z</time>
      </trkpt>
      <trkpt lat="45.3067" lon="6.90257">
        <ele>2343.7002</ele>
        <time>2015-08-24T09:13:08Z</time>
      </trkpt>
      <trkpt lat="45.30673" lon="6.9025">
        <ele>2343.7961</ele>
        <time>2015-08-24T09:13:13Z</time>
      </trkpt>
      <trkpt lat="45.30677" lon="6.90241">
        <ele>2343.7961</ele>
        <time>2015-08-24T09:13:18Z</time>
      </trkpt>
      <trkpt lat="45.30679" lon="6.90239">
        <ele>2343.8223</ele>
        <time>2015-08-24T09:13:23Z</time>
      </trkpt>
      <trkpt lat="45.30682" lon="6.90233">
        <ele>2343.8223</ele>
        <time>2015-08-24T09:13:28Z</time>
      </trkpt>
      <trkpt lat="45.30686" lon="6.90227">
        <ele>2343.8408</ele>
        <time>2015-08-24T09:13:33Z</time>
      </trkpt>
      <trkpt lat="45.3069" lon="6.90221">
        <ele>2343.8408</ele>
        <time>2015-08-24T09:13:38Z</time>
      </trkpt>
      <trkpt lat="45.30693" lon="6.90218">
        <ele>2343.6946</ele>
        <time>2015-08-24T09:13:43Z</time>
      </trkpt>
      <trkpt lat="45.30696" lon="6.90214">
        <ele>2343.6946</ele>
        <time>2015-08-24T09:13:48Z</time>
      </trkpt>
      <trkpt lat="45.30696" lon="6.90209">
        <ele>2343.6946</ele>
        <time>2015-08-24T09:13:53Z</time>
      </trkpt>
      <trkpt lat="45.30703" lon="6.90203">
        <ele>2343.3816</ele>
        <time>2015-08-24T09:13:58Z</time>
      </trkpt>
      <trkpt lat="45.30707" lon="6.90199">
        <ele>2343.3816</ele>
        <time>2015-08-24T09:14:03Z</time>
      </trkpt>
      <trkpt lat="45.30712" lon="6.90196">
        <ele>2343.0159</ele>
        <time>2015-08-24T09:14:08Z</time>
      </trkpt>
      <trkpt lat="45.30716" lon="6.90192">
        <ele>2343.0159</ele>
        <time>2015-08-24T09:14:13Z</time>
      </trkpt>
      <trkpt lat="45.30717" lon="6.90189">
        <ele>2343.0159</ele>
        <time>2015-08-24T09:14:18Z</time>
      </trkpt>
      <trkpt lat="45.30716" lon="6.90184">
        <ele>2342.5737</ele>
        <time>2015-08-24T09:14:23Z</time>
      </trkpt>
      <trkpt lat="45.30715" lon="6.90179">
        <ele>2342.5737</ele>
        <time>2015-08-24T09:14:28Z</time>
      </trkpt>
      <trkpt lat="45.30713" lon="6.90172">
        <ele>2342.5737</ele>
        <time>2015-08-24T09:14:33Z</time>
      </trkpt>
      <trkpt lat="45.30711" lon="6.90166">
        <ele>2342.3503</ele>
        <time>2015-08-24T09:14:38Z</time>
      </trkpt>
      <trkpt lat="45.30709" lon="6.90159">
        <ele>2342.3503</ele>
        <time>2015-08-24T09:14:43Z</time>
      </trkpt>
      <trkpt lat="45.30709" lon="6.90153">
        <ele>2342.2297</ele>
        <time>2015-08-24T09:14:48Z</time>
      </trkpt>
      <trkpt lat="45.30708" lon="6.90144">
        <ele>2342.2297</ele>
        <time>2015-08-24T09:14:53Z</time>
      </trkpt>
      <trkpt lat="45.30708" lon="6.90138">
        <ele>2342.0176</ele>
        <time>2015-08-24T09:14:58Z</time>
      </trkpt>
      <trkpt lat="45.30707" lon="6.90133">
        <ele>2342.0176</ele>
        <time>2015-08-24T09:15:03Z</time>
      </trkpt>
      <trkpt lat="45.30706" lon="6.90127">
        <ele>2342.0176</ele>
        <time>2015-08-24T09:15:08Z</time>
      </trkpt>
      <trkpt lat="45.30707" lon="6.90122">
        <ele>2341.591</ele>
        <time>2015-08-24T09:15:13Z</time>
      </trkpt>
      <trkpt lat="45.30708" lon="6.90113">
        <ele>2341.591</ele>
        <time>2015-08-24T09:15:18Z</time>
      </trkpt>
      <trkpt lat="45.3071" lon="6.90109">
        <ele>2340.9534</ele>
        <time>2015-08-24T09:15:23Z</time>
      </trkpt>
      <trkpt lat="45.30707" lon="6.90104">
        <ele>2340.9534</ele>
        <time>2015-08-24T09:15:28Z</time>
      </trkpt>
      <trkpt lat="45.30707" lon="6.90095">
        <ele>2340.2083</ele>
        <time>2015-08-24T09:15:33Z</time>
      </trkpt>
      <trkpt lat="45.30706" lon="6.90088">
        <ele>2340.2083</ele>
        <time>2015-08-24T09:15:38Z</time>
      </trkpt>
      <trkpt lat="45.30705" lon="6.90081">
        <ele>2339.4377</ele>
        <time>2015-08-24T09:15:43Z</time>
      </trkpt>
      <trkpt lat="45.30706" lon="6.90073">
        <ele>2339.4377</ele>
        <time>2015-08-24T09:15:48Z</time>
      </trkpt>
      <trkpt lat="45.30706" lon="6.90066">
        <ele>2338.574</ele>
        <time>2015-08-24T09:15:53Z</time>
      </trkpt>
      <trkpt lat="45.30705" lon="6.90059">
        <ele>2338.574</ele>
        <time>2015-08-24T09:15:58Z</time>
      </trkpt>
      <trkpt lat="45.30704" lon="6.90052">
        <ele>2337.5396</ele>
        <time>2015-08-24T09:16:03Z</time>
      </trkpt>
      <trkpt lat="45.30702" lon="6.90044">
        <ele>2337.5396</ele>
        <time>2015-08-24T09:16:08Z</time>
      </trkpt>
      <trkpt lat="45.30702" lon="6.90039">
        <ele>2336.2922</ele>
        <time>2015-08-24T09:16:13Z</time>
      </trkpt>
      <trkpt lat="45.30701" lon="6.90035">
        <ele>2336.2922</ele>
        <time>2015-08-24T09:16:18Z</time>
      </trkpt>
      <trkpt lat="45.307" lon="6.9003">
        <ele>2336.2922</ele>
        <time>2015-08-24T09:16:23Z</time>
      </trkpt>
      <trkpt lat="45.30699" lon="6.90026">
        <ele>2334.794</ele>
        <time>2015-08-24T09:16:28Z</time>
      </trkpt>
      <trkpt lat="45.30698" lon="6.9002">
        <ele>2334.794</ele>
        <time>2015-08-24T09:16:33Z</time>
      </trkpt>
      <trkpt lat="45.30697" lon="6.90016">
        <ele>2334.794</ele>
        <time>2015-08-24T09:16:38Z</time>
      </trkpt>
      <trkpt lat="45.30697" lon="6.90012">
        <ele>2333.2395</ele>
        <time>2015-08-24T09:16:43Z</time>
      </trkpt>
      <trkpt lat="45.30697" lon="6.90011">
        <ele>2333.2395</ele>
        <time>2015-08-24T09:16:48Z</time>
      </trkpt>
      <trkpt lat="45.30697" lon="6.90011">
        <ele>2333.2395</ele>
        <time>2015-08-24T09:16:53Z</time>
      </trkpt>
      <trkpt lat="45.30696" lon="6.9001">
        <ele>2333.2395</ele>
        <time>2015-08-24T09:17:08Z</time>
      </trkpt>
      <trkpt lat="45.30695" lon="6.90009">
        <ele>2333.2395</ele>
        <time>2015-08-24T09:17:13Z</time>
      </trkpt>
      <trkpt lat="45.30694" lon="6.90011">
        <ele>2333.2395</ele>
        <time>2015-08-24T09:17:18Z</time>
      </trkpt>
      <trkpt lat="45.30693" lon="6.90011">
        <ele>2333.2395</ele>
        <time>2015-08-24T09:17:23Z</time>
      </trkpt>
      <trkpt lat="45.30693" lon="6.9001">
        <ele>2333.2395</ele>
        <time>2015-08-24T09:17:28Z</time>
      </trkpt>
      <trkpt lat="45.30693" lon="6.9001">
        <ele>2333.2395</ele>
        <time>2015-08-24T09:17:33Z</time>
      </trkpt>
      <trkpt lat="45.30693" lon="6.90011">
        <ele>2333.2395</ele>
        <time>2015-08-24T09:18:08Z</time>
      </trkpt>
      <trkpt lat="45.30693" lon="6.90011">
        <ele>2333.2395</ele>
        <time>2015-08-24T09:18:13Z</time>
      </trkpt>
      <trkpt lat="45.30694" lon="6.9001">
        <ele>2333.2395</ele>
        <time>2015-08-24T09:19:13Z</time>
      </trkpt>
      <trkpt lat="45.30694" lon="6.9001">
        <ele>2333.2395</ele>
        <time>2015-08-24T09:19:18Z</time>
      </trkpt>
      <trkpt lat="45.30691" lon="6.90003">
        <ele>2331.4504</ele>
        <time>2015-08-24T09:21:18Z</time>
      </trkpt>
      <trkpt lat="45.3069" lon="6.89993">
        <ele>2331.4504</ele>
        <time>2015-08-24T09:21:23Z</time>
      </trkpt>
      <trkpt lat="45.30687" lon="6.89978">
        <ele>2329.5203</ele>
        <time>2015-08-24T09:21:33Z</time>
      </trkpt>
      <trkpt lat="45.30685" lon="6.89969">
        <ele>2329.5203</ele>
        <time>2015-08-24T09:21:38Z</time>
      </trkpt>
      <trkpt lat="45.30682" lon="6.89955">
        <ele>2327.4072</ele>
        <time>2015-08-24T09:21:48Z</time>
      </trkpt>
      <trkpt lat="45.30683" lon="6.89947">
        <ele>2327.4072</ele>
        <time>2015-08-24T09:21:53Z</time>
      </trkpt>
      <trkpt lat="45.30686" lon="6.89944">
        <ele>2325.3176</ele>
        <time>2015-08-24T09:22:03Z</time>
      </trkpt>
      <trkpt lat="45.30684" lon="6.8994">
        <ele>2325.3176</ele>
        <time>2015-08-24T09:22:08Z</time>
      </trkpt>
      <trkpt lat="45.30675" lon="6.8993">
        <ele>2323.5864</ele>
        <time>2015-08-24T09:22:18Z</time>
      </trkpt>
      <trkpt lat="45.30672" lon="6.89926">
        <ele>2323.5864</ele>
        <time>2015-08-24T09:22:23Z</time>
      </trkpt>
      <trkpt lat="45.30659" lon="6.89912">
        <ele>2322.062</ele>
        <time>2015-08-24T09:22:38Z</time>
      </trkpt>
      <trkpt lat="45.30653" lon="6.89909">
        <ele>2322.062</ele>
        <time>2015-08-24T09:22:43Z</time>
      </trkpt>
      <trkpt lat="45.30645" lon="6.89895">
        <ele>2320.646</ele>
        <time>2015-08-24T09:22:53Z</time>
      </trkpt>
      <trkpt lat="45.3064" lon="6.89886">
        <ele>2320.646</ele>
        <time>2015-08-24T09:22:58Z</time>
      </trkpt>
      <trkpt lat="45.30638" lon="6.89878">
        <ele>2319.1465</ele>
        <time>2015-08-24T09:23:08Z</time>
      </trkpt>
      <trkpt lat="45.30638" lon="6.89878">
        <ele>2319.1465</ele>
        <time>2015-08-24T09:23:13Z</time>
      </trkpt>
      <trkpt lat="45.30637" lon="6.89877">
        <ele>2319.1465</ele>
        <time>2015-08-24T09:24:38Z</time>
      </trkpt>
      <trkpt lat="45.30634" lon="6.8987">
        <ele>2319.1465</ele>
        <time>2015-08-24T09:24:43Z</time>
      </trkpt>
      <trkpt lat="45.30629" lon="6.89857">
        <ele>2317.6018</ele>
        <time>2015-08-24T09:24:53Z</time>
      </trkpt>
      <trkpt lat="45.30626" lon="6.89852">
        <ele>2317.6018</ele>
        <time>2015-08-24T09:24:58Z</time>
      </trkpt>
      <trkpt lat="45.30619" lon="6.89837">
        <ele>2316.5083</ele>
        <time>2015-08-24T09:25:08Z</time>
      </trkpt>
      <trkpt lat="45.30619" lon="6.89831">
        <ele>2316.5083</ele>
        <time>2015-08-24T09:25:13Z</time>
      </trkpt>
      <trkpt lat="45.3061" lon="6.89812">
        <ele>2314.783</ele>
        <time>2015-08-24T09:25:28Z</time>
      </trkpt>
      <trkpt lat="45.3061" lon="6.89808">
        <ele>2314.783</ele>
        <time>2015-08-24T09:25:33Z</time>
      </trkpt>
      <trkpt lat="45.30609" lon="6.89793">
        <ele>2312.49</ele>
        <time>2015-08-24T09:25:43Z</time>
      </trkpt>
      <trkpt lat="45.30609" lon="6.89789">
        <ele>2312.49</ele>
        <time>2015-08-24T09:25:48Z</time>
      </trkpt>
      <trkpt lat="45.30604" lon="6.89784">
        <ele>2312.49</ele>
        <time>2015-08-24T09:25:58Z</time>
      </trkpt>
      <trkpt lat="45.306" lon="6.89787">
        <ele>2310.0364</ele>
        <time>2015-08-24T09:26:03Z</time>
      </trkpt>
      <trkpt lat="45.30591" lon="6.89785">
        <ele>2307.7712</ele>
        <time>2015-08-24T09:26:13Z</time>
      </trkpt>
      <trkpt lat="45.30584" lon="6.89785">
        <ele>2307.7712</ele>
        <time>2015-08-24T09:26:18Z</time>
      </trkpt>
      <trkpt lat="45.30579" lon="6.89784">
        <ele>2305.8433</ele>
        <time>2015-08-24T09:26:28Z</time>
      </trkpt>
      <trkpt lat="45.30574" lon="6.89787">
        <ele>2305.8433</ele>
        <time>2015-08-24T09:26:33Z</time>
      </trkpt>
      <trkpt lat="45.30567" lon="6.89789">
        <ele>2303.886</ele>
        <time>2015-08-24T09:26:43Z</time>
      </trkpt>
      <trkpt lat="45.30564" lon="6.89791">
        <ele>2303.886</ele>
        <time>2015-08-24T09:26:48Z</time>
      </trkpt>
      <trkpt lat="45.30557" lon="6.89793">
        <ele>2301.9194</ele>
        <time>2015-08-24T09:26:58Z</time>
      </trkpt>
      <trkpt lat="45.30553" lon="6.89795">
        <ele>2301.9194</ele>
        <time>2015-08-24T09:27:03Z</time>
      </trkpt>
      <trkpt lat="45.30545" lon="6.89798">
        <ele>2299.8757</ele>
        <time>2015-08-24T09:27:18Z</time>
      </trkpt>
      <trkpt lat="45.30543" lon="6.89799">
        <ele>2299.8757</ele>
        <time>2015-08-24T09:27:23Z</time>
      </trkpt>
      <trkpt lat="45.30535" lon="6.89801">
        <ele>2298.009</ele>
        <time>2015-08-24T09:27:33Z</time>
      </trkpt>
      <trkpt lat="45.30534" lon="6.89801">
        <ele>2298.009</ele>
        <time>2015-08-24T09:27:38Z</time>
      </trkpt>
      <trkpt lat="45.30529" lon="6.89801">
        <ele>2298.009</ele>
        <time>2015-08-24T09:27:48Z</time>
      </trkpt>
      <trkpt lat="45.30527" lon="6.89801">
        <ele>2298.009</ele>
        <time>2015-08-24T09:27:53Z</time>
      </trkpt>
      <trkpt lat="45.30521" lon="6.89806">
        <ele>2296.4824</ele>
        <time>2015-08-24T09:28:03Z</time>
      </trkpt>
      <trkpt lat="45.30519" lon="6.89808">
        <ele>2296.4824</ele>
        <time>2015-08-24T09:28:08Z</time>
      </trkpt>
      <trkpt lat="45.30513" lon="6.89807">
        <ele>2296.4824</ele>
        <time>2015-08-24T09:28:18Z</time>
      </trkpt>
      <trkpt lat="45.30511" lon="6.89805">
        <ele>2295.5608</ele>
        <time>2015-08-24T09:28:23Z</time>
      </trkpt>
      <trkpt lat="45.30508" lon="6.898">
        <ele>2295.5608</ele>
        <time>2015-08-24T09:28:33Z</time>
      </trkpt>
      <trkpt lat="45.30507" lon="6.89795">
        <ele>2295.5608</ele>
        <time>2015-08-24T09:28:38Z</time>
      </trkpt>
      <trkpt lat="45.30505" lon="6.8978">
        <ele>2295.185</ele>
        <time>2015-08-24T09:28:53Z</time>
      </trkpt>
      <trkpt lat="45.30505" lon="6.89776">
        <ele>2295.185</ele>
        <time>2015-08-24T09:28:58Z</time>
      </trkpt>
      <trkpt lat="45.30502" lon="6.89766">
        <ele>2295.0403</ele>
        <time>2015-08-24T09:29:08Z</time>
      </trkpt>
      <trkpt lat="45.305" lon="6.89759">
        <ele>2295.0403</ele>
        <time>2015-08-24T09:29:13Z</time>
      </trkpt>
      <trkpt lat="45.30497" lon="6.89749">
        <ele>2295.107</ele>
        <time>2015-08-24T09:29:23Z</time>
      </trkpt>
      <trkpt lat="45.30496" lon="6.89744">
        <ele>2295.107</ele>
        <time>2015-08-24T09:29:28Z</time>
      </trkpt>
      <trkpt lat="45.30494" lon="6.89733">
        <ele>2295.4238</ele>
        <time>2015-08-24T09:29:38Z</time>
      </trkpt>
      <trkpt lat="45.30494" lon="6.89728">
        <ele>2295.4238</ele>
        <time>2015-08-24T09:29:43Z</time>
      </trkpt>
      <trkpt lat="45.3049" lon="6.89716">
        <ele>2296.0266</ele>
        <time>2015-08-24T09:29:53Z</time>
      </trkpt>
      <trkpt lat="45.3049" lon="6.8971">
        <ele>2296.0266</ele>
        <time>2015-08-24T09:29:58Z</time>
      </trkpt>
      <trkpt lat="45.30488" lon="6.89697">
        <ele>2296.7021</ele>
        <time>2015-08-24T09:30:08Z</time>
      </trkpt>
      <trkpt lat="45.30485" lon="6.89692">
        <ele>2296.7021</ele>
        <time>2015-08-24T09:30:13Z</time>
      </trkpt>
      <trkpt lat="45.30483" lon="6.89681">
        <ele>2297.5557</ele>
        <time>2015-08-24T09:30:23Z</time>
      </trkpt>
      <trkpt lat="45.30483" lon="6.89675">
        <ele>2297.5557</ele>
        <time>2015-08-24T09:30:28Z</time>
      </trkpt>
      <trkpt lat="45.30479" lon="6.89662">
        <ele>2298.5828</ele>
        <time>2015-08-24T09:30:38Z</time>
      </trkpt>
      <trkpt lat="45.30477" lon="6.89658">
        <ele>2298.5828</ele>
        <time>2015-08-24T09:30:43Z</time>
      </trkpt>
      <trkpt lat="45.30468" lon="6.89646">
        <ele>2299.7795</ele>
        <time>2015-08-24T09:30:58Z</time>
      </trkpt>
      <trkpt lat="45.30465" lon="6.89642">
        <ele>2299.7795</ele>
        <time>2015-08-24T09:31:03Z</time>
      </trkpt>
      <trkpt lat="45.30461" lon="6.89632">
        <ele>2301.055</ele>
        <time>2015-08-24T09:31:13Z</time>
      </trkpt>
      <trkpt lat="45.30457" lon="6.89624">
        <ele>2301.055</ele>
        <time>2015-08-24T09:31:18Z</time>
      </trkpt>
      <trkpt lat="45.30454" lon="6.89612">
        <ele>2302.4395</ele>
        <time>2015-08-24T09:31:28Z</time>
      </trkpt>
      <trkpt lat="45.30453" lon="6.89604">
        <ele>2302.4395</ele>
        <time>2015-08-24T09:31:33Z</time>
      </trkpt>
      <trkpt lat="45.30449" lon="6.8959">
        <ele>2303.8467</ele>
        <time>2015-08-24T09:31:43Z</time>
      </trkpt>
      <trkpt lat="45.30447" lon="6.89584">
        <ele>2303.8467</ele>
        <time>2015-08-24T09:31:48Z</time>
      </trkpt>
      <trkpt lat="45.30445" lon="6.89573">
        <ele>2305.1096</ele>
        <time>2015-08-24T09:31:58Z</time>
      </trkpt>
      <trkpt lat="45.30445" lon="6.89565">
        <ele>2305.1096</ele>
        <time>2015-08-24T09:32:03Z</time>
      </trkpt>
      <trkpt lat="45.30441" lon="6.8955">
        <ele>2306.189</ele>
        <time>2015-08-24T09:32:13Z</time>
      </trkpt>
      <trkpt lat="45.30438" lon="6.89541">
        <ele>2306.189</ele>
        <time>2015-08-24T09:32:18Z</time>
      </trkpt>
      <trkpt lat="45.30437" lon="6.89526">
        <ele>2307.1213</ele>
        <time>2015-08-24T09:32:28Z</time>
      </trkpt>
      <trkpt lat="45.30435" lon="6.89521">
        <ele>2307.1213</ele>
        <time>2015-08-24T09:32:33Z</time>
      </trkpt>
      <trkpt lat="45.30438" lon="6.89508">
        <ele>2307.8838</ele>
        <time>2015-08-24T09:32:43Z</time>
      </trkpt>
      <trkpt lat="45.30435" lon="6.89501">
        <ele>2307.8838</ele>
        <time>2015-08-24T09:32:48Z</time>
      </trkpt>
      <trkpt lat="45.30435" lon="6.89487">
        <ele>2308.4407</ele>
        <time>2015-08-24T09:32:58Z</time>
      </trkpt>
      <trkpt lat="45.30439" lon="6.89483">
        <ele>2308.4407</ele>
        <time>2015-08-24T09:33:03Z</time>
      </trkpt>
      <trkpt lat="45.3044" lon="6.89472">
        <ele>2309.0913</ele>
        <time>2015-08-24T09:33:13Z</time>
      </trkpt>
      <trkpt lat="45.30441" lon="6.89463">
        <ele>2309.0913</ele>
        <time>2015-08-24T09:33:18Z</time>
      </trkpt>
      <trkpt lat="45.30441" lon="6.89449">
        <ele>2309.4937</ele>
        <time>2015-08-24T09:33:28Z</time>
      </trkpt>
      <trkpt lat="45.3044" lon="6.89443">
        <ele>2309.4937</ele>
        <time>2015-08-24T09:33:33Z</time>
      </trkpt>
      <trkpt lat="45.30445" lon="6.89425">
        <ele>2309.3452</ele>
        <time>2015-08-24T09:33:48Z</time>
      </trkpt>
      <trkpt lat="45.30447" lon="6.89419">
        <ele>2309.3452</ele>
        <time>2015-08-24T09:33:53Z</time>
      </trkpt>
      <trkpt lat="45.30452" lon="6.89409">
        <ele>2308.6853</ele>
        <time>2015-08-24T09:34:03Z</time>
      </trkpt>
      <trkpt lat="45.30456" lon="6.89404">
        <ele>2308.6853</ele>
        <time>2015-08-24T09:34:08Z</time>
      </trkpt>
      <trkpt lat="45.30463" lon="6.89397">
        <ele>2307.5942</ele>
        <time>2015-08-24T09:34:18Z</time>
      </trkpt>
      <trkpt lat="45.30466" lon="6.89394">
        <ele>2307.5942</ele>
        <time>2015-08-24T09:34:23Z</time>
      </trkpt>
      <trkpt lat="45.30469" lon="6.89387">
        <ele>2306.7393</ele>
        <time>2015-08-24T09:34:33Z</time>
      </trkpt>
      <trkpt lat="45.3047" lon="6.89383">
        <ele>2306.7393</ele>
        <time>2015-08-24T09:34:38Z</time>
      </trkpt>
      <trkpt lat="45.30472" lon="6.89373">
        <ele>2306.2192</ele>
        <time>2015-08-24T09:34:48Z</time>
      </trkpt>
      <trkpt lat="45.30471" lon="6.89369">
        <ele>2306.2192</ele>
        <time>2015-08-24T09:34:53Z</time>
      </trkpt>
      <trkpt lat="45.30471" lon="6.89358">
        <ele>2306.1821</ele>
        <time>2015-08-24T09:35:03Z</time>
      </trkpt>
      <trkpt lat="45.30472" lon="6.89352">
        <ele>2306.1821</ele>
        <time>2015-08-24T09:35:08Z</time>
      </trkpt>
      <trkpt lat="45.30479" lon="6.89338">
        <ele>2306.3027</ele>
        <time>2015-08-24T09:35:23Z</time>
      </trkpt>
      <trkpt lat="45.30479" lon="6.89334">
        <ele>2306.3027</ele>
        <time>2015-08-24T09:35:28Z</time>
      </trkpt>
      <trkpt lat="45.3048" lon="6.89325">
        <ele>2306.5825</ele>
        <time>2015-08-24T09:35:38Z</time>
      </trkpt>
      <trkpt lat="45.30484" lon="6.89321">
        <ele>2306.5825</ele>
        <time>2015-08-24T09:35:43Z</time>
      </trkpt>
      <trkpt lat="45.30489" lon="6.89315">
        <ele>2307.137</ele>
        <time>2015-08-24T09:35:53Z</time>
      </trkpt>
      <trkpt lat="45.30489" lon="6.89312">
        <ele>2307.137</ele>
        <time>2015-08-24T09:35:58Z</time>
      </trkpt>
      <trkpt lat="45.30487" lon="6.89304">
        <ele>2307.137</ele>
        <time>2015-08-24T09:36:08Z</time>
      </trkpt>
      <trkpt lat="45.30485" lon="6.89302">
        <ele>2308.3613</ele>
        <time>2015-08-24T09:36:13Z</time>
      </trkpt>
      <trkpt lat="45.30479" lon="6.89295">
        <ele>2308.3613</ele>
        <time>2015-08-24T09:36:23Z</time>
      </trkpt>
      <trkpt lat="45.30476" lon="6.89289">
        <ele>2309.971</ele>
        <time>2015-08-24T09:36:28Z</time>
      </trkpt>
      <trkpt lat="45.3047" lon="6.89284">
        <ele>2309.971</ele>
        <time>2015-08-24T09:36:38Z</time>
      </trkpt>
      <trkpt lat="45.30467" lon="6.89283">
        <ele>2311.9753</ele>
        <time>2015-08-24T09:36:43Z</time>
      </trkpt>
      <trkpt lat="45.30453" lon="6.89279">
        <ele>2314.0217</ele>
        <time>2015-08-24T09:36:58Z</time>
      </trkpt>
      <trkpt lat="45.30448" lon="6.89273">
        <ele>2314.0217</ele>
        <time>2015-08-24T09:37:03Z</time>
      </trkpt>
      <trkpt lat="45.30445" lon="6.89265">
        <ele>2316.043</ele>
        <time>2015-08-24T09:37:13Z</time>
      </trkpt>
      <trkpt lat="45.30441" lon="6.89262">
        <ele>2316.043</ele>
        <time>2015-08-24T09:37:18Z</time>
      </trkpt>
      <trkpt lat="45.30432" lon="6.89262">
        <ele>2317.9912</ele>
        <time>2015-08-24T09:37:28Z</time>
      </trkpt>
      <trkpt lat="45.30428" lon="6.89263">
        <ele>2317.9912</ele>
        <time>2015-08-24T09:37:33Z</time>
      </trkpt>
      <trkpt lat="45.30421" lon="6.89264">
        <ele>2319.7937</ele>
        <time>2015-08-24T09:37:43Z</time>
      </trkpt>
      <trkpt lat="45.30416" lon="6.89261">
        <ele>2319.7937</ele>
        <time>2015-08-24T09:37:48Z</time>
      </trkpt>
      <trkpt lat="45.30411" lon="6.89253">
        <ele>2321.5132</ele>
        <time>2015-08-24T09:37:58Z</time>
      </trkpt>
      <trkpt lat="45.3041" lon="6.89248">
        <ele>2321.5132</ele>
        <time>2015-08-24T09:38:03Z</time>
      </trkpt>
      <trkpt lat="45.30404" lon="6.89229">
        <ele>2322.8623</ele>
        <time>2015-08-24T09:38:18Z</time>
      </trkpt>
      <trkpt lat="45.30398" lon="6.89225">
        <ele>2322.8623</ele>
        <time>2015-08-24T09:38:23Z</time>
      </trkpt>
      <trkpt lat="45.30385" lon="6.89224">
        <ele>2323.9368</ele>
        <time>2015-08-24T09:38:33Z</time>
      </trkpt>
      <trkpt lat="45.3038" lon="6.89223">
        <ele>2323.9368</ele>
        <time>2015-08-24T09:38:38Z</time>
      </trkpt>
      <trkpt lat="45.30376" lon="6.89216">
        <ele>2324.6958</ele>
        <time>2015-08-24T09:38:48Z</time>
      </trkpt>
      <trkpt lat="45.30378" lon="6.89208">
        <ele>2324.6958</ele>
        <time>2015-08-24T09:38:53Z</time>
      </trkpt>
      <trkpt lat="45.30375" lon="6.89196">
        <ele>2325.0596</ele>
        <time>2015-08-24T09:39:03Z</time>
      </trkpt>
      <trkpt lat="45.30373" lon="6.89188">
        <ele>2325.0596</ele>
        <time>2015-08-24T09:39:08Z</time>
      </trkpt>
      <trkpt lat="45.30367" lon="6.89176">
        <ele>2325.1575</ele>
        <time>2015-08-24T09:39:18Z</time>
      </trkpt>
      <trkpt lat="45.30364" lon="6.89174">
        <ele>2325.1575</ele>
        <time>2015-08-24T09:39:23Z</time>
      </trkpt>
      <trkpt lat="45.30359" lon="6.89164">
        <ele>2325.0378</ele>
        <time>2015-08-24T09:39:33Z</time>
      </trkpt>
      <trkpt lat="45.30355" lon="6.8916">
        <ele>2325.0378</ele>
        <time>2015-08-24T09:39:38Z</time>
      </trkpt>
      <trkpt lat="45.30345" lon="6.89155">
        <ele>2324.7175</ele>
        <time>2015-08-24T09:39:48Z</time>
      </trkpt>
      <trkpt lat="45.3034" lon="6.89154">
        <ele>2324.7175</ele>
        <time>2015-08-24T09:39:53Z</time>
      </trkpt>
      <trkpt lat="45.3033" lon="6.8914">
        <ele>2324.2131</ele>
        <time>2015-08-24T09:40:08Z</time>
      </trkpt>
      <trkpt lat="45.30329" lon="6.89134">
        <ele>2324.2131</ele>
        <time>2015-08-24T09:40:13Z</time>
      </trkpt>
      <trkpt lat="45.3033" lon="6.89122">
        <ele>2323.5544</ele>
        <time>2015-08-24T09:40:23Z</time>
      </trkpt>
      <trkpt lat="45.30328" lon="6.89115">
        <ele>2323.5544</ele>
        <time>2015-08-24T09:40:28Z</time>
      </trkpt>
      <trkpt lat="45.30326" lon="6.89103">
        <ele>2322.813</ele>
        <time>2015-08-24T09:40:38Z</time>
      </trkpt>
      <trkpt lat="45.30327" lon="6.89095">
        <ele>2322.813</ele>
        <time>2015-08-24T09:40:43Z</time>
      </trkpt>
      <trkpt lat="45.30328" lon="6.8908">
        <ele>2321.9836</ele>
        <time>2015-08-24T09:40:53Z</time>
      </trkpt>
      <trkpt lat="45.30329" lon="6.89071">
        <ele>2321.9836</ele>
        <time>2015-08-24T09:40:58Z</time>
      </trkpt>
      <trkpt lat="45.30328" lon="6.89057">
        <ele>2320.961</ele>
        <time>2015-08-24T09:41:08Z</time>
      </trkpt>
      <trkpt lat="45.30329" lon="6.89052">
        <ele>2320.961</ele>
        <time>2015-08-24T09:41:13Z</time>
      </trkpt>
      <trkpt lat="45.3033" lon="6.8904">
        <ele>2319.907</ele>
        <time>2015-08-24T09:41:23Z</time>
      </trkpt>
      <trkpt lat="45.30331" lon="6.89038">
        <ele>2319.907</ele>
        <time>2015-08-24T09:41:28Z</time>
      </trkpt>
      <trkpt lat="45.30332" lon="6.89025">
        <ele>2318.8855</ele>
        <time>2015-08-24T09:41:38Z</time>
      </trkpt>
      <trkpt lat="45.30332" lon="6.89017">
        <ele>2318.8855</ele>
        <time>2015-08-24T09:41:43Z</time>
      </trkpt>
      <trkpt lat="45.3033" lon="6.88994">
        <ele>2317.8115</ele>
        <time>2015-08-24T09:41:58Z</time>
      </trkpt>
      <trkpt lat="45.30328" lon="6.88988">
        <ele>2317.8115</ele>
        <time>2015-08-24T09:42:03Z</time>
      </trkpt>
      <trkpt lat="45.30327" lon="6.88979">
        <ele>2316.5205</ele>
        <time>2015-08-24T09:42:13Z</time>
      </trkpt>
      <trkpt lat="45.30327" lon="6.88972">
        <ele>2316.5205</ele>
        <time>2015-08-24T09:42:18Z</time>
      </trkpt>
      <trkpt lat="45.30328" lon="6.8896">
        <ele>2315.0325</ele>
        <time>2015-08-24T09:42:28Z</time>
      </trkpt>
      <trkpt lat="45.30328" lon="6.88953">
        <ele>2315.0325</ele>
        <time>2015-08-24T09:42:33Z</time>
      </trkpt>
      <trkpt lat="45.30328" lon="6.88936">
        <ele>2313.353</ele>
        <time>2015-08-24T09:42:43Z</time>
      </trkpt>
      <trkpt lat="45.30328" lon="6.88929">
        <ele>2313.353</ele>
        <time>2015-08-24T09:42:48Z</time>
      </trkpt>
      <trkpt lat="45.30326" lon="6.88915">
        <ele>2311.5737</ele>
        <time>2015-08-24T09:42:58Z</time>
      </trkpt>
      <trkpt lat="45.30326" lon="6.88906">
        <ele>2311.5737</ele>
        <time>2015-08-24T09:43:03Z</time>
      </trkpt>
      <trkpt lat="45.30322" lon="6.88892">
        <ele>2309.6646</ele>
        <time>2015-08-24T09:43:13Z</time>
      </trkpt>
      <trkpt lat="45.30319" lon="6.88886">
        <ele>2309.6646</ele>
        <time>2015-08-24T09:43:18Z</time>
      </trkpt>
      <trkpt lat="45.30316" lon="6.88876">
        <ele>2307.7568</ele>
        <time>2015-08-24T09:43:28Z</time>
      </trkpt>
      <trkpt lat="45.30317" lon="6.8887">
        <ele>2307.7568</ele>
        <time>2015-08-24T09:43:33Z</time>
      </trkpt>
      <trkpt lat="45.30323" lon="6.88859">
        <ele>2305.8708</ele>
        <time>2015-08-24T09:43:43Z</time>
      </trkpt>
      <trkpt lat="45.30324" lon="6.88854">
        <ele>2305.8708</ele>
        <time>2015-08-24T09:43:48Z</time>
      </trkpt>
      <trkpt lat="45.30323" lon="6.8883">
        <ele>2303.9387</ele>
        <time>2015-08-24T09:44:03Z</time>
      </trkpt>
      <trkpt lat="45.30325" lon="6.88825">
        <ele>2303.9387</ele>
        <time>2015-08-24T09:44:08Z</time>
      </trkpt>
      <trkpt lat="45.30327" lon="6.8881">
        <ele>2301.725</ele>
        <time>2015-08-24T09:44:18Z</time>
      </trkpt>
      <trkpt lat="45.30327" lon="6.88804">
        <ele>2301.725</ele>
        <time>2015-08-24T09:44:23Z</time>
      </trkpt>
      <trkpt lat="45.30324" lon="6.88789">
        <ele>2299.4155</ele>
        <time>2015-08-24T09:44:33Z</time>
      </trkpt>
      <trkpt lat="45.30325" lon="6.88785">
        <ele>2299.4155</ele>
        <time>2015-08-24T09:44:38Z</time>
      </trkpt>
      <trkpt lat="45.30319" lon="6.8877">
        <ele>2296.9954</ele>
        <time>2015-08-24T09:44:48Z</time>
      </trkpt>
      <trkpt lat="45.30316" lon="6.88765">
        <ele>2296.9954</ele>
        <time>2015-08-24T09:44:53Z</time>
      </trkpt>
      <trkpt lat="45.30312" lon="6.88751">
        <ele>2294.4363</ele>
        <time>2015-08-24T09:45:03Z</time>
      </trkpt>
      <trkpt lat="45.30311" lon="6.88744">
        <ele>2294.4363</ele>
        <time>2015-08-24T09:45:08Z</time>
      </trkpt>
      <trkpt lat="45.3031" lon="6.88728">
        <ele>2291.828</ele>
        <time>2015-08-24T09:45:18Z</time>
      </trkpt>
      <trkpt lat="45.3031" lon="6.88724">
        <ele>2291.828</ele>
        <time>2015-08-24T09:45:23Z</time>
      </trkpt>
      <trkpt lat="45.30311" lon="6.88713">
        <ele>2289.1375</ele>
        <time>2015-08-24T09:45:33Z</time>
      </trkpt>
      <trkpt lat="45.30311" lon="6.88708">
        <ele>2289.1375</ele>
        <time>2015-08-24T09:45:38Z</time>
      </trkpt>
      <trkpt lat="45.30314" lon="6.88697">
        <ele>2286.3643</ele>
        <time>2015-08-24T09:45:48Z</time>
      </trkpt>
      <trkpt lat="45.30314" lon="6.88691">
        <ele>2286.3643</ele>
        <time>2015-08-24T09:45:53Z</time>
      </trkpt>
      <trkpt lat="45.30312" lon="6.88678">
        <ele>2283.4207</ele>
        <time>2015-08-24T09:46:03Z</time>
      </trkpt>
      <trkpt lat="45.30312" lon="6.88673">
        <ele>2283.4207</ele>
        <time>2015-08-24T09:46:08Z</time>
      </trkpt>
      <trkpt lat="45.30311" lon="6.88658">
        <ele>2280.1682</ele>
        <time>2015-08-24T09:46:23Z</time>
      </trkpt>
      <trkpt lat="45.30309" lon="6.8865">
        <ele>2280.1682</ele>
        <time>2015-08-24T09:46:28Z</time>
      </trkpt>
      <trkpt lat="45.30307" lon="6.88638">
        <ele>2276.7388</ele>
        <time>2015-08-24T09:46:38Z</time>
      </trkpt>
      <trkpt lat="45.30308" lon="6.88631">
        <ele>2276.7388</ele>
        <time>2015-08-24T09:46:43Z</time>
      </trkpt>
      <trkpt lat="45.30308" lon="6.88614">
        <ele>2273.0532</ele>
        <time>2015-08-24T09:46:53Z</time>
      </trkpt>
      <trkpt lat="45.30307" lon="6.88609">
        <ele>2273.0532</ele>
        <time>2015-08-24T09:46:58Z</time>
      </trkpt>
      <trkpt lat="45.303" lon="6.88595">
        <ele>2269.2256</ele>
        <time>2015-08-24T09:47:08Z</time>
      </trkpt>
      <trkpt lat="45.30296" lon="6.88591">
        <ele>2269.2256</ele>
        <time>2015-08-24T09:47:13Z</time>
      </trkpt>
      <trkpt lat="45.30289" lon="6.88578">
        <ele>2265.42</ele>
        <time>2015-08-24T09:47:23Z</time>
      </trkpt>
      <trkpt lat="45.30286" lon="6.88572">
        <ele>2265.42</ele>
        <time>2015-08-24T09:47:28Z</time>
      </trkpt>
      <trkpt lat="45.30281" lon="6.88558">
        <ele>2261.6724</ele>
        <time>2015-08-24T09:47:38Z</time>
      </trkpt>
      <trkpt lat="45.30282" lon="6.88553">
        <ele>2261.6724</ele>
        <time>2015-08-24T09:47:43Z</time>
      </trkpt>
      <trkpt lat="45.30282" lon="6.88547">
        <ele>2261.6724</ele>
        <time>2015-08-24T09:47:53Z</time>
      </trkpt>
      <trkpt lat="45.30279" lon="6.8854">
        <ele>2258.0156</ele>
        <time>2015-08-24T09:47:58Z</time>
      </trkpt>
      <trkpt lat="45.30275" lon="6.88525">
        <ele>2254.6533</ele>
        <time>2015-08-24T09:48:08Z</time>
      </trkpt>
      <trkpt lat="45.30273" lon="6.88518">
        <ele>2254.6533</ele>
        <time>2015-08-24T09:48:13Z</time>
      </trkpt>
      <trkpt lat="45.3027" lon="6.88505">
        <ele>2251.3977</ele>
        <time>2015-08-24T09:48:23Z</time>
      </trkpt>
      <trkpt lat="45.30269" lon="6.88495">
        <ele>2251.3977</ele>
        <time>2015-08-24T09:48:28Z</time>
      </trkpt>
      <trkpt lat="45.30265" lon="6.88484">
        <ele>2248.377</ele>
        <time>2015-08-24T09:48:38Z</time>
      </trkpt>
      <trkpt lat="45.30265" lon="6.88483">
        <ele>2248.377</ele>
        <time>2015-08-24T09:48:43Z</time>
      </trkpt>
      <trkpt lat="45.30262" lon="6.88473">
        <ele>2248.377</ele>
        <time>2015-08-24T09:48:53Z</time>
      </trkpt>
      <trkpt lat="45.30259" lon="6.88469">
        <ele>2245.4065</ele>
        <time>2015-08-24T09:48:58Z</time>
      </trkpt>
      <trkpt lat="45.30256" lon="6.88461">
        <ele>2245.4065</ele>
        <time>2015-08-24T09:49:08Z</time>
      </trkpt>
      <trkpt lat="45.30254" lon="6.88457">
        <ele>2242.5308</ele>
        <time>2015-08-24T09:49:13Z</time>
      </trkpt>
      <trkpt lat="45.30252" lon="6.88443">
        <ele>2239.8337</ele>
        <time>2015-08-24T09:49:28Z</time>
      </trkpt>
      <trkpt lat="45.30252" lon="6.88437">
        <ele>2239.8337</ele>
        <time>2015-08-24T09:49:33Z</time>
      </trkpt>
      <trkpt lat="45.30252" lon="6.88422">
        <ele>2237.3354</ele>
        <time>2015-08-24T09:49:43Z</time>
      </trkpt>
      <trkpt lat="45.30252" lon="6.88416">
        <ele>2237.3354</ele>
        <time>2015-08-24T09:49:48Z</time>
      </trkpt>
      <trkpt lat="45.30248" lon="6.88403">
        <ele>2234.9517</ele>
        <time>2015-08-24T09:49:58Z</time>
      </trkpt>
      <trkpt lat="45.30247" lon="6.88396">
        <ele>2234.9517</ele>
        <time>2015-08-24T09:50:03Z</time>
      </trkpt>
      <trkpt lat="45.30243" lon="6.88383">
        <ele>2232.6191</ele>
        <time>2015-08-24T09:50:13Z</time>
      </trkpt>
      <trkpt lat="45.30241" lon="6.88374">
        <ele>2232.6191</ele>
        <time>2015-08-24T09:50:18Z</time>
      </trkpt>
      <trkpt lat="45.30239" lon="6.88364">
        <ele>2230.3218</ele>
        <time>2015-08-24T09:50:28Z</time>
      </trkpt>
      <trkpt lat="45.30236" lon="6.88361">
        <ele>2230.3218</ele>
        <time>2015-08-24T09:50:33Z</time>
      </trkpt>
      <trkpt lat="45.30233" lon="6.88346">
        <ele>2227.9724</ele>
        <time>2015-08-24T09:50:43Z</time>
      </trkpt>
      <trkpt lat="45.30231" lon="6.88339">
        <ele>2227.9724</ele>
        <time>2015-08-24T09:50:48Z</time>
      </trkpt>
      <trkpt lat="45.30227" lon="6.88325">
        <ele>2225.6628</ele>
        <time>2015-08-24T09:50:58Z</time>
      </trkpt>
      <trkpt lat="45.30225" lon="6.88319">
        <ele>2225.6628</ele>
        <time>2015-08-24T09:51:03Z</time>
      </trkpt>
      <trkpt lat="45.30221" lon="6.8831">
        <ele>2223.4062</ele>
        <time>2015-08-24T09:51:13Z</time>
      </trkpt>
      <trkpt lat="45.30219" lon="6.88307">
        <ele>2223.4062</ele>
        <time>2015-08-24T09:51:18Z</time>
      </trkpt>
      <trkpt lat="45.30217" lon="6.88295">
        <ele>2221.2861</ele>
        <time>2015-08-24T09:51:28Z</time>
      </trkpt>
      <trkpt lat="45.30217" lon="6.88289">
        <ele>2221.2861</ele>
        <time>2015-08-24T09:51:33Z</time>
      </trkpt>
      <trkpt lat="45.30213" lon="6.88267">
        <ele>2219.0913</ele>
        <time>2015-08-24T09:51:48Z</time>
      </trkpt>
      <trkpt lat="45.30211" lon="6.88259">
        <ele>2219.0913</ele>
        <time>2015-08-24T09:51:53Z</time>
      </trkpt>
      <trkpt lat="45.3021" lon="6.88245">
        <ele>2216.9722</ele>
        <time>2015-08-24T09:52:03Z</time>
      </trkpt>
      <trkpt lat="45.30208" lon="6.8824">
        <ele>2216.9722</ele>
        <time>2015-08-24T09:52:08Z</time>
      </trkpt>
      <trkpt lat="45.30201" lon="6.88228">
        <ele>2215.0674</ele>
        <time>2015-08-24T09:52:18Z</time>
      </trkpt>
      <trkpt lat="45.30199" lon="6.88222">
        <ele>2215.0674</ele>
        <time>2015-08-24T09:52:23Z</time>
      </trkpt>
      <trkpt lat="45.30196" lon="6.88213">
        <ele>2213.332</ele>
        <time>2015-08-24T09:52:33Z</time>
      </trkpt>
      <trkpt lat="45.30193" lon="6.8821">
        <ele>2213.332</ele>
        <time>2015-08-24T09:52:38Z</time>
      </trkpt>
      <trkpt lat="45.30189" lon="6.88201">
        <ele>2211.594</ele>
        <time>2015-08-24T09:52:48Z</time>
      </trkpt>
      <trkpt lat="45.30188" lon="6.88197">
        <ele>2211.594</ele>
        <time>2015-08-24T09:52:53Z</time>
      </trkpt>
      <trkpt lat="45.30185" lon="6.88189">
        <ele>2209.7083</ele>
        <time>2015-08-24T09:53:03Z</time>
      </trkpt>
      <trkpt lat="45.30184" lon="6.88184">
        <ele>2209.7083</ele>
        <time>2015-08-24T09:53:08Z</time>
      </trkpt>
      <trkpt lat="45.30178" lon="6.88177">
        <ele>2207.6125</ele>
        <time>2015-08-24T09:53:18Z</time>
      </trkpt>
      <trkpt lat="45.30175" lon="6.88174">
        <ele>2207.6125</ele>
        <time>2015-08-24T09:53:23Z</time>
      </trkpt>
      <trkpt lat="45.30168" lon="6.88166">
        <ele>2205.178</ele>
        <time>2015-08-24T09:53:38Z</time>
      </trkpt>
      <trkpt lat="45.30165" lon="6.88163">
        <ele>2205.178</ele>
        <time>2015-08-24T09:53:43Z</time>
      </trkpt>
      <trkpt lat="45.30158" lon="6.88159">
        <ele>2202.5596</ele>
        <time>2015-08-24T09:53:53Z</time>
      </trkpt>
      <trkpt lat="45.30155" lon="6.88155">
        <ele>2202.5596</ele>
        <time>2015-08-24T09:53:58Z</time>
      </trkpt>
      <trkpt lat="45.3015" lon="6.88139">
        <ele>2200.0166</ele>
        <time>2015-08-24T09:54:08Z</time>
      </trkpt>
      <trkpt lat="45.30147" lon="6.88135">
        <ele>2200.0166</ele>
        <time>2015-08-24T09:54:13Z</time>
      </trkpt>
      <trkpt lat="45.30146" lon="6.88122">
        <ele>2197.4727</ele>
        <time>2015-08-24T09:54:23Z</time>
      </trkpt>
      <trkpt lat="45.30144" lon="6.88118">
        <ele>2197.4727</ele>
        <time>2015-08-24T09:54:28Z</time>
      </trkpt>
      <trkpt lat="45.3014" lon="6.88106">
        <ele>2194.9133</ele>
        <time>2015-08-24T09:54:38Z</time>
      </trkpt>
      <trkpt lat="45.30138" lon="6.88103">
        <ele>2194.9133</ele>
        <time>2015-08-24T09:54:43Z</time>
      </trkpt>
      <trkpt lat="45.30133" lon="6.88095">
        <ele>2192.2688</ele>
        <time>2015-08-24T09:54:53Z</time>
      </trkpt>
      <trkpt lat="45.3013" lon="6.88092">
        <ele>2192.2688</ele>
        <time>2015-08-24T09:54:58Z</time>
      </trkpt>
      <trkpt lat="45.30125" lon="6.88078">
        <ele>2189.5312</ele>
        <time>2015-08-24T09:55:08Z</time>
      </trkpt>
      <trkpt lat="45.30124" lon="6.88073">
        <ele>2189.5312</ele>
        <time>2015-08-24T09:55:13Z</time>
      </trkpt>
      <trkpt lat="45.30118" lon="6.88065">
        <ele>2186.5789</ele>
        <time>2015-08-24T09:55:28Z</time>
      </trkpt>
      <trkpt lat="45.30117" lon="6.88063">
        <ele>2186.5789</ele>
        <time>2015-08-24T09:55:33Z</time>
      </trkpt>
      <trkpt lat="45.30113" lon="6.88054">
        <ele>2183.53</ele>
        <time>2015-08-24T09:55:43Z</time>
      </trkpt>
      <trkpt lat="45.30109" lon="6.88047">
        <ele>2183.53</ele>
        <time>2015-08-24T09:55:48Z</time>
      </trkpt>
      <trkpt lat="45.30104" lon="6.88035">
        <ele>2180.5227</ele>
        <time>2015-08-24T09:55:58Z</time>
      </trkpt>
      <trkpt lat="45.30102" lon="6.88032">
        <ele>2180.5227</ele>
        <time>2015-08-24T09:56:03Z</time>
      </trkpt>
      <trkpt lat="45.301" lon="6.88027">
        <ele>2180.5227</ele>
        <time>2015-08-24T09:56:13Z</time>
      </trkpt>
      <trkpt lat="45.301" lon="6.88024">
        <ele>2180.5227</ele>
        <time>2015-08-24T09:56:18Z</time>
      </trkpt>
      <trkpt lat="45.30092" lon="6.88027">
        <ele>2177.527</ele>
        <time>2015-08-24T09:56:28Z</time>
      </trkpt>
      <trkpt lat="45.30089" lon="6.88027">
        <ele>2177.527</ele>
        <time>2015-08-24T09:56:33Z</time>
      </trkpt>
      <trkpt lat="45.30087" lon="6.88026">
        <ele>2177.527</ele>
        <time>2015-08-24T09:56:43Z</time>
      </trkpt>
      <trkpt lat="45.30087" lon="6.88024">
        <ele>2177.527</ele>
        <time>2015-08-24T09:56:48Z</time>
      </trkpt>
      <trkpt lat="45.30091" lon="6.88028">
        <ele>2175.0332</ele>
        <time>2015-08-24T09:56:58Z</time>
      </trkpt>
      <trkpt lat="45.30091" lon="6.88027">
        <ele>2175.0332</ele>
        <time>2015-08-24T09:57:03Z</time>
      </trkpt>
      <trkpt lat="45.30092" lon="6.88023">
        <ele>2175.0332</ele>
        <time>2015-08-24T09:57:13Z</time>
      </trkpt>
      <trkpt lat="45.30094" lon="6.88021">
        <ele>2175.0332</ele>
        <time>2015-08-24T09:57:18Z</time>
      </trkpt>
      <trkpt lat="45.30097" lon="6.88021">
        <ele>2175.0332</ele>
        <time>2015-08-24T09:57:28Z</time>
      </trkpt>
      <trkpt lat="45.30097" lon="6.8802">
        <ele>2172.8027</ele>
        <time>2015-08-24T09:57:33Z</time>
      </trkpt>
      <trkpt lat="45.30098" lon="6.8802">
        <ele>2172.8027</ele>
        <time>2015-08-24T09:57:43Z</time>
      </trkpt>
      <trkpt lat="45.30095" lon="6.88024">
        <ele>2172.8027</ele>
        <time>2015-08-24T09:57:48Z</time>
      </trkpt>
      <trkpt lat="45.30096" lon="6.88027">
        <ele>2172.8027</ele>
        <time>2015-08-24T09:58:03Z</time>
      </trkpt>
      <trkpt lat="45.30095" lon="6.88029">
        <ele>2172.8027</ele>
        <time>2015-08-24T09:58:08Z</time>
      </trkpt>
      <trkpt lat="45.30093" lon="6.88026">
        <ele>2171.003</ele>
        <time>2015-08-24T09:58:23Z</time>
      </trkpt>
      <trkpt lat="45.30093" lon="6.88025">
        <ele>2171.003</ele>
        <time>2015-08-24T09:58:28Z</time>
      </trkpt>
      <trkpt lat="45.30093" lon="6.88027">
        <ele>2171.003</ele>
        <time>2015-08-24T09:58:38Z</time>
      </trkpt>
      <trkpt lat="45.30094" lon="6.88026">
        <ele>2171.003</ele>
        <time>2015-08-24T10:02:53Z</time>
      </trkpt>
      <trkpt lat="45.30094" lon="6.88025">
        <ele>2171.003</ele>
        <time>2015-08-24T10:03:03Z</time>
      </trkpt>
      <trkpt lat="45.30096" lon="6.88022">
        <ele>2171.003</ele>
        <time>2015-08-24T10:03:08Z</time>
      </trkpt>
      <trkpt lat="45.30095" lon="6.88014">
        <ele>2169.2825</ele>
        <time>2015-08-24T10:03:18Z</time>
      </trkpt>
      <trkpt lat="45.30095" lon="6.88014">
        <ele>2169.2825</ele>
        <time>2015-08-24T10:03:23Z</time>
      </trkpt>
      <trkpt lat="45.30095" lon="6.88009">
        <ele>2169.2825</ele>
        <time>2015-08-24T10:04:08Z</time>
      </trkpt>
      <trkpt lat="45.30103" lon="6.88005">
        <ele>2167.5186</ele>
        <time>2015-08-24T10:04:18Z</time>
      </trkpt>
      <trkpt lat="45.30105" lon="6.87998">
        <ele>2167.5186</ele>
        <time>2015-08-24T10:04:23Z</time>
      </trkpt>
      <trkpt lat="45.30107" lon="6.87989">
        <ele>2165.9856</ele>
        <time>2015-08-24T10:04:38Z</time>
      </trkpt>
      <trkpt lat="45.30106" lon="6.87983">
        <ele>2165.9856</ele>
        <time>2015-08-24T10:04:43Z</time>
      </trkpt>
      <trkpt lat="45.30106" lon="6.87983">
        <ele>2165.9856</ele>
        <time>2015-08-24T10:04:53Z</time>
      </trkpt>
      <trkpt lat="45.30103" lon="6.87969">
        <ele>2164.5627</ele>
        <time>2015-08-24T10:05:23Z</time>
      </trkpt>
      <trkpt lat="45.30103" lon="6.87969">
        <ele>2164.5627</ele>
        <time>2015-08-24T10:05:28Z</time>
      </trkpt>
      <trkpt lat="45.30099" lon="6.8796">
        <ele>2164.5627</ele>
        <time>2015-08-24T10:05:38Z</time>
      </trkpt>
      <trkpt lat="45.30097" lon="6.87955">
        <ele>2163.1812</ele>
        <time>2015-08-24T10:05:43Z</time>
      </trkpt>
      <trkpt lat="45.30096" lon="6.87944">
        <ele>2163.1812</ele>
        <time>2015-08-24T10:05:53Z</time>
      </trkpt>
      <trkpt lat="45.30094" lon="6.87936">
        <ele>2161.8777</ele>
        <time>2015-08-24T10:05:58Z</time>
      </trkpt>
      <trkpt lat="45.30092" lon="6.87922">
        <ele>2160.6287</ele>
        <time>2015-08-24T10:06:08Z</time>
      </trkpt>
      <trkpt lat="45.30092" lon="6.87915">
        <ele>2160.6287</ele>
        <time>2015-08-24T10:06:13Z</time>
      </trkpt>
      <trkpt lat="45.30089" lon="6.87897">
        <ele>2159.3542</ele>
        <time>2015-08-24T10:06:23Z</time>
      </trkpt>
      <trkpt lat="45.30088" lon="6.87892">
        <ele>2159.3542</ele>
        <time>2015-08-24T10:06:28Z</time>
      </trkpt>
      <trkpt lat="45.30083" lon="6.87876">
        <ele>2158.1826</ele>
        <time>2015-08-24T10:06:38Z</time>
      </trkpt>
      <trkpt lat="45.30083" lon="6.8787">
        <ele>2158.1826</ele>
        <time>2015-08-24T10:06:43Z</time>
      </trkpt>
      <trkpt lat="45.30083" lon="6.87858">
        <ele>2157.102</ele>
        <time>2015-08-24T10:06:53Z</time>
      </trkpt>
      <trkpt lat="45.30081" lon="6.87855">
        <ele>2157.102</ele>
        <time>2015-08-24T10:06:58Z</time>
      </trkpt>
      <trkpt lat="45.30076" lon="6.87836">
        <ele>2155.9722</ele>
        <time>2015-08-24T10:07:13Z</time>
      </trkpt>
      <trkpt lat="45.30073" lon="6.87835">
        <ele>2155.9722</ele>
        <time>2015-08-24T10:07:18Z</time>
      </trkpt>
      <trkpt lat="45.30075" lon="6.87839">
        <ele>2155.9722</ele>
        <time>2015-08-24T10:07:28Z</time>
      </trkpt>
      <trkpt lat="45.30076" lon="6.8784">
        <ele>2155.9722</ele>
        <time>2015-08-24T10:07:33Z</time>
      </trkpt>
      <trkpt lat="45.30075" lon="6.87838">
        <ele>2155.0093</ele>
        <time>2015-08-24T10:07:43Z</time>
      </trkpt>
      <trkpt lat="45.30074" lon="6.87837">
        <ele>2155.0093</ele>
        <time>2015-08-24T10:07:48Z</time>
      </trkpt>
      <trkpt lat="45.30069" lon="6.87838">
        <ele>2155.0093</ele>
        <time>2015-08-24T10:07:58Z</time>
      </trkpt>
      <trkpt lat="45.3007" lon="6.87837">
        <ele>2155.0093</ele>
        <time>2015-08-24T10:08:03Z</time>
      </trkpt>
      <trkpt lat="45.30074" lon="6.87834">
        <ele>2154.2542</ele>
        <time>2015-08-24T10:08:13Z</time>
      </trkpt>
      <trkpt lat="45.30071" lon="6.87832">
        <ele>2154.2542</ele>
        <time>2015-08-24T10:08:18Z</time>
      </trkpt>
      <trkpt lat="45.30071" lon="6.87827">
        <ele>2154.2542</ele>
        <time>2015-08-24T10:08:28Z</time>
      </trkpt>
      <trkpt lat="45.30071" lon="6.87823">
        <ele>2153.4275</ele>
        <time>2015-08-24T10:08:33Z</time>
      </trkpt>
      <trkpt lat="45.30068" lon="6.87813">
        <ele>2153.4275</ele>
        <time>2015-08-24T10:08:43Z</time>
      </trkpt>
      <trkpt lat="45.30068" lon="6.87812">
        <ele>2153.4275</ele>
        <time>2015-08-24T10:08:48Z</time>
      </trkpt>
      <trkpt lat="45.30069" lon="6.87808">
        <ele>2152.6165</ele>
        <time>2015-08-24T10:08:58Z</time>
      </trkpt>
      <trkpt lat="45.30068" lon="6.87801">
        <ele>2152.6165</ele>
        <time>2015-08-24T10:09:03Z</time>
      </trkpt>
      <trkpt lat="45.3007" lon="6.87795">
        <ele>2151.8298</ele>
        <time>2015-08-24T10:09:13Z</time>
      </trkpt>
      <trkpt lat="45.3007" lon="6.87794">
        <ele>2151.8298</ele>
        <time>2015-08-24T10:09:18Z</time>
      </trkpt>
      <trkpt lat="45.30064" lon="6.87782">
        <ele>2150.932</ele>
        <time>2015-08-24T10:09:33Z</time>
      </trkpt>
      <trkpt lat="45.30062" lon="6.8778">
        <ele>2150.932</ele>
        <time>2015-08-24T10:09:38Z</time>
      </trkpt>
      <trkpt lat="45.30056" lon="6.87772">
        <ele>2149.9124</ele>
        <time>2015-08-24T10:09:48Z</time>
      </trkpt>
      <trkpt lat="45.30054" lon="6.87767">
        <ele>2149.9124</ele>
        <time>2015-08-24T10:09:53Z</time>
      </trkpt>
      <trkpt lat="45.30059" lon="6.87755">
        <ele>2148.7046</ele>
        <time>2015-08-24T10:10:03Z</time>
      </trkpt>
      <trkpt lat="45.30058" lon="6.8775">
        <ele>2148.7046</ele>
        <time>2015-08-24T10:10:08Z</time>
      </trkpt>
      <trkpt lat="45.30058" lon="6.87742">
        <ele>2148.7046</ele>
        <time>2015-08-24T10:10:18Z</time>
      </trkpt>
      <trkpt lat="45.30056" lon="6.87736">
        <ele>2147.175</ele>
        <time>2015-08-24T10:10:23Z</time>
      </trkpt>
      <trkpt lat="45.30047" lon="6.87727">
        <ele>2145.6052</ele>
        <time>2015-08-24T10:10:33Z</time>
      </trkpt>
      <trkpt lat="45.30047" lon="6.87722">
        <ele>2145.6052</ele>
        <time>2015-08-24T10:10:38Z</time>
      </trkpt>
      <trkpt lat="45.30045" lon="6.87709">
        <ele>2144.054</ele>
        <time>2015-08-24T10:10:48Z</time>
      </trkpt>
      <trkpt lat="45.30044" lon="6.87701">
        <ele>2144.054</ele>
        <time>2015-08-24T10:10:53Z</time>
      </trkpt>
      <trkpt lat="45.30041" lon="6.8769">
        <ele>2142.5327</ele>
        <time>2015-08-24T10:11:03Z</time>
      </trkpt>
      <trkpt lat="45.30038" lon="6.87684">
        <ele>2142.5327</ele>
        <time>2015-08-24T10:11:08Z</time>
      </trkpt>
      <trkpt lat="45.30033" lon="6.87672">
        <ele>2140.706</ele>
        <time>2015-08-24T10:11:23Z</time>
      </trkpt>
      <trkpt lat="45.30031" lon="6.8767">
        <ele>2140.706</ele>
        <time>2015-08-24T10:11:28Z</time>
      </trkpt>
      <trkpt lat="45.30023" lon="6.87679">
        <ele>2138.8118</ele>
        <time>2015-08-24T10:11:38Z</time>
      </trkpt>
      <trkpt lat="45.30021" lon="6.87682">
        <ele>2138.8118</ele>
        <time>2015-08-24T10:11:43Z</time>
      </trkpt>
      <trkpt lat="45.30016" lon="6.87693">
        <ele>2136.7683</ele>
        <time>2015-08-24T10:11:53Z</time>
      </trkpt>
      <trkpt lat="45.30012" lon="6.87699">
        <ele>2136.7683</ele>
        <time>2015-08-24T10:11:58Z</time>
      </trkpt>
      <trkpt lat="45.30005" lon="6.87707">
        <ele>2134.6587</ele>
        <time>2015-08-24T10:12:08Z</time>
      </trkpt>
      <trkpt lat="45.30002" lon="6.87712">
        <ele>2134.6587</ele>
        <time>2015-08-24T10:12:13Z</time>
      </trkpt>
      <trkpt lat="45.29998" lon="6.87717">
        <ele>2132.5312</ele>
        <time>2015-08-24T10:12:23Z</time>
      </trkpt>
      <trkpt lat="45.29996" lon="6.87714">
        <ele>2132.5312</ele>
        <time>2015-08-24T10:12:28Z</time>
      </trkpt>
      <trkpt lat="45.29996" lon="6.87698">
        <ele>2130.2583</ele>
        <time>2015-08-24T10:12:38Z</time>
      </trkpt>
      <trkpt lat="45.29993" lon="6.87688">
        <ele>2130.2583</ele>
        <time>2015-08-24T10:12:43Z</time>
      </trkpt>
      <trkpt lat="45.29987" lon="6.87678">
        <ele>2127.9812</ele>
        <time>2015-08-24T10:12:53Z</time>
      </trkpt>
      <trkpt lat="45.29985" lon="6.87671">
        <ele>2127.9812</ele>
        <time>2015-08-24T10:12:58Z</time>
      </trkpt>
      <trkpt lat="45.29981" lon="6.87654">
        <ele>2125.4993</ele>
        <time>2015-08-24T10:13:13Z</time>
      </trkpt>
      <trkpt lat="45.29979" lon="6.87652">
        <ele>2125.4993</ele>
        <time>2015-08-24T10:13:18Z</time>
      </trkpt>
      <trkpt lat="45.29976" lon="6.87643">
        <ele>2122.7573</ele>
        <time>2015-08-24T10:13:28Z</time>
      </trkpt>
      <trkpt lat="45.29976" lon="6.87639">
        <ele>2122.7573</ele>
        <time>2015-08-24T10:13:33Z</time>
      </trkpt>
      <trkpt lat="45.29976" lon="6.87625">
        <ele>2119.9644</ele>
        <time>2015-08-24T10:13:43Z</time>
      </trkpt>
      <trkpt lat="45.29978" lon="6.87624">
        <ele>2119.9644</ele>
        <time>2015-08-24T10:13:48Z</time>
      </trkpt>
      <trkpt lat="45.29981" lon="6.87614">
        <ele>2117.0688</ele>
        <time>2015-08-24T10:13:58Z</time>
      </trkpt>
      <trkpt lat="45.29983" lon="6.87609">
        <ele>2117.0688</ele>
        <time>2015-08-24T10:14:03Z</time>
      </trkpt>
      <trkpt lat="45.29985" lon="6.87603">
        <ele>2117.0688</ele>
        <time>2015-08-24T10:14:13Z</time>
      </trkpt>
      <trkpt lat="45.29988" lon="6.87596">
        <ele>2114.0527</ele>
        <time>2015-08-24T10:14:18Z</time>
      </trkpt>
      <trkpt lat="45.2999" lon="6.87587">
        <ele>2114.0527</ele>
        <time>2015-08-24T10:14:28Z</time>
      </trkpt>
      <trkpt lat="45.29992" lon="6.87585">
        <ele>2114.0527</ele>
        <time>2015-08-24T10:14:33Z</time>
      </trkpt>
      <trkpt lat="45.29996" lon="6.87581">
        <ele>2110.4668</ele>
        <time>2015-08-24T10:14:43Z</time>
      </trkpt>
      <trkpt lat="45.29998" lon="6.87581">
        <ele>2110.4668</ele>
        <time>2015-08-24T10:14:48Z</time>
      </trkpt>
      <trkpt lat="45.30001" lon="6.87578">
        <ele>2110.4668</ele>
        <time>2015-08-24T10:14:58Z</time>
      </trkpt>
      <trkpt lat="45.30008" lon="6.87572">
        <ele>2106.646</ele>
        <time>2015-08-24T10:15:03Z</time>
      </trkpt>
      <trkpt lat="45.3001" lon="6.87571">
        <ele>2106.646</ele>
        <time>2015-08-24T10:15:13Z</time>
      </trkpt>
      <trkpt lat="45.30008" lon="6.8757">
        <ele>2106.646</ele>
        <time>2015-08-24T10:16:03Z</time>
      </trkpt>
      <trkpt lat="45.30008" lon="6.87571">
        <ele>2106.646</ele>
        <time>2015-08-24T10:16:08Z</time>
      </trkpt>
      <trkpt lat="45.30007" lon="6.8757">
        <ele>2106.646</ele>
        <time>2015-08-24T10:16:18Z</time>
      </trkpt>
      <trkpt lat="45.30007" lon="6.87571">
        <ele>2106.646</ele>
        <time>2015-08-24T10:16:48Z</time>
      </trkpt>
      <trkpt lat="45.30008" lon="6.87571">
        <ele>2106.646</ele>
        <time>2015-08-24T10:16:53Z</time>
      </trkpt>
      <trkpt lat="45.30008" lon="6.87571">
        <ele>2106.646</ele>
        <time>2015-08-24T10:17:03Z</time>
      </trkpt>
      <trkpt lat="45.30007" lon="6.87572">
        <ele>2106.646</ele>
        <time>2015-08-24T10:18:58Z</time>
      </trkpt>
      <trkpt lat="45.30007" lon="6.87574">
        <ele>2106.646</ele>
        <time>2015-08-24T10:19:08Z</time>
      </trkpt>
      <trkpt lat="45.30007" lon="6.87575">
        <ele>2102.1084</ele>
        <time>2015-08-24T10:19:23Z</time>
      </trkpt>
      <trkpt lat="45.30007" lon="6.87575">
        <ele>2102.1084</ele>
        <time>2015-08-24T10:19:28Z</time>
      </trkpt>
      <trkpt lat="45.30007" lon="6.87574">
        <ele>2102.1084</ele>
        <time>2015-08-24T10:19:38Z</time>
      </trkpt>
      <trkpt lat="45.30008" lon="6.87572">
        <ele>2102.1084</ele>
        <time>2015-08-24T10:20:08Z</time>
      </trkpt>
      <trkpt lat="45.30012" lon="6.87565">
        <ele>2102.1084</ele>
        <time>2015-08-24T10:20:13Z</time>
      </trkpt>
      <trkpt lat="45.30017" lon="6.87556">
        <ele>2098.298</ele>
        <time>2015-08-24T10:20:28Z</time>
      </trkpt>
      <trkpt lat="45.30019" lon="6.87554">
        <ele>2098.298</ele>
        <time>2015-08-24T10:20:33Z</time>
      </trkpt>
      <trkpt lat="45.30019" lon="6.87545">
        <ele>2098.298</ele>
        <time>2015-08-24T10:20:43Z</time>
      </trkpt>
      <trkpt lat="45.30019" lon="6.87537">
        <ele>2094.5762</ele>
        <time>2015-08-24T10:20:48Z</time>
      </trkpt>
      <trkpt lat="45.30019" lon="6.8752">
        <ele>2091.157</ele>
        <time>2015-08-24T10:20:58Z</time>
      </trkpt>
      <trkpt lat="45.30017" lon="6.87515">
        <ele>2091.157</ele>
        <time>2015-08-24T10:21:03Z</time>
      </trkpt>
      <trkpt lat="45.30016" lon="6.87501">
        <ele>2087.9795</ele>
        <time>2015-08-24T10:21:13Z</time>
      </trkpt>
      <trkpt lat="45.30017" lon="6.87495">
        <ele>2087.9795</ele>
        <time>2015-08-24T10:21:18Z</time>
      </trkpt>
      <trkpt lat="45.30016" lon="6.8748">
        <ele>2085.1157</ele>
        <time>2015-08-24T10:21:28Z</time>
      </trkpt>
      <trkpt lat="45.30016" lon="6.87474">
        <ele>2085.1157</ele>
        <time>2015-08-24T10:21:33Z</time>
      </trkpt>
      <trkpt lat="45.3002" lon="6.87459">
        <ele>2082.3289</ele>
        <time>2015-08-24T10:21:43Z</time>
      </trkpt>
      <trkpt lat="45.3002" lon="6.87451">
        <ele>2082.3289</ele>
        <time>2015-08-24T10:21:48Z</time>
      </trkpt>
      <trkpt lat="45.30023" lon="6.87437">
        <ele>2079.731</ele>
        <time>2015-08-24T10:21:58Z</time>
      </trkpt>
      <trkpt lat="45.30027" lon="6.87431">
        <ele>2079.731</ele>
        <time>2015-08-24T10:22:03Z</time>
      </trkpt>
      <trkpt lat="45.30028" lon="6.87417">
        <ele>2077.223</ele>
        <time>2015-08-24T10:22:13Z</time>
      </trkpt>
      <trkpt lat="45.30024" lon="6.8741">
        <ele>2077.223</ele>
        <time>2015-08-24T10:22:18Z</time>
      </trkpt>
      <trkpt lat="45.30023" lon="6.874">
        <ele>2075.0874</ele>
        <time>2015-08-24T10:22:28Z</time>
      </trkpt>
      <trkpt lat="45.30022" lon="6.8739">
        <ele>2075.0874</ele>
        <time>2015-08-24T10:22:33Z</time>
      </trkpt>
      <trkpt lat="45.3002" lon="6.8738">
        <ele>2073.1392</ele>
        <time>2015-08-24T10:22:43Z</time>
      </trkpt>
      <trkpt lat="45.30021" lon="6.87374">
        <ele>2073.1392</ele>
        <time>2015-08-24T10:22:48Z</time>
      </trkpt>
      <trkpt lat="45.30026" lon="6.87357">
        <ele>2071.3057</ele>
        <time>2015-08-24T10:23:03Z</time>
      </trkpt>
      <trkpt lat="45.30027" lon="6.87351">
        <ele>2071.3057</ele>
        <time>2015-08-24T10:23:08Z</time>
      </trkpt>
      <trkpt lat="45.30031" lon="6.87341">
        <ele>2069.7075</ele>
        <time>2015-08-24T10:23:18Z</time>
      </trkpt>
      <trkpt lat="45.30031" lon="6.87335">
        <ele>2069.7075</ele>
        <time>2015-08-24T10:23:23Z</time>
      </trkpt>
      <trkpt lat="45.30034" lon="6.87324">
        <ele>2068.3547</ele>
        <time>2015-08-24T10:23:33Z</time>
      </trkpt>
      <trkpt lat="45.30032" lon="6.87316">
        <ele>2068.3547</ele>
        <time>2015-08-24T10:23:38Z</time>
      </trkpt>
      <trkpt lat="45.30031" lon="6.87301">
        <ele>2067.3564</ele>
        <time>2015-08-24T10:23:48Z</time>
      </trkpt>
      <trkpt lat="45.30029" lon="6.87296">
        <ele>2067.3564</ele>
        <time>2015-08-24T10:23:53Z</time>
      </trkpt>
      <trkpt lat="45.30031" lon="6.87284">
        <ele>2066.4958</ele>
        <time>2015-08-24T10:24:03Z</time>
      </trkpt>
      <trkpt lat="45.3003" lon="6.87276">
        <ele>2066.4958</ele>
        <time>2015-08-24T10:24:08Z</time>
      </trkpt>
      <trkpt lat="45.3003" lon="6.87263">
        <ele>2065.5286</ele>
        <time>2015-08-24T10:24:18Z</time>
      </trkpt>
      <trkpt lat="45.30027" lon="6.87254">
        <ele>2065.5286</ele>
        <time>2015-08-24T10:24:23Z</time>
      </trkpt>
      <trkpt lat="45.30023" lon="6.87237">
        <ele>2064.992</ele>
        <time>2015-08-24T10:24:33Z</time>
      </trkpt>
      <trkpt lat="45.30019" lon="6.87231">
        <ele>2064.992</ele>
        <time>2015-08-24T10:24:38Z</time>
      </trkpt>
      <trkpt lat="45.30015" lon="6.87215">
        <ele>2064.6768</ele>
        <time>2015-08-24T10:24:48Z</time>
      </trkpt>
      <trkpt lat="45.30013" lon="6.87208">
        <ele>2064.6768</ele>
        <time>2015-08-24T10:24:53Z</time>
      </trkpt>
      <trkpt lat="45.30011" lon="6.87193">
        <ele>2064.619</ele>
        <time>2015-08-24T10:25:03Z</time>
      </trkpt>
      <trkpt lat="45.30007" lon="6.87186">
        <ele>2064.619</ele>
        <time>2015-08-24T10:25:08Z</time>
      </trkpt>
      <trkpt lat="45.3" lon="6.87174">
        <ele>2064.8657</ele>
        <time>2015-08-24T10:25:18Z</time>
      </trkpt>
      <trkpt lat="45.29994" lon="6.8717">
        <ele>2064.8657</ele>
        <time>2015-08-24T10:25:23Z</time>
      </trkpt>
      <trkpt lat="45.29988" lon="6.8716">
        <ele>2065.2292</ele>
        <time>2015-08-24T10:25:38Z</time>
      </trkpt>
      <trkpt lat="45.29987" lon="6.87157">
        <ele>2065.2292</ele>
        <time>2015-08-24T10:25:43Z</time>
      </trkpt>
      <trkpt lat="45.29981" lon="6.87154">
        <ele>2065.4058</ele>
        <time>2015-08-24T10:25:53Z</time>
      </trkpt>
      <trkpt lat="45.29975" lon="6.87148">
        <ele>2065.4058</ele>
        <time>2015-08-24T10:25:58Z</time>
      </trkpt>
      <trkpt lat="45.2997" lon="6.87141">
        <ele>2065.3303</ele>
        <time>2015-08-24T10:26:08Z</time>
      </trkpt>
      <trkpt lat="45.29968" lon="6.87135">
        <ele>2065.3303</ele>
        <time>2015-08-24T10:26:13Z</time>
      </trkpt>
      <trkpt lat="45.29963" lon="6.87126">
        <ele>2064.9294</ele>
        <time>2015-08-24T10:26:23Z</time>
      </trkpt>
      <trkpt lat="45.29961" lon="6.8712">
        <ele>2064.9294</ele>
        <time>2015-08-24T10:26:28Z</time>
      </trkpt>
      <trkpt lat="45.29957" lon="6.87107">
        <ele>2064.1355</ele>
        <time>2015-08-24T10:26:38Z</time>
      </trkpt>
      <trkpt lat="45.29953" lon="6.87103">
        <ele>2064.1355</ele>
        <time>2015-08-24T10:26:43Z</time>
      </trkpt>
      <trkpt lat="45.29942" lon="6.87095">
        <ele>2063.003</ele>
        <time>2015-08-24T10:26:53Z</time>
      </trkpt>
      <trkpt lat="45.2994" lon="6.87095">
        <ele>2063.003</ele>
        <time>2015-08-24T10:26:58Z</time>
      </trkpt>
      <trkpt lat="45.29937" lon="6.87094">
        <ele>2063.003</ele>
        <time>2015-08-24T10:27:13Z</time>
      </trkpt>
      <trkpt lat="45.29931" lon="6.87084">
        <ele>2061.871</ele>
        <time>2015-08-24T10:27:58Z</time>
      </trkpt>
      <trkpt lat="45.29928" lon="6.87076">
        <ele>2061.871</ele>
        <time>2015-08-24T10:28:03Z</time>
      </trkpt>
      <trkpt lat="45.29921" lon="6.87065">
        <ele>2060.9395</ele>
        <time>2015-08-24T10:28:13Z</time>
      </trkpt>
      <trkpt lat="45.29919" lon="6.87059">
        <ele>2060.9395</ele>
        <time>2015-08-24T10:28:18Z</time>
      </trkpt>
      <trkpt lat="45.29911" lon="6.87049">
        <ele>2060.1328</ele>
        <time>2015-08-24T10:28:28Z</time>
      </trkpt>
      <trkpt lat="45.29906" lon="6.87044">
        <ele>2060.1328</ele>
        <time>2015-08-24T10:28:33Z</time>
      </trkpt>
      <trkpt lat="45.29897" lon="6.87037">
        <ele>2059.4392</ele>
        <time>2015-08-24T10:28:43Z</time>
      </trkpt>
      <trkpt lat="45.29895" lon="6.87033">
        <ele>2059.4392</ele>
        <time>2015-08-24T10:28:48Z</time>
      </trkpt>
      <trkpt lat="45.29891" lon="6.87024">
        <ele>2058.8179</ele>
        <time>2015-08-24T10:28:58Z</time>
      </trkpt>
      <trkpt lat="45.29888" lon="6.87019">
        <ele>2058.8179</ele>
        <time>2015-08-24T10:29:03Z</time>
      </trkpt>
      <trkpt lat="45.2988" lon="6.8701">
        <ele>2058.2317</ele>
        <time>2015-08-24T10:29:13Z</time>
      </trkpt>
      <trkpt lat="45.29876" lon="6.87007">
        <ele>2058.2317</ele>
        <time>2015-08-24T10:29:18Z</time>
      </trkpt>
      <trkpt lat="45.29869" lon="6.86994">
        <ele>2057.718</ele>
        <time>2015-08-24T10:29:28Z</time>
      </trkpt>
      <trkpt lat="45.29868" lon="6.86988">
        <ele>2057.718</ele>
        <time>2015-08-24T10:29:33Z</time>
      </trkpt>
      <trkpt lat="45.29865" lon="6.86977">
        <ele>2057.3254</ele>
        <time>2015-08-24T10:29:43Z</time>
      </trkpt>
      <trkpt lat="45.29866" lon="6.86971">
        <ele>2057.3254</ele>
        <time>2015-08-24T10:29:48Z</time>
      </trkpt>
      <trkpt lat="45.29866" lon="6.86949">
        <ele>2057.085</ele>
        <time>2015-08-24T10:30:03Z</time>
      </trkpt>
      <trkpt lat="45.29866" lon="6.86944">
        <ele>2057.085</ele>
        <time>2015-08-24T10:30:08Z</time>
      </trkpt>
      <trkpt lat="45.2986" lon="6.86928">
        <ele>2056.9814</ele>
        <time>2015-08-24T10:30:18Z</time>
      </trkpt>
      <trkpt lat="45.29858" lon="6.86921">
        <ele>2056.9814</ele>
        <time>2015-08-24T10:30:23Z</time>
      </trkpt>
      <trkpt lat="45.29851" lon="6.86912">
        <ele>2057.0583</ele>
        <time>2015-08-24T10:30:33Z</time>
      </trkpt>
      <trkpt lat="45.29848" lon="6.86909">
        <ele>2057.0583</ele>
        <time>2015-08-24T10:30:38Z</time>
      </trkpt>
      <trkpt lat="45.29842" lon="6.86904">
        <ele>2057.3123</ele>
        <time>2015-08-24T10:30:48Z</time>
      </trkpt>
      <trkpt lat="45.29837" lon="6.869">
        <ele>2057.3123</ele>
        <time>2015-08-24T10:30:53Z</time>
      </trkpt>
      <trkpt lat="45.29828" lon="6.86892">
        <ele>2057.6672</ele>
        <time>2015-08-24T10:31:03Z</time>
      </trkpt>
      <trkpt lat="45.29827" lon="6.86887">
        <ele>2057.6672</ele>
        <time>2015-08-24T10:31:08Z</time>
      </trkpt>
      <trkpt lat="45.29818" lon="6.86874">
        <ele>2058.097</ele>
        <time>2015-08-24T10:31:18Z</time>
      </trkpt>
      <trkpt lat="45.29813" lon="6.86869">
        <ele>2058.097</ele>
        <time>2015-08-24T10:31:23Z</time>
      </trkpt>
      <trkpt lat="45.29804" lon="6.86862">
        <ele>2058.5757</ele>
        <time>2015-08-24T10:31:33Z</time>
      </trkpt>
      <trkpt lat="45.29798" lon="6.86858">
        <ele>2058.5757</ele>
        <time>2015-08-24T10:31:38Z</time>
      </trkpt>
      <trkpt lat="45.29784" lon="6.86845">
        <ele>2059.1243</ele>
        <time>2015-08-24T10:31:53Z</time>
      </trkpt>
      <trkpt lat="45.2978" lon="6.86839">
        <ele>2059.1243</ele>
        <time>2015-08-24T10:31:58Z</time>
      </trkpt>
      <trkpt lat="45.29774" lon="6.86825">
        <ele>2059.6309</ele>
        <time>2015-08-24T10:32:08Z</time>
      </trkpt>
      <trkpt lat="45.29773" lon="6.86821">
        <ele>2059.6309</ele>
        <time>2015-08-24T10:32:13Z</time>
      </trkpt>
      <trkpt lat="45.29773" lon="6.86802">
        <ele>2060.065</ele>
        <time>2015-08-24T10:32:23Z</time>
      </trkpt>
      <trkpt lat="45.29771" lon="6.86795">
        <ele>2060.065</ele>
        <time>2015-08-24T10:32:28Z</time>
      </trkpt>
      <trkpt lat="45.2977" lon="6.86779">
        <ele>2060.4995</ele>
        <time>2015-08-24T10:32:38Z</time>
      </trkpt>
      <trkpt lat="45.29772" lon="6.86769">
        <ele>2060.4995</ele>
        <time>2015-08-24T10:32:43Z</time>
      </trkpt>
      <trkpt lat="45.29774" lon="6.86756">
        <ele>2060.7861</ele>
        <time>2015-08-24T10:32:53Z</time>
      </trkpt>
      <trkpt lat="45.29776" lon="6.8675">
        <ele>2060.7861</ele>
        <time>2015-08-24T10:32:58Z</time>
      </trkpt>
      <trkpt lat="45.29782" lon="6.86732">
        <ele>2060.8162</ele>
        <time>2015-08-24T10:33:08Z</time>
      </trkpt>
      <trkpt lat="45.29784" lon="6.86725">
        <ele>2060.8162</ele>
        <time>2015-08-24T10:33:13Z</time>
      </trkpt>
      <trkpt lat="45.29787" lon="6.86702">
        <ele>2060.6487</ele>
        <time>2015-08-24T10:33:28Z</time>
      </trkpt>
      <trkpt lat="45.29787" lon="6.86694">
        <ele>2060.6487</ele>
        <time>2015-08-24T10:33:33Z</time>
      </trkpt>
      <trkpt lat="45.29789" lon="6.86677">
        <ele>2060.4407</ele>
        <time>2015-08-24T10:33:43Z</time>
      </trkpt>
      <trkpt lat="45.29789" lon="6.8667">
        <ele>2060.4407</ele>
        <time>2015-08-24T10:33:48Z</time>
      </trkpt>
      <trkpt lat="45.29791" lon="6.86651">
        <ele>2060.1924</ele>
        <time>2015-08-24T10:33:58Z</time>
      </trkpt>
      <trkpt lat="45.29793" lon="6.86644">
        <ele>2060.1924</ele>
        <time>2015-08-24T10:34:03Z</time>
      </trkpt>
      <trkpt lat="45.29795" lon="6.86629">
        <ele>2059.7903</ele>
        <time>2015-08-24T10:34:13Z</time>
      </trkpt>
      <trkpt lat="45.29796" lon="6.8662">
        <ele>2059.7903</ele>
        <time>2015-08-24T10:34:18Z</time>
      </trkpt>
      <trkpt lat="45.29793" lon="6.86602">
        <ele>2059.3884</ele>
        <time>2015-08-24T10:34:28Z</time>
      </trkpt>
      <trkpt lat="45.29791" lon="6.86594">
        <ele>2059.3884</ele>
        <time>2015-08-24T10:34:33Z</time>
      </trkpt>
      <trkpt lat="45.29791" lon="6.86584">
        <ele>2058.8127</ele>
        <time>2015-08-24T10:34:43Z</time>
      </trkpt>
      <trkpt lat="45.2979" lon="6.86575">
        <ele>2058.8127</ele>
        <time>2015-08-24T10:34:48Z</time>
      </trkpt>
      <trkpt lat="45.29784" lon="6.86565">
        <ele>2057.9604</ele>
        <time>2015-08-24T10:34:58Z</time>
      </trkpt>
      <trkpt lat="45.29783" lon="6.86566">
        <ele>2057.9604</ele>
        <time>2015-08-24T10:35:03Z</time>
      </trkpt>
      <trkpt lat="45.29784" lon="6.86565">
        <ele>2057.9604</ele>
        <time>2015-08-24T10:35:13Z</time>
      </trkpt>
      <trkpt lat="45.29784" lon="6.86566">
        <ele>2057.9604</ele>
        <time>2015-08-24T10:35:18Z</time>
      </trkpt>
      <trkpt lat="45.29782" lon="6.86561">
        <ele>2057.9604</ele>
        <time>2015-08-24T10:35:33Z</time>
      </trkpt>
      <trkpt lat="45.29782" lon="6.86561">
        <ele>2057.9604</ele>
        <time>2015-08-24T10:35:38Z</time>
      </trkpt>
      <trkpt lat="45.29779" lon="6.86572">
        <ele>2056.5928</ele>
        <time>2015-08-24T10:35:48Z</time>
      </trkpt>
      <trkpt lat="45.29777" lon="6.86578">
        <ele>2056.5928</ele>
        <time>2015-08-24T10:35:53Z</time>
      </trkpt>
      <trkpt lat="45.29772" lon="6.86594">
        <ele>2055.2253</ele>
        <time>2015-08-24T10:36:03Z</time>
      </trkpt>
      <trkpt lat="45.29769" lon="6.86602">
        <ele>2055.2253</ele>
        <time>2015-08-24T10:36:08Z</time>
      </trkpt>
      <trkpt lat="45.29766" lon="6.86617">
        <ele>2053.9177</ele>
        <time>2015-08-24T10:36:18Z</time>
      </trkpt>
      <trkpt lat="45.29764" lon="6.86623">
        <ele>2053.9177</ele>
        <time>2015-08-24T10:36:23Z</time>
      </trkpt>
      <trkpt lat="45.29762" lon="6.86642">
        <ele>2052.5237</ele>
        <time>2015-08-24T10:36:33Z</time>
      </trkpt>
      <trkpt lat="45.29759" lon="6.86649">
        <ele>2052.5237</ele>
        <time>2015-08-24T10:36:38Z</time>
      </trkpt>
      <trkpt lat="45.29754" lon="6.86663">
        <ele>2051.1526</ele>
        <time>2015-08-24T10:36:48Z</time>
      </trkpt>
      <trkpt lat="45.29751" lon="6.8667">
        <ele>2051.1526</ele>
        <time>2015-08-24T10:36:53Z</time>
      </trkpt>
      <trkpt lat="45.29745" lon="6.86684">
        <ele>2049.704</ele>
        <time>2015-08-24T10:37:03Z</time>
      </trkpt>
      <trkpt lat="45.29742" lon="6.86687">
        <ele>2049.704</ele>
        <time>2015-08-24T10:37:08Z</time>
      </trkpt>
      <trkpt lat="45.29728" lon="6.86685">
        <ele>2048.2012</ele>
        <time>2015-08-24T10:37:18Z</time>
      </trkpt>
      <trkpt lat="45.29724" lon="6.86677">
        <ele>2048.2012</ele>
        <time>2015-08-24T10:37:23Z</time>
      </trkpt>
      <trkpt lat="45.29718" lon="6.86657">
        <ele>2046.4199</ele>
        <time>2015-08-24T10:37:38Z</time>
      </trkpt>
      <trkpt lat="45.29718" lon="6.86649">
        <ele>2046.4199</ele>
        <time>2015-08-24T10:37:43Z</time>
      </trkpt>
      <trkpt lat="45.29715" lon="6.86633">
        <ele>2044.3987</ele>
        <time>2015-08-24T10:37:53Z</time>
      </trkpt>
      <trkpt lat="45.29712" lon="6.86626">
        <ele>2044.3987</ele>
        <time>2015-08-24T10:37:58Z</time>
      </trkpt>
      <trkpt lat="45.29707" lon="6.8661">
        <ele>2042.2458</ele>
        <time>2015-08-24T10:38:08Z</time>
      </trkpt>
      <trkpt lat="45.29703" lon="6.86602">
        <ele>2042.2458</ele>
        <time>2015-08-24T10:38:13Z</time>
      </trkpt>
      <trkpt lat="45.29699" lon="6.86588">
        <ele>2039.9901</ele>
        <time>2015-08-24T10:38:23Z</time>
      </trkpt>
      <trkpt lat="45.29698" lon="6.86579">
        <ele>2039.9901</ele>
        <time>2015-08-24T10:38:28Z</time>
      </trkpt>
      <trkpt lat="45.29695" lon="6.86564">
        <ele>2037.7448</ele>
        <time>2015-08-24T10:38:38Z</time>
      </trkpt>
      <trkpt lat="45.29693" lon="6.86555">
        <ele>2037.7448</ele>
        <time>2015-08-24T10:38:43Z</time>
      </trkpt>
      <trkpt lat="45.29685" lon="6.86547">
        <ele>2035.5715</ele>
        <time>2015-08-24T10:38:53Z</time>
      </trkpt>
      <trkpt lat="45.29687" lon="6.86536">
        <ele>2035.5715</ele>
        <time>2015-08-24T10:38:58Z</time>
      </trkpt>
      <trkpt lat="45.29687" lon="6.86516">
        <ele>2033.4121</ele>
        <time>2015-08-24T10:39:08Z</time>
      </trkpt>
      <trkpt lat="45.29686" lon="6.86508">
        <ele>2033.4121</ele>
        <time>2015-08-24T10:39:13Z</time>
      </trkpt>
      <trkpt lat="45.29686" lon="6.8648">
        <ele>2031.2843</ele>
        <time>2015-08-24T10:39:28Z</time>
      </trkpt>
      <trkpt lat="45.29686" lon="6.86473">
        <ele>2031.2843</ele>
        <time>2015-08-24T10:39:33Z</time>
      </trkpt>
      <trkpt lat="45.29683" lon="6.86457">
        <ele>2029.1902</ele>
        <time>2015-08-24T10:39:43Z</time>
      </trkpt>
      <trkpt lat="45.29684" lon="6.86449">
        <ele>2029.1902</ele>
        <time>2015-08-24T10:39:48Z</time>
      </trkpt>
      <trkpt lat="45.29685" lon="6.86433">
        <ele>2027.1027</ele>
        <time>2015-08-24T10:39:58Z</time>
      </trkpt>
      <trkpt lat="45.29685" lon="6.86422">
        <ele>2027.1027</ele>
        <time>2015-08-24T10:40:03Z</time>
      </trkpt>
      <trkpt lat="45.29685" lon="6.86404">
        <ele>2025.0396</ele>
        <time>2015-08-24T10:40:13Z</time>
      </trkpt>
      <trkpt lat="45.29684" lon="6.86398">
        <ele>2025.0396</ele>
        <time>2015-08-24T10:40:18Z</time>
      </trkpt>
      <trkpt lat="45.29686" lon="6.86387">
        <ele>2023.1906</ele>
        <time>2015-08-24T10:40:28Z</time>
      </trkpt>
      <trkpt lat="45.29689" lon="6.86387">
        <ele>2023.1906</ele>
        <time>2015-08-24T10:40:33Z</time>
      </trkpt>
      <trkpt lat="45.29687" lon="6.86383">
        <ele>2023.1906</ele>
        <time>2015-08-24T10:40:43Z</time>
      </trkpt>
      <trkpt lat="45.29684" lon="6.86383">
        <ele>2021.4133</ele>
        <time>2015-08-24T10:40:48Z</time>
      </trkpt>
      <trkpt lat="45.29694" lon="6.86368">
        <ele>2019.7057</ele>
        <time>2015-08-24T10:40:58Z</time>
      </trkpt>
      <trkpt lat="45.297" lon="6.86357">
        <ele>2018.1226</ele>
        <time>2015-08-24T10:41:03Z</time>
      </trkpt>
      <trkpt lat="45.29702" lon="6.86349">
        <ele>2018.1226</ele>
        <time>2015-08-24T10:41:13Z</time>
      </trkpt>
      <trkpt lat="45.29705" lon="6.86342">
        <ele>2016.542</ele>
        <time>2015-08-24T10:41:18Z</time>
      </trkpt>
      <trkpt lat="45.29706" lon="6.86316">
        <ele>2014.9801</ele>
        <time>2015-08-24T10:41:33Z</time>
      </trkpt>
      <trkpt lat="45.29705" lon="6.86313">
        <ele>2014.9801</ele>
        <time>2015-08-24T10:41:38Z</time>
      </trkpt>
      <trkpt lat="45.29711" lon="6.86295">
        <ele>2013.7258</ele>
        <time>2015-08-24T10:41:48Z</time>
      </trkpt>
      <trkpt lat="45.29714" lon="6.86289">
        <ele>2013.7258</ele>
        <time>2015-08-24T10:41:53Z</time>
      </trkpt>
      <trkpt lat="45.29722" lon="6.86274">
        <ele>2012.6134</ele>
        <time>2015-08-24T10:42:03Z</time>
      </trkpt>
      <trkpt lat="45.29724" lon="6.8627">
        <ele>2012.6134</ele>
        <time>2015-08-24T10:42:08Z</time>
      </trkpt>
      <trkpt lat="45.29727" lon="6.86252">
        <ele>2011.7194</ele>
        <time>2015-08-24T10:42:18Z</time>
      </trkpt>
      <trkpt lat="45.29725" lon="6.86244">
        <ele>2011.7194</ele>
        <time>2015-08-24T10:42:23Z</time>
      </trkpt>
      <trkpt lat="45.29719" lon="6.86229">
        <ele>2011.0419</ele>
        <time>2015-08-24T10:42:33Z</time>
      </trkpt>
      <trkpt lat="45.29716" lon="6.86223">
        <ele>2011.0419</ele>
        <time>2015-08-24T10:42:38Z</time>
      </trkpt>
      <trkpt lat="45.29715" lon="6.86204">
        <ele>2010.6796</ele>
        <time>2015-08-24T10:42:48Z</time>
      </trkpt>
      <trkpt lat="45.29717" lon="6.862">
        <ele>2010.6796</ele>
        <time>2015-08-24T10:42:53Z</time>
      </trkpt>
      <trkpt lat="45.29719" lon="6.86173">
        <ele>2010.4056</ele>
        <time>2015-08-24T10:43:08Z</time>
      </trkpt>
      <trkpt lat="45.29719" lon="6.86168">
        <ele>2010.4056</ele>
        <time>2015-08-24T10:43:13Z</time>
      </trkpt>
      <trkpt lat="45.29721" lon="6.86148">
        <ele>2010.053</ele>
        <time>2015-08-24T10:43:23Z</time>
      </trkpt>
      <trkpt lat="45.29722" lon="6.8614">
        <ele>2010.053</ele>
        <time>2015-08-24T10:43:28Z</time>
      </trkpt>
      <trkpt lat="45.2972" lon="6.86122">
        <ele>2009.7551</ele>
        <time>2015-08-24T10:43:38Z</time>
      </trkpt>
      <trkpt lat="45.29719" lon="6.86115">
        <ele>2009.7551</ele>
        <time>2015-08-24T10:43:43Z</time>
      </trkpt>
      <trkpt lat="45.29715" lon="6.86098">
        <ele>2009.5347</ele>
        <time>2015-08-24T10:43:53Z</time>
      </trkpt>
      <trkpt lat="45.29714" lon="6.8609">
        <ele>2009.5347</ele>
        <time>2015-08-24T10:43:58Z</time>
      </trkpt>
      <trkpt lat="45.29709" lon="6.86075">
        <ele>2009.3403</ele>
        <time>2015-08-24T10:44:08Z</time>
      </trkpt>
      <trkpt lat="45.29706" lon="6.86068">
        <ele>2009.3403</ele>
        <time>2015-08-24T10:44:13Z</time>
      </trkpt>
      <trkpt lat="45.29694" lon="6.86046">
        <ele>2009.211</ele>
        <time>2015-08-24T10:44:28Z</time>
      </trkpt>
      <trkpt lat="45.2969" lon="6.86039">
        <ele>2009.211</ele>
        <time>2015-08-24T10:44:33Z</time>
      </trkpt>
      <trkpt lat="45.29682" lon="6.86025">
        <ele>2009.1969</ele>
        <time>2015-08-24T10:44:43Z</time>
      </trkpt>
      <trkpt lat="45.29679" lon="6.86019">
        <ele>2009.1969</ele>
        <time>2015-08-24T10:44:48Z</time>
      </trkpt>
      <trkpt lat="45.29678" lon="6.86009">
        <ele>2009.2577</ele>
        <time>2015-08-24T10:44:58Z</time>
      </trkpt>
      <trkpt lat="45.29677" lon="6.86008">
        <ele>2009.2577</ele>
        <time>2015-08-24T10:45:03Z</time>
      </trkpt>
      <trkpt lat="45.2968" lon="6.8601">
        <ele>2009.2577</ele>
        <time>2015-08-24T10:45:13Z</time>
      </trkpt>
      <trkpt lat="45.2968" lon="6.86011">
        <ele>2009.2577</ele>
        <time>2015-08-24T10:45:18Z</time>
      </trkpt>
      <trkpt lat="45.29681" lon="6.86015">
        <ele>2009.2577</ele>
        <time>2015-08-24T10:45:28Z</time>
      </trkpt>
      <trkpt lat="45.29682" lon="6.86015">
        <ele>2009.2577</ele>
        <time>2015-08-24T10:45:33Z</time>
      </trkpt>
      <trkpt lat="45.29682" lon="6.86013">
        <ele>2009.3846</ele>
        <time>2015-08-24T10:45:43Z</time>
      </trkpt>
      <trkpt lat="45.29681" lon="6.86013">
        <ele>2009.3846</ele>
        <time>2015-08-24T10:45:48Z</time>
      </trkpt>
      <trkpt lat="45.29676" lon="6.86023">
        <ele>2009.6273</ele>
        <time>2015-08-24T10:46:03Z</time>
      </trkpt>
      <trkpt lat="45.29676" lon="6.86021">
        <ele>2009.6273</ele>
        <time>2015-08-24T10:46:08Z</time>
      </trkpt>
      <trkpt lat="45.29672" lon="6.86012">
        <ele>2009.6273</ele>
        <time>2015-08-24T10:46:18Z</time>
      </trkpt>
      <trkpt lat="45.29672" lon="6.86011">
        <ele>2009.9446</ele>
        <time>2015-08-24T10:46:23Z</time>
      </trkpt>
      <trkpt lat="45.29675" lon="6.86014">
        <ele>2009.9446</ele>
        <time>2015-08-24T10:46:33Z</time>
      </trkpt>
      <trkpt lat="45.29676" lon="6.86014">
        <ele>2009.9446</ele>
        <time>2015-08-24T10:46:38Z</time>
      </trkpt>
      <trkpt lat="45.29677" lon="6.86014">
        <ele>2009.9446</ele>
        <time>2015-08-24T10:46:48Z</time>
      </trkpt>
      <trkpt lat="45.29677" lon="6.86013">
        <ele>2009.9446</ele>
        <time>2015-08-24T10:46:53Z</time>
      </trkpt>
      <trkpt lat="45.29679" lon="6.86012">
        <ele>2010.2263</ele>
        <time>2015-08-24T10:47:03Z</time>
      </trkpt>
      <trkpt lat="45.29678" lon="6.86012">
        <ele>2010.2263</ele>
        <time>2015-08-24T10:47:08Z</time>
      </trkpt>
      <trkpt lat="45.29668" lon="6.86002">
        <ele>2010.2985</ele>
        <time>2015-08-24T10:47:18Z</time>
      </trkpt>
      <trkpt lat="45.29665" lon="6.85995">
        <ele>2010.2985</ele>
        <time>2015-08-24T10:47:23Z</time>
      </trkpt>
      <trkpt lat="45.29657" lon="6.85983">
        <ele>2010.3751</ele>
        <time>2015-08-24T10:47:33Z</time>
      </trkpt>
      <trkpt lat="45.29656" lon="6.85976">
        <ele>2010.3751</ele>
        <time>2015-08-24T10:47:38Z</time>
      </trkpt>
      <trkpt lat="45.29647" lon="6.85951">
        <ele>2010.2656</ele>
        <time>2015-08-24T10:47:53Z</time>
      </trkpt>
      <trkpt lat="45.29645" lon="6.85944">
        <ele>2010.2656</ele>
        <time>2015-08-24T10:47:58Z</time>
      </trkpt>
      <trkpt lat="45.29639" lon="6.85931">
        <ele>2010.1831</ele>
        <time>2015-08-24T10:48:08Z</time>
      </trkpt>
      <trkpt lat="45.29638" lon="6.85923">
        <ele>2010.1831</ele>
        <time>2015-08-24T10:48:13Z</time>
      </trkpt>
      <trkpt lat="45.29634" lon="6.85908">
        <ele>2010.1661</ele>
        <time>2015-08-24T10:48:23Z</time>
      </trkpt>
      <trkpt lat="45.29632" lon="6.85902">
        <ele>2010.1661</ele>
        <time>2015-08-24T10:48:28Z</time>
      </trkpt>
      <trkpt lat="45.29631" lon="6.85884">
        <ele>2010.1787</ele>
        <time>2015-08-24T10:48:38Z</time>
      </trkpt>
      <trkpt lat="45.2963" lon="6.85872">
        <ele>2010.1787</ele>
        <time>2015-08-24T10:48:43Z</time>
      </trkpt>
      <trkpt lat="45.29628" lon="6.85854">
        <ele>2010.2015</ele>
        <time>2015-08-24T10:48:53Z</time>
      </trkpt>
      <trkpt lat="45.29627" lon="6.85846">
        <ele>2010.2015</ele>
        <time>2015-08-24T10:48:58Z</time>
      </trkpt>
      <trkpt lat="45.29626" lon="6.85831">
        <ele>2010.1738</ele>
        <time>2015-08-24T10:49:08Z</time>
      </trkpt>
      <trkpt lat="45.29624" lon="6.85826">
        <ele>2010.1738</ele>
        <time>2015-08-24T10:49:13Z</time>
      </trkpt>
      <trkpt lat="45.29618" lon="6.85811">
        <ele>2009.996</ele>
        <time>2015-08-24T10:49:23Z</time>
      </trkpt>
      <trkpt lat="45.29613" lon="6.85801">
        <ele>2009.996</ele>
        <time>2015-08-24T10:49:28Z</time>
      </trkpt>
      <trkpt lat="45.2961" lon="6.85792">
        <ele>2009.807</ele>
        <time>2015-08-24T10:49:38Z</time>
      </trkpt>
      <trkpt lat="45.29608" lon="6.85784">
        <ele>2009.807</ele>
        <time>2015-08-24T10:49:43Z</time>
      </trkpt>
      <trkpt lat="45.296" lon="6.8577">
        <ele>2009.4907</ele>
        <time>2015-08-24T10:49:53Z</time>
      </trkpt>
      <trkpt lat="45.29599" lon="6.85762">
        <ele>2009.4907</ele>
        <time>2015-08-24T10:49:58Z</time>
      </trkpt>
      <trkpt lat="45.29592" lon="6.85753">
        <ele>2009.012</ele>
        <time>2015-08-24T10:50:08Z</time>
      </trkpt>
      <trkpt lat="45.29591" lon="6.85749">
        <ele>2009.012</ele>
        <time>2015-08-24T10:50:13Z</time>
      </trkpt>
      <trkpt lat="45.29589" lon="6.85742">
        <ele>2009.012</ele>
        <time>2015-08-24T10:50:23Z</time>
      </trkpt>
      <trkpt lat="45.29588" lon="6.8574">
        <ele>2008.4827</ele>
        <time>2015-08-24T10:50:28Z</time>
      </trkpt>
      <trkpt lat="45.29588" lon="6.85741">
        <ele>2008.4827</ele>
        <time>2015-08-24T10:50:43Z</time>
      </trkpt>
      <trkpt lat="45.29588" lon="6.85742">
        <ele>2008.4827</ele>
        <time>2015-08-24T10:50:48Z</time>
      </trkpt>
      <trkpt lat="45.29587" lon="6.85731">
        <ele>2008.3817</ele>
        <time>2015-08-24T10:50:58Z</time>
      </trkpt>
      <trkpt lat="45.29587" lon="6.85723">
        <ele>2008.3817</ele>
        <time>2015-08-24T10:51:03Z</time>
      </trkpt>
      <trkpt lat="45.29587" lon="6.85703">
        <ele>2008.3301</ele>
        <time>2015-08-24T10:51:13Z</time>
      </trkpt>
      <trkpt lat="45.29584" lon="6.85694">
        <ele>2008.3301</ele>
        <time>2015-08-24T10:51:18Z</time>
      </trkpt>
      <trkpt lat="45.29585" lon="6.8568">
        <ele>2008.0919</ele>
        <time>2015-08-24T10:51:28Z</time>
      </trkpt>
      <trkpt lat="45.29587" lon="6.85671">
        <ele>2008.0919</ele>
        <time>2015-08-24T10:51:33Z</time>
      </trkpt>
      <trkpt lat="45.29592" lon="6.85657">
        <ele>2007.4778</ele>
        <time>2015-08-24T10:51:43Z</time>
      </trkpt>
      <trkpt lat="45.29595" lon="6.85646">
        <ele>2007.4778</ele>
        <time>2015-08-24T10:51:48Z</time>
      </trkpt>
      <trkpt lat="45.29595" lon="6.85639">
        <ele>2006.8612</ele>
        <time>2015-08-24T10:51:58Z</time>
      </trkpt>
      <trkpt lat="45.29595" lon="6.85632">
        <ele>2006.8612</ele>
        <time>2015-08-24T10:52:03Z</time>
      </trkpt>
      <trkpt lat="45.29597" lon="6.85608">
        <ele>2006.0696</ele>
        <time>2015-08-24T10:52:13Z</time>
      </trkpt>
      <trkpt lat="45.29598" lon="6.856">
        <ele>2006.0696</ele>
        <time>2015-08-24T10:52:18Z</time>
      </trkpt>
      <trkpt lat="45.29593" lon="6.85583">
        <ele>2005.1306</ele>
        <time>2015-08-24T10:52:28Z</time>
      </trkpt>
      <trkpt lat="45.29589" lon="6.85578">
        <ele>2005.1306</ele>
        <time>2015-08-24T10:52:33Z</time>
      </trkpt>
      <trkpt lat="45.29583" lon="6.85547">
        <ele>2004.359</ele>
        <time>2015-08-24T10:52:48Z</time>
      </trkpt>
      <trkpt lat="45.29584" lon="6.85536">
        <ele>2004.359</ele>
        <time>2015-08-24T10:52:53Z</time>
      </trkpt>
      <trkpt lat="45.2959" lon="6.85522">
        <ele>2003.368</ele>
        <time>2015-08-24T10:53:03Z</time>
      </trkpt>
      <trkpt lat="45.29589" lon="6.85514">
        <ele>2003.368</ele>
        <time>2015-08-24T10:53:08Z</time>
      </trkpt>
      <trkpt lat="45.29587" lon="6.85495">
        <ele>2002.3628</ele>
        <time>2015-08-24T10:53:18Z</time>
      </trkpt>
      <trkpt lat="45.29586" lon="6.85488">
        <ele>2002.3628</ele>
        <time>2015-08-24T10:53:23Z</time>
      </trkpt>
      <trkpt lat="45.29585" lon="6.8547">
        <ele>2001.3021</ele>
        <time>2015-08-24T10:53:33Z</time>
      </trkpt>
      <trkpt lat="45.29586" lon="6.85462">
        <ele>2001.3021</ele>
        <time>2015-08-24T10:53:38Z</time>
      </trkpt>
      <trkpt lat="45.29586" lon="6.8545">
        <ele>1999.99</ele>
        <time>2015-08-24T10:53:48Z</time>
      </trkpt>
      <trkpt lat="45.29585" lon="6.8544">
        <ele>1999.99</ele>
        <time>2015-08-24T10:53:53Z</time>
      </trkpt>
      <trkpt lat="45.29587" lon="6.85421">
        <ele>1998.476</ele>
        <time>2015-08-24T10:54:03Z</time>
      </trkpt>
      <trkpt lat="45.29587" lon="6.85412">
        <ele>1998.476</ele>
        <time>2015-08-24T10:54:08Z</time>
      </trkpt>
      <trkpt lat="45.29581" lon="6.85395">
        <ele>1996.8784</ele>
        <time>2015-08-24T10:54:18Z</time>
      </trkpt>
      <trkpt lat="45.29579" lon="6.85384">
        <ele>1996.8784</ele>
        <time>2015-08-24T10:54:23Z</time>
      </trkpt>
      <trkpt lat="45.2958" lon="6.85368">
        <ele>1995.4949</ele>
        <time>2015-08-24T10:54:33Z</time>
      </trkpt>
      <trkpt lat="45.2958" lon="6.85363">
        <ele>1995.4949</ele>
        <time>2015-08-24T10:54:38Z</time>
      </trkpt>
      <trkpt lat="45.29579" lon="6.85335">
        <ele>1993.8942</ele>
        <time>2015-08-24T10:54:53Z</time>
      </trkpt>
      <trkpt lat="45.29578" lon="6.85327">
        <ele>1993.8942</ele>
        <time>2015-08-24T10:54:58Z</time>
      </trkpt>
      <trkpt lat="45.29575" lon="6.85312">
        <ele>1992.3545</ele>
        <time>2015-08-24T10:55:08Z</time>
      </trkpt>
      <trkpt lat="45.29572" lon="6.85303">
        <ele>1992.3545</ele>
        <time>2015-08-24T10:55:13Z</time>
      </trkpt>
      <trkpt lat="45.29565" lon="6.85285">
        <ele>1990.8168</ele>
        <time>2015-08-24T10:55:23Z</time>
      </trkpt>
      <trkpt lat="45.29563" lon="6.85277">
        <ele>1990.8168</ele>
        <time>2015-08-24T10:55:28Z</time>
      </trkpt>
      <trkpt lat="45.29561" lon="6.8526">
        <ele>1989.4276</ele>
        <time>2015-08-24T10:55:38Z</time>
      </trkpt>
      <trkpt lat="45.2956" lon="6.85253">
        <ele>1989.4276</ele>
        <time>2015-08-24T10:55:43Z</time>
      </trkpt>
      <trkpt lat="45.29557" lon="6.85239">
        <ele>1988.0055</ele>
        <time>2015-08-24T10:55:53Z</time>
      </trkpt>
      <trkpt lat="45.29558" lon="6.85232">
        <ele>1988.0055</ele>
        <time>2015-08-24T10:55:58Z</time>
      </trkpt>
      <trkpt lat="45.29561" lon="6.85213">
        <ele>1986.2528</ele>
        <time>2015-08-24T10:56:08Z</time>
      </trkpt>
      <trkpt lat="45.29562" lon="6.85205">
        <ele>1986.2528</ele>
        <time>2015-08-24T10:56:13Z</time>
      </trkpt>
      <trkpt lat="45.29562" lon="6.85191">
        <ele>1984.2401</ele>
        <time>2015-08-24T10:56:23Z</time>
      </trkpt>
      <trkpt lat="45.29564" lon="6.85181">
        <ele>1984.2401</ele>
        <time>2015-08-24T10:56:28Z</time>
      </trkpt>
      <trkpt lat="45.29568" lon="6.85167">
        <ele>1982.0626</ele>
        <time>2015-08-24T10:56:38Z</time>
      </trkpt>
      <trkpt lat="45.29568" lon="6.85156">
        <ele>1982.0626</ele>
        <time>2015-08-24T10:56:43Z</time>
      </trkpt>
      <trkpt lat="45.29564" lon="6.85128">
        <ele>1980.2412</ele>
        <time>2015-08-24T10:56:58Z</time>
      </trkpt>
      <trkpt lat="45.29564" lon="6.85122">
        <ele>1980.2412</ele>
        <time>2015-08-24T10:57:03Z</time>
      </trkpt>
      <trkpt lat="45.29562" lon="6.85107">
        <ele>1978.5657</ele>
        <time>2015-08-24T10:57:13Z</time>
      </trkpt>
      <trkpt lat="45.2956" lon="6.85099">
        <ele>1978.5657</ele>
        <time>2015-08-24T10:57:18Z</time>
      </trkpt>
      <trkpt lat="45.29554" lon="6.85082">
        <ele>1976.7542</ele>
        <time>2015-08-24T10:57:28Z</time>
      </trkpt>
      <trkpt lat="45.29552" lon="6.85077">
        <ele>1976.7542</ele>
        <time>2015-08-24T10:57:33Z</time>
      </trkpt>
      <trkpt lat="45.29547" lon="6.85057">
        <ele>1974.9065</ele>
        <time>2015-08-24T10:57:43Z</time>
      </trkpt>
      <trkpt lat="45.29547" lon="6.85049">
        <ele>1974.9065</ele>
        <time>2015-08-24T10:57:48Z</time>
      </trkpt>
      <trkpt lat="45.29545" lon="6.85035">
        <ele>1973.1434</ele>
        <time>2015-08-24T10:57:58Z</time>
      </trkpt>
      <trkpt lat="45.29544" lon="6.8503">
        <ele>1973.1434</ele>
        <time>2015-08-24T10:58:03Z</time>
      </trkpt>
      <trkpt lat="45.29541" lon="6.85012">
        <ele>1971.2601</ele>
        <time>2015-08-24T10:58:13Z</time>
      </trkpt>
      <trkpt lat="45.29538" lon="6.85006">
        <ele>1971.2601</ele>
        <time>2015-08-24T10:58:18Z</time>
      </trkpt>
      <trkpt lat="45.29533" lon="6.84983">
        <ele>1969.0667</ele>
        <time>2015-08-24T10:58:33Z</time>
      </trkpt>
      <trkpt lat="45.29532" lon="6.84974">
        <ele>1969.0667</ele>
        <time>2015-08-24T10:58:38Z</time>
      </trkpt>
      <trkpt lat="45.29529" lon="6.84954">
        <ele>1966.7769</ele>
        <time>2015-08-24T10:58:48Z</time>
      </trkpt>
      <trkpt lat="45.29526" lon="6.84944">
        <ele>1966.7769</ele>
        <time>2015-08-24T10:58:53Z</time>
      </trkpt>
      <trkpt lat="45.29523" lon="6.84929">
        <ele>1964.8918</ele>
        <time>2015-08-24T10:59:03Z</time>
      </trkpt>
      <trkpt lat="45.2952" lon="6.84921">
        <ele>1964.8918</ele>
        <time>2015-08-24T10:59:08Z</time>
      </trkpt>
      <trkpt lat="45.29514" lon="6.8491">
        <ele>1963.0822</ele>
        <time>2015-08-24T10:59:18Z</time>
      </trkpt>
      <trkpt lat="45.29511" lon="6.84905">
        <ele>1963.0822</ele>
        <time>2015-08-24T10:59:23Z</time>
      </trkpt>
      <trkpt lat="45.29504" lon="6.84891">
        <ele>1960.8547</ele>
        <time>2015-08-24T10:59:33Z</time>
      </trkpt>
      <trkpt lat="45.29499" lon="6.84878">
        <ele>1958.8059</ele>
        <time>2015-08-24T10:59:38Z</time>
      </trkpt>
      <trkpt lat="45.29493" lon="6.84863">
        <ele>1957.1271</ele>
        <time>2015-08-24T10:59:48Z</time>
      </trkpt>
      <trkpt lat="45.29491" lon="6.84855">
        <ele>1957.1271</ele>
        <time>2015-08-24T10:59:53Z</time>
      </trkpt>
      <trkpt lat="45.29487" lon="6.84841">
        <ele>1955.4185</ele>
        <time>2015-08-24T11:00:03Z</time>
      </trkpt>
      <trkpt lat="45.29484" lon="6.84835">
        <ele>1955.4185</ele>
        <time>2015-08-24T11:00:08Z</time>
      </trkpt>
      <trkpt lat="45.29479" lon="6.8482">
        <ele>1953.4388</ele>
        <time>2015-08-24T11:00:18Z</time>
      </trkpt>
      <trkpt lat="45.29478" lon="6.84809">
        <ele>1953.4388</ele>
        <time>2015-08-24T11:00:23Z</time>
      </trkpt>
      <trkpt lat="45.29472" lon="6.84793">
        <ele>1951.2106</ele>
        <time>2015-08-24T11:00:38Z</time>
      </trkpt>
      <trkpt lat="45.29465" lon="6.84782">
        <ele>1949.1587</ele>
        <time>2015-08-24T11:00:43Z</time>
      </trkpt>
      <trkpt lat="45.29458" lon="6.84765">
        <ele>1947.3014</ele>
        <time>2015-08-24T11:00:53Z</time>
      </trkpt>
      <trkpt lat="45.29452" lon="6.84753">
        <ele>1945.8568</ele>
        <time>2015-08-24T11:00:58Z</time>
      </trkpt>
      <trkpt lat="45.29447" lon="6.84731">
        <ele>1944.9825</ele>
        <time>2015-08-24T11:01:08Z</time>
      </trkpt>
      <trkpt lat="45.29448" lon="6.84726">
        <ele>1944.9825</ele>
        <time>2015-08-24T11:01:13Z</time>
      </trkpt>
      <trkpt lat="45.29447" lon="6.84714">
        <ele>1943.7997</ele>
        <time>2015-08-24T11:01:23Z</time>
      </trkpt>
      <trkpt lat="45.29447" lon="6.84706">
        <ele>1943.7997</ele>
        <time>2015-08-24T11:01:28Z</time>
      </trkpt>
      <trkpt lat="45.29445" lon="6.84695">
        <ele>1942.2152</ele>
        <time>2015-08-24T11:01:38Z</time>
      </trkpt>
      <trkpt lat="45.29442" lon="6.84687">
        <ele>1942.2152</ele>
        <time>2015-08-24T11:01:43Z</time>
      </trkpt>
      <trkpt lat="45.29438" lon="6.84666">
        <ele>1940.7351</ele>
        <time>2015-08-24T11:01:53Z</time>
      </trkpt>
      <trkpt lat="45.29437" lon="6.84658">
        <ele>1940.7351</ele>
        <time>2015-08-24T11:01:58Z</time>
      </trkpt>
      <trkpt lat="45.29432" lon="6.84631">
        <ele>1939.6691</ele>
        <time>2015-08-24T11:02:13Z</time>
      </trkpt>
      <trkpt lat="45.29429" lon="6.84627">
        <ele>1939.6691</ele>
        <time>2015-08-24T11:02:18Z</time>
      </trkpt>
      <trkpt lat="45.29424" lon="6.84613">
        <ele>1938.928</ele>
        <time>2015-08-24T11:02:28Z</time>
      </trkpt>
      <trkpt lat="45.29425" lon="6.84604">
        <ele>1938.928</ele>
        <time>2015-08-24T11:02:33Z</time>
      </trkpt>
      <trkpt lat="45.29423" lon="6.84598">
        <ele>1937.852</ele>
        <time>2015-08-24T11:02:43Z</time>
      </trkpt>
      <trkpt lat="45.29425" lon="6.84597">
        <ele>1937.852</ele>
        <time>2015-08-24T11:02:48Z</time>
      </trkpt>
      <trkpt lat="45.29425" lon="6.84597">
        <ele>1937.852</ele>
        <time>2015-08-24T11:02:58Z</time>
      </trkpt>
      <trkpt lat="45.29425" lon="6.84598">
        <ele>1937.852</ele>
        <time>2015-08-24T11:04:03Z</time>
      </trkpt>
      <trkpt lat="45.29425" lon="6.84598">
        <ele>1937.852</ele>
        <time>2015-08-24T11:04:23Z</time>
      </trkpt>
      <trkpt lat="45.29426" lon="6.84598">
        <ele>1937.852</ele>
        <time>2015-08-24T11:04:33Z</time>
      </trkpt>
      <trkpt lat="45.29426" lon="6.84598">
        <ele>1937.852</ele>
        <time>2015-08-24T11:04:38Z</time>
      </trkpt>
      <trkpt lat="45.29426" lon="6.846">
        <ele>1937.852</ele>
        <time>2015-08-24T11:04:48Z</time>
      </trkpt>
      <trkpt lat="45.29426" lon="6.846">
        <ele>1937.852</ele>
        <time>2015-08-24T11:04:53Z</time>
      </trkpt>
      <trkpt lat="45.29428" lon="6.84599">
        <ele>1937.852</ele>
        <time>2015-08-24T11:07:28Z</time>
      </trkpt>
      <trkpt lat="45.29429" lon="6.84597">
        <ele>1937.852</ele>
        <time>2015-08-24T11:07:43Z</time>
      </trkpt>
      <trkpt lat="45.29431" lon="6.84596">
        <ele>1935.3555</ele>
        <time>2015-08-24T11:07:48Z</time>
      </trkpt>
      <trkpt lat="45.29437" lon="6.84591">
        <ele>1935.3555</ele>
        <time>2015-08-24T11:07:58Z</time>
      </trkpt>
      <trkpt lat="45.29438" lon="6.84587">
        <ele>1933.4332</ele>
        <time>2015-08-24T11:08:03Z</time>
      </trkpt>
      <trkpt lat="45.29438" lon="6.84584">
        <ele>1933.4332</ele>
        <time>2015-08-24T11:08:13Z</time>
      </trkpt>
      <trkpt lat="45.29439" lon="6.84585">
        <ele>1933.4332</ele>
        <time>2015-08-24T11:08:18Z</time>
      </trkpt>
      <trkpt lat="45.29438" lon="6.84584">
        <ele>1933.4332</ele>
        <time>2015-08-24T11:08:28Z</time>
      </trkpt>
      <trkpt lat="45.29439" lon="6.84583">
        <ele>1933.4332</ele>
        <time>2015-08-24T11:08:33Z</time>
      </trkpt>
      <trkpt lat="45.2944" lon="6.84581">
        <ele>1933.4332</ele>
        <time>2015-08-24T11:08:43Z</time>
      </trkpt>
      <trkpt lat="45.2944" lon="6.84581">
        <ele>1933.4332</ele>
        <time>2015-08-24T11:08:48Z</time>
      </trkpt>
      <trkpt lat="45.29442" lon="6.84576">
        <ele>1932.4768</ele>
        <time>2015-08-24T11:08:58Z</time>
      </trkpt>
      <trkpt lat="45.29442" lon="6.84576">
        <ele>1932.4768</ele>
        <time>2015-08-24T11:09:03Z</time>
      </trkpt>
      <trkpt lat="45.29444" lon="6.84574">
        <ele>1932.4768</ele>
        <time>2015-08-24T11:09:18Z</time>
      </trkpt>
      <trkpt lat="45.29446" lon="6.84572">
        <ele>1932.4768</ele>
        <time>2015-08-24T11:09:23Z</time>
      </trkpt>
      <trkpt lat="45.29446" lon="6.84568">
        <ele>1932.4768</ele>
        <time>2015-08-24T11:09:33Z</time>
      </trkpt>
      <trkpt lat="45.2945" lon="6.84558">
        <ele>1932.6157</ele>
        <time>2015-08-24T11:09:38Z</time>
      </trkpt>
      <trkpt lat="45.2945" lon="6.84558">
        <ele>1932.6157</ele>
        <time>2015-08-24T11:09:48Z</time>
      </trkpt>
      <trkpt lat="45.29452" lon="6.84553">
        <ele>1932.6157</ele>
        <time>2015-08-24T11:09:53Z</time>
      </trkpt>
      <trkpt lat="45.29451" lon="6.84544">
        <ele>1933.3613</ele>
        <time>2015-08-24T11:10:03Z</time>
      </trkpt>
      <trkpt lat="45.29451" lon="6.84543">
        <ele>1933.3613</ele>
        <time>2015-08-24T11:10:08Z</time>
      </trkpt>
      <trkpt lat="45.29452" lon="6.84533">
        <ele>1933.3613</ele>
        <time>2015-08-24T11:10:18Z</time>
      </trkpt>
      <trkpt lat="45.29452" lon="6.84531">
        <ele>1934.6195</ele>
        <time>2015-08-24T11:10:23Z</time>
      </trkpt>
      <trkpt lat="45.29451" lon="6.84527">
        <ele>1934.6195</ele>
        <time>2015-08-24T11:10:33Z</time>
      </trkpt>
      <trkpt lat="45.29451" lon="6.84525">
        <ele>1934.6195</ele>
        <time>2015-08-24T11:10:38Z</time>
      </trkpt>
      <trkpt lat="45.2945" lon="6.8451">
        <ele>1936.374</ele>
        <time>2015-08-24T11:10:48Z</time>
      </trkpt>
      <trkpt lat="45.29449" lon="6.84505">
        <ele>1936.374</ele>
        <time>2015-08-24T11:10:53Z</time>
      </trkpt>
      <trkpt lat="45.2945" lon="6.84505">
        <ele>1936.374</ele>
        <time>2015-08-24T11:11:03Z</time>
      </trkpt>
      <trkpt lat="45.2945" lon="6.84497">
        <ele>1938.6511</ele>
        <time>2015-08-24T11:11:18Z</time>
      </trkpt>
      <trkpt lat="45.29451" lon="6.84489">
        <ele>1938.6511</ele>
        <time>2015-08-24T11:11:23Z</time>
      </trkpt>
      <trkpt lat="45.2945" lon="6.84469">
        <ele>1941.229</ele>
        <time>2015-08-24T11:11:33Z</time>
      </trkpt>
      <trkpt lat="45.29451" lon="6.84468">
        <ele>1941.229</ele>
        <time>2015-08-24T11:11:38Z</time>
      </trkpt>
      <trkpt lat="45.2945" lon="6.84465">
        <ele>1941.229</ele>
        <time>2015-08-24T11:11:48Z</time>
      </trkpt>
      <trkpt lat="45.2945" lon="6.84465">
        <ele>1941.229</ele>
        <time>2015-08-24T11:11:53Z</time>
      </trkpt>
      <trkpt lat="45.29451" lon="6.84458">
        <ele>1941.229</ele>
        <time>2015-08-24T11:12:03Z</time>
      </trkpt>
      <trkpt lat="45.2945" lon="6.84454">
        <ele>1944.1754</ele>
        <time>2015-08-24T11:12:08Z</time>
      </trkpt>
      <trkpt lat="45.29451" lon="6.84448">
        <ele>1944.1754</ele>
        <time>2015-08-24T11:12:18Z</time>
      </trkpt>
      <trkpt lat="45.29451" lon="6.84438">
        <ele>1946.9897</ele>
        <time>2015-08-24T11:12:23Z</time>
      </trkpt>
      <trkpt lat="45.29448" lon="6.84426">
        <ele>1946.9897</ele>
        <time>2015-08-24T11:12:38Z</time>
      </trkpt>
      <trkpt lat="45.29448" lon="6.84426">
        <ele>1946.9897</ele>
        <time>2015-08-24T11:12:43Z</time>
      </trkpt>
      <trkpt lat="45.29448" lon="6.8441">
        <ele>1949.9152</ele>
        <time>2015-08-24T11:12:53Z</time>
      </trkpt>
      <trkpt lat="45.29458" lon="6.84398">
        <ele>1952.6721</ele>
        <time>2015-08-24T11:12:58Z</time>
      </trkpt>
      <trkpt lat="45.29461" lon="6.84378">
        <ele>1955.3196</ele>
        <time>2015-08-24T11:13:08Z</time>
      </trkpt>
      <trkpt lat="45.29462" lon="6.84377">
        <ele>1955.3196</ele>
        <time>2015-08-24T11:13:13Z</time>
      </trkpt>
      <trkpt lat="45.29462" lon="6.84377">
        <ele>1955.3196</ele>
        <time>2015-08-24T11:13:23Z</time>
      </trkpt>
      <trkpt lat="45.29462" lon="6.84375">
        <ele>1955.3196</ele>
        <time>2015-08-24T11:13:28Z</time>
      </trkpt>
      <trkpt lat="45.29463" lon="6.84375">
        <ele>1955.3196</ele>
        <time>2015-08-24T11:13:38Z</time>
      </trkpt>
      <trkpt lat="45.29463" lon="6.84375">
        <ele>1955.3196</ele>
        <time>2015-08-24T11:13:43Z</time>
      </trkpt>
      <trkpt lat="45.29473" lon="6.84366">
        <ele>1958.3591</ele>
        <time>2015-08-24T11:13:53Z</time>
      </trkpt>
      <trkpt lat="45.29473" lon="6.84366">
        <ele>1958.3591</ele>
        <time>2015-08-24T11:13:58Z</time>
      </trkpt>
      <trkpt lat="45.29472" lon="6.84363">
        <ele>1958.3591</ele>
        <time>2015-08-24T11:14:08Z</time>
      </trkpt>
      <trkpt lat="45.29473" lon="6.84362">
        <ele>1958.3591</ele>
        <time>2015-08-24T11:14:13Z</time>
      </trkpt>
      <trkpt lat="45.29476" lon="6.84345">
        <ele>1961.7218</ele>
        <time>2015-08-24T11:14:28Z</time>
      </trkpt>
      <trkpt lat="45.29477" lon="6.84345">
        <ele>1961.7218</ele>
        <time>2015-08-24T11:14:33Z</time>
      </trkpt>
      <trkpt lat="45.29482" lon="6.84339">
        <ele>1961.7218</ele>
        <time>2015-08-24T11:14:43Z</time>
      </trkpt>
      <trkpt lat="45.29483" lon="6.84336">
        <ele>1965.2706</ele>
        <time>2015-08-24T11:14:48Z</time>
      </trkpt>
      <trkpt lat="45.29483" lon="6.84329">
        <ele>1965.2706</ele>
        <time>2015-08-24T11:14:58Z</time>
      </trkpt>
      <trkpt lat="45.29483" lon="6.84329">
        <ele>1965.2706</ele>
        <time>2015-08-24T11:15:03Z</time>
      </trkpt>
      <trkpt lat="45.29483" lon="6.84323">
        <ele>1968.9939</ele>
        <time>2015-08-24T11:15:13Z</time>
      </trkpt>
      <trkpt lat="45.29482" lon="6.84319">
        <ele>1968.9939</ele>
        <time>2015-08-24T11:15:18Z</time>
      </trkpt>
      <trkpt lat="45.29482" lon="6.84318">
        <ele>1968.9939</ele>
        <time>2015-08-24T11:15:28Z</time>
      </trkpt>
      <trkpt lat="45.29482" lon="6.84318">
        <ele>1968.9939</ele>
        <time>2015-08-24T11:15:33Z</time>
      </trkpt>
      <trkpt lat="45.29487" lon="6.84302">
        <ele>1972.9814</ele>
        <time>2015-08-24T11:15:43Z</time>
      </trkpt>
      <trkpt lat="45.29486" lon="6.8429">
        <ele>1972.9814</ele>
        <time>2015-08-24T11:15:48Z</time>
      </trkpt>
      <trkpt lat="45.29483" lon="6.84275">
        <ele>1977.114</ele>
        <time>2015-08-24T11:15:58Z</time>
      </trkpt>
      <trkpt lat="45.29483" lon="6.8427">
        <ele>1977.114</ele>
        <time>2015-08-24T11:16:03Z</time>
      </trkpt>
      <trkpt lat="45.29485" lon="6.84264">
        <ele>1977.114</ele>
        <time>2015-08-24T11:16:13Z</time>
      </trkpt>
      <trkpt lat="45.29485" lon="6.84262">
        <ele>1980.7338</ele>
        <time>2015-08-24T11:16:18Z</time>
      </trkpt>
      <trkpt lat="45.29484" lon="6.84255">
        <ele>1980.7338</ele>
        <time>2015-08-24T11:16:28Z</time>
      </trkpt>
      <trkpt lat="45.29486" lon="6.84253">
        <ele>1980.7338</ele>
        <time>2015-08-24T11:16:33Z</time>
      </trkpt>
      <trkpt lat="45.29485" lon="6.8425">
        <ele>1983.9822</ele>
        <time>2015-08-24T11:16:48Z</time>
      </trkpt>
      <trkpt lat="45.29484" lon="6.84248">
        <ele>1983.9822</ele>
        <time>2015-08-24T11:16:53Z</time>
      </trkpt>
      <trkpt lat="45.29481" lon="6.84244">
        <ele>1983.9822</ele>
        <time>2015-08-24T11:17:03Z</time>
      </trkpt>
      <trkpt lat="45.29479" lon="6.84242">
        <ele>1983.9822</ele>
        <time>2015-08-24T11:17:08Z</time>
      </trkpt>
      <trkpt lat="45.29478" lon="6.84242">
        <ele>1983.9822</ele>
        <time>2015-08-24T11:17:18Z</time>
      </trkpt>
      <trkpt lat="45.29479" lon="6.84242">
        <ele>1986.9053</ele>
        <time>2015-08-24T11:17:23Z</time>
      </trkpt>
      <trkpt lat="45.29479" lon="6.84242">
        <ele>1986.9053</ele>
        <time>2015-08-24T11:17:33Z</time>
      </trkpt>
      <trkpt lat="45.29478" lon="6.84243">
        <ele>1986.9053</ele>
        <time>2015-08-24T11:18:23Z</time>
      </trkpt>
      <trkpt lat="45.29478" lon="6.84243">
        <ele>1986.9053</ele>
        <time>2015-08-24T11:18:33Z</time>
      </trkpt>
      <trkpt lat="45.29478" lon="6.84242">
        <ele>1986.9053</ele>
        <time>2015-08-24T11:18:38Z</time>
      </trkpt>
      <trkpt lat="45.29479" lon="6.84238">
        <ele>1986.9053</ele>
        <time>2015-08-24T11:18:48Z</time>
      </trkpt>
      <trkpt lat="45.29478" lon="6.84237">
        <ele>1986.9053</ele>
        <time>2015-08-24T11:18:53Z</time>
      </trkpt>
      <trkpt lat="45.29481" lon="6.84229">
        <ele>1990.3826</ele>
        <time>2015-08-24T11:19:08Z</time>
      </trkpt>
      <trkpt lat="45.29483" lon="6.84227">
        <ele>1990.3826</ele>
        <time>2015-08-24T11:19:13Z</time>
      </trkpt>
      <trkpt lat="45.29483" lon="6.84225">
        <ele>1990.3826</ele>
        <time>2015-08-24T11:19:23Z</time>
      </trkpt>
      <trkpt lat="45.29483" lon="6.84223">
        <ele>1990.3826</ele>
        <time>2015-08-24T11:19:28Z</time>
      </trkpt>
      <trkpt lat="45.29484" lon="6.84221">
        <ele>1990.3826</ele>
        <time>2015-08-24T11:19:38Z</time>
      </trkpt>
      <trkpt lat="45.29484" lon="6.84223">
        <ele>1990.3826</ele>
        <time>2015-08-24T11:20:08Z</time>
      </trkpt>
      <trkpt lat="45.29485" lon="6.84224">
        <ele>1993.9886</ele>
        <time>2015-08-24T11:20:13Z</time>
      </trkpt>
      <trkpt lat="45.29487" lon="6.84226">
        <ele>1993.9886</ele>
        <time>2015-08-24T11:20:23Z</time>
      </trkpt>
      <trkpt lat="45.29488" lon="6.84226">
        <ele>1993.9886</ele>
        <time>2015-08-24T11:20:28Z</time>
      </trkpt>
      <trkpt lat="45.29493" lon="6.84228">
        <ele>1993.9886</ele>
        <time>2015-08-24T11:20:38Z</time>
      </trkpt>
      <trkpt lat="45.29495" lon="6.84229">
        <ele>1997.4879</ele>
        <time>2015-08-24T11:20:43Z</time>
      </trkpt>
      <trkpt lat="45.29497" lon="6.8423">
        <ele>1997.4879</ele>
        <time>2015-08-24T11:20:58Z</time>
      </trkpt>
      <trkpt lat="45.29498" lon="6.84231">
        <ele>1997.4879</ele>
        <time>2015-08-24T11:21:03Z</time>
      </trkpt>
      <trkpt lat="45.29498" lon="6.84233">
        <ele>1997.4879</ele>
        <time>2015-08-24T11:21:13Z</time>
      </trkpt>
      <trkpt lat="45.295" lon="6.84233">
        <ele>1997.4879</ele>
        <time>2015-08-24T11:21:18Z</time>
      </trkpt>
      <trkpt lat="45.29503" lon="6.84233">
        <ele>2001.3398</ele>
        <time>2015-08-24T11:21:28Z</time>
      </trkpt>
      <trkpt lat="45.29504" lon="6.84233">
        <ele>2001.3398</ele>
        <time>2015-08-24T11:21:33Z</time>
      </trkpt>
      <trkpt lat="45.29508" lon="6.84234">
        <ele>2001.3398</ele>
        <time>2015-08-24T11:21:43Z</time>
      </trkpt>
      <trkpt lat="45.29509" lon="6.84234">
        <ele>2001.3398</ele>
        <time>2015-08-24T11:21:48Z</time>
      </trkpt>
      <trkpt lat="45.2951" lon="6.84235">
        <ele>2001.3398</ele>
        <time>2015-08-24T11:21:58Z</time>
      </trkpt>
      <trkpt lat="45.29513" lon="6.84238">
        <ele>2005.3354</ele>
        <time>2015-08-24T11:22:03Z</time>
      </trkpt>
      <trkpt lat="45.29519" lon="6.84243">
        <ele>2005.3354</ele>
        <time>2015-08-24T11:22:13Z</time>
      </trkpt>
      <trkpt lat="45.2952" lon="6.84243">
        <ele>2005.3354</ele>
        <time>2015-08-24T11:22:18Z</time>
      </trkpt>
      <trkpt lat="45.29521" lon="6.84246">
        <ele>2009.382</ele>
        <time>2015-08-24T11:22:28Z</time>
      </trkpt>
      <trkpt lat="45.29521" lon="6.84246">
        <ele>2009.382</ele>
        <time>2015-08-24T11:22:33Z</time>
      </trkpt>
      <trkpt lat="45.29524" lon="6.84249">
        <ele>2009.382</ele>
        <time>2015-08-24T11:22:48Z</time>
      </trkpt>
      <trkpt lat="45.29525" lon="6.8425">
        <ele>2009.382</ele>
        <time>2015-08-24T11:22:53Z</time>
      </trkpt>
      <trkpt lat="45.29527" lon="6.84252">
        <ele>2009.382</ele>
        <time>2015-08-24T11:23:03Z</time>
      </trkpt>
      <trkpt lat="45.29529" lon="6.84253">
        <ele>2013.7397</ele>
        <time>2015-08-24T11:23:08Z</time>
      </trkpt>
      <trkpt lat="45.29531" lon="6.84255">
        <ele>2013.7397</ele>
        <time>2015-08-24T11:23:18Z</time>
      </trkpt>
      <trkpt lat="45.29533" lon="6.8426">
        <ele>2013.7397</ele>
        <time>2015-08-24T11:23:23Z</time>
      </trkpt>
      <trkpt lat="45.29534" lon="6.84262">
        <ele>2013.7397</ele>
        <time>2015-08-24T11:23:33Z</time>
      </trkpt>
      <trkpt lat="45.29534" lon="6.84262">
        <ele>2013.7397</ele>
        <time>2015-08-24T11:23:38Z</time>
      </trkpt>
      <trkpt lat="45.29534" lon="6.84264">
        <ele>2018.2312</ele>
        <time>2015-08-24T11:23:48Z</time>
      </trkpt>
      <trkpt lat="45.29536" lon="6.84267">
        <ele>2018.2312</ele>
        <time>2015-08-24T11:23:53Z</time>
      </trkpt>
      <trkpt lat="45.29546" lon="6.84278">
        <ele>2022.5479</ele>
        <time>2015-08-24T11:24:03Z</time>
      </trkpt>
      <trkpt lat="45.29548" lon="6.8428">
        <ele>2022.5479</ele>
        <time>2015-08-24T11:24:08Z</time>
      </trkpt>
      <trkpt lat="45.29554" lon="6.84287">
        <ele>2026.5347</ele>
        <time>2015-08-24T11:24:18Z</time>
      </trkpt>
      <trkpt lat="45.29556" lon="6.84289">
        <ele>2026.5347</ele>
        <time>2015-08-24T11:24:23Z</time>
      </trkpt>
      <trkpt lat="45.29559" lon="6.84288">
        <ele>2026.5347</ele>
        <time>2015-08-24T11:24:33Z</time>
      </trkpt>
      <trkpt lat="45.29561" lon="6.8429">
        <ele>2026.5347</ele>
        <time>2015-08-24T11:24:38Z</time>
      </trkpt>
      <trkpt lat="45.29563" lon="6.84293">
        <ele>2030.4812</ele>
        <time>2015-08-24T11:24:48Z</time>
      </trkpt>
      <trkpt lat="45.29564" lon="6.84293">
        <ele>2030.4812</ele>
        <time>2015-08-24T11:24:53Z</time>
      </trkpt>
      <trkpt lat="45.29564" lon="6.84293">
        <ele>2030.4812</ele>
        <time>2015-08-24T11:25:03Z</time>
      </trkpt>
      <trkpt lat="45.29564" lon="6.84291">
        <ele>2030.4812</ele>
        <time>2015-08-24T11:25:23Z</time>
      </trkpt>
      <trkpt lat="45.29564" lon="6.8429">
        <ele>2030.4812</ele>
        <time>2015-08-24T11:25:38Z</time>
      </trkpt>
      <trkpt lat="45.29564" lon="6.8429">
        <ele>2030.4812</ele>
        <time>2015-08-24T11:25:53Z</time>
      </trkpt>
      <trkpt lat="45.29564" lon="6.8429">
        <ele>2030.4812</ele>
        <time>2015-08-24T11:26:08Z</time>
      </trkpt>
      <trkpt lat="45.29564" lon="6.8429">
        <ele>2030.4812</ele>
        <time>2015-08-24T11:26:13Z</time>
      </trkpt>
      <trkpt lat="45.29565" lon="6.8429">
        <ele>2030.4812</ele>
        <time>2015-08-24T11:28:28Z</time>
      </trkpt>
      <trkpt lat="45.29569" lon="6.84292">
        <ele>2030.4812</ele>
        <time>2015-08-24T11:28:33Z</time>
      </trkpt>
      <trkpt lat="45.29575" lon="6.84295">
        <ele>2035.1752</ele>
        <time>2015-08-24T11:28:43Z</time>
      </trkpt>
      <trkpt lat="45.29577" lon="6.84295">
        <ele>2035.1752</ele>
        <time>2015-08-24T11:28:48Z</time>
      </trkpt>
      <trkpt lat="45.29582" lon="6.84299">
        <ele>2035.1752</ele>
        <time>2015-08-24T11:28:58Z</time>
      </trkpt>
      <trkpt lat="45.29582" lon="6.84299">
        <ele>2035.1752</ele>
        <time>2015-08-24T11:29:03Z</time>
      </trkpt>
      <trkpt lat="45.29583" lon="6.843">
        <ele>2039.6444</ele>
        <time>2015-08-24T11:29:13Z</time>
      </trkpt>
      <trkpt lat="45.29584" lon="6.843">
        <ele>2039.6444</ele>
        <time>2015-08-24T11:29:18Z</time>
      </trkpt>
      <trkpt lat="45.29584" lon="6.843">
        <ele>2039.6444</ele>
        <time>2015-08-24T11:29:28Z</time>
      </trkpt>
      <trkpt lat="45.29587" lon="6.84299">
        <ele>2039.6444</ele>
        <time>2015-08-24T11:29:43Z</time>
      </trkpt>
      <trkpt lat="45.29589" lon="6.84301">
        <ele>2039.6444</ele>
        <time>2015-08-24T11:29:48Z</time>
      </trkpt>
      <trkpt lat="45.29589" lon="6.84302">
        <ele>2039.6444</ele>
        <time>2015-08-24T11:29:58Z</time>
      </trkpt>
      <trkpt lat="45.29589" lon="6.84304">
        <ele>2039.6444</ele>
        <time>2015-08-24T11:30:03Z</time>
      </trkpt>
      <trkpt lat="45.29589" lon="6.84304">
        <ele>2039.6444</ele>
        <time>2015-08-24T11:30:13Z</time>
      </trkpt>
      <trkpt lat="45.2959" lon="6.84305">
        <ele>2044.5165</ele>
        <time>2015-08-24T11:30:18Z</time>
      </trkpt>
      <trkpt lat="45.29593" lon="6.84314">
        <ele>2044.5165</ele>
        <time>2015-08-24T11:30:33Z</time>
      </trkpt>
      <trkpt lat="45.29594" lon="6.84315">
        <ele>2044.5165</ele>
        <time>2015-08-24T11:30:38Z</time>
      </trkpt>
      <trkpt lat="45.29594" lon="6.84318">
        <ele>2049.0896</ele>
        <time>2015-08-24T11:30:48Z</time>
      </trkpt>
      <trkpt lat="45.29595" lon="6.84317">
        <ele>2049.0896</ele>
        <time>2015-08-24T11:30:53Z</time>
      </trkpt>
      <trkpt lat="45.29599" lon="6.84315">
        <ele>2049.0896</ele>
        <time>2015-08-24T11:31:03Z</time>
      </trkpt>
      <trkpt lat="45.29599" lon="6.84315">
        <ele>2049.0896</ele>
        <time>2015-08-24T11:31:08Z</time>
      </trkpt>
      <trkpt lat="45.29599" lon="6.84317">
        <ele>2049.0896</ele>
        <time>2015-08-24T11:31:18Z</time>
      </trkpt>
      <trkpt lat="45.296" lon="6.84318">
        <ele>2049.0896</ele>
        <time>2015-08-24T11:31:23Z</time>
      </trkpt>
      <trkpt lat="45.29601" lon="6.84319">
        <ele>2053.493</ele>
        <time>2015-08-24T11:31:33Z</time>
      </trkpt>
      <trkpt lat="45.29602" lon="6.84319">
        <ele>2053.493</ele>
        <time>2015-08-24T11:31:38Z</time>
      </trkpt>
      <trkpt lat="45.29603" lon="6.84323">
        <ele>2053.493</ele>
        <time>2015-08-24T11:31:53Z</time>
      </trkpt>
      <trkpt lat="45.29603" lon="6.84322">
        <ele>2053.493</ele>
        <time>2015-08-24T11:32:08Z</time>
      </trkpt>
      <trkpt lat="45.29607" lon="6.84325">
        <ele>2053.493</ele>
        <time>2015-08-24T11:32:13Z</time>
      </trkpt>
      <trkpt lat="45.29608" lon="6.84328">
        <ele>2058.2214</ele>
        <time>2015-08-24T11:32:23Z</time>
      </trkpt>
      <trkpt lat="45.29607" lon="6.84332">
        <ele>2058.2214</ele>
        <time>2015-08-24T11:32:28Z</time>
      </trkpt>
      <trkpt lat="45.29607" lon="6.84336">
        <ele>2058.2214</ele>
        <time>2015-08-24T11:32:38Z</time>
      </trkpt>
      <trkpt lat="45.29609" lon="6.84343">
        <ele>2062.826</ele>
        <time>2015-08-24T11:32:43Z</time>
      </trkpt>
      <trkpt lat="45.29609" lon="6.84345">
        <ele>2062.826</ele>
        <time>2015-08-24T11:32:53Z</time>
      </trkpt>
      <trkpt lat="45.29609" lon="6.84346">
        <ele>2062.826</ele>
        <time>2015-08-24T11:32:58Z</time>
      </trkpt>
      <trkpt lat="45.29611" lon="6.84348">
        <ele>2062.826</ele>
        <time>2015-08-24T11:33:08Z</time>
      </trkpt>
      <trkpt lat="45.29611" lon="6.84348">
        <ele>2062.826</ele>
        <time>2015-08-24T11:33:13Z</time>
      </trkpt>
      <trkpt lat="45.29611" lon="6.84349">
        <ele>2062.826</ele>
        <time>2015-08-24T11:33:23Z</time>
      </trkpt>
      <trkpt lat="45.2961" lon="6.84354">
        <ele>2067.5095</ele>
        <time>2015-08-24T11:33:28Z</time>
      </trkpt>
      <trkpt lat="45.29615" lon="6.84363">
        <ele>2067.5095</ele>
        <time>2015-08-24T11:33:43Z</time>
      </trkpt>
      <trkpt lat="45.29616" lon="6.84364">
        <ele>2071.8132</ele>
        <time>2015-08-24T11:33:48Z</time>
      </trkpt>
      <trkpt lat="45.29616" lon="6.84366">
        <ele>2071.8132</ele>
        <time>2015-08-24T11:33:58Z</time>
      </trkpt>
      <trkpt lat="45.29615" lon="6.84367">
        <ele>2071.8132</ele>
        <time>2015-08-24T11:34:03Z</time>
      </trkpt>
      <trkpt lat="45.29614" lon="6.84368">
        <ele>2071.8132</ele>
        <time>2015-08-24T11:34:13Z</time>
      </trkpt>
      <trkpt lat="45.29616" lon="6.8437">
        <ele>2071.8132</ele>
        <time>2015-08-24T11:34:28Z</time>
      </trkpt>
      <trkpt lat="45.29617" lon="6.84372">
        <ele>2071.8132</ele>
        <time>2015-08-24T11:34:33Z</time>
      </trkpt>
      <trkpt lat="45.29621" lon="6.84376">
        <ele>2076.1194</ele>
        <time>2015-08-24T11:34:43Z</time>
      </trkpt>
      <trkpt lat="45.29622" lon="6.84379">
        <ele>2076.1194</ele>
        <time>2015-08-24T11:34:48Z</time>
      </trkpt>
      <trkpt lat="45.29621" lon="6.84379">
        <ele>2076.1194</ele>
        <time>2015-08-24T11:34:58Z</time>
      </trkpt>
      <trkpt lat="45.29624" lon="6.84393">
        <ele>2080.1775</ele>
        <time>2015-08-24T11:35:13Z</time>
      </trkpt>
      <trkpt lat="45.29627" lon="6.84404">
        <ele>2080.1775</ele>
        <time>2015-08-24T11:35:18Z</time>
      </trkpt>
      <trkpt lat="45.29629" lon="6.84413">
        <ele>2083.987</ele>
        <time>2015-08-24T11:35:28Z</time>
      </trkpt>
      <trkpt lat="45.29629" lon="6.84413">
        <ele>2083.987</ele>
        <time>2015-08-24T11:35:33Z</time>
      </trkpt>
      <trkpt lat="45.29633" lon="6.84411">
        <ele>2083.987</ele>
        <time>2015-08-24T11:35:58Z</time>
      </trkpt>
      <trkpt lat="45.29634" lon="6.8441">
        <ele>2083.987</ele>
        <time>2015-08-24T11:36:03Z</time>
      </trkpt>
      <trkpt lat="45.29641" lon="6.84403">
        <ele>2088.0532</ele>
        <time>2015-08-24T11:36:18Z</time>
      </trkpt>
      <trkpt lat="45.29641" lon="6.84403">
        <ele>2088.0532</ele>
        <time>2015-08-24T11:36:23Z</time>
      </trkpt>
      <trkpt lat="45.29642" lon="6.84403">
        <ele>2088.0532</ele>
        <time>2015-08-24T11:36:33Z</time>
      </trkpt>
      <trkpt lat="45.29644" lon="6.84401">
        <ele>2088.0532</ele>
        <time>2015-08-24T11:36:38Z</time>
      </trkpt>
      <trkpt lat="45.29646" lon="6.84401">
        <ele>2088.0532</ele>
        <time>2015-08-24T11:36:48Z</time>
      </trkpt>
      <trkpt lat="45.29647" lon="6.84402">
        <ele>2088.0532</ele>
        <time>2015-08-24T11:36:53Z</time>
      </trkpt>
      <trkpt lat="45.29648" lon="6.84403">
        <ele>2088.0532</ele>
        <time>2015-08-24T11:37:03Z</time>
      </trkpt>
      <trkpt lat="45.2965" lon="6.84405">
        <ele>2092.5552</ele>
        <time>2015-08-24T11:37:08Z</time>
      </trkpt>
      <trkpt lat="45.29654" lon="6.84411">
        <ele>2092.5552</ele>
        <time>2015-08-24T11:37:18Z</time>
      </trkpt>
      <trkpt lat="45.29655" lon="6.84409">
        <ele>2092.5552</ele>
        <time>2015-08-24T11:37:23Z</time>
      </trkpt>
      <trkpt lat="45.29659" lon="6.84406">
        <ele>2096.5916</ele>
        <time>2015-08-24T11:37:33Z</time>
      </trkpt>
      <trkpt lat="45.29659" lon="6.84406">
        <ele>2096.5916</ele>
        <time>2015-08-24T11:37:38Z</time>
      </trkpt>
      <trkpt lat="45.29661" lon="6.84404">
        <ele>2096.5916</ele>
        <time>2015-08-24T11:37:48Z</time>
      </trkpt>
      <trkpt lat="45.29661" lon="6.84404">
        <ele>2096.5916</ele>
        <time>2015-08-24T11:37:53Z</time>
      </trkpt>
      <trkpt lat="45.29663" lon="6.84399">
        <ele>2096.5916</ele>
        <time>2015-08-24T11:38:08Z</time>
      </trkpt>
      <trkpt lat="45.29664" lon="6.84399">
        <ele>2096.5916</ele>
        <time>2015-08-24T11:38:23Z</time>
      </trkpt>
      <trkpt lat="45.29664" lon="6.84399">
        <ele>2096.5916</ele>
        <time>2015-08-24T11:38:28Z</time>
      </trkpt>
      <trkpt lat="45.29665" lon="6.84399">
        <ele>2096.5916</ele>
        <time>2015-08-24T11:38:38Z</time>
      </trkpt>
      <trkpt lat="45.29665" lon="6.84399">
        <ele>2096.5916</ele>
        <time>2015-08-24T11:38:43Z</time>
      </trkpt>
      <trkpt lat="45.29666" lon="6.844">
        <ele>2101.3176</ele>
        <time>2015-08-24T11:38:53Z</time>
      </trkpt>
      <trkpt lat="45.29666" lon="6.844">
        <ele>2101.3176</ele>
        <time>2015-08-24T11:38:58Z</time>
      </trkpt>
      <trkpt lat="45.29667" lon="6.84402">
        <ele>2101.3176</ele>
        <time>2015-08-24T11:39:08Z</time>
      </trkpt>
      <trkpt lat="45.29672" lon="6.84407">
        <ele>2101.3176</ele>
        <time>2015-08-24T11:39:13Z</time>
      </trkpt>
      <trkpt lat="45.29673" lon="6.8441">
        <ele>2106.0295</ele>
        <time>2015-08-24T11:39:23Z</time>
      </trkpt>
      <trkpt lat="45.29673" lon="6.8441">
        <ele>2106.0295</ele>
        <time>2015-08-24T11:39:28Z</time>
      </trkpt>
      <trkpt lat="45.29676" lon="6.8442">
        <ele>2106.0295</ele>
        <time>2015-08-24T11:39:38Z</time>
      </trkpt>
      <trkpt lat="45.29678" lon="6.84422">
        <ele>2110.5798</ele>
        <time>2015-08-24T11:39:43Z</time>
      </trkpt>
      <trkpt lat="45.29686" lon="6.84418">
        <ele>2110.5798</ele>
        <time>2015-08-24T11:39:53Z</time>
      </trkpt>
      <trkpt lat="45.29687" lon="6.84417">
        <ele>2114.3713</ele>
        <time>2015-08-24T11:39:58Z</time>
      </trkpt>
      <trkpt lat="45.29687" lon="6.84417">
        <ele>2114.3713</ele>
        <time>2015-08-24T11:40:08Z</time>
      </trkpt>
      <trkpt lat="45.2969" lon="6.84414">
        <ele>2114.3713</ele>
        <time>2015-08-24T11:40:13Z</time>
      </trkpt>
      <trkpt lat="45.29694" lon="6.84408">
        <ele>2118.0205</ele>
        <time>2015-08-24T11:40:28Z</time>
      </trkpt>
      <trkpt lat="45.29694" lon="6.84406">
        <ele>2118.0205</ele>
        <time>2015-08-24T11:40:33Z</time>
      </trkpt>
      <trkpt lat="45.29694" lon="6.84406">
        <ele>2118.0205</ele>
        <time>2015-08-24T11:40:43Z</time>
      </trkpt>
      <trkpt lat="45.29695" lon="6.84406">
        <ele>2118.0205</ele>
        <time>2015-08-24T11:40:58Z</time>
      </trkpt>
      <trkpt lat="45.29695" lon="6.84406">
        <ele>2118.0205</ele>
        <time>2015-08-24T11:41:03Z</time>
      </trkpt>
      <trkpt lat="45.29694" lon="6.84406">
        <ele>2118.0205</ele>
        <time>2015-08-24T11:41:28Z</time>
      </trkpt>
      <trkpt lat="45.29695" lon="6.84404">
        <ele>2118.0205</ele>
        <time>2015-08-24T11:41:33Z</time>
      </trkpt>
      <trkpt lat="45.29695" lon="6.84403">
        <ele>2118.0205</ele>
        <time>2015-08-24T11:41:43Z</time>
      </trkpt>
      <trkpt lat="45.29695" lon="6.84401">
        <ele>2118.0205</ele>
        <time>2015-08-24T11:41:48Z</time>
      </trkpt>
      <trkpt lat="45.29695" lon="6.84401">
        <ele>2118.0205</ele>
        <time>2015-08-24T11:41:58Z</time>
      </trkpt>
      <trkpt lat="45.29694" lon="6.844">
        <ele>2118.0205</ele>
        <time>2015-08-24T11:42:03Z</time>
      </trkpt>
      <trkpt lat="45.29696" lon="6.84396">
        <ele>2122.373</ele>
        <time>2015-08-24T11:42:18Z</time>
      </trkpt>
      <trkpt lat="45.29698" lon="6.84392">
        <ele>2122.373</ele>
        <time>2015-08-24T11:42:23Z</time>
      </trkpt>
      <trkpt lat="45.297" lon="6.84378">
        <ele>2126.2217</ele>
        <time>2015-08-24T11:42:33Z</time>
      </trkpt>
      <trkpt lat="45.297" lon="6.84376">
        <ele>2126.2217</ele>
        <time>2015-08-24T11:42:38Z</time>
      </trkpt>
      <trkpt lat="45.297" lon="6.84371">
        <ele>2126.2217</ele>
        <time>2015-08-24T11:42:48Z</time>
      </trkpt>
      <trkpt lat="45.297" lon="6.84369">
        <ele>2126.2217</ele>
        <time>2015-08-24T11:42:53Z</time>
      </trkpt>
      <trkpt lat="45.297" lon="6.84366">
        <ele>2126.2217</ele>
        <time>2015-08-24T11:43:03Z</time>
      </trkpt>
      <trkpt lat="45.297" lon="6.84366">
        <ele>2126.2217</ele>
        <time>2015-08-24T11:43:08Z</time>
      </trkpt>
      <trkpt lat="45.29704" lon="6.84353">
        <ele>2130.0066</ele>
        <time>2015-08-24T11:43:18Z</time>
      </trkpt>
      <trkpt lat="45.29702" lon="6.84343">
        <ele>2130.0066</ele>
        <time>2015-08-24T11:43:23Z</time>
      </trkpt>
      <trkpt lat="45.29702" lon="6.84336">
        <ele>2133.5154</ele>
        <time>2015-08-24T11:43:33Z</time>
      </trkpt>
      <trkpt lat="45.29702" lon="6.8433">
        <ele>2133.5154</ele>
        <time>2015-08-24T11:43:38Z</time>
      </trkpt>
      <trkpt lat="45.29703" lon="6.84328">
        <ele>2133.5154</ele>
        <time>2015-08-24T11:43:48Z</time>
      </trkpt>
      <trkpt lat="45.29703" lon="6.84326">
        <ele>2133.5154</ele>
        <time>2015-08-24T11:43:53Z</time>
      </trkpt>
      <trkpt lat="45.29703" lon="6.84326">
        <ele>2133.5154</ele>
        <time>2015-08-24T11:44:03Z</time>
      </trkpt>
      <trkpt lat="45.29701" lon="6.84321">
        <ele>2137.0571</ele>
        <time>2015-08-24T11:44:53Z</time>
      </trkpt>
      <trkpt lat="45.297" lon="6.84317">
        <ele>2137.0571</ele>
        <time>2015-08-24T11:44:58Z</time>
      </trkpt>
      <trkpt lat="45.297" lon="6.84316">
        <ele>2137.0571</ele>
        <time>2015-08-24T11:45:08Z</time>
      </trkpt>
      <trkpt lat="45.297" lon="6.84314">
        <ele>2137.0571</ele>
        <time>2015-08-24T11:45:13Z</time>
      </trkpt>
      <trkpt lat="45.29701" lon="6.84304">
        <ele>2140.515</ele>
        <time>2015-08-24T11:45:23Z</time>
      </trkpt>
      <trkpt lat="45.29702" lon="6.84286">
        <ele>2143.4631</ele>
        <time>2015-08-24T11:45:38Z</time>
      </trkpt>
      <trkpt lat="45.297" lon="6.8428">
        <ele>2143.4631</ele>
        <time>2015-08-24T11:45:43Z</time>
      </trkpt>
      <trkpt lat="45.29697" lon="6.84272">
        <ele>2146.1582</ele>
        <time>2015-08-24T11:45:53Z</time>
      </trkpt>
      <trkpt lat="45.29694" lon="6.84269">
        <ele>2146.1582</ele>
        <time>2015-08-24T11:45:58Z</time>
      </trkpt>
      <trkpt lat="45.29694" lon="6.8426">
        <ele>2148.4636</ele>
        <time>2015-08-24T11:46:08Z</time>
      </trkpt>
      <trkpt lat="45.29693" lon="6.84257">
        <ele>2148.4636</ele>
        <time>2015-08-24T11:46:13Z</time>
      </trkpt>
      <trkpt lat="45.29692" lon="6.8425">
        <ele>2148.4636</ele>
        <time>2015-08-24T11:46:23Z</time>
      </trkpt>
      <trkpt lat="45.29693" lon="6.84246">
        <ele>2150.5562</ele>
        <time>2015-08-24T11:46:28Z</time>
      </trkpt>
      <trkpt lat="45.29694" lon="6.84241">
        <ele>2150.5562</ele>
        <time>2015-08-24T11:46:43Z</time>
      </trkpt>
      <trkpt lat="45.29693" lon="6.84236">
        <ele>2150.5562</ele>
        <time>2015-08-24T11:46:48Z</time>
      </trkpt>
      <trkpt lat="45.29691" lon="6.84229">
        <ele>2152.4138</ele>
        <time>2015-08-24T11:46:58Z</time>
      </trkpt>
      <trkpt lat="45.2969" lon="6.84225">
        <ele>2152.4138</ele>
        <time>2015-08-24T11:47:03Z</time>
      </trkpt>
      <trkpt lat="45.2969" lon="6.84222">
        <ele>2152.4138</ele>
        <time>2015-08-24T11:47:13Z</time>
      </trkpt>
      <trkpt lat="45.29692" lon="6.8422">
        <ele>2152.4138</ele>
        <time>2015-08-24T11:47:18Z</time>
      </trkpt>
      <trkpt lat="45.29695" lon="6.84218">
        <ele>2154.3623</ele>
        <time>2015-08-24T11:47:28Z</time>
      </trkpt>
      <trkpt lat="45.29695" lon="6.8422">
        <ele>2154.3623</ele>
        <time>2015-08-24T11:47:33Z</time>
      </trkpt>
      <trkpt lat="45.29697" lon="6.84223">
        <ele>2154.3623</ele>
        <time>2015-08-24T11:47:43Z</time>
      </trkpt>
      <trkpt lat="45.29698" lon="6.84224">
        <ele>2154.3623</ele>
        <time>2015-08-24T11:47:48Z</time>
      </trkpt>
      <trkpt lat="45.29698" lon="6.84223">
        <ele>2154.3623</ele>
        <time>2015-08-24T11:47:58Z</time>
      </trkpt>
      <trkpt lat="45.29699" lon="6.84223">
        <ele>2154.3623</ele>
        <time>2015-08-24T11:48:03Z</time>
      </trkpt>
      <trkpt lat="45.29701" lon="6.8422">
        <ele>2156.17</ele>
        <time>2015-08-24T11:48:13Z</time>
      </trkpt>
      <trkpt lat="45.29701" lon="6.84221">
        <ele>2156.17</ele>
        <time>2015-08-24T11:48:18Z</time>
      </trkpt>
      <trkpt lat="45.29703" lon="6.84229">
        <ele>2156.17</ele>
        <time>2015-08-24T11:48:33Z</time>
      </trkpt>
      <trkpt lat="45.29705" lon="6.8423">
        <ele>2156.17</ele>
        <time>2015-08-24T11:48:38Z</time>
      </trkpt>
      <trkpt lat="45.29707" lon="6.84233">
        <ele>2157.9832</ele>
        <time>2015-08-24T11:48:48Z</time>
      </trkpt>
      <trkpt lat="45.2971" lon="6.84235">
        <ele>2157.9832</ele>
        <time>2015-08-24T11:48:53Z</time>
      </trkpt>
      <trkpt lat="45.29715" lon="6.84239">
        <ele>2157.9832</ele>
        <time>2015-08-24T11:49:03Z</time>
      </trkpt>
      <trkpt lat="45.29715" lon="6.8424">
        <ele>2159.663</ele>
        <time>2015-08-24T11:49:08Z</time>
      </trkpt>
      <trkpt lat="45.29715" lon="6.84235">
        <ele>2159.663</ele>
        <time>2015-08-24T11:49:18Z</time>
      </trkpt>
      <trkpt lat="45.29718" lon="6.84237">
        <ele>2159.663</ele>
        <time>2015-08-24T11:49:23Z</time>
      </trkpt>
      <trkpt lat="45.29721" lon="6.84238">
        <ele>2161.3704</ele>
        <time>2015-08-24T11:49:33Z</time>
      </trkpt>
      <trkpt lat="45.29722" lon="6.84237">
        <ele>2161.3704</ele>
        <time>2015-08-24T11:49:38Z</time>
      </trkpt>
      <trkpt lat="45.29723" lon="6.8423">
        <ele>2161.3704</ele>
        <time>2015-08-24T11:49:48Z</time>
      </trkpt>
      <trkpt lat="45.29724" lon="6.84227">
        <ele>2161.3704</ele>
        <time>2015-08-24T11:49:53Z</time>
      </trkpt>
      <trkpt lat="45.29724" lon="6.84215">
        <ele>2163.1091</ele>
        <time>2015-08-24T11:50:08Z</time>
      </trkpt>
      <trkpt lat="45.29724" lon="6.8421">
        <ele>2163.1091</ele>
        <time>2015-08-24T11:50:13Z</time>
      </trkpt>
      <trkpt lat="45.29724" lon="6.84204">
        <ele>2163.1091</ele>
        <time>2015-08-24T11:50:23Z</time>
      </trkpt>
      <trkpt lat="45.29725" lon="6.84202">
        <ele>2163.1091</ele>
        <time>2015-08-24T11:50:28Z</time>
      </trkpt>
      <trkpt lat="45.29727" lon="6.84198">
        <ele>2165.0708</ele>
        <time>2015-08-24T11:50:38Z</time>
      </trkpt>
      <trkpt lat="45.29727" lon="6.84194">
        <ele>2165.0708</ele>
        <time>2015-08-24T11:50:43Z</time>
      </trkpt>
      <trkpt lat="45.29723" lon="6.84188">
        <ele>2165.0708</ele>
        <time>2015-08-24T11:50:53Z</time>
      </trkpt>
      <trkpt lat="45.29724" lon="6.84186">
        <ele>2166.884</ele>
        <time>2015-08-24T11:50:58Z</time>
      </trkpt>
      <trkpt lat="45.29728" lon="6.84183">
        <ele>2166.884</ele>
        <time>2015-08-24T11:51:08Z</time>
      </trkpt>
      <trkpt lat="45.29728" lon="6.84179">
        <ele>2166.884</ele>
        <time>2015-08-24T11:51:13Z</time>
      </trkpt>
      <trkpt lat="45.29729" lon="6.84176">
        <ele>2168.5798</ele>
        <time>2015-08-24T11:51:23Z</time>
      </trkpt>
      <trkpt lat="45.2973" lon="6.84178">
        <ele>2168.5798</ele>
        <time>2015-08-24T11:51:28Z</time>
      </trkpt>
      <trkpt lat="45.2973" lon="6.84182">
        <ele>2168.5798</ele>
        <time>2015-08-24T11:51:38Z</time>
      </trkpt>
      <trkpt lat="45.29728" lon="6.84181">
        <ele>2168.5798</ele>
        <time>2015-08-24T11:51:43Z</time>
      </trkpt>
      <trkpt lat="45.29725" lon="6.84179">
        <ele>2169.7983</ele>
        <time>2015-08-24T11:51:53Z</time>
      </trkpt>
      <trkpt lat="45.29725" lon="6.84179">
        <ele>2169.7983</ele>
        <time>2015-08-24T11:51:58Z</time>
      </trkpt>
      <trkpt lat="45.29724" lon="6.8418">
        <ele>2169.7983</ele>
        <time>2015-08-24T11:52:08Z</time>
      </trkpt>
      <trkpt lat="45.29724" lon="6.8418">
        <ele>2169.7983</ele>
        <time>2015-08-24T11:52:13Z</time>
      </trkpt>
      <trkpt lat="45.29729" lon="6.8418">
        <ele>2169.7983</ele>
        <time>2015-08-24T11:52:28Z</time>
      </trkpt>
      <trkpt lat="45.29729" lon="6.8418">
        <ele>2169.7983</ele>
        <time>2015-08-24T11:52:33Z</time>
      </trkpt>
      <trkpt lat="45.29734" lon="6.84179">
        <ele>2171.2593</ele>
        <time>2015-08-24T11:52:43Z</time>
      </trkpt>
      <trkpt lat="45.29736" lon="6.84177">
        <ele>2171.2593</ele>
        <time>2015-08-24T11:52:48Z</time>
      </trkpt>
      <trkpt lat="45.29741" lon="6.84173">
        <ele>2171.2593</ele>
        <time>2015-08-24T11:52:58Z</time>
      </trkpt>
      <trkpt lat="45.29741" lon="6.8417">
        <ele>2172.7927</ele>
        <time>2015-08-24T11:53:03Z</time>
      </trkpt>
      <trkpt lat="45.29743" lon="6.8417">
        <ele>2172.7927</ele>
        <time>2015-08-24T11:53:13Z</time>
      </trkpt>
      <trkpt lat="45.29744" lon="6.84171">
        <ele>2172.7927</ele>
        <time>2015-08-24T11:53:18Z</time>
      </trkpt>
      <trkpt lat="45.29744" lon="6.84171">
        <ele>2172.7927</ele>
        <time>2015-08-24T11:53:28Z</time>
      </trkpt>
      <trkpt lat="45.29745" lon="6.84171">
        <ele>2172.7927</ele>
        <time>2015-08-24T11:53:33Z</time>
      </trkpt>
      <trkpt lat="45.29745" lon="6.84172">
        <ele>2172.7927</ele>
        <time>2015-08-24T11:53:43Z</time>
      </trkpt>
      <trkpt lat="45.29746" lon="6.84174">
        <ele>2172.7927</ele>
        <time>2015-08-24T11:53:48Z</time>
      </trkpt>
      <trkpt lat="45.29753" lon="6.84181">
        <ele>2174.8606</ele>
        <time>2015-08-24T11:53:58Z</time>
      </trkpt>
      <trkpt lat="45.29754" lon="6.84185">
        <ele>2174.8606</ele>
        <time>2015-08-24T11:54:03Z</time>
      </trkpt>
      <trkpt lat="45.29755" lon="6.8419">
        <ele>2174.8606</ele>
        <time>2015-08-24T11:54:13Z</time>
      </trkpt>
      <trkpt lat="45.29756" lon="6.84192">
        <ele>2174.8606</ele>
        <time>2015-08-24T11:54:18Z</time>
      </trkpt>
      <trkpt lat="45.29759" lon="6.84201">
        <ele>2176.9812</ele>
        <time>2015-08-24T11:54:28Z</time>
      </trkpt>
      <trkpt lat="45.2976" lon="6.84205">
        <ele>2176.9812</ele>
        <time>2015-08-24T11:54:33Z</time>
      </trkpt>
      <trkpt lat="45.29763" lon="6.84218">
        <ele>2179.0544</ele>
        <time>2015-08-24T11:54:48Z</time>
      </trkpt>
      <trkpt lat="45.29765" lon="6.84222">
        <ele>2179.0544</ele>
        <time>2015-08-24T11:54:53Z</time>
      </trkpt>
      <trkpt lat="45.29767" lon="6.8423">
        <ele>2181.03</ele>
        <time>2015-08-24T11:55:03Z</time>
      </trkpt>
      <trkpt lat="45.29768" lon="6.84232">
        <ele>2181.03</ele>
        <time>2015-08-24T11:55:08Z</time>
      </trkpt>
      <trkpt lat="45.29772" lon="6.84244">
        <ele>2182.862</ele>
        <time>2015-08-24T11:55:18Z</time>
      </trkpt>
      <trkpt lat="45.29773" lon="6.84249">
        <ele>2182.862</ele>
        <time>2015-08-24T11:55:23Z</time>
      </trkpt>
      <trkpt lat="45.29776" lon="6.84255">
        <ele>2182.862</ele>
        <time>2015-08-24T11:55:33Z</time>
      </trkpt>
      <trkpt lat="45.29776" lon="6.8426">
        <ele>2184.551</ele>
        <time>2015-08-24T11:55:38Z</time>
      </trkpt>
      <trkpt lat="45.29779" lon="6.84266">
        <ele>2184.551</ele>
        <time>2015-08-24T11:55:48Z</time>
      </trkpt>
      <trkpt lat="45.29781" lon="6.84268">
        <ele>2184.551</ele>
        <time>2015-08-24T11:55:53Z</time>
      </trkpt>
      <trkpt lat="45.29788" lon="6.84265">
        <ele>2186.271</ele>
        <time>2015-08-24T11:56:03Z</time>
      </trkpt>
      <trkpt lat="45.29789" lon="6.84262">
        <ele>2186.271</ele>
        <time>2015-08-24T11:56:08Z</time>
      </trkpt>
      <trkpt lat="45.29794" lon="6.84258">
        <ele>2186.271</ele>
        <time>2015-08-24T11:56:18Z</time>
      </trkpt>
      <trkpt lat="45.29797" lon="6.84256">
        <ele>2188.0674</ele>
        <time>2015-08-24T11:56:23Z</time>
      </trkpt>
      <trkpt lat="45.29799" lon="6.8425">
        <ele>2188.0674</ele>
        <time>2015-08-24T11:56:33Z</time>
      </trkpt>
      <trkpt lat="45.298" lon="6.84248">
        <ele>2188.0674</ele>
        <time>2015-08-24T11:56:38Z</time>
      </trkpt>
      <trkpt lat="45.29799" lon="6.84246">
        <ele>2188.0674</ele>
        <time>2015-08-24T11:56:53Z</time>
      </trkpt>
      <trkpt lat="45.29799" lon="6.84245">
        <ele>2188.0674</ele>
        <time>2015-08-24T11:57:28Z</time>
      </trkpt>
      <trkpt lat="45.29799" lon="6.84245">
        <ele>2188.0674</ele>
        <time>2015-08-24T11:57:38Z</time>
      </trkpt>
      <trkpt lat="45.29802" lon="6.84242">
        <ele>2190.1694</ele>
        <time>2015-08-24T11:57:53Z</time>
      </trkpt>
      <trkpt lat="45.29803" lon="6.8424">
        <ele>2190.1694</ele>
        <time>2015-08-24T11:57:58Z</time>
      </trkpt>
      <trkpt lat="45.29803" lon="6.8424">
        <ele>2190.1694</ele>
        <time>2015-08-24T11:58:08Z</time>
      </trkpt>
      <trkpt lat="45.29805" lon="6.84238">
        <ele>2190.1694</ele>
        <time>2015-08-24T11:58:23Z</time>
      </trkpt>
      <trkpt lat="45.29805" lon="6.84238">
        <ele>2190.1694</ele>
        <time>2015-08-24T11:58:28Z</time>
      </trkpt>
      <trkpt lat="45.29806" lon="6.8424">
        <ele>2190.1694</ele>
        <time>2015-08-24T11:58:38Z</time>
      </trkpt>
      <trkpt lat="45.29806" lon="6.8424">
        <ele>2190.1694</ele>
        <time>2015-08-24T11:58:43Z</time>
      </trkpt>
      <trkpt lat="45.29806" lon="6.8424">
        <ele>2190.1694</ele>
        <time>2015-08-24T12:00:18Z</time>
      </trkpt>
      <trkpt lat="45.29806" lon="6.8424">
        <ele>2190.1694</ele>
        <time>2015-08-24T12:00:28Z</time>
      </trkpt>
      <trkpt lat="45.29805" lon="6.84238">
        <ele>2190.1694</ele>
        <time>2015-08-24T12:00:43Z</time>
      </trkpt>
      <trkpt lat="45.29805" lon="6.84238">
        <ele>2190.1694</ele>
        <time>2015-08-24T12:00:48Z</time>
      </trkpt>
      <trkpt lat="45.29805" lon="6.84238">
        <ele>2190.1694</ele>
        <time>2015-08-24T12:01:03Z</time>
      </trkpt>
      <trkpt lat="45.29804" lon="6.84238">
        <ele>2190.1694</ele>
        <time>2015-08-24T12:01:13Z</time>
      </trkpt>
      <trkpt lat="45.29805" lon="6.84238">
        <ele>2190.1694</ele>
        <time>2015-08-24T12:01:33Z</time>
      </trkpt>
      <trkpt lat="45.29805" lon="6.84238">
        <ele>2190.1694</ele>
        <time>2015-08-24T12:01:38Z</time>
      </trkpt>
      <trkpt lat="45.29809" lon="6.84236">
        <ele>2193.8118</ele>
        <time>2015-08-24T12:26:21Z</time>
      </trkpt>
      <trkpt lat="45.29808" lon="6.84238">
        <ele>2193.8118</ele>
        <time>2015-08-24T12:26:26Z</time>
      </trkpt>
      <trkpt lat="45.29808" lon="6.84237">
        <ele>2193.8118</ele>
        <time>2015-08-24T12:26:51Z</time>
      </trkpt>
      <trkpt lat="45.29808" lon="6.84237">
        <ele>2193.8118</ele>
        <time>2015-08-24T12:26:56Z</time>
      </trkpt>
      <trkpt lat="45.29807" lon="6.84237">
        <ele>2193.8118</ele>
        <time>2015-08-24T12:28:26Z</time>
      </trkpt>
      <trkpt lat="45.29806" lon="6.84238">
        <ele>2193.8118</ele>
        <time>2015-08-24T12:28:31Z</time>
      </trkpt>
      <trkpt lat="45.29805" lon="6.84237">
        <ele>2193.8118</ele>
        <time>2015-08-24T12:28:41Z</time>
      </trkpt>
      <trkpt lat="45.29806" lon="6.84238">
        <ele>2193.8118</ele>
        <time>2015-08-24T12:31:06Z</time>
      </trkpt>
      <trkpt lat="45.29806" lon="6.84238">
        <ele>2193.8118</ele>
        <time>2015-08-24T12:31:16Z</time>
      </trkpt>
      <trkpt lat="45.29806" lon="6.8424">
        <ele>2193.8118</ele>
        <time>2015-08-24T12:31:21Z</time>
      </trkpt>
      <trkpt lat="45.29807" lon="6.84243">
        <ele>2197.3525</ele>
        <time>2015-08-24T12:31:31Z</time>
      </trkpt>
      <trkpt lat="45.29807" lon="6.84245">
        <ele>2197.3525</ele>
        <time>2015-08-24T12:31:36Z</time>
      </trkpt>
      <trkpt lat="45.29813" lon="6.84256">
        <ele>2200.4807</ele>
        <time>2015-08-24T12:31:46Z</time>
      </trkpt>
      <trkpt lat="45.29814" lon="6.84257">
        <ele>2200.4807</ele>
        <time>2015-08-24T12:31:51Z</time>
      </trkpt>
      <trkpt lat="45.29814" lon="6.84258">
        <ele>2200.4807</ele>
        <time>2015-08-24T12:32:01Z</time>
      </trkpt>
      <trkpt lat="45.29815" lon="6.84259">
        <ele>2200.4807</ele>
        <time>2015-08-24T12:32:06Z</time>
      </trkpt>
      <trkpt lat="45.29816" lon="6.84263">
        <ele>2200.4807</ele>
        <time>2015-08-24T12:32:16Z</time>
      </trkpt>
      <trkpt lat="45.29816" lon="6.84263">
        <ele>2200.4807</ele>
        <time>2015-08-24T12:32:21Z</time>
      </trkpt>
      <trkpt lat="45.29819" lon="6.84276">
        <ele>2203.5293</ele>
        <time>2015-08-24T12:32:31Z</time>
      </trkpt>
      <trkpt lat="45.29819" lon="6.84276">
        <ele>2203.5293</ele>
        <time>2015-08-24T12:32:36Z</time>
      </trkpt>
      <trkpt lat="45.29823" lon="6.84283">
        <ele>2203.5293</ele>
        <time>2015-08-24T12:32:51Z</time>
      </trkpt>
      <trkpt lat="45.29823" lon="6.84283">
        <ele>2203.5293</ele>
        <time>2015-08-24T12:32:56Z</time>
      </trkpt>
      <trkpt lat="45.29824" lon="6.84286">
        <ele>2206.6338</ele>
        <time>2015-08-24T12:33:06Z</time>
      </trkpt>
      <trkpt lat="45.29827" lon="6.84294">
        <ele>2206.6338</ele>
        <time>2015-08-24T12:33:11Z</time>
      </trkpt>
      <trkpt lat="45.29833" lon="6.84297">
        <ele>2209.2139</ele>
        <time>2015-08-24T12:33:21Z</time>
      </trkpt>
      <trkpt lat="45.29834" lon="6.84294">
        <ele>2209.2139</ele>
        <time>2015-08-24T12:33:26Z</time>
      </trkpt>
      <trkpt lat="45.29835" lon="6.84289">
        <ele>2209.2139</ele>
        <time>2015-08-24T12:33:36Z</time>
      </trkpt>
      <trkpt lat="45.29836" lon="6.84287">
        <ele>2209.2139</ele>
        <time>2015-08-24T12:33:41Z</time>
      </trkpt>
      <trkpt lat="45.29839" lon="6.84287">
        <ele>2211.3518</ele>
        <time>2015-08-24T12:33:51Z</time>
      </trkpt>
      <trkpt lat="45.29839" lon="6.84287">
        <ele>2211.3518</ele>
        <time>2015-08-24T12:33:56Z</time>
      </trkpt>
      <trkpt lat="45.29842" lon="6.84293">
        <ele>2211.3518</ele>
        <time>2015-08-24T12:34:06Z</time>
      </trkpt>
      <trkpt lat="45.29842" lon="6.84295">
        <ele>2211.3518</ele>
        <time>2015-08-24T12:34:11Z</time>
      </trkpt>
      <trkpt lat="45.29844" lon="6.84296">
        <ele>2211.3518</ele>
        <time>2015-08-24T12:34:21Z</time>
      </trkpt>
      <trkpt lat="45.29846" lon="6.84296">
        <ele>2213.6594</ele>
        <time>2015-08-24T12:34:26Z</time>
      </trkpt>
      <trkpt lat="45.29849" lon="6.843">
        <ele>2213.6594</ele>
        <time>2015-08-24T12:34:36Z</time>
      </trkpt>
      <trkpt lat="45.2985" lon="6.84303">
        <ele>2213.6594</ele>
        <time>2015-08-24T12:34:41Z</time>
      </trkpt>
      <trkpt lat="45.29851" lon="6.84308">
        <ele>2216.212</ele>
        <time>2015-08-24T12:34:56Z</time>
      </trkpt>
      <trkpt lat="45.29852" lon="6.84309">
        <ele>2216.212</ele>
        <time>2015-08-24T12:35:01Z</time>
      </trkpt>
      <trkpt lat="45.29851" lon="6.84317">
        <ele>2216.212</ele>
        <time>2015-08-24T12:35:11Z</time>
      </trkpt>
      <trkpt lat="45.29851" lon="6.84323">
        <ele>2218.7476</ele>
        <time>2015-08-24T12:35:16Z</time>
      </trkpt>
      <trkpt lat="45.2985" lon="6.84335">
        <ele>2218.7476</ele>
        <time>2015-08-24T12:35:26Z</time>
      </trkpt>
      <trkpt lat="45.29852" lon="6.84337">
        <ele>2221.3406</ele>
        <time>2015-08-24T12:35:31Z</time>
      </trkpt>
      <trkpt lat="45.29855" lon="6.84339">
        <ele>2221.3406</ele>
        <time>2015-08-24T12:35:41Z</time>
      </trkpt>
      <trkpt lat="45.29856" lon="6.8434">
        <ele>2221.3406</ele>
        <time>2015-08-24T12:35:46Z</time>
      </trkpt>
      <trkpt lat="45.29858" lon="6.84345">
        <ele>2221.3406</ele>
        <time>2015-08-24T12:35:56Z</time>
      </trkpt>
      <trkpt lat="45.29858" lon="6.84348">
        <ele>2224.1025</ele>
        <time>2015-08-24T12:36:01Z</time>
      </trkpt>
      <trkpt lat="45.29861" lon="6.84353">
        <ele>2224.1025</ele>
        <time>2015-08-24T12:36:11Z</time>
      </trkpt>
      <trkpt lat="45.29862" lon="6.84353">
        <ele>2224.1025</ele>
        <time>2015-08-24T12:36:16Z</time>
      </trkpt>
      <trkpt lat="45.29864" lon="6.84349">
        <ele>2227.151</ele>
        <time>2015-08-24T12:36:26Z</time>
      </trkpt>
      <trkpt lat="45.29865" lon="6.84348">
        <ele>2227.151</ele>
        <time>2015-08-24T12:36:31Z</time>
      </trkpt>
      <trkpt lat="45.2987" lon="6.84346">
        <ele>2227.151</ele>
        <time>2015-08-24T12:36:41Z</time>
      </trkpt>
      <trkpt lat="45.29873" lon="6.84345">
        <ele>2230.2622</ele>
        <time>2015-08-24T12:36:46Z</time>
      </trkpt>
      <trkpt lat="45.29877" lon="6.84346">
        <ele>2230.2622</ele>
        <time>2015-08-24T12:36:56Z</time>
      </trkpt>
      <trkpt lat="45.29879" lon="6.84346">
        <ele>2230.2622</ele>
        <time>2015-08-24T12:37:01Z</time>
      </trkpt>
      <trkpt lat="45.29883" lon="6.84344">
        <ele>2233.2432</ele>
        <time>2015-08-24T12:37:11Z</time>
      </trkpt>
      <trkpt lat="45.29884" lon="6.84341">
        <ele>2233.2432</ele>
        <time>2015-08-24T12:37:16Z</time>
      </trkpt>
      <trkpt lat="45.29887" lon="6.84341">
        <ele>2233.2432</ele>
        <time>2015-08-24T12:37:26Z</time>
      </trkpt>
      <trkpt lat="45.29887" lon="6.84342">
        <ele>2233.2432</ele>
        <time>2015-08-24T12:37:31Z</time>
      </trkpt>
      <trkpt lat="45.29888" lon="6.84346">
        <ele>2236.204</ele>
        <time>2015-08-24T12:37:41Z</time>
      </trkpt>
      <trkpt lat="45.29888" lon="6.84351">
        <ele>2236.204</ele>
        <time>2015-08-24T12:37:46Z</time>
      </trkpt>
      <trkpt lat="45.2989" lon="6.84357">
        <ele>2236.204</ele>
        <time>2015-08-24T12:37:56Z</time>
      </trkpt>
      <trkpt lat="45.29891" lon="6.8436">
        <ele>2239.0154</ele>
        <time>2015-08-24T12:38:01Z</time>
      </trkpt>
      <trkpt lat="45.29893" lon="6.84366">
        <ele>2239.0154</ele>
        <time>2015-08-24T12:38:11Z</time>
      </trkpt>
      <trkpt lat="45.29893" lon="6.84367">
        <ele>2239.0154</ele>
        <time>2015-08-24T12:38:16Z</time>
      </trkpt>
      <trkpt lat="45.29898" lon="6.84368">
        <ele>2241.7458</ele>
        <time>2015-08-24T12:38:31Z</time>
      </trkpt>
      <trkpt lat="45.29899" lon="6.84365">
        <ele>2241.7458</ele>
        <time>2015-08-24T12:38:36Z</time>
      </trkpt>
      <trkpt lat="45.29898" lon="6.84357">
        <ele>2241.7458</ele>
        <time>2015-08-24T12:38:46Z</time>
      </trkpt>
      <trkpt lat="45.29899" lon="6.84353">
        <ele>2244.3435</ele>
        <time>2015-08-24T12:38:51Z</time>
      </trkpt>
      <trkpt lat="45.299" lon="6.84347">
        <ele>2244.3435</ele>
        <time>2015-08-24T12:39:01Z</time>
      </trkpt>
      <trkpt lat="45.299" lon="6.84346">
        <ele>2244.3435</ele>
        <time>2015-08-24T12:39:06Z</time>
      </trkpt>
      <trkpt lat="45.29902" lon="6.84341">
        <ele>2244.3435</ele>
        <time>2015-08-24T12:39:16Z</time>
      </trkpt>
      <trkpt lat="45.29903" lon="6.84336">
        <ele>2247.1208</ele>
        <time>2015-08-24T12:39:21Z</time>
      </trkpt>
      <trkpt lat="45.29901" lon="6.84329">
        <ele>2247.1208</ele>
        <time>2015-08-24T12:39:31Z</time>
      </trkpt>
      <trkpt lat="45.29901" lon="6.84325">
        <ele>2247.1208</ele>
        <time>2015-08-24T12:39:36Z</time>
      </trkpt>
      <trkpt lat="45.29901" lon="6.84319">
        <ele>2249.6611</ele>
        <time>2015-08-24T12:39:46Z</time>
      </trkpt>
      <trkpt lat="45.29901" lon="6.84311">
        <ele>2249.6611</ele>
        <time>2015-08-24T12:39:51Z</time>
      </trkpt>
      <trkpt lat="45.29905" lon="6.84302">
        <ele>2252.0825</ele>
        <time>2015-08-24T12:40:01Z</time>
      </trkpt>
      <trkpt lat="45.29907" lon="6.84303">
        <ele>2252.0825</ele>
        <time>2015-08-24T12:40:06Z</time>
      </trkpt>
      <trkpt lat="45.29909" lon="6.84299">
        <ele>2252.0825</ele>
        <time>2015-08-24T12:40:16Z</time>
      </trkpt>
      <trkpt lat="45.29909" lon="6.84298">
        <ele>2252.0825</ele>
        <time>2015-08-24T12:40:21Z</time>
      </trkpt>
      <trkpt lat="45.2991" lon="6.84298">
        <ele>2252.0825</ele>
        <time>2015-08-24T12:40:31Z</time>
      </trkpt>
      <trkpt lat="45.29913" lon="6.84294">
        <ele>2254.5964</ele>
        <time>2015-08-24T12:40:46Z</time>
      </trkpt>
      <trkpt lat="45.29918" lon="6.84289">
        <ele>2254.5964</ele>
        <time>2015-08-24T12:40:51Z</time>
      </trkpt>
      <trkpt lat="45.29921" lon="6.84277">
        <ele>2256.634</ele>
        <time>2015-08-24T12:41:06Z</time>
      </trkpt>
      <trkpt lat="45.29921" lon="6.84277">
        <ele>2256.634</ele>
        <time>2015-08-24T12:41:11Z</time>
      </trkpt>
      <trkpt lat="45.29924" lon="6.84267">
        <ele>2256.634</ele>
        <time>2015-08-24T12:41:41Z</time>
      </trkpt>
      <trkpt lat="45.29925" lon="6.84261">
        <ele>2258.6357</ele>
        <time>2015-08-24T12:41:51Z</time>
      </trkpt>
      <trkpt lat="45.29925" lon="6.84261">
        <ele>2258.6357</ele>
        <time>2015-08-24T12:41:56Z</time>
      </trkpt>
      <trkpt lat="45.29926" lon="6.84252">
        <ele>2258.6357</ele>
        <time>2015-08-24T12:42:21Z</time>
      </trkpt>
      <trkpt lat="45.29927" lon="6.84245">
        <ele>2260.6921</ele>
        <time>2015-08-24T12:42:26Z</time>
      </trkpt>
      <trkpt lat="45.29926" lon="6.84239">
        <ele>2260.6921</ele>
        <time>2015-08-24T12:42:36Z</time>
      </trkpt>
      <trkpt lat="45.29925" lon="6.84219">
        <ele>2263.046</ele>
        <time>2015-08-24T12:42:51Z</time>
      </trkpt>
      <trkpt lat="45.29924" lon="6.84214">
        <ele>2263.046</ele>
        <time>2015-08-24T12:42:56Z</time>
      </trkpt>
      <trkpt lat="45.29923" lon="6.84208">
        <ele>2263.046</ele>
        <time>2015-08-24T12:43:11Z</time>
      </trkpt>
      <trkpt lat="45.29921" lon="6.84206">
        <ele>2265.056</ele>
        <time>2015-08-24T12:43:16Z</time>
      </trkpt>
      <trkpt lat="45.2992" lon="6.842">
        <ele>2265.056</ele>
        <time>2015-08-24T12:43:26Z</time>
      </trkpt>
      <trkpt lat="45.29919" lon="6.84198">
        <ele>2265.056</ele>
        <time>2015-08-24T12:43:31Z</time>
      </trkpt>
      <trkpt lat="45.29916" lon="6.84191">
        <ele>2266.965</ele>
        <time>2015-08-24T12:43:41Z</time>
      </trkpt>
      <trkpt lat="45.29916" lon="6.84188">
        <ele>2266.965</ele>
        <time>2015-08-24T12:43:46Z</time>
      </trkpt>
      <trkpt lat="45.29914" lon="6.84182">
        <ele>2266.965</ele>
        <time>2015-08-24T12:43:56Z</time>
      </trkpt>
      <trkpt lat="45.29912" lon="6.84179">
        <ele>2268.8264</ele>
        <time>2015-08-24T12:44:01Z</time>
      </trkpt>
      <trkpt lat="45.29909" lon="6.84171">
        <ele>2268.8264</ele>
        <time>2015-08-24T12:44:11Z</time>
      </trkpt>
      <trkpt lat="45.29908" lon="6.84168">
        <ele>2270.486</ele>
        <time>2015-08-24T12:44:16Z</time>
      </trkpt>
      <trkpt lat="45.29904" lon="6.84163">
        <ele>2270.486</ele>
        <time>2015-08-24T12:44:26Z</time>
      </trkpt>
      <trkpt lat="45.29904" lon="6.84161">
        <ele>2270.486</ele>
        <time>2015-08-24T12:44:31Z</time>
      </trkpt>
      <trkpt lat="45.29903" lon="6.84157">
        <ele>2272.0625</ele>
        <time>2015-08-24T12:44:41Z</time>
      </trkpt>
      <trkpt lat="45.29902" lon="6.84154">
        <ele>2272.0625</ele>
        <time>2015-08-24T12:44:46Z</time>
      </trkpt>
      <trkpt lat="45.29901" lon="6.84147">
        <ele>2272.0625</ele>
        <time>2015-08-24T12:44:56Z</time>
      </trkpt>
      <trkpt lat="45.29899" lon="6.84144">
        <ele>2273.6077</ele>
        <time>2015-08-24T12:45:01Z</time>
      </trkpt>
      <trkpt lat="45.299" lon="6.84145">
        <ele>2273.6077</ele>
        <time>2015-08-24T12:45:11Z</time>
      </trkpt>
      <trkpt lat="45.29899" lon="6.84145">
        <ele>2273.6077</ele>
        <time>2015-08-24T12:45:16Z</time>
      </trkpt>
      <trkpt lat="45.29896" lon="6.84143">
        <ele>2273.6077</ele>
        <time>2015-08-24T12:45:26Z</time>
      </trkpt>
      <trkpt lat="45.29897" lon="6.84142">
        <ele>2273.6077</ele>
        <time>2015-08-24T12:45:31Z</time>
      </trkpt>
      <trkpt lat="45.29894" lon="6.84135">
        <ele>2275.4292</ele>
        <time>2015-08-24T12:45:41Z</time>
      </trkpt>
      <trkpt lat="45.29893" lon="6.84131">
        <ele>2275.4292</ele>
        <time>2015-08-24T12:45:46Z</time>
      </trkpt>
      <trkpt lat="45.29895" lon="6.84128">
        <ele>2275.4292</ele>
        <time>2015-08-24T12:46:01Z</time>
      </trkpt>
      <trkpt lat="45.29896" lon="6.84126">
        <ele>2275.4292</ele>
        <time>2015-08-24T12:46:06Z</time>
      </trkpt>
      <trkpt lat="45.29896" lon="6.84122">
        <ele>2277.696</ele>
        <time>2015-08-24T12:46:16Z</time>
      </trkpt>
      <trkpt lat="45.29899" lon="6.84123">
        <ele>2277.696</ele>
        <time>2015-08-24T12:46:21Z</time>
      </trkpt>
      <trkpt lat="45.299" lon="6.84129">
        <ele>2277.696</ele>
        <time>2015-08-24T12:46:31Z</time>
      </trkpt>
      <trkpt lat="45.29903" lon="6.84132">
        <ele>2280.0586</ele>
        <time>2015-08-24T12:46:36Z</time>
      </trkpt>
      <trkpt lat="45.29908" lon="6.84136">
        <ele>2280.0586</ele>
        <time>2015-08-24T12:46:46Z</time>
      </trkpt>
      <trkpt lat="45.2991" lon="6.84137">
        <ele>2280.0586</ele>
        <time>2015-08-24T12:46:51Z</time>
      </trkpt>
      <trkpt lat="45.29913" lon="6.84141">
        <ele>2282.8271</ele>
        <time>2015-08-24T12:47:01Z</time>
      </trkpt>
      <trkpt lat="45.29914" lon="6.84141">
        <ele>2282.8271</ele>
        <time>2015-08-24T12:47:06Z</time>
      </trkpt>
      <trkpt lat="45.29914" lon="6.8414">
        <ele>2282.8271</ele>
        <time>2015-08-24T12:47:16Z</time>
      </trkpt>
      <trkpt lat="45.29915" lon="6.8414">
        <ele>2282.8271</ele>
        <time>2015-08-24T12:47:21Z</time>
      </trkpt>
      <trkpt lat="45.2992" lon="6.84141">
        <ele>2282.8271</ele>
        <time>2015-08-24T12:47:31Z</time>
      </trkpt>
      <trkpt lat="45.29922" lon="6.84146">
        <ele>2286</ele>
        <time>2015-08-24T12:47:36Z</time>
      </trkpt>
      <trkpt lat="45.29927" lon="6.84149">
        <ele>2286</ele>
        <time>2015-08-24T12:47:46Z</time>
      </trkpt>
      <trkpt lat="45.2993" lon="6.84149">
        <ele>2286</ele>
        <time>2015-08-24T12:47:51Z</time>
      </trkpt>
      <trkpt lat="45.29932" lon="6.84153">
        <ele>2289.156</ele>
        <time>2015-08-24T12:48:01Z</time>
      </trkpt>
      <trkpt lat="45.29933" lon="6.84152">
        <ele>2289.156</ele>
        <time>2015-08-24T12:48:06Z</time>
      </trkpt>
      <trkpt lat="45.29937" lon="6.84148">
        <ele>2289.156</ele>
        <time>2015-08-24T12:48:21Z</time>
      </trkpt>
      <trkpt lat="45.29937" lon="6.84149">
        <ele>2289.156</ele>
        <time>2015-08-24T12:48:26Z</time>
      </trkpt>
      <trkpt lat="45.29936" lon="6.84148">
        <ele>2289.156</ele>
        <time>2015-08-24T12:48:36Z</time>
      </trkpt>
      <trkpt lat="45.29936" lon="6.84148">
        <ele>2289.156</ele>
        <time>2015-08-24T12:48:41Z</time>
      </trkpt>
      <trkpt lat="45.29935" lon="6.84145">
        <ele>2292.2078</ele>
        <time>2015-08-24T12:48:51Z</time>
      </trkpt>
      <trkpt lat="45.29935" lon="6.84145">
        <ele>2292.2078</ele>
        <time>2015-08-24T12:48:56Z</time>
      </trkpt>
      <trkpt lat="45.29937" lon="6.84147">
        <ele>2292.2078</ele>
        <time>2015-08-24T12:49:06Z</time>
      </trkpt>
      <trkpt lat="45.29937" lon="6.84148">
        <ele>2292.2078</ele>
        <time>2015-08-24T12:49:11Z</time>
      </trkpt>
      <trkpt lat="45.29934" lon="6.84143">
        <ele>2292.2078</ele>
        <time>2015-08-24T12:49:21Z</time>
      </trkpt>
      <trkpt lat="45.29933" lon="6.84144">
        <ele>2294.7573</ele>
        <time>2015-08-24T12:49:26Z</time>
      </trkpt>
      <trkpt lat="45.29936" lon="6.84146">
        <ele>2294.7573</ele>
        <time>2015-08-24T12:49:36Z</time>
      </trkpt>
      <trkpt lat="45.29938" lon="6.84147">
        <ele>2294.7573</ele>
        <time>2015-08-24T12:49:41Z</time>
      </trkpt>
      <trkpt lat="45.29936" lon="6.84145">
        <ele>2294.7573</ele>
        <time>2015-08-24T12:49:51Z</time>
      </trkpt>
      <trkpt lat="45.29937" lon="6.84146">
        <ele>2294.7573</ele>
        <time>2015-08-24T12:49:56Z</time>
      </trkpt>
      <trkpt lat="45.29938" lon="6.84146">
        <ele>2294.7573</ele>
        <time>2015-08-24T12:50:06Z</time>
      </trkpt>
      <trkpt lat="45.29938" lon="6.84146">
        <ele>2297.2595</ele>
        <time>2015-08-24T12:50:11Z</time>
      </trkpt>
      <trkpt lat="45.29937" lon="6.84146">
        <ele>2297.2595</ele>
        <time>2015-08-24T12:50:21Z</time>
      </trkpt>
      <trkpt lat="45.29936" lon="6.84146">
        <ele>2297.2595</ele>
        <time>2015-08-24T12:50:26Z</time>
      </trkpt>
      <trkpt lat="45.29935" lon="6.84148">
        <ele>2297.2595</ele>
        <time>2015-08-24T12:50:41Z</time>
      </trkpt>
      <trkpt lat="45.29935" lon="6.84148">
        <ele>2297.2595</ele>
        <time>2015-08-24T12:50:46Z</time>
      </trkpt>
      <trkpt lat="45.29935" lon="6.84145">
        <ele>2297.2595</ele>
        <time>2015-08-24T12:50:56Z</time>
      </trkpt>
      <trkpt lat="45.29935" lon="6.84146">
        <ele>2297.2595</ele>
        <time>2015-08-24T12:51:01Z</time>
      </trkpt>
      <trkpt lat="45.29936" lon="6.84145">
        <ele>2297.2595</ele>
        <time>2015-08-24T12:51:11Z</time>
      </trkpt>
      <trkpt lat="45.29935" lon="6.84145">
        <ele>2297.2595</ele>
        <time>2015-08-24T12:51:16Z</time>
      </trkpt>
      <trkpt lat="45.29936" lon="6.84146">
        <ele>2297.2595</ele>
        <time>2015-08-24T12:51:26Z</time>
      </trkpt>
      <trkpt lat="45.29936" lon="6.84145">
        <ele>2299.645</ele>
        <time>2015-08-24T12:51:31Z</time>
      </trkpt>
      <trkpt lat="45.29936" lon="6.84143">
        <ele>2299.645</ele>
        <time>2015-08-24T12:51:41Z</time>
      </trkpt>
      <trkpt lat="45.29935" lon="6.84146">
        <ele>2299.645</ele>
        <time>2015-08-24T12:51:46Z</time>
      </trkpt>
      <trkpt lat="45.29936" lon="6.84146">
        <ele>2299.645</ele>
        <time>2015-08-24T12:51:56Z</time>
      </trkpt>
      <trkpt lat="45.29937" lon="6.84147">
        <ele>2299.645</ele>
        <time>2015-08-24T12:52:01Z</time>
      </trkpt>
      <trkpt lat="45.29937" lon="6.84147">
        <ele>2299.645</ele>
        <time>2015-08-24T12:52:11Z</time>
      </trkpt>
      <trkpt lat="45.29937" lon="6.84147">
        <ele>2299.645</ele>
        <time>2015-08-24T12:52:16Z</time>
      </trkpt>
      <trkpt lat="45.29937" lon="6.84146">
        <ele>2299.645</ele>
        <time>2015-08-24T12:52:26Z</time>
      </trkpt>
      <trkpt lat="45.29937" lon="6.84148">
        <ele>2299.645</ele>
        <time>2015-08-24T12:52:31Z</time>
      </trkpt>
      <trkpt lat="45.29938" lon="6.84147">
        <ele>2299.645</ele>
        <time>2015-08-24T12:52:46Z</time>
      </trkpt>
      <trkpt lat="45.29938" lon="6.84148">
        <ele>2299.645</ele>
        <time>2015-08-24T12:52:51Z</time>
      </trkpt>
      <trkpt lat="45.29937" lon="6.84146">
        <ele>2301.8647</ele>
        <time>2015-08-24T12:53:01Z</time>
      </trkpt>
      <trkpt lat="45.29936" lon="6.84147">
        <ele>2301.8647</ele>
        <time>2015-08-24T12:53:06Z</time>
      </trkpt>
      <trkpt lat="45.29936" lon="6.84148">
        <ele>2301.8647</ele>
        <time>2015-08-24T12:53:16Z</time>
      </trkpt>
      <trkpt lat="45.29937" lon="6.84148">
        <ele>2301.8647</ele>
        <time>2015-08-24T12:53:21Z</time>
      </trkpt>
      <trkpt lat="45.29936" lon="6.84147">
        <ele>2301.8647</ele>
        <time>2015-08-24T12:53:31Z</time>
      </trkpt>
      <trkpt lat="45.29937" lon="6.84147">
        <ele>2301.8647</ele>
        <time>2015-08-24T12:53:36Z</time>
      </trkpt>
      <trkpt lat="45.29937" lon="6.84148">
        <ele>2301.8647</ele>
        <time>2015-08-24T12:53:46Z</time>
      </trkpt>
      <trkpt lat="45.29938" lon="6.84148">
        <ele>2301.8647</ele>
        <time>2015-08-24T12:53:51Z</time>
      </trkpt>
      <trkpt lat="45.29938" lon="6.84147">
        <ele>2301.8647</ele>
        <time>2015-08-24T12:54:01Z</time>
      </trkpt>
      <trkpt lat="45.2994" lon="6.84145">
        <ele>2301.8647</ele>
        <time>2015-08-24T12:54:06Z</time>
      </trkpt>
      <trkpt lat="45.29942" lon="6.8414">
        <ele>2303.917</ele>
        <time>2015-08-24T12:54:16Z</time>
      </trkpt>
      <trkpt lat="45.29943" lon="6.84138">
        <ele>2303.917</ele>
        <time>2015-08-24T12:54:21Z</time>
      </trkpt>
      <trkpt lat="45.29948" lon="6.84129">
        <ele>2305.685</ele>
        <time>2015-08-24T12:54:31Z</time>
      </trkpt>
      <trkpt lat="45.29949" lon="6.84124">
        <ele>2305.685</ele>
        <time>2015-08-24T12:54:36Z</time>
      </trkpt>
      <trkpt lat="45.29954" lon="6.84119">
        <ele>2307.1914</ele>
        <time>2015-08-24T12:54:46Z</time>
      </trkpt>
      <trkpt lat="45.29956" lon="6.84119">
        <ele>2307.1914</ele>
        <time>2015-08-24T12:54:51Z</time>
      </trkpt>
      <trkpt lat="45.29959" lon="6.8411">
        <ele>2307.1914</ele>
        <time>2015-08-24T12:55:06Z</time>
      </trkpt>
      <trkpt lat="45.2996" lon="6.8411">
        <ele>2308.573</ele>
        <time>2015-08-24T12:55:11Z</time>
      </trkpt>
      <trkpt lat="45.29964" lon="6.84108">
        <ele>2308.573</ele>
        <time>2015-08-24T12:55:21Z</time>
      </trkpt>
      <trkpt lat="45.29966" lon="6.84108">
        <ele>2308.573</ele>
        <time>2015-08-24T12:55:26Z</time>
      </trkpt>
      <trkpt lat="45.29973" lon="6.84108">
        <ele>2309.9426</ele>
        <time>2015-08-24T12:55:36Z</time>
      </trkpt>
      <trkpt lat="45.29976" lon="6.84106">
        <ele>2309.9426</ele>
        <time>2015-08-24T12:55:41Z</time>
      </trkpt>
      <trkpt lat="45.2998" lon="6.84105">
        <ele>2309.9426</ele>
        <time>2015-08-24T12:55:51Z</time>
      </trkpt>
      <trkpt lat="45.29983" lon="6.84103">
        <ele>2311.3179</ele>
        <time>2015-08-24T12:55:56Z</time>
      </trkpt>
      <trkpt lat="45.29989" lon="6.84102">
        <ele>2311.3179</ele>
        <time>2015-08-24T12:56:06Z</time>
      </trkpt>
      <trkpt lat="45.29991" lon="6.841">
        <ele>2311.3179</ele>
        <time>2015-08-24T12:56:11Z</time>
      </trkpt>
      <trkpt lat="45.29998" lon="6.84102">
        <ele>2312.615</ele>
        <time>2015-08-24T12:56:21Z</time>
      </trkpt>
      <trkpt lat="45.29999" lon="6.84102">
        <ele>2312.615</ele>
        <time>2015-08-24T12:56:26Z</time>
      </trkpt>
      <trkpt lat="45.30003" lon="6.84102">
        <ele>2312.615</ele>
        <time>2015-08-24T12:56:36Z</time>
      </trkpt>
      <trkpt lat="45.30006" lon="6.84102">
        <ele>2312.615</ele>
        <time>2015-08-24T12:56:41Z</time>
      </trkpt>
      <trkpt lat="45.30009" lon="6.84103">
        <ele>2313.9578</ele>
        <time>2015-08-24T12:56:51Z</time>
      </trkpt>
      <trkpt lat="45.30012" lon="6.84103">
        <ele>2313.9578</ele>
        <time>2015-08-24T12:56:56Z</time>
      </trkpt>
      <trkpt lat="45.30017" lon="6.84104">
        <ele>2313.9578</ele>
        <time>2015-08-24T12:57:06Z</time>
      </trkpt>
      <trkpt lat="45.30019" lon="6.84105">
        <ele>2315.2874</ele>
        <time>2015-08-24T12:57:11Z</time>
      </trkpt>
      <trkpt lat="45.30025" lon="6.84107">
        <ele>2315.2874</ele>
        <time>2015-08-24T12:57:21Z</time>
      </trkpt>
      <trkpt lat="45.30028" lon="6.84109">
        <ele>2316.6943</ele>
        <time>2015-08-24T12:57:26Z</time>
      </trkpt>
      <trkpt lat="45.30033" lon="6.8411">
        <ele>2316.6943</ele>
        <time>2015-08-24T12:57:36Z</time>
      </trkpt>
      <trkpt lat="45.30034" lon="6.84112">
        <ele>2316.6943</ele>
        <time>2015-08-24T12:57:41Z</time>
      </trkpt>
      <trkpt lat="45.30039" lon="6.84115">
        <ele>2318.5208</ele>
        <time>2015-08-24T12:57:56Z</time>
      </trkpt>
      <trkpt lat="45.30042" lon="6.84117">
        <ele>2318.5208</ele>
        <time>2015-08-24T12:58:01Z</time>
      </trkpt>
      <trkpt lat="45.30047" lon="6.84122">
        <ele>2320.3484</ele>
        <time>2015-08-24T12:58:11Z</time>
      </trkpt>
      <trkpt lat="45.30049" lon="6.84123">
        <ele>2320.3484</ele>
        <time>2015-08-24T12:58:16Z</time>
      </trkpt>
      <trkpt lat="45.30052" lon="6.84128">
        <ele>2320.3484</ele>
        <time>2015-08-24T12:58:26Z</time>
      </trkpt>
      <trkpt lat="45.30054" lon="6.8413">
        <ele>2322.3074</ele>
        <time>2015-08-24T12:58:31Z</time>
      </trkpt>
      <trkpt lat="45.30061" lon="6.84134">
        <ele>2322.3074</ele>
        <time>2015-08-24T12:58:41Z</time>
      </trkpt>
      <trkpt lat="45.30064" lon="6.84135">
        <ele>2324.1584</ele>
        <time>2015-08-24T12:58:46Z</time>
      </trkpt>
      <trkpt lat="45.3007" lon="6.84141">
        <ele>2324.1584</ele>
        <time>2015-08-24T12:58:56Z</time>
      </trkpt>
      <trkpt lat="45.30075" lon="6.84141">
        <ele>2325.968</ele>
        <time>2015-08-24T12:59:01Z</time>
      </trkpt>
      <trkpt lat="45.30078" lon="6.84146">
        <ele>2325.968</ele>
        <time>2015-08-24T12:59:11Z</time>
      </trkpt>
      <trkpt lat="45.30078" lon="6.84148">
        <ele>2325.968</ele>
        <time>2015-08-24T12:59:16Z</time>
      </trkpt>
      <trkpt lat="45.30082" lon="6.84151">
        <ele>2327.8555</ele>
        <time>2015-08-24T12:59:26Z</time>
      </trkpt>
      <trkpt lat="45.30088" lon="6.84151">
        <ele>2327.8555</ele>
        <time>2015-08-24T12:59:31Z</time>
      </trkpt>
      <trkpt lat="45.301" lon="6.84157">
        <ele>2329.729</ele>
        <time>2015-08-24T12:59:46Z</time>
      </trkpt>
      <trkpt lat="45.30102" lon="6.84157">
        <ele>2329.729</ele>
        <time>2015-08-24T12:59:51Z</time>
      </trkpt>
      <trkpt lat="45.30109" lon="6.8416">
        <ele>2331.504</ele>
        <time>2015-08-24T13:00:01Z</time>
      </trkpt>
      <trkpt lat="45.3011" lon="6.84161">
        <ele>2331.504</ele>
        <time>2015-08-24T13:00:06Z</time>
      </trkpt>
      <trkpt lat="45.30115" lon="6.84161">
        <ele>2331.504</ele>
        <time>2015-08-24T13:00:16Z</time>
      </trkpt>
      <trkpt lat="45.30117" lon="6.84162">
        <ele>2331.504</ele>
        <time>2015-08-24T13:00:21Z</time>
      </trkpt>
      <trkpt lat="45.3012" lon="6.84163">
        <ele>2333.2607</ele>
        <time>2015-08-24T13:00:31Z</time>
      </trkpt>
      <trkpt lat="45.30119" lon="6.84163">
        <ele>2333.2607</ele>
        <time>2015-08-24T13:00:36Z</time>
      </trkpt>
      <trkpt lat="45.30117" lon="6.84165">
        <ele>2333.2607</ele>
        <time>2015-08-24T13:00:46Z</time>
      </trkpt>
      <trkpt lat="45.30117" lon="6.84166">
        <ele>2333.2607</ele>
        <time>2015-08-24T13:00:51Z</time>
      </trkpt>
      <trkpt lat="45.30119" lon="6.84162">
        <ele>2333.2607</ele>
        <time>2015-08-24T13:01:01Z</time>
      </trkpt>
      <trkpt lat="45.3012" lon="6.84163">
        <ele>2334.8428</ele>
        <time>2015-08-24T13:01:06Z</time>
      </trkpt>
      <trkpt lat="45.30121" lon="6.84165">
        <ele>2334.8428</ele>
        <time>2015-08-24T13:01:16Z</time>
      </trkpt>
      <trkpt lat="45.30122" lon="6.84164">
        <ele>2334.8428</ele>
        <time>2015-08-24T13:01:21Z</time>
      </trkpt>
      <trkpt lat="45.30127" lon="6.84163">
        <ele>2334.8428</ele>
        <time>2015-08-24T13:01:31Z</time>
      </trkpt>
      <trkpt lat="45.30131" lon="6.84163">
        <ele>2336.1348</ele>
        <time>2015-08-24T13:01:36Z</time>
      </trkpt>
      <trkpt lat="45.30134" lon="6.84162">
        <ele>2336.1348</ele>
        <time>2015-08-24T13:01:46Z</time>
      </trkpt>
      <trkpt lat="45.30134" lon="6.84161">
        <ele>2336.1348</ele>
        <time>2015-08-24T13:01:51Z</time>
      </trkpt>
      <trkpt lat="45.30135" lon="6.8416">
        <ele>2336.1348</ele>
        <time>2015-08-24T13:02:06Z</time>
      </trkpt>
      <trkpt lat="45.30135" lon="6.8416">
        <ele>2336.1348</ele>
        <time>2015-08-24T13:02:11Z</time>
      </trkpt>
      <trkpt lat="45.30135" lon="6.84161">
        <ele>2336.1348</ele>
        <time>2015-08-24T13:02:21Z</time>
      </trkpt>
      <trkpt lat="45.30138" lon="6.84162">
        <ele>2336.1348</ele>
        <time>2015-08-24T13:02:26Z</time>
      </trkpt>
      <trkpt lat="45.30144" lon="6.84161">
        <ele>2337.0735</ele>
        <time>2015-08-24T13:02:36Z</time>
      </trkpt>
      <trkpt lat="45.30148" lon="6.8416">
        <ele>2337.0735</ele>
        <time>2015-08-24T13:02:41Z</time>
      </trkpt>
      <trkpt lat="45.30154" lon="6.84158">
        <ele>2337.688</ele>
        <time>2015-08-24T13:02:51Z</time>
      </trkpt>
      <trkpt lat="45.30159" lon="6.8416">
        <ele>2337.688</ele>
        <time>2015-08-24T13:02:56Z</time>
      </trkpt>
      <trkpt lat="45.30168" lon="6.84156">
        <ele>2337.9487</ele>
        <time>2015-08-24T13:03:06Z</time>
      </trkpt>
      <trkpt lat="45.30171" lon="6.84154">
        <ele>2337.9487</ele>
        <time>2015-08-24T13:03:11Z</time>
      </trkpt>
      <trkpt lat="45.30177" lon="6.84156">
        <ele>2337.8572</ele>
        <time>2015-08-24T13:03:21Z</time>
      </trkpt>
      <trkpt lat="45.30178" lon="6.84155">
        <ele>2337.8572</ele>
        <time>2015-08-24T13:03:26Z</time>
      </trkpt>
      <trkpt lat="45.30181" lon="6.84159">
        <ele>2337.8572</ele>
        <time>2015-08-24T13:03:36Z</time>
      </trkpt>
      <trkpt lat="45.30184" lon="6.84163">
        <ele>2337.0994</ele>
        <time>2015-08-24T13:03:41Z</time>
      </trkpt>
      <trkpt lat="45.30186" lon="6.8417">
        <ele>2337.0994</ele>
        <time>2015-08-24T13:03:51Z</time>
      </trkpt>
      <trkpt lat="45.30188" lon="6.8417">
        <ele>2337.0994</ele>
        <time>2015-08-24T13:03:56Z</time>
      </trkpt>
      <trkpt lat="45.30198" lon="6.84169">
        <ele>2335.9766</ele>
        <time>2015-08-24T13:04:06Z</time>
      </trkpt>
      <trkpt lat="45.302" lon="6.8417">
        <ele>2335.9766</ele>
        <time>2015-08-24T13:04:11Z</time>
      </trkpt>
      <trkpt lat="45.30211" lon="6.84173">
        <ele>2334.582</ele>
        <time>2015-08-24T13:04:21Z</time>
      </trkpt>
      <trkpt lat="45.30215" lon="6.84174">
        <ele>2334.582</ele>
        <time>2015-08-24T13:04:26Z</time>
      </trkpt>
      <trkpt lat="45.30223" lon="6.84178">
        <ele>2332.959</ele>
        <time>2015-08-24T13:04:36Z</time>
      </trkpt>
      <trkpt lat="45.30229" lon="6.84177">
        <ele>2332.959</ele>
        <time>2015-08-24T13:04:41Z</time>
      </trkpt>
      <trkpt lat="45.30242" lon="6.84181">
        <ele>2331.2778</ele>
        <time>2015-08-24T13:04:51Z</time>
      </trkpt>
      <trkpt lat="45.30245" lon="6.84186">
        <ele>2331.2778</ele>
        <time>2015-08-24T13:04:56Z</time>
      </trkpt>
      <trkpt lat="45.30255" lon="6.842">
        <ele>2329.3943</ele>
        <time>2015-08-24T13:05:11Z</time>
      </trkpt>
      <trkpt lat="45.30258" lon="6.84204">
        <ele>2329.3943</ele>
        <time>2015-08-24T13:05:16Z</time>
      </trkpt>
      <trkpt lat="45.30267" lon="6.84207">
        <ele>2327.52</ele>
        <time>2015-08-24T13:05:26Z</time>
      </trkpt>
      <trkpt lat="45.30273" lon="6.8421">
        <ele>2327.52</ele>
        <time>2015-08-24T13:05:31Z</time>
      </trkpt>
      <trkpt lat="45.30284" lon="6.84213">
        <ele>2325.6216</ele>
        <time>2015-08-24T13:05:41Z</time>
      </trkpt>
      <trkpt lat="45.3029" lon="6.84217">
        <ele>2325.6216</ele>
        <time>2015-08-24T13:05:46Z</time>
      </trkpt>
      <trkpt lat="45.30302" lon="6.84223">
        <ele>2323.7964</ele>
        <time>2015-08-24T13:05:56Z</time>
      </trkpt>
      <trkpt lat="45.30306" lon="6.84223">
        <ele>2323.7964</ele>
        <time>2015-08-24T13:06:01Z</time>
      </trkpt>
      <trkpt lat="45.30317" lon="6.84222">
        <ele>2321.933</ele>
        <time>2015-08-24T13:06:11Z</time>
      </trkpt>
      <trkpt lat="45.30322" lon="6.84223">
        <ele>2321.933</ele>
        <time>2015-08-24T13:06:16Z</time>
      </trkpt>
      <trkpt lat="45.3033" lon="6.84227">
        <ele>2320.231</ele>
        <time>2015-08-24T13:06:26Z</time>
      </trkpt>
      <trkpt lat="45.30334" lon="6.84228">
        <ele>2320.231</ele>
        <time>2015-08-24T13:06:31Z</time>
      </trkpt>
      <trkpt lat="45.30341" lon="6.84234">
        <ele>2318.8452</ele>
        <time>2015-08-24T13:06:41Z</time>
      </trkpt>
      <trkpt lat="45.30347" lon="6.84236">
        <ele>2318.8452</ele>
        <time>2015-08-24T13:06:46Z</time>
      </trkpt>
      <trkpt lat="45.30363" lon="6.8424">
        <ele>2317.63</ele>
        <time>2015-08-24T13:07:01Z</time>
      </trkpt>
      <trkpt lat="45.30368" lon="6.84244">
        <ele>2317.63</ele>
        <time>2015-08-24T13:07:06Z</time>
      </trkpt>
      <trkpt lat="45.30375" lon="6.84249">
        <ele>2316.5073</ele>
        <time>2015-08-24T13:07:16Z</time>
      </trkpt>
      <trkpt lat="45.30379" lon="6.84254">
        <ele>2316.5073</ele>
        <time>2015-08-24T13:07:21Z</time>
      </trkpt>
      <trkpt lat="45.30384" lon="6.84264">
        <ele>2315.318</ele>
        <time>2015-08-24T13:07:31Z</time>
      </trkpt>
      <trkpt lat="45.30385" lon="6.84268">
        <ele>2315.318</ele>
        <time>2015-08-24T13:07:36Z</time>
      </trkpt>
      <trkpt lat="45.30392" lon="6.84277">
        <ele>2314.0588</ele>
        <time>2015-08-24T13:07:46Z</time>
      </trkpt>
      <trkpt lat="45.30395" lon="6.84281">
        <ele>2314.0588</ele>
        <time>2015-08-24T13:07:51Z</time>
      </trkpt>
      <trkpt lat="45.30403" lon="6.84283">
        <ele>2312.8555</ele>
        <time>2015-08-24T13:08:01Z</time>
      </trkpt>
      <trkpt lat="45.30408" lon="6.84288">
        <ele>2312.8555</ele>
        <time>2015-08-24T13:08:06Z</time>
      </trkpt>
      <trkpt lat="45.30415" lon="6.84296">
        <ele>2311.7244</ele>
        <time>2015-08-24T13:08:16Z</time>
      </trkpt>
      <trkpt lat="45.30417" lon="6.84298">
        <ele>2311.7244</ele>
        <time>2015-08-24T13:08:21Z</time>
      </trkpt>
      <trkpt lat="45.30427" lon="6.84303">
        <ele>2310.5928</ele>
        <time>2015-08-24T13:08:31Z</time>
      </trkpt>
      <trkpt lat="45.30428" lon="6.84308">
        <ele>2310.5928</ele>
        <time>2015-08-24T13:08:36Z</time>
      </trkpt>
      <trkpt lat="45.30438" lon="6.84309">
        <ele>2309.5957</ele>
        <time>2015-08-24T13:08:51Z</time>
      </trkpt>
      <trkpt lat="45.3044" lon="6.84314">
        <ele>2309.5957</ele>
        <time>2015-08-24T13:08:56Z</time>
      </trkpt>
      <trkpt lat="45.30447" lon="6.84315">
        <ele>2308.655</ele>
        <time>2015-08-24T13:09:06Z</time>
      </trkpt>
      <trkpt lat="45.30451" lon="6.84316">
        <ele>2308.655</ele>
        <time>2015-08-24T13:09:11Z</time>
      </trkpt>
      <trkpt lat="45.30458" lon="6.84318">
        <ele>2307.814</ele>
        <time>2015-08-24T13:09:21Z</time>
      </trkpt>
      <trkpt lat="45.30461" lon="6.84319">
        <ele>2307.814</ele>
        <time>2015-08-24T13:09:26Z</time>
      </trkpt>
      <trkpt lat="45.30472" lon="6.8432">
        <ele>2307.1406</ele>
        <time>2015-08-24T13:09:36Z</time>
      </trkpt>
      <trkpt lat="45.30475" lon="6.84321">
        <ele>2307.1406</ele>
        <time>2015-08-24T13:09:41Z</time>
      </trkpt>
      <trkpt lat="45.30483" lon="6.84329">
        <ele>2306.7693</ele>
        <time>2015-08-24T13:09:51Z</time>
      </trkpt>
      <trkpt lat="45.30488" lon="6.84332">
        <ele>2306.7693</ele>
        <time>2015-08-24T13:09:56Z</time>
      </trkpt>
      <trkpt lat="45.30495" lon="6.84335">
        <ele>2306.6216</ele>
        <time>2015-08-24T13:10:06Z</time>
      </trkpt>
      <trkpt lat="45.30498" lon="6.84339">
        <ele>2306.6216</ele>
        <time>2015-08-24T13:10:11Z</time>
      </trkpt>
      <trkpt lat="45.30506" lon="6.84358">
        <ele>2306.8406</ele>
        <time>2015-08-24T13:10:26Z</time>
      </trkpt>
      <trkpt lat="45.30507" lon="6.84364">
        <ele>2306.8406</ele>
        <time>2015-08-24T13:10:31Z</time>
      </trkpt>
      <trkpt lat="45.30508" lon="6.84375">
        <ele>2307.1106</ele>
        <time>2015-08-24T13:10:41Z</time>
      </trkpt>
      <trkpt lat="45.3051" lon="6.84379">
        <ele>2307.1106</ele>
        <time>2015-08-24T13:10:46Z</time>
      </trkpt>
      <trkpt lat="45.30516" lon="6.84383">
        <ele>2307.4849</ele>
        <time>2015-08-24T13:10:56Z</time>
      </trkpt>
      <trkpt lat="45.30518" lon="6.84384">
        <ele>2307.4849</ele>
        <time>2015-08-24T13:11:01Z</time>
      </trkpt>
      <trkpt lat="45.30527" lon="6.84389">
        <ele>2308.1128</ele>
        <time>2015-08-24T13:11:11Z</time>
      </trkpt>
      <trkpt lat="45.30532" lon="6.84391">
        <ele>2308.1128</ele>
        <time>2015-08-24T13:11:16Z</time>
      </trkpt>
      <trkpt lat="45.30533" lon="6.8439">
        <ele>2308.1128</ele>
        <time>2015-08-24T13:11:26Z</time>
      </trkpt>
      <trkpt lat="45.30535" lon="6.84391">
        <ele>2308.1128</ele>
        <time>2015-08-24T13:11:31Z</time>
      </trkpt>
      <trkpt lat="45.30542" lon="6.84392">
        <ele>2309.046</ele>
        <time>2015-08-24T13:11:41Z</time>
      </trkpt>
      <trkpt lat="45.30545" lon="6.84396">
        <ele>2309.046</ele>
        <time>2015-08-24T13:11:46Z</time>
      </trkpt>
      <trkpt lat="45.30552" lon="6.844">
        <ele>2310.1436</ele>
        <time>2015-08-24T13:11:56Z</time>
      </trkpt>
      <trkpt lat="45.30556" lon="6.844">
        <ele>2310.1436</ele>
        <time>2015-08-24T13:12:01Z</time>
      </trkpt>
      <trkpt lat="45.30565" lon="6.84399">
        <ele>2311.188</ele>
        <time>2015-08-24T13:12:11Z</time>
      </trkpt>
      <trkpt lat="45.3057" lon="6.84397">
        <ele>2311.188</ele>
        <time>2015-08-24T13:12:16Z</time>
      </trkpt>
      <trkpt lat="45.30575" lon="6.84397">
        <ele>2312.2085</ele>
        <time>2015-08-24T13:12:26Z</time>
      </trkpt>
      <trkpt lat="45.3058" lon="6.84399">
        <ele>2312.2085</ele>
        <time>2015-08-24T13:12:31Z</time>
      </trkpt>
      <trkpt lat="45.30586" lon="6.84402">
        <ele>2313.2036</ele>
        <time>2015-08-24T13:12:41Z</time>
      </trkpt>
      <trkpt lat="45.30593" lon="6.84406">
        <ele>2313.2036</ele>
        <time>2015-08-24T13:12:46Z</time>
      </trkpt>
      <trkpt lat="45.30601" lon="6.84415">
        <ele>2314.4883</ele>
        <time>2015-08-24T13:13:01Z</time>
      </trkpt>
      <trkpt lat="45.30604" lon="6.8442">
        <ele>2314.4883</ele>
        <time>2015-08-24T13:13:06Z</time>
      </trkpt>
      <trkpt lat="45.30611" lon="6.84424">
        <ele>2315.994</ele>
        <time>2015-08-24T13:13:16Z</time>
      </trkpt>
      <trkpt lat="45.30616" lon="6.84428">
        <ele>2315.994</ele>
        <time>2015-08-24T13:13:21Z</time>
      </trkpt>
      <trkpt lat="45.30622" lon="6.84428">
        <ele>2317.5837</ele>
        <time>2015-08-24T13:13:31Z</time>
      </trkpt>
      <trkpt lat="45.30627" lon="6.84426">
        <ele>2317.5837</ele>
        <time>2015-08-24T13:13:36Z</time>
      </trkpt>
      <trkpt lat="45.30635" lon="6.84423">
        <ele>2319.1887</ele>
        <time>2015-08-24T13:13:46Z</time>
      </trkpt>
      <trkpt lat="45.30635" lon="6.84426">
        <ele>2319.1887</ele>
        <time>2015-08-24T13:13:51Z</time>
      </trkpt>
      <trkpt lat="45.30634" lon="6.84421">
        <ele>2319.1887</ele>
        <time>2015-08-24T13:14:01Z</time>
      </trkpt>
      <trkpt lat="45.30633" lon="6.84423">
        <ele>2319.1887</ele>
        <time>2015-08-24T13:14:06Z</time>
      </trkpt>
      <trkpt lat="45.30633" lon="6.84422">
        <ele>2319.1887</ele>
        <time>2015-08-24T13:14:16Z</time>
      </trkpt>
      <trkpt lat="45.30633" lon="6.84422">
        <ele>2319.1887</ele>
        <time>2015-08-24T13:14:21Z</time>
      </trkpt>
      <trkpt lat="45.30632" lon="6.84424">
        <ele>2320.7305</ele>
        <time>2015-08-24T13:14:31Z</time>
      </trkpt>
      <trkpt lat="45.30632" lon="6.84421">
        <ele>2320.7305</ele>
        <time>2015-08-24T13:14:36Z</time>
      </trkpt>
      <trkpt lat="45.30632" lon="6.84419">
        <ele>2320.7305</ele>
        <time>2015-08-24T13:14:46Z</time>
      </trkpt>
      <trkpt lat="45.30632" lon="6.84419">
        <ele>2320.7305</ele>
        <time>2015-08-24T13:14:51Z</time>
      </trkpt>
      <trkpt lat="45.30632" lon="6.84421">
        <ele>2320.7305</ele>
        <time>2015-08-24T13:15:01Z</time>
      </trkpt>
      <trkpt lat="45.30632" lon="6.84421">
        <ele>2320.7305</ele>
        <time>2015-08-24T13:15:06Z</time>
      </trkpt>
      <trkpt lat="45.30633" lon="6.84424">
        <ele>2320.7305</ele>
        <time>2015-08-24T13:15:21Z</time>
      </trkpt>
      <trkpt lat="45.30638" lon="6.84428">
        <ele>2322.4392</ele>
        <time>2015-08-24T13:15:26Z</time>
      </trkpt>
      <trkpt lat="45.30644" lon="6.84434">
        <ele>2322.4392</ele>
        <time>2015-08-24T13:15:36Z</time>
      </trkpt>
      <trkpt lat="45.3065" lon="6.84439">
        <ele>2324.052</ele>
        <time>2015-08-24T13:15:41Z</time>
      </trkpt>
      <trkpt lat="45.30657" lon="6.84444">
        <ele>2324.052</ele>
        <time>2015-08-24T13:15:51Z</time>
      </trkpt>
      <trkpt lat="45.30662" lon="6.84446">
        <ele>2325.6428</ele>
        <time>2015-08-24T13:15:56Z</time>
      </trkpt>
      <trkpt lat="45.30671" lon="6.8445">
        <ele>2325.6428</ele>
        <time>2015-08-24T13:16:06Z</time>
      </trkpt>
      <trkpt lat="45.30674" lon="6.84452">
        <ele>2327.1216</ele>
        <time>2015-08-24T13:16:11Z</time>
      </trkpt>
      <trkpt lat="45.30681" lon="6.84453">
        <ele>2327.1216</ele>
        <time>2015-08-24T13:16:21Z</time>
      </trkpt>
      <trkpt lat="45.30689" lon="6.84454">
        <ele>2328.4634</ele>
        <time>2015-08-24T13:16:26Z</time>
      </trkpt>
      <trkpt lat="45.30696" lon="6.84456">
        <ele>2328.4634</ele>
        <time>2015-08-24T13:16:36Z</time>
      </trkpt>
      <trkpt lat="45.307" lon="6.84459">
        <ele>2329.688</ele>
        <time>2015-08-24T13:16:41Z</time>
      </trkpt>
      <trkpt lat="45.30707" lon="6.84472">
        <ele>2330.8008</ele>
        <time>2015-08-24T13:16:56Z</time>
      </trkpt>
      <trkpt lat="45.30712" lon="6.84479">
        <ele>2330.8008</ele>
        <time>2015-08-24T13:17:01Z</time>
      </trkpt>
      <trkpt lat="45.3072" lon="6.84488">
        <ele>2331.6619</ele>
        <time>2015-08-24T13:17:11Z</time>
      </trkpt>
      <trkpt lat="45.30724" lon="6.84493">
        <ele>2331.6619</ele>
        <time>2015-08-24T13:17:16Z</time>
      </trkpt>
      <trkpt lat="45.30728" lon="6.84503">
        <ele>2332.4607</ele>
        <time>2015-08-24T13:17:26Z</time>
      </trkpt>
      <trkpt lat="45.3073" lon="6.84506">
        <ele>2332.4607</ele>
        <time>2015-08-24T13:17:31Z</time>
      </trkpt>
      <trkpt lat="45.30739" lon="6.84513">
        <ele>2333.2278</ele>
        <time>2015-08-24T13:17:41Z</time>
      </trkpt>
      <trkpt lat="45.30745" lon="6.84516">
        <ele>2333.2278</ele>
        <time>2015-08-24T13:17:46Z</time>
      </trkpt>
      <trkpt lat="45.30754" lon="6.84522">
        <ele>2334.0068</ele>
        <time>2015-08-24T13:17:56Z</time>
      </trkpt>
      <trkpt lat="45.30758" lon="6.84528">
        <ele>2334.0068</ele>
        <time>2015-08-24T13:18:01Z</time>
      </trkpt>
      <trkpt lat="45.30765" lon="6.84535">
        <ele>2334.694</ele>
        <time>2015-08-24T13:18:11Z</time>
      </trkpt>
      <trkpt lat="45.30769" lon="6.84538">
        <ele>2334.694</ele>
        <time>2015-08-24T13:18:16Z</time>
      </trkpt>
      <trkpt lat="45.30779" lon="6.84542">
        <ele>2335.2656</ele>
        <time>2015-08-24T13:18:26Z</time>
      </trkpt>
      <trkpt lat="45.30784" lon="6.84544">
        <ele>2335.2656</ele>
        <time>2015-08-24T13:18:31Z</time>
      </trkpt>
      <trkpt lat="45.30799" lon="6.84544">
        <ele>2335.6711</ele>
        <time>2015-08-24T13:18:46Z</time>
      </trkpt>
      <trkpt lat="45.30805" lon="6.84546">
        <ele>2335.6711</ele>
        <time>2015-08-24T13:18:51Z</time>
      </trkpt>
      <trkpt lat="45.30815" lon="6.84548">
        <ele>2335.807</ele>
        <time>2015-08-24T13:19:01Z</time>
      </trkpt>
      <trkpt lat="45.30819" lon="6.84549">
        <ele>2335.807</ele>
        <time>2015-08-24T13:19:06Z</time>
      </trkpt>
      <trkpt lat="45.30829" lon="6.84551">
        <ele>2335.6924</ele>
        <time>2015-08-24T13:19:16Z</time>
      </trkpt>
      <trkpt lat="45.30834" lon="6.84555">
        <ele>2335.6924</ele>
        <time>2015-08-24T13:19:21Z</time>
      </trkpt>
      <trkpt lat="45.3084" lon="6.8456">
        <ele>2335.3616</ele>
        <time>2015-08-24T13:19:31Z</time>
      </trkpt>
      <trkpt lat="45.30843" lon="6.84563">
        <ele>2335.3616</ele>
        <time>2015-08-24T13:19:36Z</time>
      </trkpt>
      <trkpt lat="45.3085" lon="6.84568">
        <ele>2334.8462</ele>
        <time>2015-08-24T13:19:46Z</time>
      </trkpt>
      <trkpt lat="45.30853" lon="6.8457">
        <ele>2334.8462</ele>
        <time>2015-08-24T13:19:51Z</time>
      </trkpt>
      <trkpt lat="45.30862" lon="6.8457">
        <ele>2334.162</ele>
        <time>2015-08-24T13:20:01Z</time>
      </trkpt>
      <trkpt lat="45.30866" lon="6.8457">
        <ele>2334.162</ele>
        <time>2015-08-24T13:20:06Z</time>
      </trkpt>
      <trkpt lat="45.30878" lon="6.84574">
        <ele>2333.4973</ele>
        <time>2015-08-24T13:20:16Z</time>
      </trkpt>
      <trkpt lat="45.30883" lon="6.84575">
        <ele>2333.4973</ele>
        <time>2015-08-24T13:20:21Z</time>
      </trkpt>
      <trkpt lat="45.30889" lon="6.84578">
        <ele>2332.8528</ele>
        <time>2015-08-24T13:20:31Z</time>
      </trkpt>
      <trkpt lat="45.30892" lon="6.8458">
        <ele>2332.8528</ele>
        <time>2015-08-24T13:20:36Z</time>
      </trkpt>
      <trkpt lat="45.30898" lon="6.84586">
        <ele>2332.2441</ele>
        <time>2015-08-24T13:20:46Z</time>
      </trkpt>
      <trkpt lat="45.30902" lon="6.84591">
        <ele>2332.2441</ele>
        <time>2015-08-24T13:20:51Z</time>
      </trkpt>
      <trkpt lat="45.30908" lon="6.84596">
        <ele>2331.8442</ele>
        <time>2015-08-24T13:21:06Z</time>
      </trkpt>
      <trkpt lat="45.30911" lon="6.84597">
        <ele>2331.8442</ele>
        <time>2015-08-24T13:21:11Z</time>
      </trkpt>
      <trkpt lat="45.30916" lon="6.846">
        <ele>2331.8442</ele>
        <time>2015-08-24T13:21:21Z</time>
      </trkpt>
      <trkpt lat="45.30917" lon="6.84601">
        <ele>2331.6255</ele>
        <time>2015-08-24T13:21:26Z</time>
      </trkpt>
      <trkpt lat="45.30921" lon="6.84605">
        <ele>2331.6255</ele>
        <time>2015-08-24T13:21:36Z</time>
      </trkpt>
      <trkpt lat="45.30923" lon="6.84609">
        <ele>2331.6255</ele>
        <time>2015-08-24T13:21:41Z</time>
      </trkpt>
      <trkpt lat="45.30927" lon="6.84615">
        <ele>2331.5469</ele>
        <time>2015-08-24T13:21:51Z</time>
      </trkpt>
      <trkpt lat="45.30931" lon="6.84619">
        <ele>2331.5469</ele>
        <time>2015-08-24T13:21:56Z</time>
      </trkpt>
      <trkpt lat="45.30935" lon="6.84625">
        <ele>2331.5706</ele>
        <time>2015-08-24T13:22:06Z</time>
      </trkpt>
      <trkpt lat="45.30937" lon="6.84627">
        <ele>2331.5706</ele>
        <time>2015-08-24T13:22:11Z</time>
      </trkpt>
      <trkpt lat="45.3094" lon="6.8463">
        <ele>2331.5706</ele>
        <time>2015-08-24T13:22:21Z</time>
      </trkpt>
      <trkpt lat="45.30942" lon="6.84632">
        <ele>2331.5706</ele>
        <time>2015-08-24T13:22:26Z</time>
      </trkpt>
      <trkpt lat="45.30948" lon="6.84639">
        <ele>2332.0498</ele>
        <time>2015-08-24T13:22:36Z</time>
      </trkpt>
      <trkpt lat="45.3095" lon="6.8464">
        <ele>2332.0498</ele>
        <time>2015-08-24T13:22:41Z</time>
      </trkpt>
      <trkpt lat="45.30955" lon="6.84644">
        <ele>2332.0498</ele>
        <time>2015-08-24T13:22:51Z</time>
      </trkpt>
      <trkpt lat="45.30957" lon="6.84646">
        <ele>2332.7493</ele>
        <time>2015-08-24T13:22:56Z</time>
      </trkpt>
      <trkpt lat="45.30962" lon="6.84649">
        <ele>2332.7493</ele>
        <time>2015-08-24T13:23:06Z</time>
      </trkpt>
      <trkpt lat="45.30964" lon="6.84651">
        <ele>2332.7493</ele>
        <time>2015-08-24T13:23:11Z</time>
      </trkpt>
      <trkpt lat="45.30968" lon="6.84654">
        <ele>2333.6511</ele>
        <time>2015-08-24T13:23:21Z</time>
      </trkpt>
      <trkpt lat="45.3097" lon="6.84657">
        <ele>2333.6511</ele>
        <time>2015-08-24T13:23:26Z</time>
      </trkpt>
      <trkpt lat="45.30974" lon="6.84663">
        <ele>2334.7537</ele>
        <time>2015-08-24T13:23:41Z</time>
      </trkpt>
      <trkpt lat="45.30977" lon="6.84665">
        <ele>2334.7537</ele>
        <time>2015-08-24T13:23:46Z</time>
      </trkpt>
      <trkpt lat="45.30981" lon="6.84666">
        <ele>2334.7537</ele>
        <time>2015-08-24T13:23:56Z</time>
      </trkpt>
      <trkpt lat="45.30983" lon="6.84668">
        <ele>2336.1116</ele>
        <time>2015-08-24T13:24:01Z</time>
      </trkpt>
      <trkpt lat="45.30989" lon="6.84668">
        <ele>2336.1116</ele>
        <time>2015-08-24T13:24:11Z</time>
      </trkpt>
      <trkpt lat="45.30992" lon="6.8467">
        <ele>2337.6458</ele>
        <time>2015-08-24T13:24:16Z</time>
      </trkpt>
      <trkpt lat="45.30998" lon="6.84673">
        <ele>2337.6458</ele>
        <time>2015-08-24T13:24:26Z</time>
      </trkpt>
      <trkpt lat="45.31" lon="6.84672">
        <ele>2337.6458</ele>
        <time>2015-08-24T13:24:31Z</time>
      </trkpt>
      <trkpt lat="45.31005" lon="6.84673">
        <ele>2339.354</ele>
        <time>2015-08-24T13:24:41Z</time>
      </trkpt>
      <trkpt lat="45.31008" lon="6.84674">
        <ele>2339.354</ele>
        <time>2015-08-24T13:24:46Z</time>
      </trkpt>
      <trkpt lat="45.31015" lon="6.84676">
        <ele>2341.0757</ele>
        <time>2015-08-24T13:24:56Z</time>
      </trkpt>
      <trkpt lat="45.31018" lon="6.84678">
        <ele>2341.0757</ele>
        <time>2015-08-24T13:25:01Z</time>
      </trkpt>
      <trkpt lat="45.31025" lon="6.84681">
        <ele>2342.7913</ele>
        <time>2015-08-24T13:25:11Z</time>
      </trkpt>
      <trkpt lat="45.31028" lon="6.84684">
        <ele>2342.7913</ele>
        <time>2015-08-24T13:25:16Z</time>
      </trkpt>
      <trkpt lat="45.31035" lon="6.84698">
        <ele>2344.4832</ele>
        <time>2015-08-24T13:25:31Z</time>
      </trkpt>
      <trkpt lat="45.31037" lon="6.84702">
        <ele>2344.4832</ele>
        <time>2015-08-24T13:25:36Z</time>
      </trkpt>
      <trkpt lat="45.31037" lon="6.8471">
        <ele>2346.0051</ele>
        <time>2015-08-24T13:25:46Z</time>
      </trkpt>
      <trkpt lat="45.31038" lon="6.84717">
        <ele>2346.0051</ele>
        <time>2015-08-24T13:25:51Z</time>
      </trkpt>
      <trkpt lat="45.31042" lon="6.84728">
        <ele>2347.4817</ele>
        <time>2015-08-24T13:26:01Z</time>
      </trkpt>
      <trkpt lat="45.31044" lon="6.8473">
        <ele>2347.4817</ele>
        <time>2015-08-24T13:26:06Z</time>
      </trkpt>
      <trkpt lat="45.3105" lon="6.84736">
        <ele>2348.7979</ele>
        <time>2015-08-24T13:26:16Z</time>
      </trkpt>
      <trkpt lat="45.31051" lon="6.84744">
        <ele>2348.7979</ele>
        <time>2015-08-24T13:26:21Z</time>
      </trkpt>
      <trkpt lat="45.31056" lon="6.84749">
        <ele>2350.1218</ele>
        <time>2015-08-24T13:26:31Z</time>
      </trkpt>
      <trkpt lat="45.31058" lon="6.84754">
        <ele>2350.1218</ele>
        <time>2015-08-24T13:26:36Z</time>
      </trkpt>
      <trkpt lat="45.31059" lon="6.84756">
        <ele>2350.1218</ele>
        <time>2015-08-24T13:26:46Z</time>
      </trkpt>
      <trkpt lat="45.31058" lon="6.84759">
        <ele>2350.1218</ele>
        <time>2015-08-24T13:26:51Z</time>
      </trkpt>
      <trkpt lat="45.31059" lon="6.84757">
        <ele>2350.1218</ele>
        <time>2015-08-24T13:27:01Z</time>
      </trkpt>
      <trkpt lat="45.31059" lon="6.84758">
        <ele>2350.1218</ele>
        <time>2015-08-24T13:27:06Z</time>
      </trkpt>
      <trkpt lat="45.31059" lon="6.84757">
        <ele>2351.7385</ele>
        <time>2015-08-24T13:27:16Z</time>
      </trkpt>
      <trkpt lat="45.31059" lon="6.84754">
        <ele>2351.7385</ele>
        <time>2015-08-24T13:27:21Z</time>
      </trkpt>
      <trkpt lat="45.31061" lon="6.84754">
        <ele>2351.7385</ele>
        <time>2015-08-24T13:27:36Z</time>
      </trkpt>
      <trkpt lat="45.31062" lon="6.84755">
        <ele>2351.7385</ele>
        <time>2015-08-24T13:27:41Z</time>
      </trkpt>
      <trkpt lat="45.31062" lon="6.84759">
        <ele>2351.7385</ele>
        <time>2015-08-24T13:27:51Z</time>
      </trkpt>
      <trkpt lat="45.31061" lon="6.8476">
        <ele>2353.4646</ele>
        <time>2015-08-24T13:27:56Z</time>
      </trkpt>
      <trkpt lat="45.3106" lon="6.84769">
        <ele>2353.4646</ele>
        <time>2015-08-24T13:28:06Z</time>
      </trkpt>
      <trkpt lat="45.31061" lon="6.84773">
        <ele>2353.4646</ele>
        <time>2015-08-24T13:28:11Z</time>
      </trkpt>
      <trkpt lat="45.31066" lon="6.84776">
        <ele>2355.26</ele>
        <time>2015-08-24T13:28:21Z</time>
      </trkpt>
      <trkpt lat="45.31068" lon="6.84779">
        <ele>2355.26</ele>
        <time>2015-08-24T13:28:26Z</time>
      </trkpt>
      <trkpt lat="45.31068" lon="6.84784">
        <ele>2355.26</ele>
        <time>2015-08-24T13:28:36Z</time>
      </trkpt>
      <trkpt lat="45.31069" lon="6.84787">
        <ele>2355.26</ele>
        <time>2015-08-24T13:28:41Z</time>
      </trkpt>
      <trkpt lat="45.3107" lon="6.84791">
        <ele>2357.289</ele>
        <time>2015-08-24T13:28:51Z</time>
      </trkpt>
      <trkpt lat="45.31072" lon="6.84792">
        <ele>2357.289</ele>
        <time>2015-08-24T13:28:56Z</time>
      </trkpt>
      <trkpt lat="45.31076" lon="6.84796">
        <ele>2357.289</ele>
        <time>2015-08-24T13:29:06Z</time>
      </trkpt>
      <trkpt lat="45.31079" lon="6.84799">
        <ele>2359.2422</ele>
        <time>2015-08-24T13:29:11Z</time>
      </trkpt>
      <trkpt lat="45.31085" lon="6.84806">
        <ele>2359.2422</ele>
        <time>2015-08-24T13:29:21Z</time>
      </trkpt>
      <trkpt lat="45.31085" lon="6.84808">
        <ele>2361.179</ele>
        <time>2015-08-24T13:29:26Z</time>
      </trkpt>
      <trkpt lat="45.31087" lon="6.84815">
        <ele>2361.179</ele>
        <time>2015-08-24T13:29:36Z</time>
      </trkpt>
      <trkpt lat="45.3109" lon="6.84818">
        <ele>2361.179</ele>
        <time>2015-08-24T13:29:41Z</time>
      </trkpt>
      <trkpt lat="45.31092" lon="6.84831">
        <ele>2363.2266</ele>
        <time>2015-08-24T13:29:56Z</time>
      </trkpt>
      <trkpt lat="45.31094" lon="6.84834">
        <ele>2363.2266</ele>
        <time>2015-08-24T13:30:01Z</time>
      </trkpt>
      <trkpt lat="45.31096" lon="6.84839">
        <ele>2363.2266</ele>
        <time>2015-08-24T13:30:11Z</time>
      </trkpt>
      <trkpt lat="45.31097" lon="6.84842">
        <ele>2363.2266</ele>
        <time>2015-08-24T13:30:16Z</time>
      </trkpt>
      <trkpt lat="45.31102" lon="6.8485">
        <ele>2365.546</ele>
        <time>2015-08-24T13:30:26Z</time>
      </trkpt>
      <trkpt lat="45.31106" lon="6.84852">
        <ele>2365.546</ele>
        <time>2015-08-24T13:30:31Z</time>
      </trkpt>
      <trkpt lat="45.31112" lon="6.84864">
        <ele>2367.7954</ele>
        <time>2015-08-24T13:30:41Z</time>
      </trkpt>
      <trkpt lat="45.31115" lon="6.84868">
        <ele>2367.7954</ele>
        <time>2015-08-24T13:30:46Z</time>
      </trkpt>
      <trkpt lat="45.3112" lon="6.84876">
        <ele>2370.034</ele>
        <time>2015-08-24T13:30:56Z</time>
      </trkpt>
      <trkpt lat="45.31122" lon="6.84879">
        <ele>2370.034</ele>
        <time>2015-08-24T13:31:01Z</time>
      </trkpt>
      <trkpt lat="45.31125" lon="6.84885">
        <ele>2370.034</ele>
        <time>2015-08-24T13:31:11Z</time>
      </trkpt>
      <trkpt lat="45.31128" lon="6.84889">
        <ele>2372.186</ele>
        <time>2015-08-24T13:31:16Z</time>
      </trkpt>
      <trkpt lat="45.31131" lon="6.84895">
        <ele>2372.186</ele>
        <time>2015-08-24T13:31:26Z</time>
      </trkpt>
      <trkpt lat="45.31134" lon="6.84895">
        <ele>2372.186</ele>
        <time>2015-08-24T13:31:31Z</time>
      </trkpt>
      <trkpt lat="45.31141" lon="6.849">
        <ele>2374.3406</ele>
        <time>2015-08-24T13:31:41Z</time>
      </trkpt>
      <trkpt lat="45.31143" lon="6.84902">
        <ele>2374.3406</ele>
        <time>2015-08-24T13:31:46Z</time>
      </trkpt>
      <trkpt lat="45.31147" lon="6.84909">
        <ele>2374.3406</ele>
        <time>2015-08-24T13:32:01Z</time>
      </trkpt>
      <trkpt lat="45.31148" lon="6.84912">
        <ele>2376.451</ele>
        <time>2015-08-24T13:32:06Z</time>
      </trkpt>
      <trkpt lat="45.3115" lon="6.84916">
        <ele>2376.451</ele>
        <time>2015-08-24T13:32:16Z</time>
      </trkpt>
      <trkpt lat="45.31152" lon="6.84917">
        <ele>2376.451</ele>
        <time>2015-08-24T13:32:21Z</time>
      </trkpt>
      <trkpt lat="45.31155" lon="6.84922">
        <ele>2378.6323</ele>
        <time>2015-08-24T13:32:31Z</time>
      </trkpt>
      <trkpt lat="45.31156" lon="6.84922">
        <ele>2378.6323</ele>
        <time>2015-08-24T13:32:36Z</time>
      </trkpt>
      <trkpt lat="45.31158" lon="6.84924">
        <ele>2378.6323</ele>
        <time>2015-08-24T13:32:46Z</time>
      </trkpt>
      <trkpt lat="45.31158" lon="6.84926">
        <ele>2378.6323</ele>
        <time>2015-08-24T13:32:51Z</time>
      </trkpt>
      <trkpt lat="45.31161" lon="6.8493">
        <ele>2380.9045</ele>
        <time>2015-08-24T13:33:01Z</time>
      </trkpt>
      <trkpt lat="45.31162" lon="6.84932">
        <ele>2380.9045</ele>
        <time>2015-08-24T13:33:06Z</time>
      </trkpt>
      <trkpt lat="45.31167" lon="6.8494">
        <ele>2383.056</ele>
        <time>2015-08-24T13:33:16Z</time>
      </trkpt>
      <trkpt lat="45.31171" lon="6.84943">
        <ele>2383.056</ele>
        <time>2015-08-24T13:33:21Z</time>
      </trkpt>
      <trkpt lat="45.31176" lon="6.84949">
        <ele>2385.1067</ele>
        <time>2015-08-24T13:33:31Z</time>
      </trkpt>
      <trkpt lat="45.31177" lon="6.84953">
        <ele>2385.1067</ele>
        <time>2015-08-24T13:33:36Z</time>
      </trkpt>
      <trkpt lat="45.31181" lon="6.8496">
        <ele>2387.076</ele>
        <time>2015-08-24T13:33:46Z</time>
      </trkpt>
      <trkpt lat="45.31185" lon="6.84963">
        <ele>2387.076</ele>
        <time>2015-08-24T13:33:51Z</time>
      </trkpt>
      <trkpt lat="45.31188" lon="6.84969">
        <ele>2388.9814</ele>
        <time>2015-08-24T13:34:01Z</time>
      </trkpt>
      <trkpt lat="45.31189" lon="6.84971">
        <ele>2388.9814</ele>
        <time>2015-08-24T13:34:06Z</time>
      </trkpt>
      <trkpt lat="45.31188" lon="6.84976">
        <ele>2388.9814</ele>
        <time>2015-08-24T13:34:16Z</time>
      </trkpt>
      <trkpt lat="45.3119" lon="6.84978">
        <ele>2388.9814</ele>
        <time>2015-08-24T13:34:21Z</time>
      </trkpt>
      <trkpt lat="45.31194" lon="6.84983">
        <ele>2391.1433</ele>
        <time>2015-08-24T13:34:36Z</time>
      </trkpt>
      <trkpt lat="45.31196" lon="6.84985">
        <ele>2391.1433</ele>
        <time>2015-08-24T13:34:41Z</time>
      </trkpt>
      <trkpt lat="45.31203" lon="6.84989">
        <ele>2393.3237</ele>
        <time>2015-08-24T13:34:51Z</time>
      </trkpt>
      <trkpt lat="45.31204" lon="6.8499">
        <ele>2393.3237</ele>
        <time>2015-08-24T13:34:56Z</time>
      </trkpt>
      <trkpt lat="45.31203" lon="6.84992">
        <ele>2393.3237</ele>
        <time>2015-08-24T13:35:06Z</time>
      </trkpt>
      <trkpt lat="45.31203" lon="6.84991">
        <ele>2393.3237</ele>
        <time>2015-08-24T13:35:11Z</time>
      </trkpt>
      <trkpt lat="45.31206" lon="6.84995">
        <ele>2393.3237</ele>
        <time>2015-08-24T13:35:21Z</time>
      </trkpt>
      <trkpt lat="45.31208" lon="6.84998">
        <ele>2395.591</ele>
        <time>2015-08-24T13:35:26Z</time>
      </trkpt>
      <trkpt lat="45.31213" lon="6.85003">
        <ele>2395.591</ele>
        <time>2015-08-24T13:35:36Z</time>
      </trkpt>
      <trkpt lat="45.31216" lon="6.85007">
        <ele>2397.6765</ele>
        <time>2015-08-24T13:35:41Z</time>
      </trkpt>
      <trkpt lat="45.31221" lon="6.85013">
        <ele>2397.6765</ele>
        <time>2015-08-24T13:35:51Z</time>
      </trkpt>
      <trkpt lat="45.31223" lon="6.85017">
        <ele>2399.6636</ele>
        <time>2015-08-24T13:35:56Z</time>
      </trkpt>
      <trkpt lat="45.31228" lon="6.8502">
        <ele>2399.6636</ele>
        <time>2015-08-24T13:36:06Z</time>
      </trkpt>
      <trkpt lat="45.31233" lon="6.85023">
        <ele>2401.5723</ele>
        <time>2015-08-24T13:36:11Z</time>
      </trkpt>
      <trkpt lat="45.31237" lon="6.85025">
        <ele>2401.5723</ele>
        <time>2015-08-24T13:36:21Z</time>
      </trkpt>
      <trkpt lat="45.3124" lon="6.85027">
        <ele>2401.5723</ele>
        <time>2015-08-24T13:36:26Z</time>
      </trkpt>
      <trkpt lat="45.31248" lon="6.85035">
        <ele>2403.4644</ele>
        <time>2015-08-24T13:36:41Z</time>
      </trkpt>
      <trkpt lat="45.31249" lon="6.85039">
        <ele>2403.4644</ele>
        <time>2015-08-24T13:36:46Z</time>
      </trkpt>
      <trkpt lat="45.31255" lon="6.85044">
        <ele>2405.297</ele>
        <time>2015-08-24T13:36:56Z</time>
      </trkpt>
      <trkpt lat="45.31256" lon="6.8505">
        <ele>2405.297</ele>
        <time>2015-08-24T13:37:01Z</time>
      </trkpt>
      <trkpt lat="45.3126" lon="6.85058">
        <ele>2407.0593</ele>
        <time>2015-08-24T13:37:11Z</time>
      </trkpt>
      <trkpt lat="45.3126" lon="6.85062">
        <ele>2407.0593</ele>
        <time>2015-08-24T13:37:16Z</time>
      </trkpt>
      <trkpt lat="45.31261" lon="6.85068">
        <ele>2407.0593</ele>
        <time>2015-08-24T13:37:26Z</time>
      </trkpt>
      <trkpt lat="45.31262" lon="6.8507">
        <ele>2407.0593</ele>
        <time>2015-08-24T13:37:31Z</time>
      </trkpt>
      <trkpt lat="45.31263" lon="6.85074">
        <ele>2408.914</ele>
        <time>2015-08-24T13:37:41Z</time>
      </trkpt>
      <trkpt lat="45.31263" lon="6.85076">
        <ele>2408.914</ele>
        <time>2015-08-24T13:37:46Z</time>
      </trkpt>
      <trkpt lat="45.31263" lon="6.85082">
        <ele>2408.914</ele>
        <time>2015-08-24T13:37:56Z</time>
      </trkpt>
      <trkpt lat="45.31263" lon="6.85082">
        <ele>2408.914</ele>
        <time>2015-08-24T13:38:01Z</time>
      </trkpt>
      <trkpt lat="45.31261" lon="6.85085">
        <ele>2410.8535</ele>
        <time>2015-08-24T13:38:11Z</time>
      </trkpt>
      <trkpt lat="45.3126" lon="6.85087">
        <ele>2410.8535</ele>
        <time>2015-08-24T13:38:16Z</time>
      </trkpt>
      <trkpt lat="45.31261" lon="6.85084">
        <ele>2410.8535</ele>
        <time>2015-08-24T13:38:26Z</time>
      </trkpt>
      <trkpt lat="45.31263" lon="6.85082">
        <ele>2410.8535</ele>
        <time>2015-08-24T13:38:31Z</time>
      </trkpt>
      <trkpt lat="45.31264" lon="6.85083">
        <ele>2410.8535</ele>
        <time>2015-08-24T13:38:41Z</time>
      </trkpt>
      <trkpt lat="45.31264" lon="6.85083">
        <ele>2410.8535</ele>
        <time>2015-08-24T13:38:46Z</time>
      </trkpt>
      <trkpt lat="45.31266" lon="6.85085">
        <ele>2413.0295</ele>
        <time>2015-08-24T13:39:01Z</time>
      </trkpt>
      <trkpt lat="45.31267" lon="6.85089">
        <ele>2413.0295</ele>
        <time>2015-08-24T13:39:06Z</time>
      </trkpt>
      <trkpt lat="45.31269" lon="6.85084">
        <ele>2413.0295</ele>
        <time>2015-08-24T13:39:16Z</time>
      </trkpt>
      <trkpt lat="45.31268" lon="6.85084">
        <ele>2413.0295</ele>
        <time>2015-08-24T13:39:21Z</time>
      </trkpt>
      <trkpt lat="45.31269" lon="6.85084">
        <ele>2413.0295</ele>
        <time>2015-08-24T13:39:51Z</time>
      </trkpt>
      <trkpt lat="45.3127" lon="6.85087">
        <ele>2415.077</ele>
        <time>2015-08-24T13:40:01Z</time>
      </trkpt>
      <trkpt lat="45.3127" lon="6.8509">
        <ele>2415.077</ele>
        <time>2015-08-24T13:40:06Z</time>
      </trkpt>
      <trkpt lat="45.31272" lon="6.85097">
        <ele>2415.077</ele>
        <time>2015-08-24T13:40:16Z</time>
      </trkpt>
      <trkpt lat="45.31274" lon="6.85101">
        <ele>2417.0618</ele>
        <time>2015-08-24T13:40:21Z</time>
      </trkpt>
      <trkpt lat="45.31277" lon="6.85107">
        <ele>2417.0618</ele>
        <time>2015-08-24T13:40:31Z</time>
      </trkpt>
      <trkpt lat="45.31281" lon="6.85112">
        <ele>2418.8435</ele>
        <time>2015-08-24T13:40:36Z</time>
      </trkpt>
      <trkpt lat="45.31287" lon="6.85118">
        <ele>2418.8435</ele>
        <time>2015-08-24T13:40:46Z</time>
      </trkpt>
      <trkpt lat="45.31287" lon="6.85119">
        <ele>2418.8435</ele>
        <time>2015-08-24T13:40:51Z</time>
      </trkpt>
      <trkpt lat="45.31291" lon="6.85136">
        <ele>2420.3652</ele>
        <time>2015-08-24T13:41:06Z</time>
      </trkpt>
      <trkpt lat="45.31292" lon="6.8514">
        <ele>2420.3652</ele>
        <time>2015-08-24T13:41:11Z</time>
      </trkpt>
      <trkpt lat="45.31293" lon="6.85153">
        <ele>2421.661</ele>
        <time>2015-08-24T13:41:21Z</time>
      </trkpt>
      <trkpt lat="45.31294" lon="6.85157">
        <ele>2421.661</ele>
        <time>2015-08-24T13:41:26Z</time>
      </trkpt>
      <trkpt lat="45.31297" lon="6.85166">
        <ele>2422.7917</ele>
        <time>2015-08-24T13:41:36Z</time>
      </trkpt>
      <trkpt lat="45.31301" lon="6.85169">
        <ele>2422.7917</ele>
        <time>2015-08-24T13:41:41Z</time>
      </trkpt>
      <trkpt lat="45.31305" lon="6.85182">
        <ele>2423.9297</ele>
        <time>2015-08-24T13:41:51Z</time>
      </trkpt>
      <trkpt lat="45.31308" lon="6.85184">
        <ele>2423.9297</ele>
        <time>2015-08-24T13:41:56Z</time>
      </trkpt>
      <trkpt lat="45.31313" lon="6.85192">
        <ele>2424.8171</ele>
        <time>2015-08-24T13:42:06Z</time>
      </trkpt>
      <trkpt lat="45.31313" lon="6.85195">
        <ele>2424.8171</ele>
        <time>2015-08-24T13:42:11Z</time>
      </trkpt>
      <trkpt lat="45.31313" lon="6.85202">
        <ele>2424.8171</ele>
        <time>2015-08-24T13:42:21Z</time>
      </trkpt>
      <trkpt lat="45.31316" lon="6.85205">
        <ele>2425.6335</ele>
        <time>2015-08-24T13:42:26Z</time>
      </trkpt>
      <trkpt lat="45.3132" lon="6.85213">
        <ele>2425.6335</ele>
        <time>2015-08-24T13:42:36Z</time>
      </trkpt>
      <trkpt lat="45.31321" lon="6.85214">
        <ele>2425.6335</ele>
        <time>2015-08-24T13:42:41Z</time>
      </trkpt>
      <trkpt lat="45.31326" lon="6.85216">
        <ele>2426.5742</ele>
        <time>2015-08-24T13:42:51Z</time>
      </trkpt>
      <trkpt lat="45.31326" lon="6.85217">
        <ele>2426.5742</ele>
        <time>2015-08-24T13:42:56Z</time>
      </trkpt>
      <trkpt lat="45.3133" lon="6.85221">
        <ele>2426.5742</ele>
        <time>2015-08-24T13:43:11Z</time>
      </trkpt>
      <trkpt lat="45.31331" lon="6.85222">
        <ele>2426.5742</ele>
        <time>2015-08-24T13:43:16Z</time>
      </trkpt>
      <trkpt lat="45.31332" lon="6.85227">
        <ele>2427.7764</ele>
        <time>2015-08-24T13:43:26Z</time>
      </trkpt>
      <trkpt lat="45.31335" lon="6.85227">
        <ele>2427.7764</ele>
        <time>2015-08-24T13:43:31Z</time>
      </trkpt>
      <trkpt lat="45.31339" lon="6.85233">
        <ele>2427.7764</ele>
        <time>2015-08-24T13:43:41Z</time>
      </trkpt>
      <trkpt lat="45.3134" lon="6.85235">
        <ele>2428.9778</ele>
        <time>2015-08-24T13:43:46Z</time>
      </trkpt>
      <trkpt lat="45.31343" lon="6.85241">
        <ele>2428.9778</ele>
        <time>2015-08-24T13:43:56Z</time>
      </trkpt>
      <trkpt lat="45.31344" lon="6.85241">
        <ele>2428.9778</ele>
        <time>2015-08-24T13:44:01Z</time>
      </trkpt>
      <trkpt lat="45.31344" lon="6.85237">
        <ele>2430.137</ele>
        <time>2015-08-24T13:44:11Z</time>
      </trkpt>
      <trkpt lat="45.31344" lon="6.85236">
        <ele>2430.137</ele>
        <time>2015-08-24T13:44:16Z</time>
      </trkpt>
      <trkpt lat="45.31344" lon="6.85237">
        <ele>2430.137</ele>
        <time>2015-08-24T13:44:26Z</time>
      </trkpt>
      <trkpt lat="45.31344" lon="6.85237">
        <ele>2430.137</ele>
        <time>2015-08-24T13:44:31Z</time>
      </trkpt>
      <trkpt lat="45.31345" lon="6.85243">
        <ele>2430.137</ele>
        <time>2015-08-24T13:44:56Z</time>
      </trkpt>
      <trkpt lat="45.31346" lon="6.85246">
        <ele>2430.137</ele>
        <time>2015-08-24T13:45:01Z</time>
      </trkpt>
      <trkpt lat="45.31346" lon="6.85261">
        <ele>2431.8064</ele>
        <time>2015-08-24T13:45:11Z</time>
      </trkpt>
      <trkpt lat="45.31346" lon="6.85266">
        <ele>2431.8064</ele>
        <time>2015-08-24T13:45:16Z</time>
      </trkpt>
      <trkpt lat="45.3135" lon="6.85278">
        <ele>2433.3008</ele>
        <time>2015-08-24T13:45:26Z</time>
      </trkpt>
      <trkpt lat="45.31351" lon="6.85285">
        <ele>2433.3008</ele>
        <time>2015-08-24T13:45:31Z</time>
      </trkpt>
      <trkpt lat="45.31352" lon="6.8529">
        <ele>2433.3008</ele>
        <time>2015-08-24T13:45:46Z</time>
      </trkpt>
      <trkpt lat="45.31353" lon="6.85293">
        <ele>2435.008</ele>
        <time>2015-08-24T13:45:51Z</time>
      </trkpt>
      <trkpt lat="45.31353" lon="6.85302">
        <ele>2435.008</ele>
        <time>2015-08-24T13:46:01Z</time>
      </trkpt>
      <trkpt lat="45.31351" lon="6.85306">
        <ele>2436.726</ele>
        <time>2015-08-24T13:46:06Z</time>
      </trkpt>
      <trkpt lat="45.31351" lon="6.85316">
        <ele>2436.726</ele>
        <time>2015-08-24T13:46:16Z</time>
      </trkpt>
      <trkpt lat="45.3135" lon="6.85319">
        <ele>2436.726</ele>
        <time>2015-08-24T13:46:21Z</time>
      </trkpt>
      <trkpt lat="45.31349" lon="6.85324">
        <ele>2438.0938</ele>
        <time>2015-08-24T13:46:31Z</time>
      </trkpt>
      <trkpt lat="45.31348" lon="6.85325">
        <ele>2438.0938</ele>
        <time>2015-08-24T13:46:36Z</time>
      </trkpt>
      <trkpt lat="45.31348" lon="6.85328">
        <ele>2438.0938</ele>
        <time>2015-08-24T13:46:46Z</time>
      </trkpt>
      <trkpt lat="45.31348" lon="6.85331">
        <ele>2438.0938</ele>
        <time>2015-08-24T13:46:51Z</time>
      </trkpt>
      <trkpt lat="45.31345" lon="6.85339">
        <ele>2439.6277</ele>
        <time>2015-08-24T13:47:01Z</time>
      </trkpt>
      <trkpt lat="45.31345" lon="6.85343">
        <ele>2439.6277</ele>
        <time>2015-08-24T13:47:06Z</time>
      </trkpt>
      <trkpt lat="45.31346" lon="6.85351">
        <ele>2439.6277</ele>
        <time>2015-08-24T13:47:16Z</time>
      </trkpt>
      <trkpt lat="45.31346" lon="6.85355">
        <ele>2441.144</ele>
        <time>2015-08-24T13:47:21Z</time>
      </trkpt>
      <trkpt lat="45.31343" lon="6.85362">
        <ele>2441.144</ele>
        <time>2015-08-24T13:47:31Z</time>
      </trkpt>
      <trkpt lat="45.31342" lon="6.85365">
        <ele>2441.144</ele>
        <time>2015-08-24T13:47:36Z</time>
      </trkpt>
      <trkpt lat="45.31342" lon="6.85371">
        <ele>2442.875</ele>
        <time>2015-08-24T13:47:46Z</time>
      </trkpt>
      <trkpt lat="45.31343" lon="6.85375">
        <ele>2442.875</ele>
        <time>2015-08-24T13:47:51Z</time>
      </trkpt>
      <trkpt lat="45.31348" lon="6.85384">
        <ele>2444.6467</ele>
        <time>2015-08-24T13:48:06Z</time>
      </trkpt>
      <trkpt lat="45.31349" lon="6.85385">
        <ele>2444.6467</ele>
        <time>2015-08-24T13:48:11Z</time>
      </trkpt>
      <trkpt lat="45.31351" lon="6.85388">
        <ele>2444.6467</ele>
        <time>2015-08-24T13:48:21Z</time>
      </trkpt>
      <trkpt lat="45.31353" lon="6.8539">
        <ele>2444.6467</ele>
        <time>2015-08-24T13:48:26Z</time>
      </trkpt>
      <trkpt lat="45.31356" lon="6.85388">
        <ele>2446.4849</ele>
        <time>2015-08-24T13:48:36Z</time>
      </trkpt>
      <trkpt lat="45.31354" lon="6.85389">
        <ele>2446.4849</ele>
        <time>2015-08-24T13:48:41Z</time>
      </trkpt>
      <trkpt lat="45.31351" lon="6.8539">
        <ele>2446.4849</ele>
        <time>2015-08-24T13:48:51Z</time>
      </trkpt>
      <trkpt lat="45.31353" lon="6.85391">
        <ele>2446.4849</ele>
        <time>2015-08-24T13:48:56Z</time>
      </trkpt>
      <trkpt lat="45.31356" lon="6.85392">
        <ele>2448.4133</ele>
        <time>2015-08-24T13:49:06Z</time>
      </trkpt>
      <trkpt lat="45.31356" lon="6.85392">
        <ele>2448.4133</ele>
        <time>2015-08-24T13:49:11Z</time>
      </trkpt>
      <trkpt lat="45.31355" lon="6.8539">
        <ele>2448.4133</ele>
        <time>2015-08-24T13:49:26Z</time>
      </trkpt>
      <trkpt lat="45.31354" lon="6.85391">
        <ele>2448.4133</ele>
        <time>2015-08-24T13:49:31Z</time>
      </trkpt>
      <trkpt lat="45.31353" lon="6.85391">
        <ele>2448.4133</ele>
        <time>2015-08-24T13:49:41Z</time>
      </trkpt>
      <trkpt lat="45.31353" lon="6.85392">
        <ele>2448.4133</ele>
        <time>2015-08-24T13:49:46Z</time>
      </trkpt>
      <trkpt lat="45.31352" lon="6.85391">
        <ele>2448.4133</ele>
        <time>2015-08-24T13:49:56Z</time>
      </trkpt>
      <trkpt lat="45.31352" lon="6.85391">
        <ele>2448.4133</ele>
        <time>2015-08-24T13:50:01Z</time>
      </trkpt>
      <trkpt lat="45.31355" lon="6.85396">
        <ele>2450.4392</ele>
        <time>2015-08-24T13:50:26Z</time>
      </trkpt>
      <trkpt lat="45.31357" lon="6.854">
        <ele>2450.4392</ele>
        <time>2015-08-24T13:50:31Z</time>
      </trkpt>
      <trkpt lat="45.31358" lon="6.85407">
        <ele>2450.4392</ele>
        <time>2015-08-24T13:50:41Z</time>
      </trkpt>
      <trkpt lat="45.31358" lon="6.85407">
        <ele>2450.4392</ele>
        <time>2015-08-24T13:50:46Z</time>
      </trkpt>
      <trkpt lat="45.31359" lon="6.8541">
        <ele>2452.4397</ele>
        <time>2015-08-24T13:50:56Z</time>
      </trkpt>
      <trkpt lat="45.3136" lon="6.85416">
        <ele>2452.4397</ele>
        <time>2015-08-24T13:51:01Z</time>
      </trkpt>
      <trkpt lat="45.31364" lon="6.85428">
        <ele>2454.3</ele>
        <time>2015-08-24T13:51:16Z</time>
      </trkpt>
      <trkpt lat="45.31365" lon="6.85432">
        <ele>2454.3</ele>
        <time>2015-08-24T13:51:21Z</time>
      </trkpt>
      <trkpt lat="45.31367" lon="6.85441">
        <ele>2456.031</ele>
        <time>2015-08-24T13:51:31Z</time>
      </trkpt>
      <trkpt lat="45.3137" lon="6.85443">
        <ele>2456.031</ele>
        <time>2015-08-24T13:51:36Z</time>
      </trkpt>
      <trkpt lat="45.31374" lon="6.85443">
        <ele>2456.031</ele>
        <time>2015-08-24T13:51:46Z</time>
      </trkpt>
      <trkpt lat="45.31376" lon="6.85443">
        <ele>2457.7424</ele>
        <time>2015-08-24T13:51:51Z</time>
      </trkpt>
      <trkpt lat="45.3138" lon="6.85442">
        <ele>2457.7424</ele>
        <time>2015-08-24T13:52:01Z</time>
      </trkpt>
      <trkpt lat="45.31381" lon="6.85442">
        <ele>2457.7424</ele>
        <time>2015-08-24T13:52:06Z</time>
      </trkpt>
      <trkpt lat="45.31388" lon="6.85445">
        <ele>2459.5083</ele>
        <time>2015-08-24T13:52:16Z</time>
      </trkpt>
      <trkpt lat="45.3139" lon="6.85445">
        <ele>2459.5083</ele>
        <time>2015-08-24T13:52:21Z</time>
      </trkpt>
      <trkpt lat="45.31394" lon="6.85441">
        <ele>2459.5083</ele>
        <time>2015-08-24T13:52:31Z</time>
      </trkpt>
      <trkpt lat="45.31396" lon="6.85438">
        <ele>2461.3677</ele>
        <time>2015-08-24T13:52:36Z</time>
      </trkpt>
      <trkpt lat="45.31401" lon="6.85435">
        <ele>2461.3677</ele>
        <time>2015-08-24T13:52:46Z</time>
      </trkpt>
      <trkpt lat="45.31403" lon="6.85434">
        <ele>2461.3677</ele>
        <time>2015-08-24T13:52:51Z</time>
      </trkpt>
      <trkpt lat="45.31411" lon="6.85434">
        <ele>2463.472</ele>
        <time>2015-08-24T13:53:06Z</time>
      </trkpt>
      <trkpt lat="45.31413" lon="6.85437">
        <ele>2463.472</ele>
        <time>2015-08-24T13:53:11Z</time>
      </trkpt>
      <trkpt lat="45.31417" lon="6.85438">
        <ele>2463.472</ele>
        <time>2015-08-24T13:53:21Z</time>
      </trkpt>
      <trkpt lat="45.31419" lon="6.85439">
        <ele>2463.472</ele>
        <time>2015-08-24T13:53:26Z</time>
      </trkpt>
      <trkpt lat="45.31422" lon="6.8544">
        <ele>2465.8164</ele>
        <time>2015-08-24T13:53:36Z</time>
      </trkpt>
      <trkpt lat="45.31424" lon="6.85441">
        <ele>2465.8164</ele>
        <time>2015-08-24T13:53:41Z</time>
      </trkpt>
      <trkpt lat="45.31427" lon="6.85444">
        <ele>2465.8164</ele>
        <time>2015-08-24T13:53:51Z</time>
      </trkpt>
      <trkpt lat="45.31428" lon="6.85446">
        <ele>2465.8164</ele>
        <time>2015-08-24T13:53:56Z</time>
      </trkpt>
      <trkpt lat="45.31429" lon="6.85437">
        <ele>2468.1514</ele>
        <time>2015-08-24T13:54:06Z</time>
      </trkpt>
      <trkpt lat="45.31428" lon="6.85436">
        <ele>2468.1514</ele>
        <time>2015-08-24T13:54:11Z</time>
      </trkpt>
      <trkpt lat="45.31426" lon="6.85446">
        <ele>2468.1514</ele>
        <time>2015-08-24T13:54:21Z</time>
      </trkpt>
      <trkpt lat="45.31424" lon="6.85454">
        <ele>2470.2163</ele>
        <time>2015-08-24T13:54:26Z</time>
      </trkpt>
      <trkpt lat="45.31425" lon="6.85456">
        <ele>2470.2163</ele>
        <time>2015-08-24T13:54:36Z</time>
      </trkpt>
      <trkpt lat="45.31425" lon="6.85456">
        <ele>2470.2163</ele>
        <time>2015-08-24T13:54:41Z</time>
      </trkpt>
      <trkpt lat="45.31431" lon="6.85458">
        <ele>2472.4773</ele>
        <time>2015-08-24T13:56:56Z</time>
      </trkpt>
      <trkpt lat="45.31436" lon="6.85458">
        <ele>2472.4773</ele>
        <time>2015-08-24T13:57:01Z</time>
      </trkpt>
      <trkpt lat="45.3144" lon="6.85461">
        <ele>2474.4858</ele>
        <time>2015-08-24T13:57:11Z</time>
      </trkpt>
      <trkpt lat="45.31444" lon="6.85463">
        <ele>2474.4858</ele>
        <time>2015-08-24T13:57:16Z</time>
      </trkpt>
      <trkpt lat="45.31451" lon="6.85466">
        <ele>2476.3894</ele>
        <time>2015-08-24T13:57:26Z</time>
      </trkpt>
      <trkpt lat="45.31457" lon="6.85469">
        <ele>2476.3894</ele>
        <time>2015-08-24T13:57:31Z</time>
      </trkpt>
      <trkpt lat="45.31465" lon="6.85472">
        <ele>2478.1235</ele>
        <time>2015-08-24T13:57:41Z</time>
      </trkpt>
      <trkpt lat="45.31469" lon="6.85475">
        <ele>2478.1235</ele>
        <time>2015-08-24T13:57:46Z</time>
      </trkpt>
      <trkpt lat="45.31473" lon="6.85479">
        <ele>2479.4705</ele>
        <time>2015-08-24T13:58:01Z</time>
      </trkpt>
      <trkpt lat="45.31474" lon="6.85482">
        <ele>2479.4705</ele>
        <time>2015-08-24T13:58:06Z</time>
      </trkpt>
      <trkpt lat="45.31482" lon="6.8549">
        <ele>2480.416</ele>
        <time>2015-08-24T13:58:16Z</time>
      </trkpt>
      <trkpt lat="45.31484" lon="6.85491">
        <ele>2480.416</ele>
        <time>2015-08-24T13:58:21Z</time>
      </trkpt>
      <trkpt lat="45.31489" lon="6.85486">
        <ele>2480.416</ele>
        <time>2015-08-24T13:58:31Z</time>
      </trkpt>
      <trkpt lat="45.31493" lon="6.85483">
        <ele>2481.0645</ele>
        <time>2015-08-24T13:58:36Z</time>
      </trkpt>
      <trkpt lat="45.31503" lon="6.85481">
        <ele>2481.4407</ele>
        <time>2015-08-24T13:58:46Z</time>
      </trkpt>
      <trkpt lat="45.31509" lon="6.85481">
        <ele>2481.4407</ele>
        <time>2015-08-24T13:58:51Z</time>
      </trkpt>
      <trkpt lat="45.31518" lon="6.85483">
        <ele>2481.6265</ele>
        <time>2015-08-24T13:59:01Z</time>
      </trkpt>
      <trkpt lat="45.31522" lon="6.85483">
        <ele>2481.6265</ele>
        <time>2015-08-24T13:59:06Z</time>
      </trkpt>
      <trkpt lat="45.31529" lon="6.85485">
        <ele>2481.6401</ele>
        <time>2015-08-24T13:59:16Z</time>
      </trkpt>
      <trkpt lat="45.31534" lon="6.85486">
        <ele>2481.6401</ele>
        <time>2015-08-24T13:59:21Z</time>
      </trkpt>
      <trkpt lat="45.31542" lon="6.85492">
        <ele>2481.571</ele>
        <time>2015-08-24T13:59:31Z</time>
      </trkpt>
      <trkpt lat="45.31542" lon="6.85494">
        <ele>2481.571</ele>
        <time>2015-08-24T13:59:36Z</time>
      </trkpt>
      <trkpt lat="45.31541" lon="6.85493">
        <ele>2481.571</ele>
        <time>2015-08-24T13:59:46Z</time>
      </trkpt>
      <trkpt lat="45.31542" lon="6.85498">
        <ele>2481.571</ele>
        <time>2015-08-24T13:59:51Z</time>
      </trkpt>
      <trkpt lat="45.31542" lon="6.855">
        <ele>2481.571</ele>
        <time>2015-08-24T13:59:56Z</time>
      </trkpt>
      <trkpt lat="45.3154" lon="6.85494">
        <ele>2481.4595</ele>
        <time>2015-08-24T14:00:06Z</time>
      </trkpt>
      <trkpt lat="45.3154" lon="6.85494">
        <ele>2481.4595</ele>
        <time>2015-08-24T14:00:11Z</time>
      </trkpt>
      <trkpt lat="45.3154" lon="6.85494">
        <ele>2481.4595</ele>
        <time>2015-08-24T14:00:16Z</time>
      </trkpt>
      <trkpt lat="45.3154" lon="6.85495">
        <ele>2481.4595</ele>
        <time>2015-08-24T14:00:21Z</time>
      </trkpt>
      <trkpt lat="45.31539" lon="6.85494">
        <ele>2481.4595</ele>
        <time>2015-08-24T14:00:26Z</time>
      </trkpt>
      <trkpt lat="45.31538" lon="6.85493">
        <ele>2481.4595</ele>
        <time>2015-08-24T14:00:36Z</time>
      </trkpt>
      <trkpt lat="45.31538" lon="6.85493">
        <ele>2481.4595</ele>
        <time>2015-08-24T14:00:41Z</time>
      </trkpt>
      <trkpt lat="45.31545" lon="6.85491">
        <ele>2481.1697</ele>
        <time>2015-08-24T14:00:51Z</time>
      </trkpt>
      <trkpt lat="45.31547" lon="6.85488">
        <ele>2481.1697</ele>
        <time>2015-08-24T14:00:56Z</time>
      </trkpt>
      <trkpt lat="45.31552" lon="6.85478">
        <ele>2480.72</ele>
        <time>2015-08-24T14:01:06Z</time>
      </trkpt>
      <trkpt lat="45.31555" lon="6.85474">
        <ele>2480.72</ele>
        <time>2015-08-24T14:01:11Z</time>
      </trkpt>
      <trkpt lat="45.31572" lon="6.85474">
        <ele>2480.0852</ele>
        <time>2015-08-24T14:01:26Z</time>
      </trkpt>
      <trkpt lat="45.31574" lon="6.85474">
        <ele>2480.0852</ele>
        <time>2015-08-24T14:01:31Z</time>
      </trkpt>
      <trkpt lat="45.31584" lon="6.85474">
        <ele>2479.3284</ele>
        <time>2015-08-24T14:01:41Z</time>
      </trkpt>
      <trkpt lat="45.3159" lon="6.85474">
        <ele>2479.3284</ele>
        <time>2015-08-24T14:01:46Z</time>
      </trkpt>
      <trkpt lat="45.31599" lon="6.85473">
        <ele>2478.4363</ele>
        <time>2015-08-24T14:01:56Z</time>
      </trkpt>
      <trkpt lat="45.31604" lon="6.85472">
        <ele>2478.4363</ele>
        <time>2015-08-24T14:02:01Z</time>
      </trkpt>
      <trkpt lat="45.31614" lon="6.85467">
        <ele>2477.469</ele>
        <time>2015-08-24T14:02:11Z</time>
      </trkpt>
      <trkpt lat="45.31619" lon="6.85467">
        <ele>2477.469</ele>
        <time>2015-08-24T14:02:16Z</time>
      </trkpt>
      <trkpt lat="45.3163" lon="6.85465">
        <ele>2476.3237</ele>
        <time>2015-08-24T14:02:26Z</time>
      </trkpt>
      <trkpt lat="45.31635" lon="6.85465">
        <ele>2476.3237</ele>
        <time>2015-08-24T14:02:31Z</time>
      </trkpt>
      <trkpt lat="45.31644" lon="6.85461">
        <ele>2475.1794</ele>
        <time>2015-08-24T14:02:41Z</time>
      </trkpt>
      <trkpt lat="45.31647" lon="6.85461">
        <ele>2475.1794</ele>
        <time>2015-08-24T14:02:46Z</time>
      </trkpt>
      <trkpt lat="45.31658" lon="6.85453">
        <ele>2474.1008</ele>
        <time>2015-08-24T14:02:56Z</time>
      </trkpt>
      <trkpt lat="45.31662" lon="6.85448">
        <ele>2474.1008</ele>
        <time>2015-08-24T14:03:01Z</time>
      </trkpt>
      <trkpt lat="45.31665" lon="6.85436">
        <ele>2473.0178</ele>
        <time>2015-08-24T14:03:11Z</time>
      </trkpt>
      <trkpt lat="45.31669" lon="6.85428">
        <ele>2473.0178</ele>
        <time>2015-08-24T14:03:16Z</time>
      </trkpt>
      <trkpt lat="45.31684" lon="6.85416">
        <ele>2471.9375</ele>
        <time>2015-08-24T14:03:31Z</time>
      </trkpt>
      <trkpt lat="45.31688" lon="6.85414">
        <ele>2471.9375</ele>
        <time>2015-08-24T14:03:36Z</time>
      </trkpt>
      <trkpt lat="45.31695" lon="6.8541">
        <ele>2470.7942</ele>
        <time>2015-08-24T14:03:46Z</time>
      </trkpt>
      <trkpt lat="45.31703" lon="6.85408">
        <ele>2470.7942</ele>
        <time>2015-08-24T14:03:51Z</time>
      </trkpt>
      <trkpt lat="45.31712" lon="6.85407">
        <ele>2469.671</ele>
        <time>2015-08-24T14:04:01Z</time>
      </trkpt>
      <trkpt lat="45.31718" lon="6.85407">
        <ele>2469.671</ele>
        <time>2015-08-24T14:04:06Z</time>
      </trkpt>
      <trkpt lat="45.3173" lon="6.85404">
        <ele>2468.5435</ele>
        <time>2015-08-24T14:04:16Z</time>
      </trkpt>
      <trkpt lat="45.31733" lon="6.85404">
        <ele>2468.5435</ele>
        <time>2015-08-24T14:04:21Z</time>
      </trkpt>
      <trkpt lat="45.31743" lon="6.85405">
        <ele>2467.4043</ele>
        <time>2015-08-24T14:04:31Z</time>
      </trkpt>
      <trkpt lat="45.31749" lon="6.85407">
        <ele>2467.4043</ele>
        <time>2015-08-24T14:04:36Z</time>
      </trkpt>
      <trkpt lat="45.31753" lon="6.8541">
        <ele>2466.2883</ele>
        <time>2015-08-24T14:04:46Z</time>
      </trkpt>
      <trkpt lat="45.31754" lon="6.85414">
        <ele>2466.2883</ele>
        <time>2015-08-24T14:04:51Z</time>
      </trkpt>
      <trkpt lat="45.31759" lon="6.85421">
        <ele>2465.2146</ele>
        <time>2015-08-24T14:05:01Z</time>
      </trkpt>
      <trkpt lat="45.31761" lon="6.85421">
        <ele>2465.2146</ele>
        <time>2015-08-24T14:05:06Z</time>
      </trkpt>
      <trkpt lat="45.31765" lon="6.85427">
        <ele>2465.2146</ele>
        <time>2015-08-24T14:05:16Z</time>
      </trkpt>
      <trkpt lat="45.31765" lon="6.85432">
        <ele>2464.2136</ele>
        <time>2015-08-24T14:05:21Z</time>
      </trkpt>
      <trkpt lat="45.31769" lon="6.85438">
        <ele>2464.2136</ele>
        <time>2015-08-24T14:05:31Z</time>
      </trkpt>
      <trkpt lat="45.31772" lon="6.85441">
        <ele>2463.5159</ele>
        <time>2015-08-24T14:05:36Z</time>
      </trkpt>
      <trkpt lat="45.31779" lon="6.85448">
        <ele>2463.5159</ele>
        <time>2015-08-24T14:05:51Z</time>
      </trkpt>
      <trkpt lat="45.31783" lon="6.85448">
        <ele>2463.074</ele>
        <time>2015-08-24T14:05:56Z</time>
      </trkpt>
      <trkpt lat="45.31787" lon="6.85443">
        <ele>2463.074</ele>
        <time>2015-08-24T14:06:06Z</time>
      </trkpt>
      <trkpt lat="45.3179" lon="6.85439">
        <ele>2462.728</ele>
        <time>2015-08-24T14:06:11Z</time>
      </trkpt>
      <trkpt lat="45.31797" lon="6.85431">
        <ele>2462.728</ele>
        <time>2015-08-24T14:06:21Z</time>
      </trkpt>
      <trkpt lat="45.31801" lon="6.85428">
        <ele>2462.459</ele>
        <time>2015-08-24T14:06:26Z</time>
      </trkpt>
      <trkpt lat="45.31806" lon="6.85418">
        <ele>2462.459</ele>
        <time>2015-08-24T14:06:36Z</time>
      </trkpt>
      <trkpt lat="45.31808" lon="6.85413">
        <ele>2462.1335</ele>
        <time>2015-08-24T14:06:41Z</time>
      </trkpt>
      <trkpt lat="45.31816" lon="6.85402">
        <ele>2461.83</ele>
        <time>2015-08-24T14:06:51Z</time>
      </trkpt>
      <trkpt lat="45.31819" lon="6.85399">
        <ele>2461.83</ele>
        <time>2015-08-24T14:06:56Z</time>
      </trkpt>
      <trkpt lat="45.31826" lon="6.85394">
        <ele>2461.3904</ele>
        <time>2015-08-24T14:07:06Z</time>
      </trkpt>
      <trkpt lat="45.31831" lon="6.8539">
        <ele>2461.3904</ele>
        <time>2015-08-24T14:07:11Z</time>
      </trkpt>
      <trkpt lat="45.31838" lon="6.85384">
        <ele>2460.956</ele>
        <time>2015-08-24T14:07:21Z</time>
      </trkpt>
      <trkpt lat="45.31838" lon="6.85384">
        <ele>2460.956</ele>
        <time>2015-08-24T14:07:26Z</time>
      </trkpt>
      <trkpt lat="45.31841" lon="6.85379">
        <ele>2460.956</ele>
        <time>2015-08-24T14:07:36Z</time>
      </trkpt>
      <trkpt lat="45.31844" lon="6.85377">
        <ele>2460.956</ele>
        <time>2015-08-24T14:07:41Z</time>
      </trkpt>
      <trkpt lat="45.31851" lon="6.85375">
        <ele>2460.399</ele>
        <time>2015-08-24T14:07:51Z</time>
      </trkpt>
      <trkpt lat="45.31855" lon="6.85373">
        <ele>2460.399</ele>
        <time>2015-08-24T14:07:56Z</time>
      </trkpt>
      <trkpt lat="45.31861" lon="6.85369">
        <ele>2459.975</ele>
        <time>2015-08-24T14:08:06Z</time>
      </trkpt>
      <trkpt lat="45.31866" lon="6.85366">
        <ele>2459.975</ele>
        <time>2015-08-24T14:08:11Z</time>
      </trkpt>
      <trkpt lat="45.31875" lon="6.85362">
        <ele>2459.7483</ele>
        <time>2015-08-24T14:08:26Z</time>
      </trkpt>
      <trkpt lat="45.31881" lon="6.8536">
        <ele>2459.7483</ele>
        <time>2015-08-24T14:08:31Z</time>
      </trkpt>
      <trkpt lat="45.31883" lon="6.8536">
        <ele>2459.7483</ele>
        <time>2015-08-24T14:08:41Z</time>
      </trkpt>
      <trkpt lat="45.31882" lon="6.8536">
        <ele>2459.835</ele>
        <time>2015-08-24T14:08:46Z</time>
      </trkpt>
      <trkpt lat="45.3188" lon="6.8536">
        <ele>2459.835</ele>
        <time>2015-08-24T14:08:56Z</time>
      </trkpt>
      <trkpt lat="45.3188" lon="6.8536">
        <ele>2459.835</ele>
        <time>2015-08-24T14:09:01Z</time>
      </trkpt>
      <trkpt lat="45.31879" lon="6.85363">
        <ele>2459.835</ele>
        <time>2015-08-24T14:09:11Z</time>
      </trkpt>
      <trkpt lat="45.3188" lon="6.85363">
        <ele>2459.835</ele>
        <time>2015-08-24T14:09:16Z</time>
      </trkpt>
      <trkpt lat="45.31881" lon="6.85363">
        <ele>2459.835</ele>
        <time>2015-08-24T14:09:26Z</time>
      </trkpt>
      <trkpt lat="45.31881" lon="6.85362">
        <ele>2459.835</ele>
        <time>2015-08-24T14:09:31Z</time>
      </trkpt>
      <trkpt lat="45.31879" lon="6.85359">
        <ele>2460.2693</ele>
        <time>2015-08-24T14:09:41Z</time>
      </trkpt>
      <trkpt lat="45.3188" lon="6.85356">
        <ele>2460.2693</ele>
        <time>2015-08-24T14:09:46Z</time>
      </trkpt>
      <trkpt lat="45.31888" lon="6.85362">
        <ele>2460.5776</ele>
        <time>2015-08-24T14:09:56Z</time>
      </trkpt>
      <trkpt lat="45.31892" lon="6.85365">
        <ele>2460.5776</ele>
        <time>2015-08-24T14:10:01Z</time>
      </trkpt>
      <trkpt lat="45.319" lon="6.85371">
        <ele>2460.956</ele>
        <time>2015-08-24T14:10:11Z</time>
      </trkpt>
      <trkpt lat="45.31904" lon="6.85374">
        <ele>2460.956</ele>
        <time>2015-08-24T14:10:16Z</time>
      </trkpt>
      <trkpt lat="45.31912" lon="6.85378">
        <ele>2461.4844</ele>
        <time>2015-08-24T14:10:26Z</time>
      </trkpt>
      <trkpt lat="45.31915" lon="6.85379">
        <ele>2461.4844</ele>
        <time>2015-08-24T14:10:31Z</time>
      </trkpt>
      <trkpt lat="45.31924" lon="6.85381">
        <ele>2462.0486</ele>
        <time>2015-08-24T14:10:41Z</time>
      </trkpt>
      <trkpt lat="45.31929" lon="6.85383">
        <ele>2462.0486</ele>
        <time>2015-08-24T14:10:46Z</time>
      </trkpt>
      <trkpt lat="45.3194" lon="6.85386">
        <ele>2462.7168</ele>
        <time>2015-08-24T14:11:01Z</time>
      </trkpt>
      <trkpt lat="45.31944" lon="6.85387">
        <ele>2462.7168</ele>
        <time>2015-08-24T14:11:06Z</time>
      </trkpt>
      <trkpt lat="45.3195" lon="6.85389">
        <ele>2463.493</ele>
        <time>2015-08-24T14:11:16Z</time>
      </trkpt>
      <trkpt lat="45.31953" lon="6.8539">
        <ele>2463.493</ele>
        <time>2015-08-24T14:11:21Z</time>
      </trkpt>
      <trkpt lat="45.31959" lon="6.85394">
        <ele>2464.381</ele>
        <time>2015-08-24T14:11:31Z</time>
      </trkpt>
      <trkpt lat="45.31962" lon="6.85394">
        <ele>2464.381</ele>
        <time>2015-08-24T14:11:36Z</time>
      </trkpt>
      <trkpt lat="45.31967" lon="6.85396">
        <ele>2464.381</ele>
        <time>2015-08-24T14:11:46Z</time>
      </trkpt>
      <trkpt lat="45.31969" lon="6.85396">
        <ele>2465.4565</ele>
        <time>2015-08-24T14:11:51Z</time>
      </trkpt>
      <trkpt lat="45.31978" lon="6.85397">
        <ele>2465.4565</ele>
        <time>2015-08-24T14:12:01Z</time>
      </trkpt>
      <trkpt lat="45.31981" lon="6.85399">
        <ele>2466.702</ele>
        <time>2015-08-24T14:12:06Z</time>
      </trkpt>
      <trkpt lat="45.31986" lon="6.85401">
        <ele>2466.702</ele>
        <time>2015-08-24T14:12:16Z</time>
      </trkpt>
      <trkpt lat="45.31988" lon="6.85402">
        <ele>2466.702</ele>
        <time>2015-08-24T14:12:21Z</time>
      </trkpt>
      <trkpt lat="45.3199" lon="6.85404">
        <ele>2468.086</ele>
        <time>2015-08-24T14:12:31Z</time>
      </trkpt>
      <trkpt lat="45.31996" lon="6.85408">
        <ele>2468.086</ele>
        <time>2015-08-24T14:12:36Z</time>
      </trkpt>
      <trkpt lat="45.32009" lon="6.8541">
        <ele>2469.58</ele>
        <time>2015-08-24T14:12:51Z</time>
      </trkpt>
      <trkpt lat="45.32011" lon="6.85403">
        <ele>2469.58</ele>
        <time>2015-08-24T14:12:56Z</time>
      </trkpt>
      <trkpt lat="45.32013" lon="6.8539">
        <ele>2471.2146</ele>
        <time>2015-08-24T14:13:06Z</time>
      </trkpt>
      <trkpt lat="45.32013" lon="6.85382">
        <ele>2471.2146</ele>
        <time>2015-08-24T14:13:11Z</time>
      </trkpt>
      <trkpt lat="45.32016" lon="6.85372">
        <ele>2472.8584</ele>
        <time>2015-08-24T14:13:21Z</time>
      </trkpt>
      <trkpt lat="45.32017" lon="6.85366">
        <ele>2472.8584</ele>
        <time>2015-08-24T14:13:26Z</time>
      </trkpt>
      <trkpt lat="45.32022" lon="6.85354">
        <ele>2474.5208</ele>
        <time>2015-08-24T14:13:36Z</time>
      </trkpt>
      <trkpt lat="45.32025" lon="6.85348">
        <ele>2474.5208</ele>
        <time>2015-08-24T14:13:41Z</time>
      </trkpt>
      <trkpt lat="45.32029" lon="6.85336">
        <ele>2476.1804</ele>
        <time>2015-08-24T14:13:51Z</time>
      </trkpt>
      <trkpt lat="45.3203" lon="6.85328">
        <ele>2476.1804</ele>
        <time>2015-08-24T14:13:56Z</time>
      </trkpt>
      <trkpt lat="45.32031" lon="6.85326">
        <ele>2476.1804</ele>
        <time>2015-08-24T14:14:06Z</time>
      </trkpt>
      <trkpt lat="45.32032" lon="6.85329">
        <ele>2477.53</ele>
        <time>2015-08-24T14:14:11Z</time>
      </trkpt>
      <trkpt lat="45.3203" lon="6.85328">
        <ele>2477.53</ele>
        <time>2015-08-24T14:14:21Z</time>
      </trkpt>
      <trkpt lat="45.32031" lon="6.85326">
        <ele>2477.53</ele>
        <time>2015-08-24T14:14:26Z</time>
      </trkpt>
      <trkpt lat="45.32038" lon="6.85315">
        <ele>2478.6458</ele>
        <time>2015-08-24T14:14:41Z</time>
      </trkpt>
      <trkpt lat="45.32042" lon="6.85309">
        <ele>2478.6458</ele>
        <time>2015-08-24T14:14:46Z</time>
      </trkpt>
      <trkpt lat="45.32047" lon="6.853">
        <ele>2479.6572</ele>
        <time>2015-08-24T14:14:56Z</time>
      </trkpt>
      <trkpt lat="45.3205" lon="6.85296">
        <ele>2479.6572</ele>
        <time>2015-08-24T14:15:01Z</time>
      </trkpt>
      <trkpt lat="45.3205" lon="6.85284">
        <ele>2480.4534</ele>
        <time>2015-08-24T14:15:11Z</time>
      </trkpt>
      <trkpt lat="45.32043" lon="6.85284">
        <ele>2480.4534</ele>
        <time>2015-08-24T14:15:16Z</time>
      </trkpt>
      <trkpt lat="45.32033" lon="6.85286">
        <ele>2480.918</ele>
        <time>2015-08-24T14:15:26Z</time>
      </trkpt>
      <trkpt lat="45.32027" lon="6.85289">
        <ele>2480.918</ele>
        <time>2015-08-24T14:15:31Z</time>
      </trkpt>
      <trkpt lat="45.32021" lon="6.85284">
        <ele>2481.06</ele>
        <time>2015-08-24T14:15:41Z</time>
      </trkpt>
      <trkpt lat="45.32022" lon="6.85277">
        <ele>2481.06</ele>
        <time>2015-08-24T14:15:46Z</time>
      </trkpt>
      <trkpt lat="45.32031" lon="6.85268">
        <ele>2480.73</ele>
        <time>2015-08-24T14:15:56Z</time>
      </trkpt>
      <trkpt lat="45.32036" lon="6.85264">
        <ele>2480.73</ele>
        <time>2015-08-24T14:16:01Z</time>
      </trkpt>
      <trkpt lat="45.32044" lon="6.85256">
        <ele>2480.05</ele>
        <time>2015-08-24T14:16:11Z</time>
      </trkpt>
      <trkpt lat="45.32048" lon="6.85252">
        <ele>2480.05</ele>
        <time>2015-08-24T14:16:16Z</time>
      </trkpt>
      <trkpt lat="45.32061" lon="6.85244">
        <ele>2478.8176</ele>
        <time>2015-08-24T14:16:31Z</time>
      </trkpt>
      <trkpt lat="45.32067" lon="6.85242">
        <ele>2478.8176</ele>
        <time>2015-08-24T14:16:36Z</time>
      </trkpt>
      <trkpt lat="45.32077" lon="6.85237">
        <ele>2477.293</ele>
        <time>2015-08-24T14:16:46Z</time>
      </trkpt>
      <trkpt lat="45.32082" lon="6.85236">
        <ele>2477.293</ele>
        <time>2015-08-24T14:16:51Z</time>
      </trkpt>
      <trkpt lat="45.32091" lon="6.85231">
        <ele>2475.618</ele>
        <time>2015-08-24T14:17:01Z</time>
      </trkpt>
      <trkpt lat="45.32096" lon="6.85227">
        <ele>2475.618</ele>
        <time>2015-08-24T14:17:06Z</time>
      </trkpt>
      <trkpt lat="45.32107" lon="6.85222">
        <ele>2473.592</ele>
        <time>2015-08-24T14:17:16Z</time>
      </trkpt>
      <trkpt lat="45.32111" lon="6.85221">
        <ele>2473.592</ele>
        <time>2015-08-24T14:17:21Z</time>
      </trkpt>
      <trkpt lat="45.32122" lon="6.85223">
        <ele>2471.4634</ele>
        <time>2015-08-24T14:17:31Z</time>
      </trkpt>
      <trkpt lat="45.32127" lon="6.85223">
        <ele>2471.4634</ele>
        <time>2015-08-24T14:17:36Z</time>
      </trkpt>
      <trkpt lat="45.32139" lon="6.85216">
        <ele>2469.4766</ele>
        <time>2015-08-24T14:17:46Z</time>
      </trkpt>
      <trkpt lat="45.32144" lon="6.85213">
        <ele>2469.4766</ele>
        <time>2015-08-24T14:17:51Z</time>
      </trkpt>
      <trkpt lat="45.32154" lon="6.85209">
        <ele>2467.2524</ele>
        <time>2015-08-24T14:18:01Z</time>
      </trkpt>
      <trkpt lat="45.32158" lon="6.85208">
        <ele>2467.2524</ele>
        <time>2015-08-24T14:18:06Z</time>
      </trkpt>
      <trkpt lat="45.32165" lon="6.85205">
        <ele>2464.9014</ele>
        <time>2015-08-24T14:18:16Z</time>
      </trkpt>
      <trkpt lat="45.32166" lon="6.85198">
        <ele>2464.9014</ele>
        <time>2015-08-24T14:18:21Z</time>
      </trkpt>
      <trkpt lat="45.32171" lon="6.85183">
        <ele>2462.5837</ele>
        <time>2015-08-24T14:18:31Z</time>
      </trkpt>
      <trkpt lat="45.32174" lon="6.85177">
        <ele>2462.5837</ele>
        <time>2015-08-24T14:18:36Z</time>
      </trkpt>
      <trkpt lat="45.32179" lon="6.85164">
        <ele>2460.2603</ele>
        <time>2015-08-24T14:18:46Z</time>
      </trkpt>
      <trkpt lat="45.32181" lon="6.85155">
        <ele>2460.2603</ele>
        <time>2015-08-24T14:18:51Z</time>
      </trkpt>
      <trkpt lat="45.32193" lon="6.85146">
        <ele>2457.9958</ele>
        <time>2015-08-24T14:19:06Z</time>
      </trkpt>
      <trkpt lat="45.32201" lon="6.85145">
        <ele>2457.9958</ele>
        <time>2015-08-24T14:19:11Z</time>
      </trkpt>
      <trkpt lat="45.3221" lon="6.85143">
        <ele>2455.7637</ele>
        <time>2015-08-24T14:19:21Z</time>
      </trkpt>
      <trkpt lat="45.32217" lon="6.85143">
        <ele>2455.7637</ele>
        <time>2015-08-24T14:19:26Z</time>
      </trkpt>
      <trkpt lat="45.32226" lon="6.85144">
        <ele>2453.337</ele>
        <time>2015-08-24T14:19:36Z</time>
      </trkpt>
      <trkpt lat="45.32231" lon="6.85144">
        <ele>2453.337</ele>
        <time>2015-08-24T14:19:41Z</time>
      </trkpt>
      <trkpt lat="45.32238" lon="6.85144">
        <ele>2450.837</ele>
        <time>2015-08-24T14:19:51Z</time>
      </trkpt>
      <trkpt lat="45.32243" lon="6.8514">
        <ele>2450.837</ele>
        <time>2015-08-24T14:19:56Z</time>
      </trkpt>
      <trkpt lat="45.32248" lon="6.85129">
        <ele>2448.3628</ele>
        <time>2015-08-24T14:20:06Z</time>
      </trkpt>
      <trkpt lat="45.32248" lon="6.8512">
        <ele>2448.3628</ele>
        <time>2015-08-24T14:20:11Z</time>
      </trkpt>
      <trkpt lat="45.3225" lon="6.85107">
        <ele>2445.9473</ele>
        <time>2015-08-24T14:20:21Z</time>
      </trkpt>
      <trkpt lat="45.32253" lon="6.85099">
        <ele>2445.9473</ele>
        <time>2015-08-24T14:20:26Z</time>
      </trkpt>
      <trkpt lat="45.32255" lon="6.85083">
        <ele>2443.6067</ele>
        <time>2015-08-24T14:20:36Z</time>
      </trkpt>
      <trkpt lat="45.32254" lon="6.85075">
        <ele>2443.6067</ele>
        <time>2015-08-24T14:20:41Z</time>
      </trkpt>
      <trkpt lat="45.32256" lon="6.85059">
        <ele>2441.4424</ele>
        <time>2015-08-24T14:20:51Z</time>
      </trkpt>
      <trkpt lat="45.32256" lon="6.85052">
        <ele>2441.4424</ele>
        <time>2015-08-24T14:20:56Z</time>
      </trkpt>
      <trkpt lat="45.32257" lon="6.85038">
        <ele>2439.3599</ele>
        <time>2015-08-24T14:21:06Z</time>
      </trkpt>
      <trkpt lat="45.32258" lon="6.85029">
        <ele>2439.3599</ele>
        <time>2015-08-24T14:21:11Z</time>
      </trkpt>
      <trkpt lat="45.32261" lon="6.85016">
        <ele>2437.1558</ele>
        <time>2015-08-24T14:21:21Z</time>
      </trkpt>
      <trkpt lat="45.32265" lon="6.85008">
        <ele>2437.1558</ele>
        <time>2015-08-24T14:21:26Z</time>
      </trkpt>
      <trkpt lat="45.32269" lon="6.84992">
        <ele>2435.06</ele>
        <time>2015-08-24T14:21:36Z</time>
      </trkpt>
      <trkpt lat="45.32272" lon="6.84982">
        <ele>2435.06</ele>
        <time>2015-08-24T14:21:41Z</time>
      </trkpt>
      <trkpt lat="45.32281" lon="6.84974">
        <ele>2432.7524</ele>
        <time>2015-08-24T14:21:56Z</time>
      </trkpt>
      <trkpt lat="45.32287" lon="6.84969">
        <ele>2432.7524</ele>
        <time>2015-08-24T14:22:01Z</time>
      </trkpt>
      <trkpt lat="45.32293" lon="6.84959">
        <ele>2430.6133</ele>
        <time>2015-08-24T14:22:11Z</time>
      </trkpt>
      <trkpt lat="45.32299" lon="6.84952">
        <ele>2430.6133</ele>
        <time>2015-08-24T14:22:16Z</time>
      </trkpt>
      <trkpt lat="45.32306" lon="6.84943">
        <ele>2428.4756</ele>
        <time>2015-08-24T14:22:26Z</time>
      </trkpt>
      <trkpt lat="45.3231" lon="6.84941">
        <ele>2428.4756</ele>
        <time>2015-08-24T14:22:31Z</time>
      </trkpt>
      <trkpt lat="45.32321" lon="6.84927">
        <ele>2426.4302</ele>
        <time>2015-08-24T14:22:41Z</time>
      </trkpt>
      <trkpt lat="45.32323" lon="6.84922">
        <ele>2426.4302</ele>
        <time>2015-08-24T14:22:46Z</time>
      </trkpt>
      <trkpt lat="45.3233" lon="6.84912">
        <ele>2424.4158</ele>
        <time>2015-08-24T14:22:56Z</time>
      </trkpt>
      <trkpt lat="45.32333" lon="6.84908">
        <ele>2424.4158</ele>
        <time>2015-08-24T14:23:01Z</time>
      </trkpt>
      <trkpt lat="45.32339" lon="6.84894">
        <ele>2422.8513</ele>
        <time>2015-08-24T14:23:11Z</time>
      </trkpt>
      <trkpt lat="45.32346" lon="6.84891">
        <ele>2422.8513</ele>
        <time>2015-08-24T14:23:16Z</time>
      </trkpt>
      <trkpt lat="45.32357" lon="6.84894">
        <ele>2421.187</ele>
        <time>2015-08-24T14:23:26Z</time>
      </trkpt>
      <trkpt lat="45.32363" lon="6.84896">
        <ele>2421.187</ele>
        <time>2015-08-24T14:23:31Z</time>
      </trkpt>
      <trkpt lat="45.32373" lon="6.84893">
        <ele>2419.6912</ele>
        <time>2015-08-24T14:23:41Z</time>
      </trkpt>
      <trkpt lat="45.32377" lon="6.84889">
        <ele>2419.6912</ele>
        <time>2015-08-24T14:23:46Z</time>
      </trkpt>
      <trkpt lat="45.32387" lon="6.84877">
        <ele>2418.3242</ele>
        <time>2015-08-24T14:23:56Z</time>
      </trkpt>
      <trkpt lat="45.32389" lon="6.8487">
        <ele>2418.3242</ele>
        <time>2015-08-24T14:24:01Z</time>
      </trkpt>
      <trkpt lat="45.32392" lon="6.84857">
        <ele>2417.0776</ele>
        <time>2015-08-24T14:24:11Z</time>
      </trkpt>
      <trkpt lat="45.32394" lon="6.84854">
        <ele>2417.0776</ele>
        <time>2015-08-24T14:24:16Z</time>
      </trkpt>
      <trkpt lat="45.32405" lon="6.84838">
        <ele>2416.1157</ele>
        <time>2015-08-24T14:24:31Z</time>
      </trkpt>
      <trkpt lat="45.32412" lon="6.84834">
        <ele>2416.1157</ele>
        <time>2015-08-24T14:24:36Z</time>
      </trkpt>
      <trkpt lat="45.32422" lon="6.84824">
        <ele>2415.0852</ele>
        <time>2015-08-24T14:24:46Z</time>
      </trkpt>
      <trkpt lat="45.32428" lon="6.8482">
        <ele>2415.0852</ele>
        <time>2015-08-24T14:24:51Z</time>
      </trkpt>
      <trkpt lat="45.32434" lon="6.84815">
        <ele>2413.9192</ele>
        <time>2015-08-24T14:25:01Z</time>
      </trkpt>
      <trkpt lat="45.32439" lon="6.84805">
        <ele>2413.9192</ele>
        <time>2015-08-24T14:25:06Z</time>
      </trkpt>
      <trkpt lat="45.32449" lon="6.84803">
        <ele>2412.728</ele>
        <time>2015-08-24T14:25:16Z</time>
      </trkpt>
      <trkpt lat="45.32454" lon="6.84797">
        <ele>2412.728</ele>
        <time>2015-08-24T14:25:21Z</time>
      </trkpt>
      <trkpt lat="45.32462" lon="6.84784">
        <ele>2411.4412</ele>
        <time>2015-08-24T14:25:31Z</time>
      </trkpt>
      <trkpt lat="45.32466" lon="6.84779">
        <ele>2411.4412</ele>
        <time>2015-08-24T14:25:36Z</time>
      </trkpt>
      <trkpt lat="45.32473" lon="6.84767">
        <ele>2409.9214</ele>
        <time>2015-08-24T14:25:46Z</time>
      </trkpt>
      <trkpt lat="45.32478" lon="6.84763">
        <ele>2409.9214</ele>
        <time>2015-08-24T14:25:51Z</time>
      </trkpt>
      <trkpt lat="45.32489" lon="6.84745">
        <ele>2408.3164</ele>
        <time>2015-08-24T14:26:06Z</time>
      </trkpt>
      <trkpt lat="45.3249" lon="6.84739">
        <ele>2408.3164</ele>
        <time>2015-08-24T14:26:11Z</time>
      </trkpt>
      <trkpt lat="45.32495" lon="6.84722">
        <ele>2406.604</ele>
        <time>2015-08-24T14:26:21Z</time>
      </trkpt>
      <trkpt lat="45.32496" lon="6.84718">
        <ele>2406.604</ele>
        <time>2015-08-24T14:26:26Z</time>
      </trkpt>
      <trkpt lat="45.32498" lon="6.84705">
        <ele>2404.966</ele>
        <time>2015-08-24T14:26:36Z</time>
      </trkpt>
      <trkpt lat="45.32499" lon="6.84701">
        <ele>2404.966</ele>
        <time>2015-08-24T14:26:41Z</time>
      </trkpt>
      <trkpt lat="45.32502" lon="6.84683">
        <ele>2403.383</ele>
        <time>2015-08-24T14:26:51Z</time>
      </trkpt>
      <trkpt lat="45.32502" lon="6.84675">
        <ele>2403.383</ele>
        <time>2015-08-24T14:26:56Z</time>
      </trkpt>
      <trkpt lat="45.32505" lon="6.84665">
        <ele>2401.6787</ele>
        <time>2015-08-24T14:27:06Z</time>
      </trkpt>
      <trkpt lat="45.32506" lon="6.84661">
        <ele>2401.6787</ele>
        <time>2015-08-24T14:27:11Z</time>
      </trkpt>
      <trkpt lat="45.32512" lon="6.8464">
        <ele>2399.7905</ele>
        <time>2015-08-24T14:27:21Z</time>
      </trkpt>
      <trkpt lat="45.32514" lon="6.84635">
        <ele>2399.7905</ele>
        <time>2015-08-24T14:27:26Z</time>
      </trkpt>
      <trkpt lat="45.32517" lon="6.84621">
        <ele>2397.632</ele>
        <time>2015-08-24T14:27:36Z</time>
      </trkpt>
      <trkpt lat="45.32518" lon="6.84615">
        <ele>2397.632</ele>
        <time>2015-08-24T14:27:41Z</time>
      </trkpt>
      <trkpt lat="45.32525" lon="6.84593">
        <ele>2395.4702</ele>
        <time>2015-08-24T14:27:56Z</time>
      </trkpt>
      <trkpt lat="45.32528" lon="6.84584">
        <ele>2395.4702</ele>
        <time>2015-08-24T14:28:01Z</time>
      </trkpt>
      <trkpt lat="45.32534" lon="6.84574">
        <ele>2393.2925</ele>
        <time>2015-08-24T14:28:11Z</time>
      </trkpt>
      <trkpt lat="45.32538" lon="6.84566">
        <ele>2393.2925</ele>
        <time>2015-08-24T14:28:16Z</time>
      </trkpt>
      <trkpt lat="45.32545" lon="6.84553">
        <ele>2391.073</ele>
        <time>2015-08-24T14:28:26Z</time>
      </trkpt>
      <trkpt lat="45.32548" lon="6.84546">
        <ele>2391.073</ele>
        <time>2015-08-24T14:28:31Z</time>
      </trkpt>
      <trkpt lat="45.3255" lon="6.84531">
        <ele>2388.932</ele>
        <time>2015-08-24T14:28:41Z</time>
      </trkpt>
      <trkpt lat="45.32554" lon="6.84522">
        <ele>2388.932</ele>
        <time>2015-08-24T14:28:46Z</time>
      </trkpt>
      <trkpt lat="45.32557" lon="6.84507">
        <ele>2386.7786</ele>
        <time>2015-08-24T14:28:56Z</time>
      </trkpt>
      <trkpt lat="45.32559" lon="6.84502">
        <ele>2386.7786</ele>
        <time>2015-08-24T14:29:01Z</time>
      </trkpt>
      <trkpt lat="45.3257" lon="6.84487">
        <ele>2384.8025</ele>
        <time>2015-08-24T14:29:16Z</time>
      </trkpt>
      <trkpt lat="45.32574" lon="6.84484">
        <ele>2384.8025</ele>
        <time>2015-08-24T14:29:21Z</time>
      </trkpt>
      <trkpt lat="45.32583" lon="6.84473">
        <ele>2382.9487</ele>
        <time>2015-08-24T14:29:31Z</time>
      </trkpt>
      <trkpt lat="45.32588" lon="6.84469">
        <ele>2382.9487</ele>
        <time>2015-08-24T14:29:36Z</time>
      </trkpt>
      <trkpt lat="45.32598" lon="6.84457">
        <ele>2381.1223</ele>
        <time>2015-08-24T14:29:46Z</time>
      </trkpt>
      <trkpt lat="45.32602" lon="6.84455">
        <ele>2381.1223</ele>
        <time>2015-08-24T14:29:51Z</time>
      </trkpt>
      <trkpt lat="45.32613" lon="6.84442">
        <ele>2379.2207</ele>
        <time>2015-08-24T14:30:01Z</time>
      </trkpt>
      <trkpt lat="45.32619" lon="6.84434">
        <ele>2379.2207</ele>
        <time>2015-08-24T14:30:06Z</time>
      </trkpt>
      <trkpt lat="45.32623" lon="6.84425">
        <ele>2377.4658</ele>
        <time>2015-08-24T14:30:16Z</time>
      </trkpt>
      <trkpt lat="45.32627" lon="6.84418">
        <ele>2377.4658</ele>
        <time>2015-08-24T14:30:21Z</time>
      </trkpt>
      <trkpt lat="45.32637" lon="6.84404">
        <ele>2375.617</ele>
        <time>2015-08-24T14:30:31Z</time>
      </trkpt>
      <trkpt lat="45.32641" lon="6.84399">
        <ele>2375.617</ele>
        <time>2015-08-24T14:30:36Z</time>
      </trkpt>
      <trkpt lat="45.32649" lon="6.84391">
        <ele>2373.7676</ele>
        <time>2015-08-24T14:30:46Z</time>
      </trkpt>
      <trkpt lat="45.32653" lon="6.84385">
        <ele>2373.7676</ele>
        <time>2015-08-24T14:30:51Z</time>
      </trkpt>
      <trkpt lat="45.32664" lon="6.84379">
        <ele>2372.0623</ele>
        <time>2015-08-24T14:31:01Z</time>
      </trkpt>
      <trkpt lat="45.32667" lon="6.84378">
        <ele>2372.0623</ele>
        <time>2015-08-24T14:31:06Z</time>
      </trkpt>
      <trkpt lat="45.3268" lon="6.84361">
        <ele>2370.5908</ele>
        <time>2015-08-24T14:31:21Z</time>
      </trkpt>
      <trkpt lat="45.32685" lon="6.84354">
        <ele>2370.5908</ele>
        <time>2015-08-24T14:31:26Z</time>
      </trkpt>
      <trkpt lat="45.32695" lon="6.84351">
        <ele>2369.4219</ele>
        <time>2015-08-24T14:31:36Z</time>
      </trkpt>
      <trkpt lat="45.327" lon="6.84347">
        <ele>2369.4219</ele>
        <time>2015-08-24T14:31:41Z</time>
      </trkpt>
      <trkpt lat="45.32709" lon="6.84345">
        <ele>2368.5315</ele>
        <time>2015-08-24T14:31:51Z</time>
      </trkpt>
      <trkpt lat="45.32711" lon="6.8434">
        <ele>2368.5315</ele>
        <time>2015-08-24T14:31:56Z</time>
      </trkpt>
      <trkpt lat="45.32716" lon="6.84323">
        <ele>2367.954</ele>
        <time>2015-08-24T14:32:06Z</time>
      </trkpt>
      <trkpt lat="45.32718" lon="6.84314">
        <ele>2367.954</ele>
        <time>2015-08-24T14:32:11Z</time>
      </trkpt>
      <trkpt lat="45.32721" lon="6.84299">
        <ele>2367.5195</ele>
        <time>2015-08-24T14:32:21Z</time>
      </trkpt>
      <trkpt lat="45.32721" lon="6.84295">
        <ele>2367.5195</ele>
        <time>2015-08-24T14:32:26Z</time>
      </trkpt>
      <trkpt lat="45.32718" lon="6.8428">
        <ele>2367.141</ele>
        <time>2015-08-24T14:32:36Z</time>
      </trkpt>
      <trkpt lat="45.32717" lon="6.8427">
        <ele>2367.141</ele>
        <time>2015-08-24T14:32:41Z</time>
      </trkpt>
      <trkpt lat="45.32717" lon="6.84254">
        <ele>2366.998</ele>
        <time>2015-08-24T14:32:51Z</time>
      </trkpt>
      <trkpt lat="45.32717" lon="6.84248">
        <ele>2366.998</ele>
        <time>2015-08-24T14:32:56Z</time>
      </trkpt>
      <trkpt lat="45.32715" lon="6.84231">
        <ele>2366.9678</ele>
        <time>2015-08-24T14:33:06Z</time>
      </trkpt>
      <trkpt lat="45.32713" lon="6.84225">
        <ele>2366.9678</ele>
        <time>2015-08-24T14:33:11Z</time>
      </trkpt>
      <trkpt lat="45.32711" lon="6.84211">
        <ele>2366.9792</ele>
        <time>2015-08-24T14:33:21Z</time>
      </trkpt>
      <trkpt lat="45.32709" lon="6.84204">
        <ele>2366.9792</ele>
        <time>2015-08-24T14:33:26Z</time>
      </trkpt>
      <trkpt lat="45.32703" lon="6.84193">
        <ele>2367.082</ele>
        <time>2015-08-24T14:33:36Z</time>
      </trkpt>
      <trkpt lat="45.32698" lon="6.84188">
        <ele>2367.082</ele>
        <time>2015-08-24T14:33:41Z</time>
      </trkpt>
      <trkpt lat="45.32688" lon="6.84169">
        <ele>2367.3076</ele>
        <time>2015-08-24T14:33:56Z</time>
      </trkpt>
      <trkpt lat="45.32688" lon="6.84161">
        <ele>2367.3076</ele>
        <time>2015-08-24T14:34:01Z</time>
      </trkpt>
      <trkpt lat="45.32689" lon="6.84145">
        <ele>2367.3677</ele>
        <time>2015-08-24T14:34:11Z</time>
      </trkpt>
      <trkpt lat="45.32689" lon="6.84137">
        <ele>2367.3677</ele>
        <time>2015-08-24T14:34:16Z</time>
      </trkpt>
      <trkpt lat="45.32689" lon="6.84123">
        <ele>2367.3413</ele>
        <time>2015-08-24T14:34:26Z</time>
      </trkpt>
      <trkpt lat="45.32689" lon="6.84114">
        <ele>2367.3413</ele>
        <time>2015-08-24T14:34:31Z</time>
      </trkpt>
      <trkpt lat="45.32689" lon="6.84101">
        <ele>2367.288</ele>
        <time>2015-08-24T14:34:41Z</time>
      </trkpt>
      <trkpt lat="45.32689" lon="6.84092">
        <ele>2367.288</ele>
        <time>2015-08-24T14:34:46Z</time>
      </trkpt>
      <trkpt lat="45.32688" lon="6.84078">
        <ele>2367.2488</ele>
        <time>2015-08-24T14:34:56Z</time>
      </trkpt>
      <trkpt lat="45.32687" lon="6.84068">
        <ele>2367.2488</ele>
        <time>2015-08-24T14:35:01Z</time>
      </trkpt>
      <trkpt lat="45.32687" lon="6.84053">
        <ele>2367.218</ele>
        <time>2015-08-24T14:35:11Z</time>
      </trkpt>
      <trkpt lat="45.32686" lon="6.84044">
        <ele>2367.218</ele>
        <time>2015-08-24T14:35:16Z</time>
      </trkpt>
      <trkpt lat="45.32685" lon="6.8403">
        <ele>2367.2773</ele>
        <time>2015-08-24T14:35:26Z</time>
      </trkpt>
      <trkpt lat="45.32686" lon="6.84025">
        <ele>2367.2773</ele>
        <time>2015-08-24T14:35:31Z</time>
      </trkpt>
      <trkpt lat="45.32684" lon="6.8401">
        <ele>2367.3582</ele>
        <time>2015-08-24T14:35:41Z</time>
      </trkpt>
      <trkpt lat="45.32683" lon="6.84003">
        <ele>2367.3582</ele>
        <time>2015-08-24T14:35:46Z</time>
      </trkpt>
      <trkpt lat="45.32682" lon="6.83987">
        <ele>2367.4976</ele>
        <time>2015-08-24T14:35:56Z</time>
      </trkpt>
      <trkpt lat="45.32683" lon="6.83982">
        <ele>2367.4976</ele>
        <time>2015-08-24T14:36:01Z</time>
      </trkpt>
      <trkpt lat="45.32689" lon="6.83968">
        <ele>2367.5715</ele>
        <time>2015-08-24T14:36:11Z</time>
      </trkpt>
      <trkpt lat="45.32694" lon="6.83961">
        <ele>2367.5715</ele>
        <time>2015-08-24T14:36:16Z</time>
      </trkpt>
      <trkpt lat="45.327" lon="6.83949">
        <ele>2367.6963</ele>
        <time>2015-08-24T14:36:26Z</time>
      </trkpt>
      <trkpt lat="45.32701" lon="6.83941">
        <ele>2367.6963</ele>
        <time>2015-08-24T14:36:31Z</time>
      </trkpt>
      <trkpt lat="45.32691" lon="6.83926">
        <ele>2367.8782</ele>
        <time>2015-08-24T14:36:46Z</time>
      </trkpt>
      <trkpt lat="45.32683" lon="6.83923">
        <ele>2367.8782</ele>
        <time>2015-08-24T14:36:51Z</time>
      </trkpt>
      <trkpt lat="45.32674" lon="6.83919">
        <ele>2368.008</ele>
        <time>2015-08-24T14:37:01Z</time>
      </trkpt>
      <trkpt lat="45.3267" lon="6.83914">
        <ele>2368.008</ele>
        <time>2015-08-24T14:37:06Z</time>
      </trkpt>
      <trkpt lat="45.32669" lon="6.83899">
        <ele>2368.1003</ele>
        <time>2015-08-24T14:37:16Z</time>
      </trkpt>
      <trkpt lat="45.32668" lon="6.83893">
        <ele>2368.1003</ele>
        <time>2015-08-24T14:37:21Z</time>
      </trkpt>
      <trkpt lat="45.32666" lon="6.8388">
        <ele>2368.053</ele>
        <time>2015-08-24T14:37:31Z</time>
      </trkpt>
      <trkpt lat="45.32664" lon="6.83875">
        <ele>2368.053</ele>
        <time>2015-08-24T14:37:36Z</time>
      </trkpt>
      <trkpt lat="45.3266" lon="6.83865">
        <ele>2368.1042</ele>
        <time>2015-08-24T14:37:46Z</time>
      </trkpt>
      <trkpt lat="45.32658" lon="6.83858">
        <ele>2368.1042</ele>
        <time>2015-08-24T14:37:51Z</time>
      </trkpt>
      <trkpt lat="45.32655" lon="6.83842">
        <ele>2368.1567</ele>
        <time>2015-08-24T14:38:01Z</time>
      </trkpt>
      <trkpt lat="45.32655" lon="6.83836">
        <ele>2368.1567</ele>
        <time>2015-08-24T14:38:06Z</time>
      </trkpt>
      <trkpt lat="45.32656" lon="6.83824">
        <ele>2368.15</ele>
        <time>2015-08-24T14:38:16Z</time>
      </trkpt>
      <trkpt lat="45.32655" lon="6.83815">
        <ele>2368.15</ele>
        <time>2015-08-24T14:38:21Z</time>
      </trkpt>
      <trkpt lat="45.32652" lon="6.83792">
        <ele>2368.114</ele>
        <time>2015-08-24T14:38:36Z</time>
      </trkpt>
      <trkpt lat="45.3265" lon="6.83787">
        <ele>2368.114</ele>
        <time>2015-08-24T14:38:41Z</time>
      </trkpt>
      <trkpt lat="45.32649" lon="6.83773">
        <ele>2368.1924</ele>
        <time>2015-08-24T14:38:51Z</time>
      </trkpt>
      <trkpt lat="45.32648" lon="6.83766">
        <ele>2368.1924</ele>
        <time>2015-08-24T14:38:56Z</time>
      </trkpt>
      <trkpt lat="45.3265" lon="6.83749">
        <ele>2368.2158</ele>
        <time>2015-08-24T14:39:06Z</time>
      </trkpt>
      <trkpt lat="45.3265" lon="6.83739">
        <ele>2368.2158</ele>
        <time>2015-08-24T14:39:11Z</time>
      </trkpt>
      <trkpt lat="45.32652" lon="6.83724">
        <ele>2368.3008</ele>
        <time>2015-08-24T14:39:21Z</time>
      </trkpt>
      <trkpt lat="45.32655" lon="6.83718">
        <ele>2368.3008</ele>
        <time>2015-08-24T14:39:26Z</time>
      </trkpt>
      <trkpt lat="45.32663" lon="6.83706">
        <ele>2368.426</ele>
        <time>2015-08-24T14:39:36Z</time>
      </trkpt>
      <trkpt lat="45.32664" lon="6.83701">
        <ele>2368.426</ele>
        <time>2015-08-24T14:39:41Z</time>
      </trkpt>
      <trkpt lat="45.32671" lon="6.83688">
        <ele>2368.5857</ele>
        <time>2015-08-24T14:39:51Z</time>
      </trkpt>
      <trkpt lat="45.32673" lon="6.83682">
        <ele>2368.5857</ele>
        <time>2015-08-24T14:39:56Z</time>
      </trkpt>
      <trkpt lat="45.3268" lon="6.8367">
        <ele>2368.9912</ele>
        <time>2015-08-24T14:40:06Z</time>
      </trkpt>
      <trkpt lat="45.32682" lon="6.83666">
        <ele>2368.9912</ele>
        <time>2015-08-24T14:40:11Z</time>
      </trkpt>
      <trkpt lat="45.32687" lon="6.83656">
        <ele>2369.5493</ele>
        <time>2015-08-24T14:40:21Z</time>
      </trkpt>
      <trkpt lat="45.32691" lon="6.83651">
        <ele>2369.5493</ele>
        <time>2015-08-24T14:40:26Z</time>
      </trkpt>
      <trkpt lat="45.32697" lon="6.83641">
        <ele>2370.2454</ele>
        <time>2015-08-24T14:40:36Z</time>
      </trkpt>
      <trkpt lat="45.32701" lon="6.83635">
        <ele>2370.2454</ele>
        <time>2015-08-24T14:40:41Z</time>
      </trkpt>
      <trkpt lat="45.32708" lon="6.83625">
        <ele>2371.0942</ele>
        <time>2015-08-24T14:40:51Z</time>
      </trkpt>
      <trkpt lat="45.32712" lon="6.83619">
        <ele>2371.0942</ele>
        <time>2015-08-24T14:40:56Z</time>
      </trkpt>
      <trkpt lat="45.32717" lon="6.83604">
        <ele>2371.9802</ele>
        <time>2015-08-24T14:41:06Z</time>
      </trkpt>
      <trkpt lat="45.32718" lon="6.83598">
        <ele>2371.9802</ele>
        <time>2015-08-24T14:41:11Z</time>
      </trkpt>
      <trkpt lat="45.32724" lon="6.83587">
        <ele>2372.6226</ele>
        <time>2015-08-24T14:41:21Z</time>
      </trkpt>
      <trkpt lat="45.32728" lon="6.83581">
        <ele>2372.6226</ele>
        <time>2015-08-24T14:41:26Z</time>
      </trkpt>
      <trkpt lat="45.32734" lon="6.83565">
        <ele>2372.791</ele>
        <time>2015-08-24T14:41:36Z</time>
      </trkpt>
      <trkpt lat="45.32736" lon="6.83556">
        <ele>2372.791</ele>
        <time>2015-08-24T14:41:41Z</time>
      </trkpt>
      <trkpt lat="45.32738" lon="6.83547">
        <ele>2372.49</ele>
        <time>2015-08-24T14:41:51Z</time>
      </trkpt>
      <trkpt lat="45.32742" lon="6.83539">
        <ele>2372.49</ele>
        <time>2015-08-24T14:41:56Z</time>
      </trkpt>
      <trkpt lat="45.32745" lon="6.83527">
        <ele>2372.0564</ele>
        <time>2015-08-24T14:42:06Z</time>
      </trkpt>
      <trkpt lat="45.32746" lon="6.83523">
        <ele>2372.0564</ele>
        <time>2015-08-24T14:42:11Z</time>
      </trkpt>
      <trkpt lat="45.32753" lon="6.83508">
        <ele>2371.4282</ele>
        <time>2015-08-24T14:42:26Z</time>
      </trkpt>
      <trkpt lat="45.32757" lon="6.835">
        <ele>2371.4282</ele>
        <time>2015-08-24T14:42:31Z</time>
      </trkpt>
      <trkpt lat="45.32763" lon="6.83489">
        <ele>2370.5771</ele>
        <time>2015-08-24T14:42:41Z</time>
      </trkpt>
      <trkpt lat="45.32767" lon="6.8348">
        <ele>2370.5771</ele>
        <time>2015-08-24T14:42:46Z</time>
      </trkpt>
      <trkpt lat="45.32775" lon="6.83468">
        <ele>2369.3772</ele>
        <time>2015-08-24T14:42:56Z</time>
      </trkpt>
      <trkpt lat="45.32777" lon="6.83466">
        <ele>2369.3772</ele>
        <time>2015-08-24T14:43:01Z</time>
      </trkpt>
      <trkpt lat="45.3278" lon="6.83454">
        <ele>2368.0874</ele>
        <time>2015-08-24T14:43:11Z</time>
      </trkpt>
      <trkpt lat="45.32783" lon="6.83447">
        <ele>2368.0874</ele>
        <time>2015-08-24T14:43:16Z</time>
      </trkpt>
      <trkpt lat="45.32792" lon="6.83433">
        <ele>2366.5442</ele>
        <time>2015-08-24T14:43:26Z</time>
      </trkpt>
      <trkpt lat="45.32793" lon="6.83427">
        <ele>2366.5442</ele>
        <time>2015-08-24T14:43:31Z</time>
      </trkpt>
      <trkpt lat="45.32799" lon="6.83415">
        <ele>2364.669</ele>
        <time>2015-08-24T14:43:41Z</time>
      </trkpt>
      <trkpt lat="45.32802" lon="6.83409">
        <ele>2364.669</ele>
        <time>2015-08-24T14:43:46Z</time>
      </trkpt>
      <trkpt lat="45.32811" lon="6.83394">
        <ele>2362.5776</ele>
        <time>2015-08-24T14:43:56Z</time>
      </trkpt>
      <trkpt lat="45.32818" lon="6.83389">
        <ele>2362.5776</ele>
        <time>2015-08-24T14:44:01Z</time>
      </trkpt>
      <trkpt lat="45.32832" lon="6.83386">
        <ele>2360.2048</ele>
        <time>2015-08-24T14:44:16Z</time>
      </trkpt>
      <trkpt lat="45.32837" lon="6.83384">
        <ele>2360.2048</ele>
        <time>2015-08-24T14:44:21Z</time>
      </trkpt>
      <trkpt lat="45.32847" lon="6.83381">
        <ele>2357.635</ele>
        <time>2015-08-24T14:44:31Z</time>
      </trkpt>
      <trkpt lat="45.32854" lon="6.83375">
        <ele>2357.635</ele>
        <time>2015-08-24T14:44:36Z</time>
      </trkpt>
      <trkpt lat="45.32864" lon="6.83368">
        <ele>2354.9612</ele>
        <time>2015-08-24T14:44:46Z</time>
      </trkpt>
      <trkpt lat="45.32868" lon="6.83367">
        <ele>2354.9612</ele>
        <time>2015-08-24T14:44:51Z</time>
      </trkpt>
      <trkpt lat="45.32878" lon="6.83359">
        <ele>2352.3713</ele>
        <time>2015-08-24T14:45:01Z</time>
      </trkpt>
      <trkpt lat="45.32884" lon="6.83354">
        <ele>2352.3713</ele>
        <time>2015-08-24T14:45:06Z</time>
      </trkpt>
      <trkpt lat="45.32895" lon="6.83346">
        <ele>2349.9229</ele>
        <time>2015-08-24T14:45:16Z</time>
      </trkpt>
      <trkpt lat="45.32897" lon="6.83346">
        <ele>2349.9229</ele>
        <time>2015-08-24T14:45:21Z</time>
      </trkpt>
      <trkpt lat="45.32907" lon="6.83336">
        <ele>2347.5547</ele>
        <time>2015-08-24T14:45:31Z</time>
      </trkpt>
      <trkpt lat="45.32911" lon="6.83332">
        <ele>2347.5547</ele>
        <time>2015-08-24T14:45:36Z</time>
      </trkpt>
      <trkpt lat="45.32926" lon="6.83321">
        <ele>2345.0356</ele>
        <time>2015-08-24T14:45:51Z</time>
      </trkpt>
      <trkpt lat="45.32932" lon="6.83317">
        <ele>2345.0356</ele>
        <time>2015-08-24T14:45:56Z</time>
      </trkpt>
      <trkpt lat="45.32939" lon="6.83301">
        <ele>2342.5562</ele>
        <time>2015-08-24T14:46:06Z</time>
      </trkpt>
      <trkpt lat="45.32941" lon="6.83294">
        <ele>2342.5562</ele>
        <time>2015-08-24T14:46:11Z</time>
      </trkpt>
      <trkpt lat="45.32939" lon="6.83284">
        <ele>2340.2493</ele>
        <time>2015-08-24T14:46:21Z</time>
      </trkpt>
      <trkpt lat="45.32938" lon="6.83275">
        <ele>2340.2493</ele>
        <time>2015-08-24T14:46:26Z</time>
      </trkpt>
      <trkpt lat="45.3294" lon="6.83255">
        <ele>2338.28</ele>
        <time>2015-08-24T14:46:36Z</time>
      </trkpt>
      <trkpt lat="45.32939" lon="6.83251">
        <ele>2338.28</ele>
        <time>2015-08-24T14:46:41Z</time>
      </trkpt>
      <trkpt lat="45.32935" lon="6.83236">
        <ele>2336.47</ele>
        <time>2015-08-24T14:46:51Z</time>
      </trkpt>
      <trkpt lat="45.32933" lon="6.83227">
        <ele>2336.47</ele>
        <time>2015-08-24T14:46:56Z</time>
      </trkpt>
      <trkpt lat="45.32932" lon="6.83213">
        <ele>2334.8398</ele>
        <time>2015-08-24T14:47:06Z</time>
      </trkpt>
      <trkpt lat="45.32933" lon="6.83203">
        <ele>2334.8398</ele>
        <time>2015-08-24T14:47:11Z</time>
      </trkpt>
      <trkpt lat="45.32944" lon="6.83199">
        <ele>2333.1199</ele>
        <time>2015-08-24T14:47:21Z</time>
      </trkpt>
      <trkpt lat="45.32949" lon="6.832">
        <ele>2333.1199</ele>
        <time>2015-08-24T14:47:26Z</time>
      </trkpt>
      <trkpt lat="45.32964" lon="6.83193">
        <ele>2331.4211</ele>
        <time>2015-08-24T14:47:36Z</time>
      </trkpt>
      <trkpt lat="45.32967" lon="6.83188">
        <ele>2331.4211</ele>
        <time>2015-08-24T14:47:41Z</time>
      </trkpt>
      <trkpt lat="45.32967" lon="6.83171">
        <ele>2329.8748</ele>
        <time>2015-08-24T14:47:51Z</time>
      </trkpt>
      <trkpt lat="45.32966" lon="6.83163">
        <ele>2329.8748</ele>
        <time>2015-08-24T14:47:56Z</time>
      </trkpt>
      <trkpt lat="45.32964" lon="6.8314">
        <ele>2328.054</ele>
        <time>2015-08-24T14:48:11Z</time>
      </trkpt>
      <trkpt lat="45.32964" lon="6.8313">
        <ele>2328.054</ele>
        <time>2015-08-24T14:48:16Z</time>
      </trkpt>
      <trkpt lat="45.32965" lon="6.83114">
        <ele>2326.112</ele>
        <time>2015-08-24T14:48:26Z</time>
      </trkpt>
      <trkpt lat="45.32965" lon="6.83108">
        <ele>2326.112</ele>
        <time>2015-08-24T14:48:31Z</time>
      </trkpt>
      <trkpt lat="45.32968" lon="6.83094">
        <ele>2324.2048</ele>
        <time>2015-08-24T14:48:41Z</time>
      </trkpt>
      <trkpt lat="45.32968" lon="6.83088">
        <ele>2324.2048</ele>
        <time>2015-08-24T14:48:46Z</time>
      </trkpt>
      <trkpt lat="45.32972" lon="6.83075">
        <ele>2322.031</ele>
        <time>2015-08-24T14:48:56Z</time>
      </trkpt>
      <trkpt lat="45.32973" lon="6.83066">
        <ele>2322.031</ele>
        <time>2015-08-24T14:49:01Z</time>
      </trkpt>
      <trkpt lat="45.32974" lon="6.8305">
        <ele>2319.6853</ele>
        <time>2015-08-24T14:49:11Z</time>
      </trkpt>
      <trkpt lat="45.32974" lon="6.83042">
        <ele>2319.6853</ele>
        <time>2015-08-24T14:49:16Z</time>
      </trkpt>
      <trkpt lat="45.32972" lon="6.83026">
        <ele>2317.574</ele>
        <time>2015-08-24T14:49:26Z</time>
      </trkpt>
      <trkpt lat="45.32971" lon="6.83017">
        <ele>2317.574</ele>
        <time>2015-08-24T14:49:31Z</time>
      </trkpt>
      <trkpt lat="45.32968" lon="6.83003">
        <ele>2315.6396</ele>
        <time>2015-08-24T14:49:41Z</time>
      </trkpt>
      <trkpt lat="45.32967" lon="6.82997">
        <ele>2315.6396</ele>
        <time>2015-08-24T14:49:46Z</time>
      </trkpt>
      <trkpt lat="45.32965" lon="6.82982">
        <ele>2314.0308</ele>
        <time>2015-08-24T14:49:56Z</time>
      </trkpt>
      <trkpt lat="45.32965" lon="6.82973">
        <ele>2314.0308</ele>
        <time>2015-08-24T14:50:01Z</time>
      </trkpt>
      <trkpt lat="45.32965" lon="6.82965">
        <ele>2312.5664</ele>
        <time>2015-08-24T14:50:11Z</time>
      </trkpt>
      <trkpt lat="45.32963" lon="6.82954">
        <ele>2312.5664</ele>
        <time>2015-08-24T14:50:16Z</time>
      </trkpt>
      <trkpt lat="45.32962" lon="6.82931">
        <ele>2311.3525</ele>
        <time>2015-08-24T14:50:31Z</time>
      </trkpt>
      <trkpt lat="45.32963" lon="6.82921">
        <ele>2311.3525</ele>
        <time>2015-08-24T14:50:36Z</time>
      </trkpt>
      <trkpt lat="45.32964" lon="6.8292">
        <ele>2311.3525</ele>
        <time>2015-08-24T14:50:46Z</time>
      </trkpt>
      <trkpt lat="45.32964" lon="6.8292">
        <ele>2310.5725</ele>
        <time>2015-08-24T14:52:01Z</time>
      </trkpt>
      <trkpt lat="45.32964" lon="6.82921">
        <ele>2310.5725</ele>
        <time>2015-08-24T14:52:06Z</time>
      </trkpt>
      <trkpt lat="45.32965" lon="6.82922">
        <ele>2310.5725</ele>
        <time>2015-08-24T14:52:16Z</time>
      </trkpt>
      <trkpt lat="45.32965" lon="6.82922">
        <ele>2310.5725</ele>
        <time>2015-08-24T14:52:21Z</time>
      </trkpt>
      <trkpt lat="45.32964" lon="6.82922">
        <ele>2310.5725</ele>
        <time>2015-08-24T14:52:31Z</time>
      </trkpt>
      <trkpt lat="45.32963" lon="6.82922">
        <ele>2310.5725</ele>
        <time>2015-08-24T14:52:36Z</time>
      </trkpt>
      <trkpt lat="45.32963" lon="6.82922">
        <ele>2310.5725</ele>
        <time>2015-08-24T14:52:41Z</time>
      </trkpt>
      <trkpt lat="45.32968" lon="6.82926">
        <ele>2310.5725</ele>
        <time>2015-08-24T14:54:01Z</time>
      </trkpt>
      <trkpt lat="45.32972" lon="6.82928">
        <ele>2309.4731</ele>
        <time>2015-08-24T14:54:11Z</time>
      </trkpt>
      <trkpt lat="45.32978" lon="6.82931">
        <ele>2309.4731</ele>
        <time>2015-08-24T14:54:16Z</time>
      </trkpt>
      <trkpt lat="45.32986" lon="6.82937">
        <ele>2308.3948</ele>
        <time>2015-08-24T14:54:26Z</time>
      </trkpt>
      <trkpt lat="45.32991" lon="6.8294">
        <ele>2308.3948</ele>
        <time>2015-08-24T14:54:31Z</time>
      </trkpt>
      <trkpt lat="45.33007" lon="6.82945">
        <ele>2307.0903</ele>
        <time>2015-08-24T14:54:46Z</time>
      </trkpt>
      <trkpt lat="45.33009" lon="6.82944">
        <ele>2307.0903</ele>
        <time>2015-08-24T14:54:51Z</time>
      </trkpt>
      <trkpt lat="45.33013" lon="6.82942">
        <ele>2307.0903</ele>
        <time>2015-08-24T14:55:01Z</time>
      </trkpt>
      <trkpt lat="45.33013" lon="6.82943">
        <ele>2307.0903</ele>
        <time>2015-08-24T14:55:06Z</time>
      </trkpt>
      <trkpt lat="45.33014" lon="6.82941">
        <ele>2307.0903</ele>
        <time>2015-08-24T14:55:16Z</time>
      </trkpt>
      <trkpt lat="45.33016" lon="6.8294">
        <ele>2306.6575</ele>
        <time>2015-08-24T14:55:21Z</time>
      </trkpt>
      <trkpt lat="45.33022" lon="6.8294">
        <ele>2306.6575</ele>
        <time>2015-08-24T14:55:31Z</time>
      </trkpt>
      <trkpt lat="45.33025" lon="6.8294">
        <ele>2306.6575</ele>
        <time>2015-08-24T14:55:36Z</time>
      </trkpt>
      <trkpt lat="45.33033" lon="6.82936">
        <ele>2307.2026</ele>
        <time>2015-08-24T14:55:46Z</time>
      </trkpt>
      <trkpt lat="45.33033" lon="6.82937">
        <ele>2307.2026</ele>
        <time>2015-08-24T14:55:51Z</time>
      </trkpt>
      <trkpt lat="45.3304" lon="6.82938">
        <ele>2307.2026</ele>
        <time>2015-08-24T14:56:01Z</time>
      </trkpt>
      <trkpt lat="45.33041" lon="6.8294">
        <ele>2308.1592</ele>
        <time>2015-08-24T14:56:06Z</time>
      </trkpt>
      <trkpt lat="45.33049" lon="6.82937">
        <ele>2308.1592</ele>
        <time>2015-08-24T14:56:16Z</time>
      </trkpt>
      <trkpt lat="45.33053" lon="6.82936">
        <ele>2309.332</ele>
        <time>2015-08-24T14:56:21Z</time>
      </trkpt>
      <trkpt lat="45.33059" lon="6.82938">
        <ele>2309.332</ele>
        <time>2015-08-24T14:56:31Z</time>
      </trkpt>
      <trkpt lat="45.33061" lon="6.82938">
        <ele>2309.332</ele>
        <time>2015-08-24T14:56:36Z</time>
      </trkpt>
      <trkpt lat="45.33071" lon="6.82942">
        <ele>2310.943</ele>
        <time>2015-08-24T14:56:51Z</time>
      </trkpt>
      <trkpt lat="45.33071" lon="6.82944">
        <ele>2310.943</ele>
        <time>2015-08-24T14:56:56Z</time>
      </trkpt>
      <trkpt lat="45.33076" lon="6.82948">
        <ele>2310.943</ele>
        <time>2015-08-24T14:57:06Z</time>
      </trkpt>
      <trkpt lat="45.33079" lon="6.82948">
        <ele>2312.6638</ele>
        <time>2015-08-24T14:57:11Z</time>
      </trkpt>
      <trkpt lat="45.33086" lon="6.82951">
        <ele>2312.6638</ele>
        <time>2015-08-24T14:57:21Z</time>
      </trkpt>
      <trkpt lat="45.33089" lon="6.82953">
        <ele>2314.5498</ele>
        <time>2015-08-24T14:57:26Z</time>
      </trkpt>
      <trkpt lat="45.33096" lon="6.82959">
        <ele>2314.5498</ele>
        <time>2015-08-24T14:57:36Z</time>
      </trkpt>
      <trkpt lat="45.33098" lon="6.82959">
        <ele>2316.6233</ele>
        <time>2015-08-24T14:57:41Z</time>
      </trkpt>
      <trkpt lat="45.33104" lon="6.82961">
        <ele>2316.6233</ele>
        <time>2015-08-24T14:57:51Z</time>
      </trkpt>
      <trkpt lat="45.33105" lon="6.82962">
        <ele>2316.6233</ele>
        <time>2015-08-24T14:57:56Z</time>
      </trkpt>
      <trkpt lat="45.33109" lon="6.82962">
        <ele>2319.1636</ele>
        <time>2015-08-24T14:58:06Z</time>
      </trkpt>
      <trkpt lat="45.33111" lon="6.82963">
        <ele>2319.1636</ele>
        <time>2015-08-24T14:58:11Z</time>
      </trkpt>
      <trkpt lat="45.33117" lon="6.82966">
        <ele>2322.1406</ele>
        <time>2015-08-24T14:58:21Z</time>
      </trkpt>
      <trkpt lat="45.33122" lon="6.82967">
        <ele>2322.1406</ele>
        <time>2015-08-24T14:58:26Z</time>
      </trkpt>
      <trkpt lat="45.33127" lon="6.82972">
        <ele>2325.0352</ele>
        <time>2015-08-24T14:58:41Z</time>
      </trkpt>
      <trkpt lat="45.33128" lon="6.82972">
        <ele>2325.0352</ele>
        <time>2015-08-24T14:58:46Z</time>
      </trkpt>
      <trkpt lat="45.33137" lon="6.82974">
        <ele>2327.64</ele>
        <time>2015-08-24T14:58:56Z</time>
      </trkpt>
      <trkpt lat="45.3314" lon="6.82975">
        <ele>2327.64</ele>
        <time>2015-08-24T14:59:01Z</time>
      </trkpt>
      <trkpt lat="45.33143" lon="6.82974">
        <ele>2327.64</ele>
        <time>2015-08-24T14:59:11Z</time>
      </trkpt>
      <trkpt lat="45.33146" lon="6.82975">
        <ele>2330.5134</ele>
        <time>2015-08-24T14:59:16Z</time>
      </trkpt>
      <trkpt lat="45.3315" lon="6.82975">
        <ele>2330.5134</ele>
        <time>2015-08-24T14:59:26Z</time>
      </trkpt>
      <trkpt lat="45.33155" lon="6.82977">
        <ele>2330.5134</ele>
        <time>2015-08-24T14:59:31Z</time>
      </trkpt>
      <trkpt lat="45.33158" lon="6.8298">
        <ele>2333.5967</ele>
        <time>2015-08-24T14:59:41Z</time>
      </trkpt>
      <trkpt lat="45.3316" lon="6.8298">
        <ele>2333.5967</ele>
        <time>2015-08-24T14:59:46Z</time>
      </trkpt>
      <trkpt lat="45.33165" lon="6.82978">
        <ele>2333.5967</ele>
        <time>2015-08-24T14:59:56Z</time>
      </trkpt>
      <trkpt lat="45.33166" lon="6.82977">
        <ele>2333.5967</ele>
        <time>2015-08-24T15:00:01Z</time>
      </trkpt>
      <trkpt lat="45.33169" lon="6.8297">
        <ele>2336.661</ele>
        <time>2015-08-24T15:00:11Z</time>
      </trkpt>
      <trkpt lat="45.33175" lon="6.82972">
        <ele>2336.661</ele>
        <time>2015-08-24T15:00:16Z</time>
      </trkpt>
      <trkpt lat="45.33181" lon="6.82975">
        <ele>2339.524</ele>
        <time>2015-08-24T15:00:26Z</time>
      </trkpt>
      <trkpt lat="45.33187" lon="6.82978">
        <ele>2339.524</ele>
        <time>2015-08-24T15:00:31Z</time>
      </trkpt>
      <trkpt lat="45.33195" lon="6.82984">
        <ele>2342.1614</ele>
        <time>2015-08-24T15:00:46Z</time>
      </trkpt>
      <trkpt lat="45.332" lon="6.82987">
        <ele>2342.1614</ele>
        <time>2015-08-24T15:00:51Z</time>
      </trkpt>
      <trkpt lat="45.33207" lon="6.82994">
        <ele>2344.696</ele>
        <time>2015-08-24T15:01:01Z</time>
      </trkpt>
      <trkpt lat="45.3321" lon="6.82996">
        <ele>2344.696</ele>
        <time>2015-08-24T15:01:06Z</time>
      </trkpt>
      <trkpt lat="45.33217" lon="6.83004">
        <ele>2347.083</ele>
        <time>2015-08-24T15:01:16Z</time>
      </trkpt>
      <trkpt lat="45.33221" lon="6.83006">
        <ele>2347.083</ele>
        <time>2015-08-24T15:01:21Z</time>
      </trkpt>
      <trkpt lat="45.33229" lon="6.83008">
        <ele>2349.2969</ele>
        <time>2015-08-24T15:01:31Z</time>
      </trkpt>
      <trkpt lat="45.33233" lon="6.8301">
        <ele>2349.2969</ele>
        <time>2015-08-24T15:01:36Z</time>
      </trkpt>
      <trkpt lat="45.33241" lon="6.83014">
        <ele>2351.5876</ele>
        <time>2015-08-24T15:01:46Z</time>
      </trkpt>
      <trkpt lat="45.33244" lon="6.83015">
        <ele>2351.5876</ele>
        <time>2015-08-24T15:01:51Z</time>
      </trkpt>
      <trkpt lat="45.33251" lon="6.83019">
        <ele>2353.813</ele>
        <time>2015-08-24T15:02:01Z</time>
      </trkpt>
      <trkpt lat="45.33254" lon="6.83022">
        <ele>2353.813</ele>
        <time>2015-08-24T15:02:06Z</time>
      </trkpt>
      <trkpt lat="45.3326" lon="6.83035">
        <ele>2355.8987</ele>
        <time>2015-08-24T15:02:16Z</time>
      </trkpt>
      <trkpt lat="45.33264" lon="6.83039">
        <ele>2355.8987</ele>
        <time>2015-08-24T15:02:21Z</time>
      </trkpt>
      <trkpt lat="45.3327" lon="6.83045">
        <ele>2357.9353</ele>
        <time>2015-08-24T15:02:31Z</time>
      </trkpt>
      <trkpt lat="45.33272" lon="6.83049">
        <ele>2357.9353</ele>
        <time>2015-08-24T15:02:36Z</time>
      </trkpt>
      <trkpt lat="45.33276" lon="6.83072">
        <ele>2359.9932</ele>
        <time>2015-08-24T15:02:51Z</time>
      </trkpt>
      <trkpt lat="45.33278" lon="6.83079">
        <ele>2359.9932</ele>
        <time>2015-08-24T15:02:56Z</time>
      </trkpt>
      <trkpt lat="45.33284" lon="6.83086">
        <ele>2362.0505</ele>
        <time>2015-08-24T15:03:06Z</time>
      </trkpt>
      <trkpt lat="45.33285" lon="6.83089">
        <ele>2362.0505</ele>
        <time>2015-08-24T15:03:11Z</time>
      </trkpt>
      <trkpt lat="45.33295" lon="6.83097">
        <ele>2363.9724</ele>
        <time>2015-08-24T15:03:21Z</time>
      </trkpt>
      <trkpt lat="45.33299" lon="6.83099">
        <ele>2363.9724</ele>
        <time>2015-08-24T15:03:26Z</time>
      </trkpt>
      <trkpt lat="45.33305" lon="6.83101">
        <ele>2365.7212</ele>
        <time>2015-08-24T15:03:36Z</time>
      </trkpt>
      <trkpt lat="45.33309" lon="6.83104">
        <ele>2365.7212</ele>
        <time>2015-08-24T15:03:41Z</time>
      </trkpt>
      <trkpt lat="45.33319" lon="6.8311">
        <ele>2367.2048</ele>
        <time>2015-08-24T15:03:51Z</time>
      </trkpt>
      <trkpt lat="45.33322" lon="6.83111">
        <ele>2367.2048</ele>
        <time>2015-08-24T15:03:56Z</time>
      </trkpt>
      <trkpt lat="45.3333" lon="6.83112">
        <ele>2368.6416</ele>
        <time>2015-08-24T15:04:06Z</time>
      </trkpt>
      <trkpt lat="45.33334" lon="6.83113">
        <ele>2368.6416</ele>
        <time>2015-08-24T15:04:11Z</time>
      </trkpt>
      <trkpt lat="45.33343" lon="6.83117">
        <ele>2370.0037</ele>
        <time>2015-08-24T15:04:21Z</time>
      </trkpt>
      <trkpt lat="45.33347" lon="6.8312">
        <ele>2370.0037</ele>
        <time>2015-08-24T15:04:26Z</time>
      </trkpt>
      <trkpt lat="45.3336" lon="6.83128">
        <ele>2371.1501</ele>
        <time>2015-08-24T15:04:41Z</time>
      </trkpt>
      <trkpt lat="45.33364" lon="6.83128">
        <ele>2371.1501</ele>
        <time>2015-08-24T15:04:46Z</time>
      </trkpt>
      <trkpt lat="45.33375" lon="6.83129">
        <ele>2372.2114</ele>
        <time>2015-08-24T15:04:56Z</time>
      </trkpt>
      <trkpt lat="45.3338" lon="6.8313">
        <ele>2372.2114</ele>
        <time>2015-08-24T15:05:01Z</time>
      </trkpt>
      <trkpt lat="45.3339" lon="6.83132">
        <ele>2373.1204</ele>
        <time>2015-08-24T15:05:11Z</time>
      </trkpt>
      <trkpt lat="45.33394" lon="6.83133">
        <ele>2373.1204</ele>
        <time>2015-08-24T15:05:16Z</time>
      </trkpt>
      <trkpt lat="45.33402" lon="6.83134">
        <ele>2373.8162</ele>
        <time>2015-08-24T15:05:26Z</time>
      </trkpt>
      <trkpt lat="45.33406" lon="6.83135">
        <ele>2373.8162</ele>
        <time>2015-08-24T15:05:31Z</time>
      </trkpt>
      <trkpt lat="45.33419" lon="6.83134">
        <ele>2374.1565</ele>
        <time>2015-08-24T15:05:41Z</time>
      </trkpt>
      <trkpt lat="45.33424" lon="6.83134">
        <ele>2374.1565</ele>
        <time>2015-08-24T15:05:46Z</time>
      </trkpt>
      <trkpt lat="45.33433" lon="6.83134">
        <ele>2374.4143</ele>
        <time>2015-08-24T15:05:56Z</time>
      </trkpt>
      <trkpt lat="45.33438" lon="6.83135">
        <ele>2374.4143</ele>
        <time>2015-08-24T15:06:01Z</time>
      </trkpt>
      <trkpt lat="45.33447" lon="6.83136">
        <ele>2374.6697</ele>
        <time>2015-08-24T15:06:11Z</time>
      </trkpt>
      <trkpt lat="45.33452" lon="6.83137">
        <ele>2374.6697</ele>
        <time>2015-08-24T15:06:16Z</time>
      </trkpt>
      <trkpt lat="45.33462" lon="6.83139">
        <ele>2375.0405</ele>
        <time>2015-08-24T15:06:26Z</time>
      </trkpt>
      <trkpt lat="45.33467" lon="6.83142">
        <ele>2375.0405</ele>
        <time>2015-08-24T15:06:31Z</time>
      </trkpt>
      <trkpt lat="45.33478" lon="6.83144">
        <ele>2375.3904</ele>
        <time>2015-08-24T15:06:41Z</time>
      </trkpt>
      <trkpt lat="45.33482" lon="6.83144">
        <ele>2375.3904</ele>
        <time>2015-08-24T15:06:46Z</time>
      </trkpt>
      <trkpt lat="45.33489" lon="6.83141">
        <ele>2375.6514</ele>
        <time>2015-08-24T15:07:01Z</time>
      </trkpt>
      <trkpt lat="45.3349" lon="6.83141">
        <ele>2375.6514</ele>
        <time>2015-08-24T15:07:06Z</time>
      </trkpt>
      <trkpt lat="45.33489" lon="6.83139">
        <ele>2375.6514</ele>
        <time>2015-08-24T15:07:16Z</time>
      </trkpt>
      <trkpt lat="45.33489" lon="6.8314">
        <ele>2375.6514</ele>
        <time>2015-08-24T15:07:21Z</time>
      </trkpt>
      <trkpt lat="45.33492" lon="6.8314">
        <ele>2375.6514</ele>
        <time>2015-08-24T15:07:31Z</time>
      </trkpt>
      <trkpt lat="45.33492" lon="6.83139">
        <ele>2375.6514</ele>
        <time>2015-08-24T15:07:36Z</time>
      </trkpt>
      <trkpt lat="45.33492" lon="6.83132">
        <ele>2376.2644</ele>
        <time>2015-08-24T15:07:46Z</time>
      </trkpt>
      <trkpt lat="45.3349" lon="6.83132">
        <ele>2376.2644</ele>
        <time>2015-08-24T15:07:51Z</time>
      </trkpt>
      <trkpt lat="45.33487" lon="6.83136">
        <ele>2376.2644</ele>
        <time>2015-08-24T15:08:01Z</time>
      </trkpt>
      <trkpt lat="45.33487" lon="6.83136">
        <ele>2376.2644</ele>
        <time>2015-08-24T15:08:06Z</time>
      </trkpt>
      <trkpt lat="45.33493" lon="6.8314">
        <ele>2376.1968</ele>
        <time>2015-08-24T15:08:16Z</time>
      </trkpt>
      <trkpt lat="45.335" lon="6.83143">
        <ele>2376.1968</ele>
        <time>2015-08-24T15:08:21Z</time>
      </trkpt>
      <trkpt lat="45.33507" lon="6.83152">
        <ele>2375.8188</ele>
        <time>2015-08-24T15:08:31Z</time>
      </trkpt>
      <trkpt lat="45.33512" lon="6.83154">
        <ele>2375.8188</ele>
        <time>2015-08-24T15:08:36Z</time>
      </trkpt>
      <trkpt lat="45.33525" lon="6.83155">
        <ele>2375.3743</ele>
        <time>2015-08-24T15:08:46Z</time>
      </trkpt>
      <trkpt lat="45.33531" lon="6.83154">
        <ele>2375.3743</ele>
        <time>2015-08-24T15:08:51Z</time>
      </trkpt>
      <trkpt lat="45.33539" lon="6.83154">
        <ele>2374.8005</ele>
        <time>2015-08-24T15:09:01Z</time>
      </trkpt>
      <trkpt lat="45.33542" lon="6.83155">
        <ele>2374.8005</ele>
        <time>2015-08-24T15:09:06Z</time>
      </trkpt>
      <trkpt lat="45.33553" lon="6.83162">
        <ele>2374.04</ele>
        <time>2015-08-24T15:09:16Z</time>
      </trkpt>
      <trkpt lat="45.33558" lon="6.83166">
        <ele>2374.04</ele>
        <time>2015-08-24T15:09:21Z</time>
      </trkpt>
      <trkpt lat="45.33565" lon="6.83176">
        <ele>2373.256</ele>
        <time>2015-08-24T15:09:31Z</time>
      </trkpt>
      <trkpt lat="45.3357" lon="6.83182">
        <ele>2373.256</ele>
        <time>2015-08-24T15:09:36Z</time>
      </trkpt>
      <trkpt lat="45.33587" lon="6.83193">
        <ele>2372.5427</ele>
        <time>2015-08-24T15:09:51Z</time>
      </trkpt>
      <trkpt lat="45.33592" lon="6.83197">
        <ele>2372.5427</ele>
        <time>2015-08-24T15:09:56Z</time>
      </trkpt>
      <trkpt lat="45.33603" lon="6.832">
        <ele>2371.8135</ele>
        <time>2015-08-24T15:10:06Z</time>
      </trkpt>
      <trkpt lat="45.33607" lon="6.83202">
        <ele>2371.8135</ele>
        <time>2015-08-24T15:10:11Z</time>
      </trkpt>
      <trkpt lat="45.33612" lon="6.83207">
        <ele>2371.2192</ele>
        <time>2015-08-24T15:10:21Z</time>
      </trkpt>
      <trkpt lat="45.33617" lon="6.83214">
        <ele>2371.2192</ele>
        <time>2015-08-24T15:10:26Z</time>
      </trkpt>
      <trkpt lat="45.33625" lon="6.8322">
        <ele>2370.6394</ele>
        <time>2015-08-24T15:10:36Z</time>
      </trkpt>
      <trkpt lat="45.3363" lon="6.83225">
        <ele>2370.6394</ele>
        <time>2015-08-24T15:10:41Z</time>
      </trkpt>
      <trkpt lat="45.3364" lon="6.83232">
        <ele>2370.0637</ele>
        <time>2015-08-24T15:10:51Z</time>
      </trkpt>
      <trkpt lat="45.33645" lon="6.83231">
        <ele>2370.0637</ele>
        <time>2015-08-24T15:10:56Z</time>
      </trkpt>
      <trkpt lat="45.33654" lon="6.83233">
        <ele>2369.3376</ele>
        <time>2015-08-24T15:11:06Z</time>
      </trkpt>
      <trkpt lat="45.33659" lon="6.83234">
        <ele>2369.3376</ele>
        <time>2015-08-24T15:11:11Z</time>
      </trkpt>
      <trkpt lat="45.33669" lon="6.83242">
        <ele>2368.4634</ele>
        <time>2015-08-24T15:11:21Z</time>
      </trkpt>
      <trkpt lat="45.33674" lon="6.83246">
        <ele>2368.4634</ele>
        <time>2015-08-24T15:11:26Z</time>
      </trkpt>
      <trkpt lat="45.33684" lon="6.83253">
        <ele>2367.5574</ele>
        <time>2015-08-24T15:11:36Z</time>
      </trkpt>
      <trkpt lat="45.3369" lon="6.83255">
        <ele>2367.5574</ele>
        <time>2015-08-24T15:11:41Z</time>
      </trkpt>
      <trkpt lat="45.33698" lon="6.83261">
        <ele>2366.7864</ele>
        <time>2015-08-24T15:11:51Z</time>
      </trkpt>
      <trkpt lat="45.33704" lon="6.83263">
        <ele>2366.7864</ele>
        <time>2015-08-24T15:11:56Z</time>
      </trkpt>
      <trkpt lat="45.33715" lon="6.83267">
        <ele>2366.3037</ele>
        <time>2015-08-24T15:12:06Z</time>
      </trkpt>
      <trkpt lat="45.33719" lon="6.83271">
        <ele>2366.3037</ele>
        <time>2015-08-24T15:12:11Z</time>
      </trkpt>
      <trkpt lat="45.33729" lon="6.83283">
        <ele>2365.7896</ele>
        <time>2015-08-24T15:12:26Z</time>
      </trkpt>
      <trkpt lat="45.33734" lon="6.83286">
        <ele>2365.7896</ele>
        <time>2015-08-24T15:12:31Z</time>
      </trkpt>
      <trkpt lat="45.33743" lon="6.83291">
        <ele>2365.2644</ele>
        <time>2015-08-24T15:12:41Z</time>
      </trkpt>
      <trkpt lat="45.33745" lon="6.83294">
        <ele>2365.2644</ele>
        <time>2015-08-24T15:12:46Z</time>
      </trkpt>
      <trkpt lat="45.33754" lon="6.83292">
        <ele>2364.5886</ele>
        <time>2015-08-24T15:12:56Z</time>
      </trkpt>
      <trkpt lat="45.3376" lon="6.83295">
        <ele>2364.5886</ele>
        <time>2015-08-24T15:13:01Z</time>
      </trkpt>
      <trkpt lat="45.33772" lon="6.83299">
        <ele>2363.9795</ele>
        <time>2015-08-24T15:13:11Z</time>
      </trkpt>
      <trkpt lat="45.33776" lon="6.83301">
        <ele>2363.9795</ele>
        <time>2015-08-24T15:13:16Z</time>
      </trkpt>
      <trkpt lat="45.33783" lon="6.8331">
        <ele>2363.3923</ele>
        <time>2015-08-24T15:13:26Z</time>
      </trkpt>
      <trkpt lat="45.33788" lon="6.83315">
        <ele>2363.3923</ele>
        <time>2015-08-24T15:13:31Z</time>
      </trkpt>
      <trkpt lat="45.33797" lon="6.83324">
        <ele>2362.8582</ele>
        <time>2015-08-24T15:13:41Z</time>
      </trkpt>
      <trkpt lat="45.33802" lon="6.83327">
        <ele>2362.8582</ele>
        <time>2015-08-24T15:13:46Z</time>
      </trkpt>
      <trkpt lat="45.33811" lon="6.83336">
        <ele>2362.2896</ele>
        <time>2015-08-24T15:13:56Z</time>
      </trkpt>
      <trkpt lat="45.33814" lon="6.8334">
        <ele>2362.2896</ele>
        <time>2015-08-24T15:14:01Z</time>
      </trkpt>
      <trkpt lat="45.33825" lon="6.8335">
        <ele>2361.8657</ele>
        <time>2015-08-24T15:14:16Z</time>
      </trkpt>
      <trkpt lat="45.3383" lon="6.83352">
        <ele>2361.8657</ele>
        <time>2015-08-24T15:14:21Z</time>
      </trkpt>
      <trkpt lat="45.3384" lon="6.83355">
        <ele>2361.4775</ele>
        <time>2015-08-24T15:14:31Z</time>
      </trkpt>
      <trkpt lat="45.33845" lon="6.83356">
        <ele>2361.4775</ele>
        <time>2015-08-24T15:14:36Z</time>
      </trkpt>
      <trkpt lat="45.33853" lon="6.83363">
        <ele>2361.2114</ele>
        <time>2015-08-24T15:14:46Z</time>
      </trkpt>
      <trkpt lat="45.33858" lon="6.83367">
        <ele>2361.2114</ele>
        <time>2015-08-24T15:14:51Z</time>
      </trkpt>
      <trkpt lat="45.33867" lon="6.83374">
        <ele>2361.147</ele>
        <time>2015-08-24T15:15:01Z</time>
      </trkpt>
      <trkpt lat="45.33871" lon="6.83373">
        <ele>2361.147</ele>
        <time>2015-08-24T15:15:06Z</time>
      </trkpt>
      <trkpt lat="45.33884" lon="6.83374">
        <ele>2360.939</ele>
        <time>2015-08-24T15:15:16Z</time>
      </trkpt>
      <trkpt lat="45.33888" lon="6.83375">
        <ele>2360.939</ele>
        <time>2015-08-24T15:15:21Z</time>
      </trkpt>
      <trkpt lat="45.33898" lon="6.83377">
        <ele>2360.701</ele>
        <time>2015-08-24T15:15:31Z</time>
      </trkpt>
      <trkpt lat="45.33903" lon="6.83377">
        <ele>2360.701</ele>
        <time>2015-08-24T15:15:36Z</time>
      </trkpt>
      <trkpt lat="45.33911" lon="6.8338">
        <ele>2360.4219</ele>
        <time>2015-08-24T15:15:46Z</time>
      </trkpt>
      <trkpt lat="45.33914" lon="6.83385">
        <ele>2360.4219</ele>
        <time>2015-08-24T15:15:51Z</time>
      </trkpt>
      <trkpt lat="45.33924" lon="6.83393">
        <ele>2360.0488</ele>
        <time>2015-08-24T15:16:01Z</time>
      </trkpt>
      <trkpt lat="45.33929" lon="6.83398">
        <ele>2360.0488</ele>
        <time>2015-08-24T15:16:06Z</time>
      </trkpt>
      <trkpt lat="45.33943" lon="6.83408">
        <ele>2359.6338</ele>
        <time>2015-08-24T15:16:21Z</time>
      </trkpt>
      <trkpt lat="45.33946" lon="6.83412">
        <ele>2359.6338</ele>
        <time>2015-08-24T15:16:26Z</time>
      </trkpt>
      <trkpt lat="45.33956" lon="6.83416">
        <ele>2359.4407</ele>
        <time>2015-08-24T15:16:36Z</time>
      </trkpt>
      <trkpt lat="45.3396" lon="6.83418">
        <ele>2359.4407</ele>
        <time>2015-08-24T15:16:41Z</time>
      </trkpt>
      <trkpt lat="45.33972" lon="6.83421">
        <ele>2359.4546</ele>
        <time>2015-08-24T15:16:51Z</time>
      </trkpt>
      <trkpt lat="45.33977" lon="6.83423">
        <ele>2359.4546</ele>
        <time>2015-08-24T15:16:56Z</time>
      </trkpt>
      <trkpt lat="45.33985" lon="6.83428">
        <ele>2359.6174</ele>
        <time>2015-08-24T15:17:06Z</time>
      </trkpt>
      <trkpt lat="45.3399" lon="6.8343">
        <ele>2359.6174</ele>
        <time>2015-08-24T15:17:11Z</time>
      </trkpt>
      <trkpt lat="45.33998" lon="6.83434">
        <ele>2359.8745</ele>
        <time>2015-08-24T15:17:21Z</time>
      </trkpt>
      <trkpt lat="45.34" lon="6.83437">
        <ele>2359.8745</ele>
        <time>2015-08-24T15:17:26Z</time>
      </trkpt>
      <trkpt lat="45.34009" lon="6.83441">
        <ele>2360.3198</ele>
        <time>2015-08-24T15:17:36Z</time>
      </trkpt>
      <trkpt lat="45.34011" lon="6.83442">
        <ele>2360.3198</ele>
        <time>2015-08-24T15:17:41Z</time>
      </trkpt>
      <trkpt lat="45.3402" lon="6.83449">
        <ele>2360.8945</ele>
        <time>2015-08-24T15:17:51Z</time>
      </trkpt>
      <trkpt lat="45.34026" lon="6.83456">
        <ele>2360.8945</ele>
        <time>2015-08-24T15:17:56Z</time>
      </trkpt>
      <trkpt lat="45.34035" lon="6.83461">
        <ele>2361.4585</ele>
        <time>2015-08-24T15:18:06Z</time>
      </trkpt>
      <trkpt lat="45.34037" lon="6.83462">
        <ele>2361.4585</ele>
        <time>2015-08-24T15:18:11Z</time>
      </trkpt>
      <trkpt lat="45.34045" lon="6.83466">
        <ele>2362.0251</ele>
        <time>2015-08-24T15:18:21Z</time>
      </trkpt>
      <trkpt lat="45.3405" lon="6.83469">
        <ele>2362.0251</ele>
        <time>2015-08-24T15:18:26Z</time>
      </trkpt>
      <trkpt lat="45.34057" lon="6.83475">
        <ele>2362.8953</ele>
        <time>2015-08-24T15:18:36Z</time>
      </trkpt>
      <trkpt lat="45.34063" lon="6.83476">
        <ele>2362.8953</ele>
        <time>2015-08-24T15:18:41Z</time>
      </trkpt>
      <trkpt lat="45.34071" lon="6.83481">
        <ele>2363.871</ele>
        <time>2015-08-24T15:18:51Z</time>
      </trkpt>
      <trkpt lat="45.34074" lon="6.83483">
        <ele>2363.871</ele>
        <time>2015-08-24T15:18:56Z</time>
      </trkpt>
      <trkpt lat="45.34084" lon="6.83491">
        <ele>2365.0432</ele>
        <time>2015-08-24T15:19:11Z</time>
      </trkpt>
      <trkpt lat="45.34085" lon="6.8349">
        <ele>2365.0432</ele>
        <time>2015-08-24T15:19:16Z</time>
      </trkpt>
      <trkpt lat="45.34085" lon="6.83491">
        <ele>2365.0432</ele>
        <time>2015-08-24T15:19:26Z</time>
      </trkpt>
      <trkpt lat="45.34083" lon="6.83491">
        <ele>2365.0432</ele>
        <time>2015-08-24T15:19:31Z</time>
      </trkpt>
      <trkpt lat="45.34082" lon="6.83491">
        <ele>2365.0432</ele>
        <time>2015-08-24T15:19:41Z</time>
      </trkpt>
      <trkpt lat="45.34084" lon="6.83492">
        <ele>2365.0432</ele>
        <time>2015-08-24T15:19:46Z</time>
      </trkpt>
      <trkpt lat="45.34082" lon="6.83493">
        <ele>2365.0432</ele>
        <time>2015-08-24T15:19:56Z</time>
      </trkpt>
      <trkpt lat="45.34083" lon="6.83491">
        <ele>2365.0432</ele>
        <time>2015-08-24T15:20:01Z</time>
      </trkpt>
      <trkpt lat="45.34086" lon="6.83492">
        <ele>2366.379</ele>
        <time>2015-08-24T15:20:11Z</time>
      </trkpt>
      <trkpt lat="45.34087" lon="6.83491">
        <ele>2366.379</ele>
        <time>2015-08-24T15:20:16Z</time>
      </trkpt>
      <trkpt lat="45.3409" lon="6.8349">
        <ele>2366.379</ele>
        <time>2015-08-24T15:20:26Z</time>
      </trkpt>
      <trkpt lat="45.34089" lon="6.8349">
        <ele>2366.379</ele>
        <time>2015-08-24T15:20:31Z</time>
      </trkpt>
      <trkpt lat="45.34087" lon="6.83492">
        <ele>2366.379</ele>
        <time>2015-08-24T15:20:41Z</time>
      </trkpt>
      <trkpt lat="45.34084" lon="6.83492">
        <ele>2367.8628</ele>
        <time>2015-08-24T15:20:46Z</time>
      </trkpt>
      <trkpt lat="45.34088" lon="6.83493">
        <ele>2367.8628</ele>
        <time>2015-08-24T15:21:01Z</time>
      </trkpt>
      <trkpt lat="45.34091" lon="6.83495">
        <ele>2367.8628</ele>
        <time>2015-08-24T15:21:06Z</time>
      </trkpt>
      <trkpt lat="45.34098" lon="6.83496">
        <ele>2369.0757</ele>
        <time>2015-08-24T15:21:16Z</time>
      </trkpt>
      <trkpt lat="45.34102" lon="6.83498">
        <ele>2369.0757</ele>
        <time>2015-08-24T15:21:21Z</time>
      </trkpt>
      <trkpt lat="45.34109" lon="6.83501">
        <ele>2370.2507</ele>
        <time>2015-08-24T15:21:31Z</time>
      </trkpt>
      <trkpt lat="45.34112" lon="6.83503">
        <ele>2370.2507</ele>
        <time>2015-08-24T15:21:36Z</time>
      </trkpt>
      <trkpt lat="45.3412" lon="6.83507">
        <ele>2371.2285</ele>
        <time>2015-08-24T15:21:46Z</time>
      </trkpt>
      <trkpt lat="45.34124" lon="6.83511">
        <ele>2371.2285</ele>
        <time>2015-08-24T15:21:51Z</time>
      </trkpt>
      <trkpt lat="45.34131" lon="6.83521">
        <ele>2372.1792</ele>
        <time>2015-08-24T15:22:01Z</time>
      </trkpt>
      <trkpt lat="45.34136" lon="6.83527">
        <ele>2372.1792</ele>
        <time>2015-08-24T15:22:06Z</time>
      </trkpt>
      <trkpt lat="45.34145" lon="6.83537">
        <ele>2373.232</ele>
        <time>2015-08-24T15:22:16Z</time>
      </trkpt>
      <trkpt lat="45.34148" lon="6.83539">
        <ele>2373.232</ele>
        <time>2015-08-24T15:22:21Z</time>
      </trkpt>
      <trkpt lat="45.34165" lon="6.83549">
        <ele>2374.2468</ele>
        <time>2015-08-24T15:22:36Z</time>
      </trkpt>
      <trkpt lat="45.34167" lon="6.83551">
        <ele>2374.2468</ele>
        <time>2015-08-24T15:22:41Z</time>
      </trkpt>
      <trkpt lat="45.34178" lon="6.83557">
        <ele>2375.2092</ele>
        <time>2015-08-24T15:22:51Z</time>
      </trkpt>
      <trkpt lat="45.34183" lon="6.8356">
        <ele>2375.2092</ele>
        <time>2015-08-24T15:22:56Z</time>
      </trkpt>
      <trkpt lat="45.34196" lon="6.83566">
        <ele>2376.2214</ele>
        <time>2015-08-24T15:23:06Z</time>
      </trkpt>
      <trkpt lat="45.342" lon="6.83569">
        <ele>2376.2214</ele>
        <time>2015-08-24T15:23:11Z</time>
      </trkpt>
      <trkpt lat="45.34209" lon="6.83571">
        <ele>2377.1763</ele>
        <time>2015-08-24T15:23:21Z</time>
      </trkpt>
      <trkpt lat="45.34212" lon="6.83576">
        <ele>2377.1763</ele>
        <time>2015-08-24T15:23:26Z</time>
      </trkpt>
      <trkpt lat="45.34224" lon="6.83579">
        <ele>2378.0466</ele>
        <time>2015-08-24T15:23:36Z</time>
      </trkpt>
      <trkpt lat="45.34228" lon="6.83578">
        <ele>2378.0466</ele>
        <time>2015-08-24T15:23:41Z</time>
      </trkpt>
      <trkpt lat="45.34239" lon="6.83584">
        <ele>2378.7793</ele>
        <time>2015-08-24T15:23:51Z</time>
      </trkpt>
      <trkpt lat="45.34244" lon="6.8359">
        <ele>2378.7793</ele>
        <time>2015-08-24T15:23:56Z</time>
      </trkpt>
      <trkpt lat="45.34251" lon="6.83596">
        <ele>2379.5122</ele>
        <time>2015-08-24T15:24:06Z</time>
      </trkpt>
      <trkpt lat="45.34258" lon="6.83596">
        <ele>2379.5122</ele>
        <time>2015-08-24T15:24:11Z</time>
      </trkpt>
      <trkpt lat="45.34267" lon="6.836">
        <ele>2380.0996</ele>
        <time>2015-08-24T15:24:21Z</time>
      </trkpt>
      <trkpt lat="45.34272" lon="6.83604">
        <ele>2380.0996</ele>
        <time>2015-08-24T15:24:26Z</time>
      </trkpt>
      <trkpt lat="45.34282" lon="6.83606">
        <ele>2380.6377</ele>
        <time>2015-08-24T15:24:36Z</time>
      </trkpt>
      <trkpt lat="45.34287" lon="6.83604">
        <ele>2380.6377</ele>
        <time>2015-08-24T15:24:41Z</time>
      </trkpt>
      <trkpt lat="45.34292" lon="6.83602">
        <ele>2381.0715</ele>
        <time>2015-08-24T15:24:51Z</time>
      </trkpt>
      <trkpt lat="45.34294" lon="6.83602">
        <ele>2381.0715</ele>
        <time>2015-08-24T15:24:56Z</time>
      </trkpt>
      <trkpt lat="45.34294" lon="6.83605">
        <ele>2381.0715</ele>
        <time>2015-08-24T15:25:11Z</time>
      </trkpt>
      <trkpt lat="45.34294" lon="6.83606">
        <ele>2381.0715</ele>
        <time>2015-08-24T15:25:16Z</time>
      </trkpt>
      <trkpt lat="45.34293" lon="6.83604">
        <ele>2381.0715</ele>
        <time>2015-08-24T15:25:26Z</time>
      </trkpt>
      <trkpt lat="45.34294" lon="6.836">
        <ele>2381.5957</ele>
        <time>2015-08-24T15:25:31Z</time>
      </trkpt>
      <trkpt lat="45.34304" lon="6.83594">
        <ele>2382.0872</ele>
        <time>2015-08-24T15:25:41Z</time>
      </trkpt>
      <trkpt lat="45.34309" lon="6.83589">
        <ele>2382.0872</ele>
        <time>2015-08-24T15:25:46Z</time>
      </trkpt>
      <trkpt lat="45.34315" lon="6.83581">
        <ele>2382.548</ele>
        <time>2015-08-24T15:25:56Z</time>
      </trkpt>
      <trkpt lat="45.34319" lon="6.83579">
        <ele>2382.548</ele>
        <time>2015-08-24T15:26:01Z</time>
      </trkpt>
      <trkpt lat="45.34328" lon="6.83579">
        <ele>2382.8936</ele>
        <time>2015-08-24T15:26:11Z</time>
      </trkpt>
      <trkpt lat="45.34333" lon="6.8358">
        <ele>2382.8936</ele>
        <time>2015-08-24T15:26:16Z</time>
      </trkpt>
      <trkpt lat="45.34344" lon="6.83591">
        <ele>2383.0312</ele>
        <time>2015-08-24T15:26:26Z</time>
      </trkpt>
      <trkpt lat="45.34348" lon="6.83594">
        <ele>2383.0312</ele>
        <time>2015-08-24T15:26:31Z</time>
      </trkpt>
      <trkpt lat="45.34358" lon="6.83601">
        <ele>2383.0059</ele>
        <time>2015-08-24T15:26:41Z</time>
      </trkpt>
      <trkpt lat="45.34364" lon="6.83604">
        <ele>2383.0059</ele>
        <time>2015-08-24T15:26:46Z</time>
      </trkpt>
      <trkpt lat="45.34375" lon="6.83609">
        <ele>2382.8735</ele>
        <time>2015-08-24T15:26:56Z</time>
      </trkpt>
      <trkpt lat="45.3438" lon="6.83612">
        <ele>2382.8735</ele>
        <time>2015-08-24T15:27:01Z</time>
      </trkpt>
      <trkpt lat="45.34389" lon="6.83616">
        <ele>2382.7444</ele>
        <time>2015-08-24T15:27:11Z</time>
      </trkpt>
      <trkpt lat="45.34393" lon="6.83618">
        <ele>2382.7444</ele>
        <time>2015-08-24T15:27:16Z</time>
      </trkpt>
      <trkpt lat="45.34403" lon="6.83625">
        <ele>2382.4321</ele>
        <time>2015-08-24T15:27:26Z</time>
      </trkpt>
      <trkpt lat="45.34409" lon="6.83628">
        <ele>2382.4321</ele>
        <time>2015-08-24T15:27:31Z</time>
      </trkpt>
      <trkpt lat="45.34417" lon="6.83633">
        <ele>2382.0247</ele>
        <time>2015-08-24T15:27:41Z</time>
      </trkpt>
      <trkpt lat="45.34421" lon="6.83635">
        <ele>2382.0247</ele>
        <time>2015-08-24T15:27:46Z</time>
      </trkpt>
      <trkpt lat="45.34435" lon="6.83646">
        <ele>2381.3577</ele>
        <time>2015-08-24T15:28:01Z</time>
      </trkpt>
      <trkpt lat="45.34442" lon="6.83648">
        <ele>2381.3577</ele>
        <time>2015-08-24T15:28:06Z</time>
      </trkpt>
      <trkpt lat="45.34451" lon="6.83653">
        <ele>2380.641</ele>
        <time>2015-08-24T15:28:16Z</time>
      </trkpt>
      <trkpt lat="45.34458" lon="6.83654">
        <ele>2380.641</ele>
        <time>2015-08-24T15:28:21Z</time>
      </trkpt>
      <trkpt lat="45.34466" lon="6.83657">
        <ele>2379.881</ele>
        <time>2015-08-24T15:28:31Z</time>
      </trkpt>
      <trkpt lat="45.34465" lon="6.83659">
        <ele>2379.881</ele>
        <time>2015-08-24T15:28:36Z</time>
      </trkpt>
      <trkpt lat="45.34465" lon="6.8366">
        <ele>2379.881</ele>
        <time>2015-08-24T15:28:46Z</time>
      </trkpt>
      <trkpt lat="45.34465" lon="6.83661">
        <ele>2379.881</ele>
        <time>2015-08-24T15:28:51Z</time>
      </trkpt>
      <trkpt lat="45.34477" lon="6.83665">
        <ele>2379.027</ele>
        <time>2015-08-24T15:29:01Z</time>
      </trkpt>
      <trkpt lat="45.3448" lon="6.83668">
        <ele>2379.027</ele>
        <time>2015-08-24T15:29:06Z</time>
      </trkpt>
      <trkpt lat="45.34488" lon="6.83674">
        <ele>2378.1033</ele>
        <time>2015-08-24T15:29:16Z</time>
      </trkpt>
      <trkpt lat="45.34492" lon="6.8368">
        <ele>2378.1033</ele>
        <time>2015-08-24T15:29:21Z</time>
      </trkpt>
      <trkpt lat="45.34496" lon="6.83687">
        <ele>2377.0752</ele>
        <time>2015-08-24T15:29:26Z</time>
      </trkpt>
      <trkpt lat="45.34508" lon="6.83696">
        <ele>2375.8684</ele>
        <time>2015-08-24T15:29:41Z</time>
      </trkpt>
      <trkpt lat="45.34516" lon="6.83699">
        <ele>2375.8684</ele>
        <time>2015-08-24T15:29:46Z</time>
      </trkpt>
      <trkpt lat="45.34523" lon="6.83705">
        <ele>2374.5576</ele>
        <time>2015-08-24T15:29:56Z</time>
      </trkpt>
      <trkpt lat="45.34528" lon="6.83711">
        <ele>2374.5576</ele>
        <time>2015-08-24T15:30:01Z</time>
      </trkpt>
      <trkpt lat="45.34538" lon="6.83722">
        <ele>2373.155</ele>
        <time>2015-08-24T15:30:11Z</time>
      </trkpt>
      <trkpt lat="45.34542" lon="6.83727">
        <ele>2373.155</ele>
        <time>2015-08-24T15:30:16Z</time>
      </trkpt>
      <trkpt lat="45.34553" lon="6.83728">
        <ele>2371.946</ele>
        <time>2015-08-24T15:30:26Z</time>
      </trkpt>
      <trkpt lat="45.34556" lon="6.83727">
        <ele>2371.946</ele>
        <time>2015-08-24T15:30:31Z</time>
      </trkpt>
      <trkpt lat="45.3457" lon="6.83733">
        <ele>2370.762</ele>
        <time>2015-08-24T15:30:46Z</time>
      </trkpt>
      <trkpt lat="45.34572" lon="6.83734">
        <ele>2370.762</ele>
        <time>2015-08-24T15:30:51Z</time>
      </trkpt>
      <trkpt lat="45.34578" lon="6.83737">
        <ele>2370.762</ele>
        <time>2015-08-24T15:31:01Z</time>
      </trkpt>
      <trkpt lat="45.3458" lon="6.83738">
        <ele>2369.6626</ele>
        <time>2015-08-24T15:31:06Z</time>
      </trkpt>
      <trkpt lat="45.34582" lon="6.83734">
        <ele>2369.6626</ele>
        <time>2015-08-24T15:31:16Z</time>
      </trkpt>
      <trkpt lat="45.34585" lon="6.83729">
        <ele>2369.6626</ele>
        <time>2015-08-24T15:31:21Z</time>
      </trkpt>
      <trkpt lat="45.34593" lon="6.83728">
        <ele>2368.8328</ele>
        <time>2015-08-24T15:31:31Z</time>
      </trkpt>
      <trkpt lat="45.34596" lon="6.83728">
        <ele>2368.8328</ele>
        <time>2015-08-24T15:31:36Z</time>
      </trkpt>
      <trkpt lat="45.34602" lon="6.83732">
        <ele>2368.198</ele>
        <time>2015-08-24T15:31:46Z</time>
      </trkpt>
      <trkpt lat="45.34602" lon="6.83735">
        <ele>2368.198</ele>
        <time>2015-08-24T15:31:51Z</time>
      </trkpt>
      <trkpt lat="45.34602" lon="6.83737">
        <ele>2368.198</ele>
        <time>2015-08-24T15:32:01Z</time>
      </trkpt>
      <trkpt lat="45.346" lon="6.83739">
        <ele>2368.198</ele>
        <time>2015-08-24T15:32:06Z</time>
      </trkpt>
      <trkpt lat="45.346" lon="6.83737">
        <ele>2368.198</ele>
        <time>2015-08-24T15:32:16Z</time>
      </trkpt>
      <trkpt lat="45.346" lon="6.83736">
        <ele>2368.198</ele>
        <time>2015-08-24T15:32:21Z</time>
      </trkpt>
      <trkpt lat="45.34601" lon="6.83737">
        <ele>2368.198</ele>
        <time>2015-08-24T15:32:31Z</time>
      </trkpt>
      <trkpt lat="45.346" lon="6.83738">
        <ele>2368.1206</ele>
        <time>2015-08-24T15:32:36Z</time>
      </trkpt>
      <trkpt lat="45.34601" lon="6.83737">
        <ele>2368.1206</ele>
        <time>2015-08-24T15:32:41Z</time>
      </trkpt>
      <trkpt lat="45.34603" lon="6.83741">
        <ele>2368.1206</ele>
        <time>2015-08-24T15:32:46Z</time>
      </trkpt>
      <trkpt lat="45.34604" lon="6.83742">
        <ele>2368.1206</ele>
        <time>2015-08-24T15:32:56Z</time>
      </trkpt>
      <trkpt lat="45.34603" lon="6.83743">
        <ele>2368.1206</ele>
        <time>2015-08-24T15:33:01Z</time>
      </trkpt>
      <trkpt lat="45.34603" lon="6.83744">
        <ele>2368.1206</ele>
        <time>2015-08-24T15:33:11Z</time>
      </trkpt>
      <trkpt lat="45.34605" lon="6.83745">
        <ele>2367.8684</ele>
        <time>2015-08-24T15:33:16Z</time>
      </trkpt>
      <trkpt lat="45.34604" lon="6.83745">
        <ele>2367.8684</ele>
        <time>2015-08-24T15:33:26Z</time>
      </trkpt>
      <trkpt lat="45.34605" lon="6.83745">
        <ele>2367.8684</ele>
        <time>2015-08-24T15:33:31Z</time>
      </trkpt>
      <trkpt lat="45.34605" lon="6.83745">
        <ele>2367.8684</ele>
        <time>2015-08-24T15:33:41Z</time>
      </trkpt>
      <trkpt lat="45.34605" lon="6.83746">
        <ele>2367.8684</ele>
        <time>2015-08-24T15:33:46Z</time>
      </trkpt>
      <trkpt lat="45.34604" lon="6.8375">
        <ele>2367.8684</ele>
        <time>2015-08-24T15:33:56Z</time>
      </trkpt>
      <trkpt lat="45.34604" lon="6.8375">
        <ele>2367.8684</ele>
        <time>2015-08-24T15:34:01Z</time>
      </trkpt>
      <trkpt lat="45.34605" lon="6.83749">
        <ele>2367.8684</ele>
        <time>2015-08-24T15:34:11Z</time>
      </trkpt>
      <trkpt lat="45.34606" lon="6.83751">
        <ele>2367.1814</ele>
        <time>2015-08-24T15:34:16Z</time>
      </trkpt>
      <trkpt lat="45.34608" lon="6.83751">
        <ele>2367.1814</ele>
        <time>2015-08-24T15:34:26Z</time>
      </trkpt>
      <trkpt lat="45.34608" lon="6.83752">
        <ele>2367.1814</ele>
        <time>2015-08-24T15:34:31Z</time>
      </trkpt>
      <trkpt lat="45.34606" lon="6.83754">
        <ele>2367.1814</ele>
        <time>2015-08-24T15:34:36Z</time>
      </trkpt>
      <trkpt lat="45.34604" lon="6.83755">
        <ele>2367.1814</ele>
        <time>2015-08-24T15:34:41Z</time>
      </trkpt>
      <trkpt lat="45.34604" lon="6.83754">
        <ele>2367.1814</ele>
        <time>2015-08-24T15:34:46Z</time>
      </trkpt>
    </trkseg>
  </trk>
</gpx>